<?xml version="1.0" encoding="UTF-8" standalone="no" ?>
<gpx xmlns="http://www.topografix.com/GPX/1/1" xmlns:xsi="http://www.w3.org/2001/XMLSchema-instance" xsi:schemaLocation="http://www.topografix.com/GPX/1/1 http://www.topografix.com/GPX/1/1/gpx.xsd" version="1.1" creator="VisuGPX - https://www.visugpx.com">
  <metadata>
    <name>Vercors19-1vtt</name>
    <desc><![CDATA[Le tour de la montagne de Beurre à partir Du hameau de Rousset en Vercors]]></desc>
  </metadata>
  <trk>
    <name><![CDATA[Vercors19-1vtt]]></name>
    <trkseg>
      <trkpt lat="44.87" lon="5.41641">
        <ele>904.88</ele>
        <time>2019-08-25T07:53:50Z</time>
      </trkpt>
      <trkpt lat="44.86959" lon="5.41604">
        <ele>904.79</ele>
        <time>2019-08-25T07:54:07Z</time>
      </trkpt>
      <trkpt lat="44.86989" lon="5.41628">
        <ele>933.98</ele>
        <time>2019-08-25T08:03:21Z</time>
      </trkpt>
      <trkpt lat="44.86989" lon="5.41629">
        <ele>933.98</ele>
        <time>2019-08-25T08:03:22Z</time>
      </trkpt>
      <trkpt lat="44.86998" lon="5.41644">
        <ele>934.04</ele>
        <time>2019-08-25T08:03:41Z</time>
      </trkpt>
      <trkpt lat="44.86994" lon="5.41634">
        <ele>934.13</ele>
        <time>2019-08-25T08:04:07Z</time>
      </trkpt>
      <trkpt lat="44.86993" lon="5.41633">
        <ele>933.71</ele>
        <time>2019-08-25T08:04:35Z</time>
      </trkpt>
      <trkpt lat="44.86996" lon="5.41634">
        <ele>933.81</ele>
        <time>2019-08-25T08:05:05Z</time>
      </trkpt>
      <trkpt lat="44.86994" lon="5.41632">
        <ele>933.24</ele>
        <time>2019-08-25T08:05:34Z</time>
      </trkpt>
      <trkpt lat="44.87001" lon="5.41637">
        <ele>933.09</ele>
        <time>2019-08-25T08:06:03Z</time>
      </trkpt>
      <trkpt lat="44.86992" lon="5.4163">
        <ele>932.9</ele>
        <time>2019-08-25T08:06:30Z</time>
      </trkpt>
      <trkpt lat="44.86993" lon="5.41633">
        <ele>932.9</ele>
        <time>2019-08-25T08:07:00Z</time>
      </trkpt>
      <trkpt lat="44.86991" lon="5.41629">
        <ele>932.41</ele>
        <time>2019-08-25T08:07:29Z</time>
      </trkpt>
      <trkpt lat="44.86986" lon="5.41632">
        <ele>932.11</ele>
        <time>2019-08-25T08:08:00Z</time>
      </trkpt>
      <trkpt lat="44.86987" lon="5.41637">
        <ele>932.06</ele>
        <time>2019-08-25T08:08:26Z</time>
      </trkpt>
      <trkpt lat="44.8699" lon="5.41635">
        <ele>932.01</ele>
        <time>2019-08-25T08:08:51Z</time>
      </trkpt>
      <trkpt lat="44.87003" lon="5.41644">
        <ele>931.17</ele>
        <time>2019-08-25T08:09:15Z</time>
      </trkpt>
      <trkpt lat="44.87006" lon="5.41646">
        <ele>930.92</ele>
        <time>2019-08-25T08:09:41Z</time>
      </trkpt>
      <trkpt lat="44.87011" lon="5.41651">
        <ele>930.79</ele>
        <time>2019-08-25T08:09:46Z</time>
      </trkpt>
      <trkpt lat="44.87026" lon="5.41672">
        <ele>930.04</ele>
        <time>2019-08-25T08:09:56Z</time>
      </trkpt>
      <trkpt lat="44.87026" lon="5.41675">
        <ele>929.98</ele>
        <time>2019-08-25T08:09:57Z</time>
      </trkpt>
      <trkpt lat="44.87028" lon="5.41682">
        <ele>929.73</ele>
        <time>2019-08-25T08:10:00Z</time>
      </trkpt>
      <trkpt lat="44.8703" lon="5.41683">
        <ele>929.66</ele>
        <time>2019-08-25T08:10:01Z</time>
      </trkpt>
      <trkpt lat="44.87032" lon="5.41683">
        <ele>929.61</ele>
        <time>2019-08-25T08:10:02Z</time>
      </trkpt>
      <trkpt lat="44.87033" lon="5.41681">
        <ele>929.56</ele>
        <time>2019-08-25T08:10:03Z</time>
      </trkpt>
      <trkpt lat="44.87034" lon="5.41679">
        <ele>929.5</ele>
        <time>2019-08-25T08:10:04Z</time>
      </trkpt>
      <trkpt lat="44.87033" lon="5.41678">
        <ele>929.47</ele>
        <time>2019-08-25T08:10:05Z</time>
      </trkpt>
      <trkpt lat="44.87032" lon="5.41677">
        <ele>929.44</ele>
        <time>2019-08-25T08:10:06Z</time>
      </trkpt>
      <trkpt lat="44.87032" lon="5.41675">
        <ele>929.43</ele>
        <time>2019-08-25T08:10:07Z</time>
      </trkpt>
      <trkpt lat="44.87031" lon="5.41674">
        <ele>929.43</ele>
        <time>2019-08-25T08:10:08Z</time>
      </trkpt>
      <trkpt lat="44.87024" lon="5.41674">
        <ele>929.51</ele>
        <time>2019-08-25T08:10:19Z</time>
      </trkpt>
      <trkpt lat="44.87018" lon="5.41661">
        <ele>929.82</ele>
        <time>2019-08-25T08:10:36Z</time>
      </trkpt>
      <trkpt lat="44.87022" lon="5.41667">
        <ele>929.61</ele>
        <time>2019-08-25T08:10:45Z</time>
      </trkpt>
      <trkpt lat="44.87023" lon="5.41669">
        <ele>929.58</ele>
        <time>2019-08-25T08:10:46Z</time>
      </trkpt>
      <trkpt lat="44.87023" lon="5.41671">
        <ele>929.53</ele>
        <time>2019-08-25T08:10:47Z</time>
      </trkpt>
      <trkpt lat="44.87024" lon="5.41672">
        <ele>929.46</ele>
        <time>2019-08-25T08:10:48Z</time>
      </trkpt>
      <trkpt lat="44.87024" lon="5.41675">
        <ele>929.4</ele>
        <time>2019-08-25T08:10:49Z</time>
      </trkpt>
      <trkpt lat="44.87024" lon="5.41677">
        <ele>929.35</ele>
        <time>2019-08-25T08:10:50Z</time>
      </trkpt>
      <trkpt lat="44.87024" lon="5.41679">
        <ele>929.31</ele>
        <time>2019-08-25T08:10:51Z</time>
      </trkpt>
      <trkpt lat="44.87025" lon="5.4168">
        <ele>929.29</ele>
        <time>2019-08-25T08:10:52Z</time>
      </trkpt>
      <trkpt lat="44.87026" lon="5.41681">
        <ele>929.27</ele>
        <time>2019-08-25T08:10:53Z</time>
      </trkpt>
      <trkpt lat="44.87028" lon="5.41682">
        <ele>929.25</ele>
        <time>2019-08-25T08:10:54Z</time>
      </trkpt>
      <trkpt lat="44.87052" lon="5.41696">
        <ele>928.96</ele>
        <time>2019-08-25T08:11:07Z</time>
      </trkpt>
      <trkpt lat="44.87094" lon="5.41696">
        <ele>928.28</ele>
        <time>2019-08-25T08:11:14Z</time>
      </trkpt>
      <trkpt lat="44.87188" lon="5.41686">
        <ele>925.77</ele>
        <time>2019-08-25T08:11:27Z</time>
      </trkpt>
      <trkpt lat="44.87219" lon="5.41695">
        <ele>924.97</ele>
        <time>2019-08-25T08:11:31Z</time>
      </trkpt>
      <trkpt lat="44.87307" lon="5.41732">
        <ele>921.8</ele>
        <time>2019-08-25T08:11:41Z</time>
      </trkpt>
      <trkpt lat="44.87378" lon="5.41763">
        <ele>918.72</ele>
        <time>2019-08-25T08:11:49Z</time>
      </trkpt>
      <trkpt lat="44.87465" lon="5.418">
        <ele>915.54</ele>
        <time>2019-08-25T08:11:59Z</time>
      </trkpt>
      <trkpt lat="44.87572" lon="5.41842">
        <ele>912.35</ele>
        <time>2019-08-25T08:12:12Z</time>
      </trkpt>
      <trkpt lat="44.87596" lon="5.41851">
        <ele>910.99</ele>
        <time>2019-08-25T08:12:15Z</time>
      </trkpt>
      <trkpt lat="44.87662" lon="5.41872">
        <ele>909.22</ele>
        <time>2019-08-25T08:12:24Z</time>
      </trkpt>
      <trkpt lat="44.87669" lon="5.41875">
        <ele>909.03</ele>
        <time>2019-08-25T08:12:25Z</time>
      </trkpt>
      <trkpt lat="44.87711" lon="5.41892">
        <ele>907.9</ele>
        <time>2019-08-25T08:12:31Z</time>
      </trkpt>
      <trkpt lat="44.87719" lon="5.41894">
        <ele>906.78</ele>
        <time>2019-08-25T08:12:38Z</time>
      </trkpt>
      <trkpt lat="44.87729" lon="5.41895">
        <ele>906.04</ele>
        <time>2019-08-25T08:12:56Z</time>
      </trkpt>
      <trkpt lat="44.87756" lon="5.41903">
        <ele>905.85</ele>
        <time>2019-08-25T08:13:04Z</time>
      </trkpt>
      <trkpt lat="44.87828" lon="5.41926">
        <ele>904.93</ele>
        <time>2019-08-25T08:13:13Z</time>
      </trkpt>
      <trkpt lat="44.87922" lon="5.41948">
        <ele>903.51</ele>
        <time>2019-08-25T08:13:23Z</time>
      </trkpt>
      <trkpt lat="44.87955" lon="5.41957">
        <ele>902.49</ele>
        <time>2019-08-25T08:13:27Z</time>
      </trkpt>
      <trkpt lat="44.87961" lon="5.41961">
        <ele>902.29</ele>
        <time>2019-08-25T08:13:28Z</time>
      </trkpt>
      <trkpt lat="44.87966" lon="5.41967">
        <ele>902.13</ele>
        <time>2019-08-25T08:13:29Z</time>
      </trkpt>
      <trkpt lat="44.87972" lon="5.41972">
        <ele>902.01</ele>
        <time>2019-08-25T08:13:30Z</time>
      </trkpt>
      <trkpt lat="44.87977" lon="5.41975">
        <ele>901.95</ele>
        <time>2019-08-25T08:13:31Z</time>
      </trkpt>
      <trkpt lat="44.87988" lon="5.41984">
        <ele>902.03</ele>
        <time>2019-08-25T08:13:34Z</time>
      </trkpt>
      <trkpt lat="44.88008" lon="5.41994">
        <ele>903.76</ele>
        <time>2019-08-25T08:13:44Z</time>
      </trkpt>
      <trkpt lat="44.88029" lon="5.42002">
        <ele>905.71</ele>
        <time>2019-08-25T08:13:56Z</time>
      </trkpt>
      <trkpt lat="44.8804" lon="5.42007">
        <ele>906.6</ele>
        <time>2019-08-25T08:14:03Z</time>
      </trkpt>
      <trkpt lat="44.88043" lon="5.4201">
        <ele>906.83</ele>
        <time>2019-08-25T08:14:05Z</time>
      </trkpt>
      <trkpt lat="44.88045" lon="5.42012">
        <ele>906.93</ele>
        <time>2019-08-25T08:14:06Z</time>
      </trkpt>
      <trkpt lat="44.88074" lon="5.42031">
        <ele>908.15</ele>
        <time>2019-08-25T08:14:19Z</time>
      </trkpt>
      <trkpt lat="44.88097" lon="5.42046">
        <ele>909.3</ele>
        <time>2019-08-25T08:14:31Z</time>
      </trkpt>
      <trkpt lat="44.88128" lon="5.42061">
        <ele>910.04</ele>
        <time>2019-08-25T08:14:42Z</time>
      </trkpt>
      <trkpt lat="44.88131" lon="5.42062">
        <ele>910.08</ele>
        <time>2019-08-25T08:14:43Z</time>
      </trkpt>
      <trkpt lat="44.88134" lon="5.42063">
        <ele>910.14</ele>
        <time>2019-08-25T08:14:44Z</time>
      </trkpt>
      <trkpt lat="44.88137" lon="5.42065">
        <ele>910.21</ele>
        <time>2019-08-25T08:14:45Z</time>
      </trkpt>
      <trkpt lat="44.88139" lon="5.42066">
        <ele>910.29</ele>
        <time>2019-08-25T08:14:46Z</time>
      </trkpt>
      <trkpt lat="44.88141" lon="5.42068">
        <ele>910.36</ele>
        <time>2019-08-25T08:14:47Z</time>
      </trkpt>
      <trkpt lat="44.8817" lon="5.42083">
        <ele>911.33</ele>
        <time>2019-08-25T08:14:59Z</time>
      </trkpt>
      <trkpt lat="44.88204" lon="5.42101">
        <ele>912.71</ele>
        <time>2019-08-25T08:15:13Z</time>
      </trkpt>
      <trkpt lat="44.8823" lon="5.42124">
        <ele>914.01</ele>
        <time>2019-08-25T08:15:27Z</time>
      </trkpt>
      <trkpt lat="44.88236" lon="5.42136">
        <ele>914.81</ele>
        <time>2019-08-25T08:15:32Z</time>
      </trkpt>
      <trkpt lat="44.88238" lon="5.42138">
        <ele>914.92</ele>
        <time>2019-08-25T08:15:33Z</time>
      </trkpt>
      <trkpt lat="44.8824" lon="5.42141">
        <ele>914.99</ele>
        <time>2019-08-25T08:15:34Z</time>
      </trkpt>
      <trkpt lat="44.88241" lon="5.42144">
        <ele>915.07</ele>
        <time>2019-08-25T08:15:35Z</time>
      </trkpt>
      <trkpt lat="44.88242" lon="5.42149">
        <ele>915.13</ele>
        <time>2019-08-25T08:15:36Z</time>
      </trkpt>
      <trkpt lat="44.88243" lon="5.42153">
        <ele>915.2</ele>
        <time>2019-08-25T08:15:37Z</time>
      </trkpt>
      <trkpt lat="44.88245" lon="5.42155">
        <ele>915.28</ele>
        <time>2019-08-25T08:15:38Z</time>
      </trkpt>
      <trkpt lat="44.88246" lon="5.42156">
        <ele>915.39</ele>
        <time>2019-08-25T08:15:39Z</time>
      </trkpt>
      <trkpt lat="44.88248" lon="5.42158">
        <ele>915.5</ele>
        <time>2019-08-25T08:15:40Z</time>
      </trkpt>
      <trkpt lat="44.88258" lon="5.42166">
        <ele>916.36</ele>
        <time>2019-08-25T08:15:47Z</time>
      </trkpt>
      <trkpt lat="44.88274" lon="5.42178">
        <ele>917.29</ele>
        <time>2019-08-25T08:15:56Z</time>
      </trkpt>
      <trkpt lat="44.88288" lon="5.42191">
        <ele>918.53</ele>
        <time>2019-08-25T08:16:05Z</time>
      </trkpt>
      <trkpt lat="44.88303" lon="5.42205">
        <ele>920.08</ele>
        <time>2019-08-25T08:16:15Z</time>
      </trkpt>
      <trkpt lat="44.88309" lon="5.42213">
        <ele>920.79</ele>
        <time>2019-08-25T08:16:19Z</time>
      </trkpt>
      <trkpt lat="44.88322" lon="5.42221">
        <ele>922.3</ele>
        <time>2019-08-25T08:16:26Z</time>
      </trkpt>
      <trkpt lat="44.88342" lon="5.42235">
        <ele>923.71</ele>
        <time>2019-08-25T08:16:35Z</time>
      </trkpt>
      <trkpt lat="44.88355" lon="5.42241">
        <ele>924.42</ele>
        <time>2019-08-25T08:16:40Z</time>
      </trkpt>
      <trkpt lat="44.88358" lon="5.42243">
        <ele>924.58</ele>
        <time>2019-08-25T08:16:41Z</time>
      </trkpt>
      <trkpt lat="44.8836" lon="5.42244">
        <ele>924.75</ele>
        <time>2019-08-25T08:16:42Z</time>
      </trkpt>
      <trkpt lat="44.88362" lon="5.42246">
        <ele>924.91</ele>
        <time>2019-08-25T08:16:43Z</time>
      </trkpt>
      <trkpt lat="44.88364" lon="5.42247">
        <ele>925.17</ele>
        <time>2019-08-25T08:16:44Z</time>
      </trkpt>
      <trkpt lat="44.88366" lon="5.42249">
        <ele>925.31</ele>
        <time>2019-08-25T08:16:45Z</time>
      </trkpt>
      <trkpt lat="44.88368" lon="5.42251">
        <ele>925.46</ele>
        <time>2019-08-25T08:16:46Z</time>
      </trkpt>
      <trkpt lat="44.88369" lon="5.42251">
        <ele>925.6</ele>
        <time>2019-08-25T08:16:47Z</time>
      </trkpt>
      <trkpt lat="44.8837" lon="5.42253">
        <ele>925.73</ele>
        <time>2019-08-25T08:16:48Z</time>
      </trkpt>
      <trkpt lat="44.88374" lon="5.42261">
        <ele>926.2</ele>
        <time>2019-08-25T08:16:52Z</time>
      </trkpt>
      <trkpt lat="44.88386" lon="5.42282">
        <ele>927.49</ele>
        <time>2019-08-25T08:17:02Z</time>
      </trkpt>
      <trkpt lat="44.88389" lon="5.42303">
        <ele>929.04</ele>
        <time>2019-08-25T08:17:10Z</time>
      </trkpt>
      <trkpt lat="44.88389" lon="5.42307">
        <ele>929.22</ele>
        <time>2019-08-25T08:17:11Z</time>
      </trkpt>
      <trkpt lat="44.88389" lon="5.42317">
        <ele>929.68</ele>
        <time>2019-08-25T08:17:14Z</time>
      </trkpt>
      <trkpt lat="44.88393" lon="5.42338">
        <ele>930.81</ele>
        <time>2019-08-25T08:17:23Z</time>
      </trkpt>
      <trkpt lat="44.88397" lon="5.42355">
        <ele>932.11</ele>
        <time>2019-08-25T08:17:31Z</time>
      </trkpt>
      <trkpt lat="44.88399" lon="5.42359">
        <ele>932.52</ele>
        <time>2019-08-25T08:17:33Z</time>
      </trkpt>
      <trkpt lat="44.884" lon="5.42392">
        <ele>934.28</ele>
        <time>2019-08-25T08:17:44Z</time>
      </trkpt>
      <trkpt lat="44.88401" lon="5.42395">
        <ele>934.42</ele>
        <time>2019-08-25T08:17:45Z</time>
      </trkpt>
      <trkpt lat="44.88402" lon="5.42397">
        <ele>934.55</ele>
        <time>2019-08-25T08:17:46Z</time>
      </trkpt>
      <trkpt lat="44.88402" lon="5.42399">
        <ele>934.65</ele>
        <time>2019-08-25T08:17:47Z</time>
      </trkpt>
      <trkpt lat="44.88403" lon="5.42402">
        <ele>934.87</ele>
        <time>2019-08-25T08:17:49Z</time>
      </trkpt>
      <trkpt lat="44.88405" lon="5.42404">
        <ele>934.98</ele>
        <time>2019-08-25T08:17:50Z</time>
      </trkpt>
      <trkpt lat="44.88411" lon="5.42406">
        <ele>935.44</ele>
        <time>2019-08-25T08:17:56Z</time>
      </trkpt>
      <trkpt lat="44.88427" lon="5.42401">
        <ele>936.54</ele>
        <time>2019-08-25T08:18:06Z</time>
      </trkpt>
      <trkpt lat="44.88445" lon="5.42392">
        <ele>938.05</ele>
        <time>2019-08-25T08:18:18Z</time>
      </trkpt>
      <trkpt lat="44.88448" lon="5.42388">
        <ele>938.51</ele>
        <time>2019-08-25T08:18:21Z</time>
      </trkpt>
      <trkpt lat="44.88449" lon="5.42388">
        <ele>938.51</ele>
        <time>2019-08-25T08:18:22Z</time>
      </trkpt>
      <trkpt lat="44.8845" lon="5.42388">
        <ele>938.71</ele>
        <time>2019-08-25T08:18:23Z</time>
      </trkpt>
      <trkpt lat="44.88452" lon="5.42388">
        <ele>938.82</ele>
        <time>2019-08-25T08:18:24Z</time>
      </trkpt>
      <trkpt lat="44.88453" lon="5.42387">
        <ele>938.94</ele>
        <time>2019-08-25T08:18:25Z</time>
      </trkpt>
      <trkpt lat="44.88455" lon="5.42386">
        <ele>939.2</ele>
        <time>2019-08-25T08:18:27Z</time>
      </trkpt>
      <trkpt lat="44.88456" lon="5.42386">
        <ele>939.36</ele>
        <time>2019-08-25T08:18:28Z</time>
      </trkpt>
      <trkpt lat="44.88459" lon="5.42386">
        <ele>939.61</ele>
        <time>2019-08-25T08:18:30Z</time>
      </trkpt>
      <trkpt lat="44.8846" lon="5.42387">
        <ele>939.71</ele>
        <time>2019-08-25T08:18:31Z</time>
      </trkpt>
      <trkpt lat="44.88461" lon="5.42388">
        <ele>939.8</ele>
        <time>2019-08-25T08:18:32Z</time>
      </trkpt>
      <trkpt lat="44.88468" lon="5.42404">
        <ele>940.83</ele>
        <time>2019-08-25T08:18:42Z</time>
      </trkpt>
      <trkpt lat="44.88469" lon="5.42405">
        <ele>940.91</ele>
        <time>2019-08-25T08:18:43Z</time>
      </trkpt>
      <trkpt lat="44.8847" lon="5.42407">
        <ele>941.01</ele>
        <time>2019-08-25T08:18:44Z</time>
      </trkpt>
      <trkpt lat="44.88471" lon="5.42408">
        <ele>941.29</ele>
        <time>2019-08-25T08:18:45Z</time>
      </trkpt>
      <trkpt lat="44.88473" lon="5.4241">
        <ele>941.29</ele>
        <time>2019-08-25T08:18:46Z</time>
      </trkpt>
      <trkpt lat="44.88474" lon="5.42411">
        <ele>941.52</ele>
        <time>2019-08-25T08:18:47Z</time>
      </trkpt>
      <trkpt lat="44.88476" lon="5.42413">
        <ele>941.62</ele>
        <time>2019-08-25T08:18:48Z</time>
      </trkpt>
      <trkpt lat="44.88476" lon="5.42415">
        <ele>941.74</ele>
        <time>2019-08-25T08:18:49Z</time>
      </trkpt>
      <trkpt lat="44.88476" lon="5.42417">
        <ele>941.91</ele>
        <time>2019-08-25T08:18:50Z</time>
      </trkpt>
      <trkpt lat="44.88476" lon="5.42418">
        <ele>942.08</ele>
        <time>2019-08-25T08:18:51Z</time>
      </trkpt>
      <trkpt lat="44.88484" lon="5.42433">
        <ele>943.03</ele>
        <time>2019-08-25T08:18:59Z</time>
      </trkpt>
      <trkpt lat="44.88499" lon="5.42446">
        <ele>944.39</ele>
        <time>2019-08-25T08:19:10Z</time>
      </trkpt>
      <trkpt lat="44.885" lon="5.42445">
        <ele>944.66</ele>
        <time>2019-08-25T08:19:11Z</time>
      </trkpt>
      <trkpt lat="44.88502" lon="5.42444">
        <ele>944.78</ele>
        <time>2019-08-25T08:19:12Z</time>
      </trkpt>
      <trkpt lat="44.88515" lon="5.42433">
        <ele>946.15</ele>
        <time>2019-08-25T08:19:22Z</time>
      </trkpt>
      <trkpt lat="44.88517" lon="5.42432">
        <ele>946.33</ele>
        <time>2019-08-25T08:19:23Z</time>
      </trkpt>
      <trkpt lat="44.88518" lon="5.4243">
        <ele>946.53</ele>
        <time>2019-08-25T08:19:24Z</time>
      </trkpt>
      <trkpt lat="44.88519" lon="5.42429">
        <ele>946.71</ele>
        <time>2019-08-25T08:19:25Z</time>
      </trkpt>
      <trkpt lat="44.8852" lon="5.42427">
        <ele>946.86</ele>
        <time>2019-08-25T08:19:26Z</time>
      </trkpt>
      <trkpt lat="44.88524" lon="5.42424">
        <ele>947.2</ele>
        <time>2019-08-25T08:19:29Z</time>
      </trkpt>
      <trkpt lat="44.88541" lon="5.42412">
        <ele>948.75</ele>
        <time>2019-08-25T08:19:41Z</time>
      </trkpt>
      <trkpt lat="44.88545" lon="5.42408">
        <ele>949.1</ele>
        <time>2019-08-25T08:19:44Z</time>
      </trkpt>
      <trkpt lat="44.88546" lon="5.42406">
        <ele>949.22</ele>
        <time>2019-08-25T08:19:45Z</time>
      </trkpt>
      <trkpt lat="44.88547" lon="5.42405">
        <ele>949.36</ele>
        <time>2019-08-25T08:19:46Z</time>
      </trkpt>
      <trkpt lat="44.88548" lon="5.42403">
        <ele>949.49</ele>
        <time>2019-08-25T08:19:47Z</time>
      </trkpt>
      <trkpt lat="44.88549" lon="5.424">
        <ele>949.63</ele>
        <time>2019-08-25T08:19:48Z</time>
      </trkpt>
      <trkpt lat="44.8855" lon="5.42399">
        <ele>949.77</ele>
        <time>2019-08-25T08:19:49Z</time>
      </trkpt>
      <trkpt lat="44.88552" lon="5.42398">
        <ele>949.9</ele>
        <time>2019-08-25T08:19:50Z</time>
      </trkpt>
      <trkpt lat="44.88553" lon="5.42396">
        <ele>950.03</ele>
        <time>2019-08-25T08:19:51Z</time>
      </trkpt>
      <trkpt lat="44.88554" lon="5.42395">
        <ele>950.17</ele>
        <time>2019-08-25T08:19:52Z</time>
      </trkpt>
      <trkpt lat="44.88555" lon="5.42393">
        <ele>950.28</ele>
        <time>2019-08-25T08:19:53Z</time>
      </trkpt>
      <trkpt lat="44.88557" lon="5.42392">
        <ele>950.36</ele>
        <time>2019-08-25T08:19:54Z</time>
      </trkpt>
      <trkpt lat="44.88558" lon="5.4239">
        <ele>950.48</ele>
        <time>2019-08-25T08:19:55Z</time>
      </trkpt>
      <trkpt lat="44.88579" lon="5.42381">
        <ele>952.37</ele>
        <time>2019-08-25T08:20:08Z</time>
      </trkpt>
      <trkpt lat="44.88599" lon="5.42386">
        <ele>953.45</ele>
        <time>2019-08-25T08:20:20Z</time>
      </trkpt>
      <trkpt lat="44.88601" lon="5.42386">
        <ele>953.55</ele>
        <time>2019-08-25T08:20:21Z</time>
      </trkpt>
      <trkpt lat="44.88606" lon="5.42389">
        <ele>954.02</ele>
        <time>2019-08-25T08:20:25Z</time>
      </trkpt>
      <trkpt lat="44.88608" lon="5.42389">
        <ele>954.1</ele>
        <time>2019-08-25T08:20:26Z</time>
      </trkpt>
      <trkpt lat="44.88609" lon="5.4239">
        <ele>954.2</ele>
        <time>2019-08-25T08:20:27Z</time>
      </trkpt>
      <trkpt lat="44.88611" lon="5.4239">
        <ele>954.33</ele>
        <time>2019-08-25T08:20:28Z</time>
      </trkpt>
      <trkpt lat="44.88613" lon="5.4239">
        <ele>954.5</ele>
        <time>2019-08-25T08:20:29Z</time>
      </trkpt>
      <trkpt lat="44.88615" lon="5.42391">
        <ele>954.68</ele>
        <time>2019-08-25T08:20:30Z</time>
      </trkpt>
      <trkpt lat="44.88616" lon="5.42392">
        <ele>954.87</ele>
        <time>2019-08-25T08:20:31Z</time>
      </trkpt>
      <trkpt lat="44.88618" lon="5.42393">
        <ele>955.04</ele>
        <time>2019-08-25T08:20:32Z</time>
      </trkpt>
      <trkpt lat="44.8862" lon="5.42394">
        <ele>955.2</ele>
        <time>2019-08-25T08:20:33Z</time>
      </trkpt>
      <trkpt lat="44.88622" lon="5.42395">
        <ele>955.35</ele>
        <time>2019-08-25T08:20:34Z</time>
      </trkpt>
      <trkpt lat="44.88624" lon="5.42395">
        <ele>955.5</ele>
        <time>2019-08-25T08:20:35Z</time>
      </trkpt>
      <trkpt lat="44.88625" lon="5.42396">
        <ele>955.65</ele>
        <time>2019-08-25T08:20:36Z</time>
      </trkpt>
      <trkpt lat="44.88627" lon="5.42396">
        <ele>955.8</ele>
        <time>2019-08-25T08:20:37Z</time>
      </trkpt>
      <trkpt lat="44.88628" lon="5.42396">
        <ele>955.97</ele>
        <time>2019-08-25T08:20:38Z</time>
      </trkpt>
      <trkpt lat="44.88637" lon="5.424">
        <ele>956.75</ele>
        <time>2019-08-25T08:20:44Z</time>
      </trkpt>
      <trkpt lat="44.88639" lon="5.42401">
        <ele>956.83</ele>
        <time>2019-08-25T08:20:45Z</time>
      </trkpt>
      <trkpt lat="44.88657" lon="5.42409">
        <ele>958.02</ele>
        <time>2019-08-25T08:20:55Z</time>
      </trkpt>
      <trkpt lat="44.88659" lon="5.4241">
        <ele>958.12</ele>
        <time>2019-08-25T08:20:56Z</time>
      </trkpt>
      <trkpt lat="44.88661" lon="5.42411">
        <ele>958.2</ele>
        <time>2019-08-25T08:20:57Z</time>
      </trkpt>
      <trkpt lat="44.88663" lon="5.42411">
        <ele>958.28</ele>
        <time>2019-08-25T08:20:58Z</time>
      </trkpt>
      <trkpt lat="44.88664" lon="5.42411">
        <ele>958.35</ele>
        <time>2019-08-25T08:20:59Z</time>
      </trkpt>
      <trkpt lat="44.88666" lon="5.42412">
        <ele>958.43</ele>
        <time>2019-08-25T08:21:00Z</time>
      </trkpt>
      <trkpt lat="44.88686" lon="5.42423">
        <ele>960.19</ele>
        <time>2019-08-25T08:21:13Z</time>
      </trkpt>
      <trkpt lat="44.88705" lon="5.42438">
        <ele>961.68</ele>
        <time>2019-08-25T08:21:25Z</time>
      </trkpt>
      <trkpt lat="44.88709" lon="5.42443">
        <ele>962.01</ele>
        <time>2019-08-25T08:21:29Z</time>
      </trkpt>
      <trkpt lat="44.88711" lon="5.42445">
        <ele>962.08</ele>
        <time>2019-08-25T08:21:30Z</time>
      </trkpt>
      <trkpt lat="44.88715" lon="5.42471">
        <ele>963.34</ele>
        <time>2019-08-25T08:21:40Z</time>
      </trkpt>
      <trkpt lat="44.88703" lon="5.42495">
        <ele>965.26</ele>
        <time>2019-08-25T08:21:51Z</time>
      </trkpt>
      <trkpt lat="44.88703" lon="5.42497">
        <ele>965.41</ele>
        <time>2019-08-25T08:21:52Z</time>
      </trkpt>
      <trkpt lat="44.88703" lon="5.42502">
        <ele>965.75</ele>
        <time>2019-08-25T08:21:54Z</time>
      </trkpt>
      <trkpt lat="44.88702" lon="5.42504">
        <ele>965.91</ele>
        <time>2019-08-25T08:21:55Z</time>
      </trkpt>
      <trkpt lat="44.88701" lon="5.42506">
        <ele>966.04</ele>
        <time>2019-08-25T08:21:56Z</time>
      </trkpt>
      <trkpt lat="44.88687" lon="5.42518">
        <ele>967.1</ele>
        <time>2019-08-25T08:22:05Z</time>
      </trkpt>
      <trkpt lat="44.88685" lon="5.42519">
        <ele>967.21</ele>
        <time>2019-08-25T08:22:06Z</time>
      </trkpt>
      <trkpt lat="44.88682" lon="5.42522">
        <ele>967.37</ele>
        <time>2019-08-25T08:22:08Z</time>
      </trkpt>
      <trkpt lat="44.88673" lon="5.42548">
        <ele>968.44</ele>
        <time>2019-08-25T08:22:19Z</time>
      </trkpt>
      <trkpt lat="44.88673" lon="5.4255">
        <ele>968.56</ele>
        <time>2019-08-25T08:22:20Z</time>
      </trkpt>
      <trkpt lat="44.88674" lon="5.42553">
        <ele>968.7</ele>
        <time>2019-08-25T08:22:21Z</time>
      </trkpt>
      <trkpt lat="44.88675" lon="5.42555">
        <ele>968.83</ele>
        <time>2019-08-25T08:22:22Z</time>
      </trkpt>
      <trkpt lat="44.88683" lon="5.4257">
        <ele>969.71</ele>
        <time>2019-08-25T08:22:30Z</time>
      </trkpt>
      <trkpt lat="44.88689" lon="5.42583">
        <ele>970.27</ele>
        <time>2019-08-25T08:22:36Z</time>
      </trkpt>
      <trkpt lat="44.8869" lon="5.42585">
        <ele>970.47</ele>
        <time>2019-08-25T08:22:37Z</time>
      </trkpt>
      <trkpt lat="44.88692" lon="5.42586">
        <ele>970.57</ele>
        <time>2019-08-25T08:22:38Z</time>
      </trkpt>
      <trkpt lat="44.88694" lon="5.42587">
        <ele>970.68</ele>
        <time>2019-08-25T08:22:39Z</time>
      </trkpt>
      <trkpt lat="44.88695" lon="5.42588">
        <ele>970.78</ele>
        <time>2019-08-25T08:22:40Z</time>
      </trkpt>
      <trkpt lat="44.88716" lon="5.42601">
        <ele>972.23</ele>
        <time>2019-08-25T08:22:52Z</time>
      </trkpt>
      <trkpt lat="44.88736" lon="5.42616">
        <ele>973.54</ele>
        <time>2019-08-25T08:23:04Z</time>
      </trkpt>
      <trkpt lat="44.88749" lon="5.42634">
        <ele>975.29</ele>
        <time>2019-08-25T08:23:13Z</time>
      </trkpt>
      <trkpt lat="44.88751" lon="5.42636">
        <ele>975.44</ele>
        <time>2019-08-25T08:23:14Z</time>
      </trkpt>
      <trkpt lat="44.88752" lon="5.42639">
        <ele>975.58</ele>
        <time>2019-08-25T08:23:15Z</time>
      </trkpt>
      <trkpt lat="44.88752" lon="5.42641">
        <ele>975.71</ele>
        <time>2019-08-25T08:23:16Z</time>
      </trkpt>
      <trkpt lat="44.88753" lon="5.42643">
        <ele>975.84</ele>
        <time>2019-08-25T08:23:17Z</time>
      </trkpt>
      <trkpt lat="44.88754" lon="5.42644">
        <ele>975.97</ele>
        <time>2019-08-25T08:23:18Z</time>
      </trkpt>
      <trkpt lat="44.88756" lon="5.42646">
        <ele>976.11</ele>
        <time>2019-08-25T08:23:19Z</time>
      </trkpt>
      <trkpt lat="44.88757" lon="5.42648">
        <ele>976.23</ele>
        <time>2019-08-25T08:23:20Z</time>
      </trkpt>
      <trkpt lat="44.88765" lon="5.42673">
        <ele>978.13</ele>
        <time>2019-08-25T08:23:31Z</time>
      </trkpt>
      <trkpt lat="44.88779" lon="5.42697">
        <ele>979.61</ele>
        <time>2019-08-25T08:23:43Z</time>
      </trkpt>
      <trkpt lat="44.88786" lon="5.42718">
        <ele>981.84</ele>
        <time>2019-08-25T08:23:55Z</time>
      </trkpt>
      <trkpt lat="44.88787" lon="5.42723">
        <ele>982.21</ele>
        <time>2019-08-25T08:23:57Z</time>
      </trkpt>
      <trkpt lat="44.88787" lon="5.42725">
        <ele>982.38</ele>
        <time>2019-08-25T08:23:58Z</time>
      </trkpt>
      <trkpt lat="44.88787" lon="5.42728">
        <ele>982.54</ele>
        <time>2019-08-25T08:23:59Z</time>
      </trkpt>
      <trkpt lat="44.88787" lon="5.42731">
        <ele>982.69</ele>
        <time>2019-08-25T08:24:00Z</time>
      </trkpt>
      <trkpt lat="44.88788" lon="5.42734">
        <ele>982.83</ele>
        <time>2019-08-25T08:24:01Z</time>
      </trkpt>
      <trkpt lat="44.88788" lon="5.42737">
        <ele>982.97</ele>
        <time>2019-08-25T08:24:02Z</time>
      </trkpt>
      <trkpt lat="44.88788" lon="5.42744">
        <ele>983.29</ele>
        <time>2019-08-25T08:24:04Z</time>
      </trkpt>
      <trkpt lat="44.888" lon="5.42773">
        <ele>984.65</ele>
        <time>2019-08-25T08:24:15Z</time>
      </trkpt>
      <trkpt lat="44.88802" lon="5.42777">
        <ele>985.08</ele>
        <time>2019-08-25T08:24:17Z</time>
      </trkpt>
      <trkpt lat="44.88803" lon="5.42779">
        <ele>985.26</ele>
        <time>2019-08-25T08:24:18Z</time>
      </trkpt>
      <trkpt lat="44.88805" lon="5.42781">
        <ele>985.47</ele>
        <time>2019-08-25T08:24:19Z</time>
      </trkpt>
      <trkpt lat="44.88805" lon="5.42782">
        <ele>985.67</ele>
        <time>2019-08-25T08:24:20Z</time>
      </trkpt>
      <trkpt lat="44.88812" lon="5.42794">
        <ele>986.79</ele>
        <time>2019-08-25T08:24:27Z</time>
      </trkpt>
      <trkpt lat="44.88822" lon="5.42815">
        <ele>988.34</ele>
        <time>2019-08-25T08:24:38Z</time>
      </trkpt>
      <trkpt lat="44.88826" lon="5.42837">
        <ele>989.79</ele>
        <time>2019-08-25T08:24:47Z</time>
      </trkpt>
      <trkpt lat="44.88827" lon="5.4285">
        <ele>990.63</ele>
        <time>2019-08-25T08:24:53Z</time>
      </trkpt>
      <trkpt lat="44.88834" lon="5.42879">
        <ele>992.01</ele>
        <time>2019-08-25T08:25:05Z</time>
      </trkpt>
      <trkpt lat="44.88833" lon="5.42896">
        <ele>993.01</ele>
        <time>2019-08-25T08:25:12Z</time>
      </trkpt>
      <trkpt lat="44.88832" lon="5.42898">
        <ele>993.14</ele>
        <time>2019-08-25T08:25:13Z</time>
      </trkpt>
      <trkpt lat="44.88831" lon="5.429">
        <ele>993.25</ele>
        <time>2019-08-25T08:25:14Z</time>
      </trkpt>
      <trkpt lat="44.88827" lon="5.42904">
        <ele>993.66</ele>
        <time>2019-08-25T08:25:17Z</time>
      </trkpt>
      <trkpt lat="44.88826" lon="5.42904">
        <ele>993.82</ele>
        <time>2019-08-25T08:25:18Z</time>
      </trkpt>
      <trkpt lat="44.88824" lon="5.42903">
        <ele>993.97</ele>
        <time>2019-08-25T08:25:19Z</time>
      </trkpt>
      <trkpt lat="44.88824" lon="5.42902">
        <ele>994.11</ele>
        <time>2019-08-25T08:25:20Z</time>
      </trkpt>
      <trkpt lat="44.88823" lon="5.42894">
        <ele>994.94</ele>
        <time>2019-08-25T08:25:25Z</time>
      </trkpt>
      <trkpt lat="44.88823" lon="5.42893">
        <ele>995.08</ele>
        <time>2019-08-25T08:25:26Z</time>
      </trkpt>
      <trkpt lat="44.88824" lon="5.42891">
        <ele>995.22</ele>
        <time>2019-08-25T08:25:27Z</time>
      </trkpt>
      <trkpt lat="44.88824" lon="5.42888">
        <ele>995.34</ele>
        <time>2019-08-25T08:25:28Z</time>
      </trkpt>
      <trkpt lat="44.88824" lon="5.42885">
        <ele>995.44</ele>
        <time>2019-08-25T08:25:29Z</time>
      </trkpt>
      <trkpt lat="44.88824" lon="5.42884">
        <ele>995.54</ele>
        <time>2019-08-25T08:25:30Z</time>
      </trkpt>
      <trkpt lat="44.88822" lon="5.42877">
        <ele>996</ele>
        <time>2019-08-25T08:25:34Z</time>
      </trkpt>
      <trkpt lat="44.88821" lon="5.42875">
        <ele>996.12</ele>
        <time>2019-08-25T08:25:35Z</time>
      </trkpt>
      <trkpt lat="44.8882" lon="5.42873">
        <ele>996.29</ele>
        <time>2019-08-25T08:25:36Z</time>
      </trkpt>
      <trkpt lat="44.88819" lon="5.42871">
        <ele>996.46</ele>
        <time>2019-08-25T08:25:37Z</time>
      </trkpt>
      <trkpt lat="44.88819" lon="5.4287">
        <ele>996.61</ele>
        <time>2019-08-25T08:25:38Z</time>
      </trkpt>
      <trkpt lat="44.88813" lon="5.42857">
        <ele>997.76</ele>
        <time>2019-08-25T08:25:47Z</time>
      </trkpt>
      <trkpt lat="44.888" lon="5.42841">
        <ele>998.99</ele>
        <time>2019-08-25T08:25:56Z</time>
      </trkpt>
      <trkpt lat="44.88799" lon="5.42839">
        <ele>999.21</ele>
        <time>2019-08-25T08:25:57Z</time>
      </trkpt>
      <trkpt lat="44.88795" lon="5.42835">
        <ele>999.58</ele>
        <time>2019-08-25T08:26:00Z</time>
      </trkpt>
      <trkpt lat="44.8879" lon="5.42829">
        <ele>1000.12</ele>
        <time>2019-08-25T08:26:04Z</time>
      </trkpt>
      <trkpt lat="44.88789" lon="5.42828">
        <ele>1000.28</ele>
        <time>2019-08-25T08:26:05Z</time>
      </trkpt>
      <trkpt lat="44.88778" lon="5.4282">
        <ele>1001.42</ele>
        <time>2019-08-25T08:26:12Z</time>
      </trkpt>
      <trkpt lat="44.88767" lon="5.42812">
        <ele>1002.18</ele>
        <time>2019-08-25T08:26:18Z</time>
      </trkpt>
      <trkpt lat="44.88765" lon="5.4281">
        <ele>1002.28</ele>
        <time>2019-08-25T08:26:19Z</time>
      </trkpt>
      <trkpt lat="44.8875" lon="5.42794">
        <ele>1003.65</ele>
        <time>2019-08-25T08:26:29Z</time>
      </trkpt>
      <trkpt lat="44.88742" lon="5.42784">
        <ele>1004.44</ele>
        <time>2019-08-25T08:26:35Z</time>
      </trkpt>
      <trkpt lat="44.88735" lon="5.42779">
        <ele>1005.29</ele>
        <time>2019-08-25T08:26:41Z</time>
      </trkpt>
      <trkpt lat="44.88734" lon="5.42778">
        <ele>1005.43</ele>
        <time>2019-08-25T08:26:42Z</time>
      </trkpt>
      <trkpt lat="44.88718" lon="5.42769">
        <ele>1006.91</ele>
        <time>2019-08-25T08:26:51Z</time>
      </trkpt>
      <trkpt lat="44.88717" lon="5.42768">
        <ele>1007.03</ele>
        <time>2019-08-25T08:26:52Z</time>
      </trkpt>
      <trkpt lat="44.88705" lon="5.4276">
        <ele>1008.23</ele>
        <time>2019-08-25T08:27:00Z</time>
      </trkpt>
      <trkpt lat="44.88694" lon="5.42756">
        <ele>1009.39</ele>
        <time>2019-08-25T08:27:07Z</time>
      </trkpt>
      <trkpt lat="44.88683" lon="5.42751">
        <ele>1010.36</ele>
        <time>2019-08-25T08:27:13Z</time>
      </trkpt>
      <trkpt lat="44.88658" lon="5.4274">
        <ele>1012.12</ele>
        <time>2019-08-25T08:27:26Z</time>
      </trkpt>
      <trkpt lat="44.88648" lon="5.42734">
        <ele>1012.94</ele>
        <time>2019-08-25T08:27:31Z</time>
      </trkpt>
      <trkpt lat="44.88647" lon="5.42734">
        <ele>1013.09</ele>
        <time>2019-08-25T08:27:32Z</time>
      </trkpt>
      <trkpt lat="44.88645" lon="5.42734">
        <ele>1013.35</ele>
        <time>2019-08-25T08:27:33Z</time>
      </trkpt>
      <trkpt lat="44.88643" lon="5.42733">
        <ele>1013.35</ele>
        <time>2019-08-25T08:27:34Z</time>
      </trkpt>
      <trkpt lat="44.88641" lon="5.42732">
        <ele>1013.59</ele>
        <time>2019-08-25T08:27:35Z</time>
      </trkpt>
      <trkpt lat="44.88624" lon="5.42725">
        <ele>1014.74</ele>
        <time>2019-08-25T08:27:44Z</time>
      </trkpt>
      <trkpt lat="44.88623" lon="5.42724">
        <ele>1014.89</ele>
        <time>2019-08-25T08:27:45Z</time>
      </trkpt>
      <trkpt lat="44.88621" lon="5.42723">
        <ele>1015.04</ele>
        <time>2019-08-25T08:27:46Z</time>
      </trkpt>
      <trkpt lat="44.88611" lon="5.42717">
        <ele>1016.28</ele>
        <time>2019-08-25T08:27:54Z</time>
      </trkpt>
      <trkpt lat="44.88606" lon="5.42713">
        <ele>1016.79</ele>
        <time>2019-08-25T08:27:57Z</time>
      </trkpt>
      <trkpt lat="44.88604" lon="5.42712">
        <ele>1016.95</ele>
        <time>2019-08-25T08:27:58Z</time>
      </trkpt>
      <trkpt lat="44.88603" lon="5.42711">
        <ele>1017.08</ele>
        <time>2019-08-25T08:27:59Z</time>
      </trkpt>
      <trkpt lat="44.88588" lon="5.42704">
        <ele>1018.23</ele>
        <time>2019-08-25T08:28:08Z</time>
      </trkpt>
      <trkpt lat="44.88585" lon="5.42703">
        <ele>1018.62</ele>
        <time>2019-08-25T08:28:10Z</time>
      </trkpt>
      <trkpt lat="44.88583" lon="5.42703">
        <ele>1018.82</ele>
        <time>2019-08-25T08:28:11Z</time>
      </trkpt>
      <trkpt lat="44.88582" lon="5.42702">
        <ele>1019.03</ele>
        <time>2019-08-25T08:28:12Z</time>
      </trkpt>
      <trkpt lat="44.88573" lon="5.42694">
        <ele>1019.84</ele>
        <time>2019-08-25T08:28:17Z</time>
      </trkpt>
      <trkpt lat="44.88568" lon="5.42691">
        <ele>1020.19</ele>
        <time>2019-08-25T08:28:20Z</time>
      </trkpt>
      <trkpt lat="44.88566" lon="5.42691">
        <ele>1020.4</ele>
        <time>2019-08-25T08:28:22Z</time>
      </trkpt>
      <trkpt lat="44.88564" lon="5.4269">
        <ele>1020.5</ele>
        <time>2019-08-25T08:28:23Z</time>
      </trkpt>
      <trkpt lat="44.88562" lon="5.42688">
        <ele>1020.61</ele>
        <time>2019-08-25T08:28:24Z</time>
      </trkpt>
      <trkpt lat="44.8856" lon="5.42688">
        <ele>1020.92</ele>
        <time>2019-08-25T08:28:25Z</time>
      </trkpt>
      <trkpt lat="44.88557" lon="5.42687">
        <ele>1021.09</ele>
        <time>2019-08-25T08:28:26Z</time>
      </trkpt>
      <trkpt lat="44.88554" lon="5.42685">
        <ele>1021.26</ele>
        <time>2019-08-25T08:28:27Z</time>
      </trkpt>
      <trkpt lat="44.8855" lon="5.42685">
        <ele>1021.42</ele>
        <time>2019-08-25T08:28:28Z</time>
      </trkpt>
      <trkpt lat="44.88547" lon="5.42686">
        <ele>1021.57</ele>
        <time>2019-08-25T08:28:29Z</time>
      </trkpt>
      <trkpt lat="44.88533" lon="5.42694">
        <ele>1022.95</ele>
        <time>2019-08-25T08:28:38Z</time>
      </trkpt>
      <trkpt lat="44.88531" lon="5.42696">
        <ele>1023.1</ele>
        <time>2019-08-25T08:28:39Z</time>
      </trkpt>
      <trkpt lat="44.8853" lon="5.42697">
        <ele>1023.24</ele>
        <time>2019-08-25T08:28:40Z</time>
      </trkpt>
      <trkpt lat="44.88521" lon="5.42702">
        <ele>1024.58</ele>
        <time>2019-08-25T08:28:48Z</time>
      </trkpt>
      <trkpt lat="44.88512" lon="5.42701">
        <ele>1025.32</ele>
        <time>2019-08-25T08:28:53Z</time>
      </trkpt>
      <trkpt lat="44.8851" lon="5.42701">
        <ele>1025.42</ele>
        <time>2019-08-25T08:28:54Z</time>
      </trkpt>
      <trkpt lat="44.88508" lon="5.427">
        <ele>1025.54</ele>
        <time>2019-08-25T08:28:55Z</time>
      </trkpt>
      <trkpt lat="44.88498" lon="5.42693">
        <ele>1026.52</ele>
        <time>2019-08-25T08:29:01Z</time>
      </trkpt>
      <trkpt lat="44.88483" lon="5.42685">
        <ele>1028.13</ele>
        <time>2019-08-25T08:29:11Z</time>
      </trkpt>
      <trkpt lat="44.88471" lon="5.42682">
        <ele>1029.14</ele>
        <time>2019-08-25T08:29:17Z</time>
      </trkpt>
      <trkpt lat="44.88461" lon="5.42686">
        <ele>1029.79</ele>
        <time>2019-08-25T08:29:22Z</time>
      </trkpt>
      <trkpt lat="44.88431" lon="5.42685">
        <ele>1031.91</ele>
        <time>2019-08-25T08:29:37Z</time>
      </trkpt>
      <trkpt lat="44.88419" lon="5.42684">
        <ele>1033.38</ele>
        <time>2019-08-25T08:29:45Z</time>
      </trkpt>
      <trkpt lat="44.88418" lon="5.42683">
        <ele>1033.52</ele>
        <time>2019-08-25T08:29:46Z</time>
      </trkpt>
      <trkpt lat="44.88416" lon="5.42682">
        <ele>1033.65</ele>
        <time>2019-08-25T08:29:47Z</time>
      </trkpt>
      <trkpt lat="44.88413" lon="5.42682">
        <ele>1033.9</ele>
        <time>2019-08-25T08:29:49Z</time>
      </trkpt>
      <trkpt lat="44.88398" lon="5.42678">
        <ele>1035.29</ele>
        <time>2019-08-25T08:29:59Z</time>
      </trkpt>
      <trkpt lat="44.88387" lon="5.42677">
        <ele>1036.33</ele>
        <time>2019-08-25T08:30:05Z</time>
      </trkpt>
      <trkpt lat="44.88383" lon="5.42675">
        <ele>1036.74</ele>
        <time>2019-08-25T08:30:07Z</time>
      </trkpt>
      <trkpt lat="44.88378" lon="5.42674">
        <ele>1037.2</ele>
        <time>2019-08-25T08:30:10Z</time>
      </trkpt>
      <trkpt lat="44.88376" lon="5.42674">
        <ele>1037.34</ele>
        <time>2019-08-25T08:30:11Z</time>
      </trkpt>
      <trkpt lat="44.88374" lon="5.42673">
        <ele>1037.5</ele>
        <time>2019-08-25T08:30:12Z</time>
      </trkpt>
      <trkpt lat="44.88373" lon="5.42673">
        <ele>1037.68</ele>
        <time>2019-08-25T08:30:13Z</time>
      </trkpt>
      <trkpt lat="44.88371" lon="5.42673">
        <ele>1037.85</ele>
        <time>2019-08-25T08:30:14Z</time>
      </trkpt>
      <trkpt lat="44.88354" lon="5.42673">
        <ele>1039.26</ele>
        <time>2019-08-25T08:30:23Z</time>
      </trkpt>
      <trkpt lat="44.8834" lon="5.42671">
        <ele>1040.5</ele>
        <time>2019-08-25T08:30:31Z</time>
      </trkpt>
      <trkpt lat="44.88336" lon="5.42669">
        <ele>1040.79</ele>
        <time>2019-08-25T08:30:34Z</time>
      </trkpt>
      <trkpt lat="44.88335" lon="5.42669">
        <ele>1040.88</ele>
        <time>2019-08-25T08:30:35Z</time>
      </trkpt>
      <trkpt lat="44.88334" lon="5.42669">
        <ele>1041</ele>
        <time>2019-08-25T08:30:36Z</time>
      </trkpt>
      <trkpt lat="44.88326" lon="5.42664">
        <ele>1041.8</ele>
        <time>2019-08-25T08:30:42Z</time>
      </trkpt>
      <trkpt lat="44.88321" lon="5.42662">
        <ele>1042.15</ele>
        <time>2019-08-25T08:30:45Z</time>
      </trkpt>
      <trkpt lat="44.88314" lon="5.4266">
        <ele>1042.68</ele>
        <time>2019-08-25T08:30:49Z</time>
      </trkpt>
      <trkpt lat="44.88312" lon="5.42659">
        <ele>1042.8</ele>
        <time>2019-08-25T08:30:50Z</time>
      </trkpt>
      <trkpt lat="44.88311" lon="5.42658">
        <ele>1043.01</ele>
        <time>2019-08-25T08:30:51Z</time>
      </trkpt>
      <trkpt lat="44.88309" lon="5.42658">
        <ele>1043.01</ele>
        <time>2019-08-25T08:30:52Z</time>
      </trkpt>
      <trkpt lat="44.88307" lon="5.42657">
        <ele>1043.24</ele>
        <time>2019-08-25T08:30:53Z</time>
      </trkpt>
      <trkpt lat="44.88306" lon="5.42657">
        <ele>1043.36</ele>
        <time>2019-08-25T08:30:54Z</time>
      </trkpt>
      <trkpt lat="44.88289" lon="5.42654">
        <ele>1044.62</ele>
        <time>2019-08-25T08:31:03Z</time>
      </trkpt>
      <trkpt lat="44.8827" lon="5.42649">
        <ele>1045.9</ele>
        <time>2019-08-25T08:31:13Z</time>
      </trkpt>
      <trkpt lat="44.88268" lon="5.42647">
        <ele>1046.03</ele>
        <time>2019-08-25T08:31:14Z</time>
      </trkpt>
      <trkpt lat="44.88266" lon="5.42646">
        <ele>1046.17</ele>
        <time>2019-08-25T08:31:15Z</time>
      </trkpt>
      <trkpt lat="44.88263" lon="5.42646">
        <ele>1046.3</ele>
        <time>2019-08-25T08:31:16Z</time>
      </trkpt>
      <trkpt lat="44.88261" lon="5.42646">
        <ele>1046.4</ele>
        <time>2019-08-25T08:31:17Z</time>
      </trkpt>
      <trkpt lat="44.8825" lon="5.42644">
        <ele>1047.34</ele>
        <time>2019-08-25T08:31:23Z</time>
      </trkpt>
      <trkpt lat="44.88238" lon="5.42638">
        <ele>1048.14</ele>
        <time>2019-08-25T08:31:29Z</time>
      </trkpt>
      <trkpt lat="44.88236" lon="5.42638">
        <ele>1048.28</ele>
        <time>2019-08-25T08:31:30Z</time>
      </trkpt>
      <trkpt lat="44.88224" lon="5.42635">
        <ele>1049.16</ele>
        <time>2019-08-25T08:31:36Z</time>
      </trkpt>
      <trkpt lat="44.88215" lon="5.42631">
        <ele>1050</ele>
        <time>2019-08-25T08:31:41Z</time>
      </trkpt>
      <trkpt lat="44.88213" lon="5.4263">
        <ele>1050.16</ele>
        <time>2019-08-25T08:31:42Z</time>
      </trkpt>
      <trkpt lat="44.882" lon="5.4262">
        <ele>1052.11</ele>
        <time>2019-08-25T08:31:52Z</time>
      </trkpt>
      <trkpt lat="44.88193" lon="5.42606">
        <ele>1053.78</ele>
        <time>2019-08-25T08:32:03Z</time>
      </trkpt>
      <trkpt lat="44.88191" lon="5.42604">
        <ele>1053.89</ele>
        <time>2019-08-25T08:32:04Z</time>
      </trkpt>
      <trkpt lat="44.88191" lon="5.42602">
        <ele>1054</ele>
        <time>2019-08-25T08:32:05Z</time>
      </trkpt>
      <trkpt lat="44.88186" lon="5.42591">
        <ele>1054.95</ele>
        <time>2019-08-25T08:32:10Z</time>
      </trkpt>
      <trkpt lat="44.88172" lon="5.42571">
        <ele>1056.23</ele>
        <time>2019-08-25T08:32:19Z</time>
      </trkpt>
      <trkpt lat="44.88148" lon="5.42561">
        <ele>1058.13</ele>
        <time>2019-08-25T08:32:30Z</time>
      </trkpt>
      <trkpt lat="44.88132" lon="5.42571">
        <ele>1059.91</ele>
        <time>2019-08-25T08:32:41Z</time>
      </trkpt>
      <trkpt lat="44.88129" lon="5.42573">
        <ele>1060.25</ele>
        <time>2019-08-25T08:32:44Z</time>
      </trkpt>
      <trkpt lat="44.88127" lon="5.42573">
        <ele>1060.36</ele>
        <time>2019-08-25T08:32:45Z</time>
      </trkpt>
      <trkpt lat="44.88126" lon="5.42574">
        <ele>1060.48</ele>
        <time>2019-08-25T08:32:46Z</time>
      </trkpt>
      <trkpt lat="44.88124" lon="5.42574">
        <ele>1060.61</ele>
        <time>2019-08-25T08:32:47Z</time>
      </trkpt>
      <trkpt lat="44.88122" lon="5.42574">
        <ele>1060.75</ele>
        <time>2019-08-25T08:32:48Z</time>
      </trkpt>
      <trkpt lat="44.8812" lon="5.42575">
        <ele>1060.88</ele>
        <time>2019-08-25T08:32:49Z</time>
      </trkpt>
      <trkpt lat="44.88119" lon="5.42575">
        <ele>1061.03</ele>
        <time>2019-08-25T08:32:50Z</time>
      </trkpt>
      <trkpt lat="44.88117" lon="5.42575">
        <ele>1061.18</ele>
        <time>2019-08-25T08:32:51Z</time>
      </trkpt>
      <trkpt lat="44.88116" lon="5.42575">
        <ele>1061.31</ele>
        <time>2019-08-25T08:32:52Z</time>
      </trkpt>
      <trkpt lat="44.88114" lon="5.42576">
        <ele>1061.44</ele>
        <time>2019-08-25T08:32:53Z</time>
      </trkpt>
      <trkpt lat="44.88112" lon="5.42576">
        <ele>1061.54</ele>
        <time>2019-08-25T08:32:54Z</time>
      </trkpt>
      <trkpt lat="44.88111" lon="5.42576">
        <ele>1061.64</ele>
        <time>2019-08-25T08:32:55Z</time>
      </trkpt>
      <trkpt lat="44.88109" lon="5.42577">
        <ele>1061.74</ele>
        <time>2019-08-25T08:32:56Z</time>
      </trkpt>
      <trkpt lat="44.88108" lon="5.42577">
        <ele>1062</ele>
        <time>2019-08-25T08:32:57Z</time>
      </trkpt>
      <trkpt lat="44.88106" lon="5.42577">
        <ele>1062.15</ele>
        <time>2019-08-25T08:32:58Z</time>
      </trkpt>
      <trkpt lat="44.88105" lon="5.42578">
        <ele>1062.32</ele>
        <time>2019-08-25T08:32:59Z</time>
      </trkpt>
      <trkpt lat="44.88104" lon="5.42579">
        <ele>1062.47</ele>
        <time>2019-08-25T08:33:00Z</time>
      </trkpt>
      <trkpt lat="44.88101" lon="5.42582">
        <ele>1062.74</ele>
        <time>2019-08-25T08:33:02Z</time>
      </trkpt>
      <trkpt lat="44.881" lon="5.42583">
        <ele>1062.89</ele>
        <time>2019-08-25T08:33:03Z</time>
      </trkpt>
      <trkpt lat="44.8809" lon="5.42587">
        <ele>1063.97</ele>
        <time>2019-08-25T08:33:11Z</time>
      </trkpt>
      <trkpt lat="44.88087" lon="5.42587">
        <ele>1064.24</ele>
        <time>2019-08-25T08:33:13Z</time>
      </trkpt>
      <trkpt lat="44.88086" lon="5.42587">
        <ele>1064.37</ele>
        <time>2019-08-25T08:33:14Z</time>
      </trkpt>
      <trkpt lat="44.88076" lon="5.42583">
        <ele>1066.05</ele>
        <time>2019-08-25T08:33:24Z</time>
      </trkpt>
      <trkpt lat="44.88063" lon="5.4257">
        <ele>1067.71</ele>
        <time>2019-08-25T08:33:35Z</time>
      </trkpt>
      <trkpt lat="44.88059" lon="5.42568">
        <ele>1067.96</ele>
        <time>2019-08-25T08:33:37Z</time>
      </trkpt>
      <trkpt lat="44.88057" lon="5.42566">
        <ele>1068.08</ele>
        <time>2019-08-25T08:33:38Z</time>
      </trkpt>
      <trkpt lat="44.88044" lon="5.42561">
        <ele>1068.61</ele>
        <time>2019-08-25T08:33:44Z</time>
      </trkpt>
      <trkpt lat="44.88043" lon="5.42561">
        <ele>1068.67</ele>
        <time>2019-08-25T08:33:45Z</time>
      </trkpt>
      <trkpt lat="44.88041" lon="5.4256">
        <ele>1068.74</ele>
        <time>2019-08-25T08:33:46Z</time>
      </trkpt>
      <trkpt lat="44.88039" lon="5.4256">
        <ele>1068.87</ele>
        <time>2019-08-25T08:33:47Z</time>
      </trkpt>
      <trkpt lat="44.88037" lon="5.4256">
        <ele>1069.05</ele>
        <time>2019-08-25T08:33:48Z</time>
      </trkpt>
      <trkpt lat="44.88034" lon="5.4256">
        <ele>1069.25</ele>
        <time>2019-08-25T08:33:49Z</time>
      </trkpt>
      <trkpt lat="44.88033" lon="5.42559">
        <ele>1069.42</ele>
        <time>2019-08-25T08:33:50Z</time>
      </trkpt>
      <trkpt lat="44.88031" lon="5.42558">
        <ele>1069.56</ele>
        <time>2019-08-25T08:33:51Z</time>
      </trkpt>
      <trkpt lat="44.88028" lon="5.42559">
        <ele>1069.68</ele>
        <time>2019-08-25T08:33:52Z</time>
      </trkpt>
      <trkpt lat="44.88025" lon="5.4256">
        <ele>1069.8</ele>
        <time>2019-08-25T08:33:53Z</time>
      </trkpt>
      <trkpt lat="44.88023" lon="5.4256">
        <ele>1069.92</ele>
        <time>2019-08-25T08:33:54Z</time>
      </trkpt>
      <trkpt lat="44.8802" lon="5.42561">
        <ele>1070.06</ele>
        <time>2019-08-25T08:33:55Z</time>
      </trkpt>
      <trkpt lat="44.88017" lon="5.42561">
        <ele>1070.21</ele>
        <time>2019-08-25T08:33:56Z</time>
      </trkpt>
      <trkpt lat="44.88015" lon="5.42562">
        <ele>1070.37</ele>
        <time>2019-08-25T08:33:57Z</time>
      </trkpt>
      <trkpt lat="44.88013" lon="5.42563">
        <ele>1070.52</ele>
        <time>2019-08-25T08:33:58Z</time>
      </trkpt>
      <trkpt lat="44.88012" lon="5.42563">
        <ele>1070.67</ele>
        <time>2019-08-25T08:33:59Z</time>
      </trkpt>
      <trkpt lat="44.8801" lon="5.42563">
        <ele>1070.83</ele>
        <time>2019-08-25T08:34:00Z</time>
      </trkpt>
      <trkpt lat="44.88008" lon="5.42564">
        <ele>1070.99</ele>
        <time>2019-08-25T08:34:01Z</time>
      </trkpt>
      <trkpt lat="44.88006" lon="5.42565">
        <ele>1071.13</ele>
        <time>2019-08-25T08:34:02Z</time>
      </trkpt>
      <trkpt lat="44.88004" lon="5.42565">
        <ele>1071.26</ele>
        <time>2019-08-25T08:34:03Z</time>
      </trkpt>
      <trkpt lat="44.88002" lon="5.42567">
        <ele>1071.38</ele>
        <time>2019-08-25T08:34:04Z</time>
      </trkpt>
      <trkpt lat="44.88" lon="5.42568">
        <ele>1071.5</ele>
        <time>2019-08-25T08:34:05Z</time>
      </trkpt>
      <trkpt lat="44.87999" lon="5.42569">
        <ele>1071.63</ele>
        <time>2019-08-25T08:34:06Z</time>
      </trkpt>
      <trkpt lat="44.87998" lon="5.4257">
        <ele>1071.76</ele>
        <time>2019-08-25T08:34:07Z</time>
      </trkpt>
      <trkpt lat="44.87987" lon="5.42578">
        <ele>1073.08</ele>
        <time>2019-08-25T08:34:15Z</time>
      </trkpt>
      <trkpt lat="44.87986" lon="5.42579">
        <ele>1073.2</ele>
        <time>2019-08-25T08:34:16Z</time>
      </trkpt>
      <trkpt lat="44.87984" lon="5.42579">
        <ele>1073.3</ele>
        <time>2019-08-25T08:34:17Z</time>
      </trkpt>
      <trkpt lat="44.87982" lon="5.42581">
        <ele>1073.43</ele>
        <time>2019-08-25T08:34:18Z</time>
      </trkpt>
      <trkpt lat="44.87981" lon="5.42582">
        <ele>1073.57</ele>
        <time>2019-08-25T08:34:19Z</time>
      </trkpt>
      <trkpt lat="44.87979" lon="5.42584">
        <ele>1073.73</ele>
        <time>2019-08-25T08:34:20Z</time>
      </trkpt>
      <trkpt lat="44.87977" lon="5.42587">
        <ele>1074.05</ele>
        <time>2019-08-25T08:34:22Z</time>
      </trkpt>
      <trkpt lat="44.87976" lon="5.42588">
        <ele>1074.18</ele>
        <time>2019-08-25T08:34:23Z</time>
      </trkpt>
      <trkpt lat="44.87975" lon="5.42589">
        <ele>1074.29</ele>
        <time>2019-08-25T08:34:24Z</time>
      </trkpt>
      <trkpt lat="44.87974" lon="5.42589">
        <ele>1074.41</ele>
        <time>2019-08-25T08:34:25Z</time>
      </trkpt>
      <trkpt lat="44.87973" lon="5.4259">
        <ele>1074.53</ele>
        <time>2019-08-25T08:34:26Z</time>
      </trkpt>
      <trkpt lat="44.87972" lon="5.4259">
        <ele>1074.66</ele>
        <time>2019-08-25T08:34:27Z</time>
      </trkpt>
      <trkpt lat="44.87971" lon="5.42591">
        <ele>1074.81</ele>
        <time>2019-08-25T08:34:28Z</time>
      </trkpt>
      <trkpt lat="44.87969" lon="5.42592">
        <ele>1074.95</ele>
        <time>2019-08-25T08:34:29Z</time>
      </trkpt>
      <trkpt lat="44.87968" lon="5.42592">
        <ele>1075.07</ele>
        <time>2019-08-25T08:34:30Z</time>
      </trkpt>
      <trkpt lat="44.87966" lon="5.42591">
        <ele>1075.18</ele>
        <time>2019-08-25T08:34:31Z</time>
      </trkpt>
      <trkpt lat="44.87965" lon="5.42592">
        <ele>1075.28</ele>
        <time>2019-08-25T08:34:32Z</time>
      </trkpt>
      <trkpt lat="44.87963" lon="5.42592">
        <ele>1075.48</ele>
        <time>2019-08-25T08:34:33Z</time>
      </trkpt>
      <trkpt lat="44.87961" lon="5.42592">
        <ele>1075.48</ele>
        <time>2019-08-25T08:34:34Z</time>
      </trkpt>
      <trkpt lat="44.8796" lon="5.42592">
        <ele>1075.62</ele>
        <time>2019-08-25T08:34:35Z</time>
      </trkpt>
      <trkpt lat="44.87958" lon="5.42592">
        <ele>1076</ele>
        <time>2019-08-25T08:34:36Z</time>
      </trkpt>
      <trkpt lat="44.8795" lon="5.4259">
        <ele>1077.08</ele>
        <time>2019-08-25T08:34:43Z</time>
      </trkpt>
      <trkpt lat="44.87946" lon="5.42589">
        <ele>1077.48</ele>
        <time>2019-08-25T08:34:46Z</time>
      </trkpt>
      <trkpt lat="44.87944" lon="5.42589">
        <ele>1077.62</ele>
        <time>2019-08-25T08:34:47Z</time>
      </trkpt>
      <trkpt lat="44.87943" lon="5.42589">
        <ele>1077.77</ele>
        <time>2019-08-25T08:34:48Z</time>
      </trkpt>
      <trkpt lat="44.8794" lon="5.42589">
        <ele>1078.11</ele>
        <time>2019-08-25T08:34:50Z</time>
      </trkpt>
      <trkpt lat="44.87938" lon="5.42589">
        <ele>1078.28</ele>
        <time>2019-08-25T08:34:51Z</time>
      </trkpt>
      <trkpt lat="44.87936" lon="5.4259">
        <ele>1078.44</ele>
        <time>2019-08-25T08:34:52Z</time>
      </trkpt>
      <trkpt lat="44.87932" lon="5.42592">
        <ele>1078.98</ele>
        <time>2019-08-25T08:34:55Z</time>
      </trkpt>
      <trkpt lat="44.87931" lon="5.42592">
        <ele>1079.15</ele>
        <time>2019-08-25T08:34:56Z</time>
      </trkpt>
      <trkpt lat="44.8793" lon="5.42592">
        <ele>1079.31</ele>
        <time>2019-08-25T08:34:57Z</time>
      </trkpt>
      <trkpt lat="44.87928" lon="5.42593">
        <ele>1079.48</ele>
        <time>2019-08-25T08:34:58Z</time>
      </trkpt>
      <trkpt lat="44.87927" lon="5.42595">
        <ele>1079.79</ele>
        <time>2019-08-25T08:35:00Z</time>
      </trkpt>
      <trkpt lat="44.87925" lon="5.42596">
        <ele>1080.09</ele>
        <time>2019-08-25T08:35:01Z</time>
      </trkpt>
      <trkpt lat="44.87924" lon="5.42597">
        <ele>1080.27</ele>
        <time>2019-08-25T08:35:02Z</time>
      </trkpt>
      <trkpt lat="44.87922" lon="5.42598">
        <ele>1080.43</ele>
        <time>2019-08-25T08:35:03Z</time>
      </trkpt>
      <trkpt lat="44.87921" lon="5.42599">
        <ele>1080.58</ele>
        <time>2019-08-25T08:35:04Z</time>
      </trkpt>
      <trkpt lat="44.8791" lon="5.42599">
        <ele>1081.49</ele>
        <time>2019-08-25T08:35:11Z</time>
      </trkpt>
      <trkpt lat="44.87907" lon="5.42597">
        <ele>1081.76</ele>
        <time>2019-08-25T08:35:13Z</time>
      </trkpt>
      <trkpt lat="44.87902" lon="5.42595">
        <ele>1082.18</ele>
        <time>2019-08-25T08:35:16Z</time>
      </trkpt>
      <trkpt lat="44.8789" lon="5.4259">
        <ele>1083.48</ele>
        <time>2019-08-25T08:35:26Z</time>
      </trkpt>
      <trkpt lat="44.87878" lon="5.42583">
        <ele>1084.45</ele>
        <time>2019-08-25T08:35:33Z</time>
      </trkpt>
      <trkpt lat="44.87875" lon="5.42582">
        <ele>1084.81</ele>
        <time>2019-08-25T08:35:35Z</time>
      </trkpt>
      <trkpt lat="44.87863" lon="5.42579">
        <ele>1085.88</ele>
        <time>2019-08-25T08:35:42Z</time>
      </trkpt>
      <trkpt lat="44.87858" lon="5.42577">
        <ele>1086.21</ele>
        <time>2019-08-25T08:35:45Z</time>
      </trkpt>
      <trkpt lat="44.87857" lon="5.42577">
        <ele>1086.39</ele>
        <time>2019-08-25T08:35:46Z</time>
      </trkpt>
      <trkpt lat="44.87855" lon="5.42577">
        <ele>1086.57</ele>
        <time>2019-08-25T08:35:47Z</time>
      </trkpt>
      <trkpt lat="44.87853" lon="5.42576">
        <ele>1086.75</ele>
        <time>2019-08-25T08:35:48Z</time>
      </trkpt>
      <trkpt lat="44.87852" lon="5.42576">
        <ele>1086.95</ele>
        <time>2019-08-25T08:35:49Z</time>
      </trkpt>
      <trkpt lat="44.87847" lon="5.42574">
        <ele>1087.45</ele>
        <time>2019-08-25T08:35:52Z</time>
      </trkpt>
      <trkpt lat="44.87845" lon="5.42573">
        <ele>1087.57</ele>
        <time>2019-08-25T08:35:53Z</time>
      </trkpt>
      <trkpt lat="44.87837" lon="5.4257">
        <ele>1088.31</ele>
        <time>2019-08-25T08:35:58Z</time>
      </trkpt>
      <trkpt lat="44.87836" lon="5.42569">
        <ele>1088.46</ele>
        <time>2019-08-25T08:35:59Z</time>
      </trkpt>
      <trkpt lat="44.87834" lon="5.42569">
        <ele>1088.67</ele>
        <time>2019-08-25T08:36:00Z</time>
      </trkpt>
      <trkpt lat="44.87833" lon="5.42568">
        <ele>1088.76</ele>
        <time>2019-08-25T08:36:01Z</time>
      </trkpt>
      <trkpt lat="44.87824" lon="5.42567">
        <ele>1089.51</ele>
        <time>2019-08-25T08:36:07Z</time>
      </trkpt>
      <trkpt lat="44.87813" lon="5.4256">
        <ele>1090.76</ele>
        <time>2019-08-25T08:36:15Z</time>
      </trkpt>
      <trkpt lat="44.87805" lon="5.42558">
        <ele>1091.51</ele>
        <time>2019-08-25T08:36:19Z</time>
      </trkpt>
      <trkpt lat="44.87795" lon="5.42554">
        <ele>1092.51</ele>
        <time>2019-08-25T08:36:24Z</time>
      </trkpt>
      <trkpt lat="44.8779" lon="5.42551">
        <ele>1093.12</ele>
        <time>2019-08-25T08:36:27Z</time>
      </trkpt>
      <trkpt lat="44.87775" lon="5.42547">
        <ele>1094.09</ele>
        <time>2019-08-25T08:36:34Z</time>
      </trkpt>
      <trkpt lat="44.87772" lon="5.42546">
        <ele>1094.44</ele>
        <time>2019-08-25T08:36:36Z</time>
      </trkpt>
      <trkpt lat="44.87749" lon="5.42543">
        <ele>1096.58</ele>
        <time>2019-08-25T08:36:48Z</time>
      </trkpt>
      <trkpt lat="44.87747" lon="5.42543">
        <ele>1096.73</ele>
        <time>2019-08-25T08:36:49Z</time>
      </trkpt>
      <trkpt lat="44.87746" lon="5.42543">
        <ele>1096.88</ele>
        <time>2019-08-25T08:36:50Z</time>
      </trkpt>
      <trkpt lat="44.87727" lon="5.42539">
        <ele>1098.79</ele>
        <time>2019-08-25T08:37:02Z</time>
      </trkpt>
      <trkpt lat="44.87724" lon="5.42538">
        <ele>1098.96</ele>
        <time>2019-08-25T08:37:03Z</time>
      </trkpt>
      <trkpt lat="44.87723" lon="5.42537">
        <ele>1099.14</ele>
        <time>2019-08-25T08:37:04Z</time>
      </trkpt>
      <trkpt lat="44.87721" lon="5.42537">
        <ele>1099.32</ele>
        <time>2019-08-25T08:37:05Z</time>
      </trkpt>
      <trkpt lat="44.87719" lon="5.42537">
        <ele>1099.48</ele>
        <time>2019-08-25T08:37:06Z</time>
      </trkpt>
      <trkpt lat="44.87717" lon="5.42537">
        <ele>1099.64</ele>
        <time>2019-08-25T08:37:07Z</time>
      </trkpt>
      <trkpt lat="44.87716" lon="5.42537">
        <ele>1099.82</ele>
        <time>2019-08-25T08:37:08Z</time>
      </trkpt>
      <trkpt lat="44.87714" lon="5.42536">
        <ele>1100.01</ele>
        <time>2019-08-25T08:37:09Z</time>
      </trkpt>
      <trkpt lat="44.87704" lon="5.42539">
        <ele>1101.68</ele>
        <time>2019-08-25T08:37:18Z</time>
      </trkpt>
      <trkpt lat="44.87702" lon="5.42539">
        <ele>1101.85</ele>
        <time>2019-08-25T08:37:19Z</time>
      </trkpt>
      <trkpt lat="44.877" lon="5.4254">
        <ele>1102.02</ele>
        <time>2019-08-25T08:37:20Z</time>
      </trkpt>
      <trkpt lat="44.87698" lon="5.4254">
        <ele>1102.18</ele>
        <time>2019-08-25T08:37:21Z</time>
      </trkpt>
      <trkpt lat="44.87696" lon="5.42539">
        <ele>1102.37</ele>
        <time>2019-08-25T08:37:22Z</time>
      </trkpt>
      <trkpt lat="44.87694" lon="5.42538">
        <ele>1102.55</ele>
        <time>2019-08-25T08:37:23Z</time>
      </trkpt>
      <trkpt lat="44.87691" lon="5.42537">
        <ele>1102.71</ele>
        <time>2019-08-25T08:37:24Z</time>
      </trkpt>
      <trkpt lat="44.87689" lon="5.42537">
        <ele>1102.89</ele>
        <time>2019-08-25T08:37:25Z</time>
      </trkpt>
      <trkpt lat="44.87687" lon="5.42536">
        <ele>1103.08</ele>
        <time>2019-08-25T08:37:26Z</time>
      </trkpt>
      <trkpt lat="44.87685" lon="5.42535">
        <ele>1103.26</ele>
        <time>2019-08-25T08:37:27Z</time>
      </trkpt>
      <trkpt lat="44.87684" lon="5.42535">
        <ele>1103.43</ele>
        <time>2019-08-25T08:37:28Z</time>
      </trkpt>
      <trkpt lat="44.87682" lon="5.42534">
        <ele>1103.61</ele>
        <time>2019-08-25T08:37:29Z</time>
      </trkpt>
      <trkpt lat="44.87679" lon="5.42532">
        <ele>1104.17</ele>
        <time>2019-08-25T08:37:32Z</time>
      </trkpt>
      <trkpt lat="44.87672" lon="5.42531">
        <ele>1105.09</ele>
        <time>2019-08-25T08:37:37Z</time>
      </trkpt>
      <trkpt lat="44.87667" lon="5.42531">
        <ele>1105.91</ele>
        <time>2019-08-25T08:37:41Z</time>
      </trkpt>
      <trkpt lat="44.87663" lon="5.4253">
        <ele>1106.44</ele>
        <time>2019-08-25T08:37:44Z</time>
      </trkpt>
      <trkpt lat="44.87654" lon="5.4253">
        <ele>1107.73</ele>
        <time>2019-08-25T08:37:51Z</time>
      </trkpt>
      <trkpt lat="44.87646" lon="5.42528">
        <ele>1108.32</ele>
        <time>2019-08-25T08:37:55Z</time>
      </trkpt>
      <trkpt lat="44.87623" lon="5.42529">
        <ele>1110.07</ele>
        <time>2019-08-25T08:38:06Z</time>
      </trkpt>
      <trkpt lat="44.87614" lon="5.42529">
        <ele>1110.84</ele>
        <time>2019-08-25T08:38:11Z</time>
      </trkpt>
      <trkpt lat="44.87606" lon="5.42528">
        <ele>1112.05</ele>
        <time>2019-08-25T08:38:18Z</time>
      </trkpt>
      <trkpt lat="44.87605" lon="5.42528">
        <ele>1112.22</ele>
        <time>2019-08-25T08:38:19Z</time>
      </trkpt>
      <trkpt lat="44.87591" lon="5.42527">
        <ele>1113.8</ele>
        <time>2019-08-25T08:38:29Z</time>
      </trkpt>
      <trkpt lat="44.87589" lon="5.42527">
        <ele>1114.01</ele>
        <time>2019-08-25T08:38:30Z</time>
      </trkpt>
      <trkpt lat="44.87587" lon="5.42528">
        <ele>1114.41</ele>
        <time>2019-08-25T08:38:31Z</time>
      </trkpt>
      <trkpt lat="44.87585" lon="5.42527">
        <ele>1114.59</ele>
        <time>2019-08-25T08:38:32Z</time>
      </trkpt>
      <trkpt lat="44.87584" lon="5.42528">
        <ele>1114.77</ele>
        <time>2019-08-25T08:38:33Z</time>
      </trkpt>
      <trkpt lat="44.87582" lon="5.42528">
        <ele>1114.92</ele>
        <time>2019-08-25T08:38:34Z</time>
      </trkpt>
      <trkpt lat="44.87578" lon="5.42529">
        <ele>1115.2</ele>
        <time>2019-08-25T08:38:36Z</time>
      </trkpt>
      <trkpt lat="44.87577" lon="5.4253">
        <ele>1115.34</ele>
        <time>2019-08-25T08:38:37Z</time>
      </trkpt>
      <trkpt lat="44.87574" lon="5.4253">
        <ele>1115.5</ele>
        <time>2019-08-25T08:38:38Z</time>
      </trkpt>
      <trkpt lat="44.87572" lon="5.42531">
        <ele>1115.68</ele>
        <time>2019-08-25T08:38:39Z</time>
      </trkpt>
      <trkpt lat="44.8757" lon="5.42531">
        <ele>1115.89</ele>
        <time>2019-08-25T08:38:40Z</time>
      </trkpt>
      <trkpt lat="44.87547" lon="5.42539">
        <ele>1117.74</ele>
        <time>2019-08-25T08:38:50Z</time>
      </trkpt>
      <trkpt lat="44.87545" lon="5.42539">
        <ele>1117.91</ele>
        <time>2019-08-25T08:38:51Z</time>
      </trkpt>
      <trkpt lat="44.87543" lon="5.42539">
        <ele>1118.08</ele>
        <time>2019-08-25T08:38:52Z</time>
      </trkpt>
      <trkpt lat="44.87541" lon="5.4254">
        <ele>1118.28</ele>
        <time>2019-08-25T08:38:53Z</time>
      </trkpt>
      <trkpt lat="44.87539" lon="5.42542">
        <ele>1118.47</ele>
        <time>2019-08-25T08:38:54Z</time>
      </trkpt>
      <trkpt lat="44.87537" lon="5.42543">
        <ele>1119</ele>
        <time>2019-08-25T08:38:56Z</time>
      </trkpt>
      <trkpt lat="44.87535" lon="5.42544">
        <ele>1119.19</ele>
        <time>2019-08-25T08:38:57Z</time>
      </trkpt>
      <trkpt lat="44.87533" lon="5.42544">
        <ele>1119.41</ele>
        <time>2019-08-25T08:38:58Z</time>
      </trkpt>
      <trkpt lat="44.87525" lon="5.42545">
        <ele>1120.2</ele>
        <time>2019-08-25T08:39:03Z</time>
      </trkpt>
      <trkpt lat="44.87523" lon="5.42545">
        <ele>1120.35</ele>
        <time>2019-08-25T08:39:04Z</time>
      </trkpt>
      <trkpt lat="44.87519" lon="5.42547">
        <ele>1120.64</ele>
        <time>2019-08-25T08:39:06Z</time>
      </trkpt>
      <trkpt lat="44.87509" lon="5.4255">
        <ele>1121.73</ele>
        <time>2019-08-25T08:39:13Z</time>
      </trkpt>
      <trkpt lat="44.87498" lon="5.42553">
        <ele>1123.03</ele>
        <time>2019-08-25T08:39:20Z</time>
      </trkpt>
      <trkpt lat="44.87483" lon="5.42552">
        <ele>1124.79</ele>
        <time>2019-08-25T08:39:30Z</time>
      </trkpt>
      <trkpt lat="44.87478" lon="5.42551">
        <ele>1125.32</ele>
        <time>2019-08-25T08:39:33Z</time>
      </trkpt>
      <trkpt lat="44.87467" lon="5.4255">
        <ele>1126.57</ele>
        <time>2019-08-25T08:39:41Z</time>
      </trkpt>
      <trkpt lat="44.87459" lon="5.42549">
        <ele>1128.01</ele>
        <time>2019-08-25T08:39:48Z</time>
      </trkpt>
      <trkpt lat="44.87454" lon="5.42548">
        <ele>1128.5</ele>
        <time>2019-08-25T08:39:51Z</time>
      </trkpt>
      <trkpt lat="44.87448" lon="5.42548">
        <ele>1128.97</ele>
        <time>2019-08-25T08:39:55Z</time>
      </trkpt>
      <trkpt lat="44.87445" lon="5.42548">
        <ele>1129.1</ele>
        <time>2019-08-25T08:39:56Z</time>
      </trkpt>
      <trkpt lat="44.87428" lon="5.42549">
        <ele>1130.67</ele>
        <time>2019-08-25T08:40:06Z</time>
      </trkpt>
      <trkpt lat="44.87406" lon="5.42552">
        <ele>1132.4</ele>
        <time>2019-08-25T08:40:16Z</time>
      </trkpt>
      <trkpt lat="44.87404" lon="5.42553">
        <ele>1132.55</ele>
        <time>2019-08-25T08:40:17Z</time>
      </trkpt>
      <trkpt lat="44.87402" lon="5.42555">
        <ele>1132.7</ele>
        <time>2019-08-25T08:40:18Z</time>
      </trkpt>
      <trkpt lat="44.87387" lon="5.42558">
        <ele>1134.01</ele>
        <time>2019-08-25T08:40:26Z</time>
      </trkpt>
      <trkpt lat="44.8738" lon="5.42558">
        <ele>1134.61</ele>
        <time>2019-08-25T08:40:29Z</time>
      </trkpt>
      <trkpt lat="44.87378" lon="5.42558">
        <ele>1134.78</ele>
        <time>2019-08-25T08:40:30Z</time>
      </trkpt>
      <trkpt lat="44.87367" lon="5.42555">
        <ele>1135.63</ele>
        <time>2019-08-25T08:40:35Z</time>
      </trkpt>
      <trkpt lat="44.87366" lon="5.42554">
        <ele>1135.82</ele>
        <time>2019-08-25T08:40:36Z</time>
      </trkpt>
      <trkpt lat="44.8736" lon="5.42553">
        <ele>1136.51</ele>
        <time>2019-08-25T08:40:40Z</time>
      </trkpt>
      <trkpt lat="44.87357" lon="5.42552">
        <ele>1136.86</ele>
        <time>2019-08-25T08:40:42Z</time>
      </trkpt>
      <trkpt lat="44.87355" lon="5.42552">
        <ele>1137.05</ele>
        <time>2019-08-25T08:40:43Z</time>
      </trkpt>
      <trkpt lat="44.87344" lon="5.42548">
        <ele>1138.29</ele>
        <time>2019-08-25T08:40:50Z</time>
      </trkpt>
      <trkpt lat="44.87341" lon="5.4255">
        <ele>1138.61</ele>
        <time>2019-08-25T08:40:52Z</time>
      </trkpt>
      <trkpt lat="44.8734" lon="5.4255">
        <ele>1138.78</ele>
        <time>2019-08-25T08:40:53Z</time>
      </trkpt>
      <trkpt lat="44.87336" lon="5.4255">
        <ele>1139.06</ele>
        <time>2019-08-25T08:40:55Z</time>
      </trkpt>
      <trkpt lat="44.87332" lon="5.42548">
        <ele>1139.57</ele>
        <time>2019-08-25T08:40:57Z</time>
      </trkpt>
      <trkpt lat="44.87319" lon="5.42544">
        <ele>1140.89</ele>
        <time>2019-08-25T08:41:05Z</time>
      </trkpt>
      <trkpt lat="44.87313" lon="5.42542">
        <ele>1141.48</ele>
        <time>2019-08-25T08:41:08Z</time>
      </trkpt>
      <trkpt lat="44.87311" lon="5.42541">
        <ele>1141.68</ele>
        <time>2019-08-25T08:41:09Z</time>
      </trkpt>
      <trkpt lat="44.87309" lon="5.4254">
        <ele>1141.85</ele>
        <time>2019-08-25T08:41:10Z</time>
      </trkpt>
      <trkpt lat="44.87306" lon="5.4254">
        <ele>1142</ele>
        <time>2019-08-25T08:41:11Z</time>
      </trkpt>
      <trkpt lat="44.8729" lon="5.42535">
        <ele>1143.52</ele>
        <time>2019-08-25T08:41:20Z</time>
      </trkpt>
      <trkpt lat="44.87289" lon="5.42536">
        <ele>1143.84</ele>
        <time>2019-08-25T08:41:21Z</time>
      </trkpt>
      <trkpt lat="44.87286" lon="5.42538">
        <ele>1144.12</ele>
        <time>2019-08-25T08:41:23Z</time>
      </trkpt>
      <trkpt lat="44.87286" lon="5.42539">
        <ele>1144.24</ele>
        <time>2019-08-25T08:41:24Z</time>
      </trkpt>
      <trkpt lat="44.87286" lon="5.42539">
        <ele>1144.34</ele>
        <time>2019-08-25T08:41:25Z</time>
      </trkpt>
      <trkpt lat="44.87284" lon="5.42535">
        <ele>1145.63</ele>
        <time>2019-08-25T08:41:40Z</time>
      </trkpt>
      <trkpt lat="44.87284" lon="5.42536">
        <ele>1146.48</ele>
        <time>2019-08-25T08:42:02Z</time>
      </trkpt>
      <trkpt lat="44.87283" lon="5.42535">
        <ele>1147.34</ele>
        <time>2019-08-25T08:42:41Z</time>
      </trkpt>
      <trkpt lat="44.87279" lon="5.42531">
        <ele>1148</ele>
        <time>2019-08-25T08:43:22Z</time>
      </trkpt>
      <trkpt lat="44.87279" lon="5.42528">
        <ele>1148.52</ele>
        <time>2019-08-25T08:44:00Z</time>
      </trkpt>
      <trkpt lat="44.8728" lon="5.42531">
        <ele>1148.98</ele>
        <time>2019-08-25T08:44:29Z</time>
      </trkpt>
      <trkpt lat="44.87282" lon="5.42526">
        <ele>1149.21</ele>
        <time>2019-08-25T08:45:02Z</time>
      </trkpt>
      <trkpt lat="44.87288" lon="5.42536">
        <ele>1149.75</ele>
        <time>2019-08-25T08:45:43Z</time>
      </trkpt>
      <trkpt lat="44.87282" lon="5.42529">
        <ele>1150.12</ele>
        <time>2019-08-25T08:46:16Z</time>
      </trkpt>
      <trkpt lat="44.8728" lon="5.42521">
        <ele>1150.06</ele>
        <time>2019-08-25T08:46:47Z</time>
      </trkpt>
      <trkpt lat="44.87284" lon="5.42534">
        <ele>1150.26</ele>
        <time>2019-08-25T08:47:22Z</time>
      </trkpt>
      <trkpt lat="44.87289" lon="5.42541">
        <ele>1150.39</ele>
        <time>2019-08-25T08:47:37Z</time>
      </trkpt>
      <trkpt lat="44.87305" lon="5.4255">
        <ele>1150.79</ele>
        <time>2019-08-25T08:47:49Z</time>
      </trkpt>
      <trkpt lat="44.87318" lon="5.42561">
        <ele>1151.82</ele>
        <time>2019-08-25T08:48:01Z</time>
      </trkpt>
      <trkpt lat="44.87345" lon="5.42583">
        <ele>1153.82</ele>
        <time>2019-08-25T08:48:19Z</time>
      </trkpt>
      <trkpt lat="44.87352" lon="5.42586">
        <ele>1154.46</ele>
        <time>2019-08-25T08:48:25Z</time>
      </trkpt>
      <trkpt lat="44.87365" lon="5.42586">
        <ele>1155.73</ele>
        <time>2019-08-25T08:48:36Z</time>
      </trkpt>
      <trkpt lat="44.87385" lon="5.42588">
        <ele>1157.34</ele>
        <time>2019-08-25T08:48:48Z</time>
      </trkpt>
      <trkpt lat="44.87408" lon="5.42594">
        <ele>1158.96</ele>
        <time>2019-08-25T08:49:02Z</time>
      </trkpt>
      <trkpt lat="44.87423" lon="5.42606">
        <ele>1159.77</ele>
        <time>2019-08-25T08:49:12Z</time>
      </trkpt>
      <trkpt lat="44.87449" lon="5.42615">
        <ele>1161.4</ele>
        <time>2019-08-25T08:49:25Z</time>
      </trkpt>
      <trkpt lat="44.8747" lon="5.42628">
        <ele>1163.14</ele>
        <time>2019-08-25T08:49:39Z</time>
      </trkpt>
      <trkpt lat="44.87474" lon="5.42629">
        <ele>1163.47</ele>
        <time>2019-08-25T08:49:42Z</time>
      </trkpt>
      <trkpt lat="44.87495" lon="5.42637">
        <ele>1164.85</ele>
        <time>2019-08-25T08:49:57Z</time>
      </trkpt>
      <trkpt lat="44.87499" lon="5.42637">
        <ele>1165.22</ele>
        <time>2019-08-25T08:50:00Z</time>
      </trkpt>
      <trkpt lat="44.87508" lon="5.42636">
        <ele>1166.03</ele>
        <time>2019-08-25T08:50:06Z</time>
      </trkpt>
      <trkpt lat="44.8753" lon="5.42639">
        <ele>1167.18</ele>
        <time>2019-08-25T08:50:17Z</time>
      </trkpt>
      <trkpt lat="44.87542" lon="5.42642">
        <ele>1168.42</ele>
        <time>2019-08-25T08:50:26Z</time>
      </trkpt>
      <trkpt lat="44.87571" lon="5.4265">
        <ele>1170.19</ele>
        <time>2019-08-25T08:50:42Z</time>
      </trkpt>
      <trkpt lat="44.87583" lon="5.42658">
        <ele>1171.12</ele>
        <time>2019-08-25T08:50:49Z</time>
      </trkpt>
      <trkpt lat="44.87603" lon="5.42666">
        <ele>1172.42</ele>
        <time>2019-08-25T08:51:01Z</time>
      </trkpt>
      <trkpt lat="44.87616" lon="5.4267">
        <ele>1173.39</ele>
        <time>2019-08-25T08:51:10Z</time>
      </trkpt>
      <trkpt lat="44.87626" lon="5.42676">
        <ele>1174.1</ele>
        <time>2019-08-25T08:51:17Z</time>
      </trkpt>
      <trkpt lat="44.87641" lon="5.42686">
        <ele>1175.24</ele>
        <time>2019-08-25T08:51:28Z</time>
      </trkpt>
      <trkpt lat="44.87653" lon="5.42697">
        <ele>1176.46</ele>
        <time>2019-08-25T08:51:38Z</time>
      </trkpt>
      <trkpt lat="44.87665" lon="5.42705">
        <ele>1177.56</ele>
        <time>2019-08-25T08:51:47Z</time>
      </trkpt>
      <trkpt lat="44.87686" lon="5.42717">
        <ele>1178.97</ele>
        <time>2019-08-25T08:52:03Z</time>
      </trkpt>
      <trkpt lat="44.87705" lon="5.42728">
        <ele>1179.91</ele>
        <time>2019-08-25T08:52:14Z</time>
      </trkpt>
      <trkpt lat="44.87717" lon="5.42734">
        <ele>1180.99</ele>
        <time>2019-08-25T08:52:22Z</time>
      </trkpt>
      <trkpt lat="44.87725" lon="5.42741">
        <ele>1181.86</ele>
        <time>2019-08-25T08:52:29Z</time>
      </trkpt>
      <trkpt lat="44.8774" lon="5.42748">
        <ele>1182.96</ele>
        <time>2019-08-25T08:52:38Z</time>
      </trkpt>
      <trkpt lat="44.87756" lon="5.42759">
        <ele>1184.35</ele>
        <time>2019-08-25T08:52:51Z</time>
      </trkpt>
      <trkpt lat="44.87769" lon="5.42764">
        <ele>1185.91</ele>
        <time>2019-08-25T08:53:03Z</time>
      </trkpt>
      <trkpt lat="44.87782" lon="5.42771">
        <ele>1186.78</ele>
        <time>2019-08-25T08:53:13Z</time>
      </trkpt>
      <trkpt lat="44.87789" lon="5.42775">
        <ele>1187.42</ele>
        <time>2019-08-25T08:53:18Z</time>
      </trkpt>
      <trkpt lat="44.87792" lon="5.42776">
        <ele>1187.76</ele>
        <time>2019-08-25T08:53:20Z</time>
      </trkpt>
      <trkpt lat="44.87794" lon="5.42777">
        <ele>1187.88</ele>
        <time>2019-08-25T08:53:21Z</time>
      </trkpt>
      <trkpt lat="44.87795" lon="5.42777">
        <ele>1188</ele>
        <time>2019-08-25T08:53:22Z</time>
      </trkpt>
      <trkpt lat="44.87807" lon="5.42786">
        <ele>1189</ele>
        <time>2019-08-25T08:53:30Z</time>
      </trkpt>
      <trkpt lat="44.8781" lon="5.42788">
        <ele>1189.26</ele>
        <time>2019-08-25T08:53:32Z</time>
      </trkpt>
      <trkpt lat="44.8782" lon="5.42797">
        <ele>1189.86</ele>
        <time>2019-08-25T08:53:39Z</time>
      </trkpt>
      <trkpt lat="44.87823" lon="5.428">
        <ele>1189.96</ele>
        <time>2019-08-25T08:53:40Z</time>
      </trkpt>
      <trkpt lat="44.87825" lon="5.42801">
        <ele>1190.06</ele>
        <time>2019-08-25T08:53:41Z</time>
      </trkpt>
      <trkpt lat="44.87827" lon="5.42803">
        <ele>1190.17</ele>
        <time>2019-08-25T08:53:42Z</time>
      </trkpt>
      <trkpt lat="44.87834" lon="5.42808">
        <ele>1190.99</ele>
        <time>2019-08-25T08:53:48Z</time>
      </trkpt>
      <trkpt lat="44.87853" lon="5.42817">
        <ele>1192.22</ele>
        <time>2019-08-25T08:54:00Z</time>
      </trkpt>
      <trkpt lat="44.87859" lon="5.42821">
        <ele>1192.73</ele>
        <time>2019-08-25T08:54:05Z</time>
      </trkpt>
      <trkpt lat="44.87887" lon="5.4283">
        <ele>1194.86</ele>
        <time>2019-08-25T08:54:22Z</time>
      </trkpt>
      <trkpt lat="44.87927" lon="5.42834">
        <ele>1197.4</ele>
        <time>2019-08-25T08:54:45Z</time>
      </trkpt>
      <trkpt lat="44.87946" lon="5.42843">
        <ele>1198.35</ele>
        <time>2019-08-25T08:54:56Z</time>
      </trkpt>
      <trkpt lat="44.87948" lon="5.42843">
        <ele>1198.49</ele>
        <time>2019-08-25T08:54:57Z</time>
      </trkpt>
      <trkpt lat="44.8795" lon="5.42844">
        <ele>1198.49</ele>
        <time>2019-08-25T08:54:58Z</time>
      </trkpt>
      <trkpt lat="44.87952" lon="5.42845">
        <ele>1198.63</ele>
        <time>2019-08-25T08:54:59Z</time>
      </trkpt>
      <trkpt lat="44.87954" lon="5.42847">
        <ele>1198.68</ele>
        <time>2019-08-25T08:55:00Z</time>
      </trkpt>
      <trkpt lat="44.8796" lon="5.42848">
        <ele>1198.95</ele>
        <time>2019-08-25T08:55:04Z</time>
      </trkpt>
      <trkpt lat="44.8798" lon="5.42866">
        <ele>1199.94</ele>
        <time>2019-08-25T08:55:18Z</time>
      </trkpt>
      <trkpt lat="44.88" lon="5.42886">
        <ele>1201.4</ele>
        <time>2019-08-25T08:55:35Z</time>
      </trkpt>
      <trkpt lat="44.88031" lon="5.42897">
        <ele>1202.89</ele>
        <time>2019-08-25T08:55:50Z</time>
      </trkpt>
      <trkpt lat="44.88052" lon="5.42899">
        <ele>1203.78</ele>
        <time>2019-08-25T08:56:00Z</time>
      </trkpt>
      <trkpt lat="44.88072" lon="5.42911">
        <ele>1204.5</ele>
        <time>2019-08-25T08:56:12Z</time>
      </trkpt>
      <trkpt lat="44.88086" lon="5.42937">
        <ele>1205.7</ele>
        <time>2019-08-25T08:56:25Z</time>
      </trkpt>
      <trkpt lat="44.88087" lon="5.42938">
        <ele>1205.83</ele>
        <time>2019-08-25T08:56:26Z</time>
      </trkpt>
      <trkpt lat="44.88089" lon="5.4294">
        <ele>1205.95</ele>
        <time>2019-08-25T08:56:27Z</time>
      </trkpt>
      <trkpt lat="44.88091" lon="5.42942">
        <ele>1206.06</ele>
        <time>2019-08-25T08:56:28Z</time>
      </trkpt>
      <trkpt lat="44.88093" lon="5.42944">
        <ele>1206.16</ele>
        <time>2019-08-25T08:56:29Z</time>
      </trkpt>
      <trkpt lat="44.88094" lon="5.42945">
        <ele>1206.25</ele>
        <time>2019-08-25T08:56:30Z</time>
      </trkpt>
      <trkpt lat="44.88097" lon="5.42951">
        <ele>1206.46</ele>
        <time>2019-08-25T08:56:33Z</time>
      </trkpt>
      <trkpt lat="44.88099" lon="5.42953">
        <ele>1206.52</ele>
        <time>2019-08-25T08:56:34Z</time>
      </trkpt>
      <trkpt lat="44.881" lon="5.42955">
        <ele>1206.57</ele>
        <time>2019-08-25T08:56:35Z</time>
      </trkpt>
      <trkpt lat="44.88102" lon="5.42957">
        <ele>1206.65</ele>
        <time>2019-08-25T08:56:36Z</time>
      </trkpt>
      <trkpt lat="44.88103" lon="5.42958">
        <ele>1206.85</ele>
        <time>2019-08-25T08:56:37Z</time>
      </trkpt>
      <trkpt lat="44.88104" lon="5.4296">
        <ele>1206.95</ele>
        <time>2019-08-25T08:56:38Z</time>
      </trkpt>
      <trkpt lat="44.88123" lon="5.42978">
        <ele>1207.83</ele>
        <time>2019-08-25T08:56:51Z</time>
      </trkpt>
      <trkpt lat="44.88125" lon="5.42979">
        <ele>1207.89</ele>
        <time>2019-08-25T08:56:52Z</time>
      </trkpt>
      <trkpt lat="44.88145" lon="5.42995">
        <ele>1208.68</ele>
        <time>2019-08-25T08:57:03Z</time>
      </trkpt>
      <trkpt lat="44.88167" lon="5.4302">
        <ele>1209.95</ele>
        <time>2019-08-25T08:57:16Z</time>
      </trkpt>
      <trkpt lat="44.88184" lon="5.43032">
        <ele>1211.02</ele>
        <time>2019-08-25T08:57:27Z</time>
      </trkpt>
      <trkpt lat="44.88198" lon="5.4304">
        <ele>1211.97</ele>
        <time>2019-08-25T08:57:36Z</time>
      </trkpt>
      <trkpt lat="44.88213" lon="5.43047">
        <ele>1212.86</ele>
        <time>2019-08-25T08:57:44Z</time>
      </trkpt>
      <trkpt lat="44.88231" lon="5.43055">
        <ele>1214.07</ele>
        <time>2019-08-25T08:57:56Z</time>
      </trkpt>
      <trkpt lat="44.8824" lon="5.43061">
        <ele>1214.74</ele>
        <time>2019-08-25T08:58:02Z</time>
      </trkpt>
      <trkpt lat="44.88253" lon="5.43066">
        <ele>1215.67</ele>
        <time>2019-08-25T08:58:11Z</time>
      </trkpt>
      <trkpt lat="44.88262" lon="5.43072">
        <ele>1216.32</ele>
        <time>2019-08-25T08:58:17Z</time>
      </trkpt>
      <trkpt lat="44.88279" lon="5.43079">
        <ele>1217.46</ele>
        <time>2019-08-25T08:58:29Z</time>
      </trkpt>
      <trkpt lat="44.88306" lon="5.43086">
        <ele>1218.81</ele>
        <time>2019-08-25T08:58:42Z</time>
      </trkpt>
      <trkpt lat="44.88322" lon="5.43101">
        <ele>1220.67</ele>
        <time>2019-08-25T08:58:55Z</time>
      </trkpt>
      <trkpt lat="44.88323" lon="5.43102">
        <ele>1220.82</ele>
        <time>2019-08-25T08:58:56Z</time>
      </trkpt>
      <trkpt lat="44.88337" lon="5.43112">
        <ele>1221.87</ele>
        <time>2019-08-25T08:59:05Z</time>
      </trkpt>
      <trkpt lat="44.88363" lon="5.4312">
        <ele>1223.13</ele>
        <time>2019-08-25T08:59:18Z</time>
      </trkpt>
      <trkpt lat="44.88388" lon="5.43132">
        <ele>1224.85</ele>
        <time>2019-08-25T08:59:32Z</time>
      </trkpt>
      <trkpt lat="44.88417" lon="5.43132">
        <ele>1226.71</ele>
        <time>2019-08-25T08:59:46Z</time>
      </trkpt>
      <trkpt lat="44.88436" lon="5.43128">
        <ele>1228.46</ele>
        <time>2019-08-25T08:59:58Z</time>
      </trkpt>
      <trkpt lat="44.88458" lon="5.43126">
        <ele>1230.27</ele>
        <time>2019-08-25T09:00:12Z</time>
      </trkpt>
      <trkpt lat="44.88471" lon="5.43134">
        <ele>1232.38</ele>
        <time>2019-08-25T09:00:24Z</time>
      </trkpt>
      <trkpt lat="44.88474" lon="5.43137">
        <ele>1232.88</ele>
        <time>2019-08-25T09:00:27Z</time>
      </trkpt>
      <trkpt lat="44.88486" lon="5.4315">
        <ele>1234.6</ele>
        <time>2019-08-25T09:00:37Z</time>
      </trkpt>
      <trkpt lat="44.88488" lon="5.4315">
        <ele>1234.75</ele>
        <time>2019-08-25T09:00:38Z</time>
      </trkpt>
      <trkpt lat="44.88489" lon="5.43151">
        <ele>1234.9</ele>
        <time>2019-08-25T09:00:39Z</time>
      </trkpt>
      <trkpt lat="44.88502" lon="5.4316">
        <ele>1236.32</ele>
        <time>2019-08-25T09:00:48Z</time>
      </trkpt>
      <trkpt lat="44.8852" lon="5.43175">
        <ele>1237.98</ele>
        <time>2019-08-25T09:01:00Z</time>
      </trkpt>
      <trkpt lat="44.88537" lon="5.43199">
        <ele>1239.23</ele>
        <time>2019-08-25T09:01:12Z</time>
      </trkpt>
      <trkpt lat="44.88551" lon="5.43225">
        <ele>1240.73</ele>
        <time>2019-08-25T09:01:24Z</time>
      </trkpt>
      <trkpt lat="44.88553" lon="5.43227">
        <ele>1240.87</ele>
        <time>2019-08-25T09:01:25Z</time>
      </trkpt>
      <trkpt lat="44.88555" lon="5.43229">
        <ele>1241.03</ele>
        <time>2019-08-25T09:01:26Z</time>
      </trkpt>
      <trkpt lat="44.88556" lon="5.43231">
        <ele>1241.19</ele>
        <time>2019-08-25T09:01:27Z</time>
      </trkpt>
      <trkpt lat="44.88557" lon="5.43234">
        <ele>1241.34</ele>
        <time>2019-08-25T09:01:28Z</time>
      </trkpt>
      <trkpt lat="44.8856" lon="5.43238">
        <ele>1241.78</ele>
        <time>2019-08-25T09:01:30Z</time>
      </trkpt>
      <trkpt lat="44.88561" lon="5.4324">
        <ele>1241.89</ele>
        <time>2019-08-25T09:01:31Z</time>
      </trkpt>
      <trkpt lat="44.88562" lon="5.43243">
        <ele>1241.99</ele>
        <time>2019-08-25T09:01:32Z</time>
      </trkpt>
      <trkpt lat="44.88562" lon="5.43244">
        <ele>1242.1</ele>
        <time>2019-08-25T09:01:33Z</time>
      </trkpt>
      <trkpt lat="44.88563" lon="5.43246">
        <ele>1242.21</ele>
        <time>2019-08-25T09:01:34Z</time>
      </trkpt>
      <trkpt lat="44.88564" lon="5.43248">
        <ele>1242.32</ele>
        <time>2019-08-25T09:01:35Z</time>
      </trkpt>
      <trkpt lat="44.88565" lon="5.4325">
        <ele>1242.4</ele>
        <time>2019-08-25T09:01:36Z</time>
      </trkpt>
      <trkpt lat="44.88576" lon="5.43271">
        <ele>1243.79</ele>
        <time>2019-08-25T09:01:47Z</time>
      </trkpt>
      <trkpt lat="44.88577" lon="5.43273">
        <ele>1243.9</ele>
        <time>2019-08-25T09:01:48Z</time>
      </trkpt>
      <trkpt lat="44.88592" lon="5.43305">
        <ele>1245.93</ele>
        <time>2019-08-25T09:02:03Z</time>
      </trkpt>
      <trkpt lat="44.88603" lon="5.43326">
        <ele>1247.22</ele>
        <time>2019-08-25T09:02:15Z</time>
      </trkpt>
      <trkpt lat="44.88614" lon="5.43336">
        <ele>1248.96</ele>
        <time>2019-08-25T09:02:26Z</time>
      </trkpt>
      <trkpt lat="44.88627" lon="5.43347">
        <ele>1250.18</ele>
        <time>2019-08-25T09:02:36Z</time>
      </trkpt>
      <trkpt lat="44.88638" lon="5.43369">
        <ele>1251.65</ele>
        <time>2019-08-25T09:02:45Z</time>
      </trkpt>
      <trkpt lat="44.88639" lon="5.43382">
        <ele>1252.47</ele>
        <time>2019-08-25T09:02:50Z</time>
      </trkpt>
      <trkpt lat="44.88641" lon="5.43391">
        <ele>1252.96</ele>
        <time>2019-08-25T09:02:53Z</time>
      </trkpt>
      <trkpt lat="44.88641" lon="5.43394">
        <ele>1253.13</ele>
        <time>2019-08-25T09:02:54Z</time>
      </trkpt>
      <trkpt lat="44.88645" lon="5.43422">
        <ele>1254.72</ele>
        <time>2019-08-25T09:03:07Z</time>
      </trkpt>
      <trkpt lat="44.88646" lon="5.43425">
        <ele>1254.91</ele>
        <time>2019-08-25T09:03:08Z</time>
      </trkpt>
      <trkpt lat="44.88655" lon="5.43453">
        <ele>1256.87</ele>
        <time>2019-08-25T09:03:22Z</time>
      </trkpt>
      <trkpt lat="44.88656" lon="5.43457">
        <ele>1257.18</ele>
        <time>2019-08-25T09:03:25Z</time>
      </trkpt>
      <trkpt lat="44.88656" lon="5.43459">
        <ele>1257.31</ele>
        <time>2019-08-25T09:03:26Z</time>
      </trkpt>
      <trkpt lat="44.88656" lon="5.4346">
        <ele>1257.43</ele>
        <time>2019-08-25T09:03:27Z</time>
      </trkpt>
      <trkpt lat="44.88656" lon="5.43462">
        <ele>1257.54</ele>
        <time>2019-08-25T09:03:28Z</time>
      </trkpt>
      <trkpt lat="44.88656" lon="5.43464">
        <ele>1257.65</ele>
        <time>2019-08-25T09:03:29Z</time>
      </trkpt>
      <trkpt lat="44.88657" lon="5.43465">
        <ele>1257.75</ele>
        <time>2019-08-25T09:03:30Z</time>
      </trkpt>
      <trkpt lat="44.88657" lon="5.43467">
        <ele>1257.86</ele>
        <time>2019-08-25T09:03:31Z</time>
      </trkpt>
      <trkpt lat="44.88656" lon="5.43468">
        <ele>1257.97</ele>
        <time>2019-08-25T09:03:32Z</time>
      </trkpt>
      <trkpt lat="44.88656" lon="5.4347">
        <ele>1258.08</ele>
        <time>2019-08-25T09:03:33Z</time>
      </trkpt>
      <trkpt lat="44.88657" lon="5.43472">
        <ele>1258.21</ele>
        <time>2019-08-25T09:03:34Z</time>
      </trkpt>
      <trkpt lat="44.88657" lon="5.43475">
        <ele>1258.35</ele>
        <time>2019-08-25T09:03:35Z</time>
      </trkpt>
      <trkpt lat="44.88658" lon="5.43477">
        <ele>1258.47</ele>
        <time>2019-08-25T09:03:36Z</time>
      </trkpt>
      <trkpt lat="44.88659" lon="5.4348">
        <ele>1258.66</ele>
        <time>2019-08-25T09:03:37Z</time>
      </trkpt>
      <trkpt lat="44.88659" lon="5.43482">
        <ele>1258.73</ele>
        <time>2019-08-25T09:03:38Z</time>
      </trkpt>
      <trkpt lat="44.88659" lon="5.43485">
        <ele>1258.81</ele>
        <time>2019-08-25T09:03:39Z</time>
      </trkpt>
      <trkpt lat="44.88664" lon="5.43516">
        <ele>1260.83</ele>
        <time>2019-08-25T09:03:52Z</time>
      </trkpt>
      <trkpt lat="44.88674" lon="5.43548">
        <ele>1262.64</ele>
        <time>2019-08-25T09:04:06Z</time>
      </trkpt>
      <trkpt lat="44.88687" lon="5.43585">
        <ele>1264.66</ele>
        <time>2019-08-25T09:04:23Z</time>
      </trkpt>
      <trkpt lat="44.88701" lon="5.43613">
        <ele>1266.81</ele>
        <time>2019-08-25T09:04:38Z</time>
      </trkpt>
      <trkpt lat="44.88709" lon="5.43629">
        <ele>1267.88</ele>
        <time>2019-08-25T09:04:48Z</time>
      </trkpt>
      <trkpt lat="44.88725" lon="5.43653">
        <ele>1269.93</ele>
        <time>2019-08-25T09:05:02Z</time>
      </trkpt>
      <trkpt lat="44.88743" lon="5.43682">
        <ele>1272.37</ele>
        <time>2019-08-25T09:05:18Z</time>
      </trkpt>
      <trkpt lat="44.88751" lon="5.43695">
        <ele>1273.39</ele>
        <time>2019-08-25T09:05:27Z</time>
      </trkpt>
      <trkpt lat="44.88768" lon="5.43704">
        <ele>1274.95</ele>
        <time>2019-08-25T09:05:40Z</time>
      </trkpt>
      <trkpt lat="44.88783" lon="5.4372">
        <ele>1276.78</ele>
        <time>2019-08-25T09:05:52Z</time>
      </trkpt>
      <trkpt lat="44.88785" lon="5.43722">
        <ele>1276.96</ele>
        <time>2019-08-25T09:05:53Z</time>
      </trkpt>
      <trkpt lat="44.88786" lon="5.43723">
        <ele>1277.11</ele>
        <time>2019-08-25T09:05:54Z</time>
      </trkpt>
      <trkpt lat="44.88787" lon="5.43724">
        <ele>1277.25</ele>
        <time>2019-08-25T09:05:55Z</time>
      </trkpt>
      <trkpt lat="44.88788" lon="5.43726">
        <ele>1277.39</ele>
        <time>2019-08-25T09:05:56Z</time>
      </trkpt>
      <trkpt lat="44.88789" lon="5.43727">
        <ele>1277.53</ele>
        <time>2019-08-25T09:05:57Z</time>
      </trkpt>
      <trkpt lat="44.88803" lon="5.43744">
        <ele>1279.12</ele>
        <time>2019-08-25T09:06:10Z</time>
      </trkpt>
      <trkpt lat="44.88804" lon="5.43746">
        <ele>1279.23</ele>
        <time>2019-08-25T09:06:11Z</time>
      </trkpt>
      <trkpt lat="44.88813" lon="5.43773">
        <ele>1280.93</ele>
        <time>2019-08-25T09:06:24Z</time>
      </trkpt>
      <trkpt lat="44.88817" lon="5.43784">
        <ele>1281.87</ele>
        <time>2019-08-25T09:06:30Z</time>
      </trkpt>
      <trkpt lat="44.88818" lon="5.43785">
        <ele>1282.01</ele>
        <time>2019-08-25T09:06:31Z</time>
      </trkpt>
      <trkpt lat="44.88819" lon="5.43786">
        <ele>1282.17</ele>
        <time>2019-08-25T09:06:32Z</time>
      </trkpt>
      <trkpt lat="44.88833" lon="5.43803">
        <ele>1284.21</ele>
        <time>2019-08-25T09:06:48Z</time>
      </trkpt>
      <trkpt lat="44.88855" lon="5.43833">
        <ele>1286.22</ele>
        <time>2019-08-25T09:07:10Z</time>
      </trkpt>
      <trkpt lat="44.88861" lon="5.4384">
        <ele>1286.78</ele>
        <time>2019-08-25T09:07:15Z</time>
      </trkpt>
      <trkpt lat="44.88862" lon="5.43841">
        <ele>1286.89</ele>
        <time>2019-08-25T09:07:16Z</time>
      </trkpt>
      <trkpt lat="44.88863" lon="5.43843">
        <ele>1287.01</ele>
        <time>2019-08-25T09:07:17Z</time>
      </trkpt>
      <trkpt lat="44.88865" lon="5.43845">
        <ele>1287.14</ele>
        <time>2019-08-25T09:07:18Z</time>
      </trkpt>
      <trkpt lat="44.88866" lon="5.43846">
        <ele>1287.29</ele>
        <time>2019-08-25T09:07:19Z</time>
      </trkpt>
      <trkpt lat="44.88867" lon="5.43847">
        <ele>1287.42</ele>
        <time>2019-08-25T09:07:20Z</time>
      </trkpt>
      <trkpt lat="44.8888" lon="5.43857">
        <ele>1288.81</ele>
        <time>2019-08-25T09:07:32Z</time>
      </trkpt>
      <trkpt lat="44.88901" lon="5.43874">
        <ele>1291.2</ele>
        <time>2019-08-25T09:07:51Z</time>
      </trkpt>
      <trkpt lat="44.88915" lon="5.43885">
        <ele>1292.1</ele>
        <time>2019-08-25T09:08:02Z</time>
      </trkpt>
      <trkpt lat="44.88922" lon="5.43888">
        <ele>1292.45</ele>
        <time>2019-08-25T09:08:08Z</time>
      </trkpt>
      <trkpt lat="44.88947" lon="5.43896">
        <ele>1294.15</ele>
        <time>2019-08-25T09:08:22Z</time>
      </trkpt>
      <trkpt lat="44.88948" lon="5.43898">
        <ele>1294.24</ele>
        <time>2019-08-25T09:08:23Z</time>
      </trkpt>
      <trkpt lat="44.88949" lon="5.439">
        <ele>1294.34</ele>
        <time>2019-08-25T09:08:24Z</time>
      </trkpt>
      <trkpt lat="44.8895" lon="5.43902">
        <ele>1294.47</ele>
        <time>2019-08-25T09:08:25Z</time>
      </trkpt>
      <trkpt lat="44.8895" lon="5.43904">
        <ele>1294.63</ele>
        <time>2019-08-25T09:08:26Z</time>
      </trkpt>
      <trkpt lat="44.8895" lon="5.43906">
        <ele>1294.78</ele>
        <time>2019-08-25T09:08:27Z</time>
      </trkpt>
      <trkpt lat="44.88949" lon="5.43908">
        <ele>1294.92</ele>
        <time>2019-08-25T09:08:28Z</time>
      </trkpt>
      <trkpt lat="44.88949" lon="5.4391">
        <ele>1295.07</ele>
        <time>2019-08-25T09:08:29Z</time>
      </trkpt>
      <trkpt lat="44.88948" lon="5.4391">
        <ele>1295.24</ele>
        <time>2019-08-25T09:08:30Z</time>
      </trkpt>
      <trkpt lat="44.88947" lon="5.43911">
        <ele>1295.43</ele>
        <time>2019-08-25T09:08:31Z</time>
      </trkpt>
      <trkpt lat="44.88941" lon="5.43909">
        <ele>1297.07</ele>
        <time>2019-08-25T09:08:46Z</time>
      </trkpt>
      <trkpt lat="44.8894" lon="5.43911">
        <ele>1296.99</ele>
        <time>2019-08-25T09:09:09Z</time>
      </trkpt>
      <trkpt lat="44.88938" lon="5.43912">
        <ele>1296.99</ele>
        <time>2019-08-25T09:09:11Z</time>
      </trkpt>
      <trkpt lat="44.88937" lon="5.43912">
        <ele>1297.01</ele>
        <time>2019-08-25T09:09:12Z</time>
      </trkpt>
      <trkpt lat="44.88924" lon="5.43911">
        <ele>1297.65</ele>
        <time>2019-08-25T09:09:21Z</time>
      </trkpt>
      <trkpt lat="44.88923" lon="5.43911">
        <ele>1297.65</ele>
        <time>2019-08-25T09:09:22Z</time>
      </trkpt>
      <trkpt lat="44.8892" lon="5.43911">
        <ele>1297.9</ele>
        <time>2019-08-25T09:09:25Z</time>
      </trkpt>
      <trkpt lat="44.88914" lon="5.43907">
        <ele>1298.45</ele>
        <time>2019-08-25T09:09:33Z</time>
      </trkpt>
      <trkpt lat="44.88912" lon="5.43906">
        <ele>1298.53</ele>
        <time>2019-08-25T09:09:34Z</time>
      </trkpt>
      <trkpt lat="44.88899" lon="5.43897">
        <ele>1299.35</ele>
        <time>2019-08-25T09:09:45Z</time>
      </trkpt>
      <trkpt lat="44.88889" lon="5.4389">
        <ele>1300.02</ele>
        <time>2019-08-25T09:09:53Z</time>
      </trkpt>
      <trkpt lat="44.88869" lon="5.43883">
        <ele>1301.36</ele>
        <time>2019-08-25T09:10:07Z</time>
      </trkpt>
      <trkpt lat="44.88867" lon="5.43883">
        <ele>1301.44</ele>
        <time>2019-08-25T09:10:08Z</time>
      </trkpt>
      <trkpt lat="44.88865" lon="5.43883">
        <ele>1301.52</ele>
        <time>2019-08-25T09:10:09Z</time>
      </trkpt>
      <trkpt lat="44.88863" lon="5.43883">
        <ele>1301.6</ele>
        <time>2019-08-25T09:10:10Z</time>
      </trkpt>
      <trkpt lat="44.88862" lon="5.43883">
        <ele>1301.67</ele>
        <time>2019-08-25T09:10:11Z</time>
      </trkpt>
      <trkpt lat="44.88861" lon="5.43884">
        <ele>1301.77</ele>
        <time>2019-08-25T09:10:12Z</time>
      </trkpt>
      <trkpt lat="44.88859" lon="5.43884">
        <ele>1302.01</ele>
        <time>2019-08-25T09:10:13Z</time>
      </trkpt>
      <trkpt lat="44.88857" lon="5.43885">
        <ele>1302.14</ele>
        <time>2019-08-25T09:10:14Z</time>
      </trkpt>
      <trkpt lat="44.88856" lon="5.43885">
        <ele>1302.27</ele>
        <time>2019-08-25T09:10:15Z</time>
      </trkpt>
      <trkpt lat="44.88854" lon="5.43885">
        <ele>1302.41</ele>
        <time>2019-08-25T09:10:16Z</time>
      </trkpt>
      <trkpt lat="44.88853" lon="5.43886">
        <ele>1302.52</ele>
        <time>2019-08-25T09:10:17Z</time>
      </trkpt>
      <trkpt lat="44.88852" lon="5.43887">
        <ele>1302.62</ele>
        <time>2019-08-25T09:10:18Z</time>
      </trkpt>
      <trkpt lat="44.88836" lon="5.43896">
        <ele>1303.8</ele>
        <time>2019-08-25T09:10:31Z</time>
      </trkpt>
      <trkpt lat="44.8882" lon="5.4391">
        <ele>1304.84</ele>
        <time>2019-08-25T09:10:43Z</time>
      </trkpt>
      <trkpt lat="44.88813" lon="5.43918">
        <ele>1305.11</ele>
        <time>2019-08-25T09:10:48Z</time>
      </trkpt>
      <trkpt lat="44.88812" lon="5.43919">
        <ele>1305.15</ele>
        <time>2019-08-25T09:10:49Z</time>
      </trkpt>
      <trkpt lat="44.88791" lon="5.4393">
        <ele>1305.6</ele>
        <time>2019-08-25T09:11:01Z</time>
      </trkpt>
      <trkpt lat="44.88778" lon="5.43923">
        <ele>1305.79</ele>
        <time>2019-08-25T09:11:12Z</time>
      </trkpt>
      <trkpt lat="44.88753" lon="5.43911">
        <ele>1306.03</ele>
        <time>2019-08-25T09:11:25Z</time>
      </trkpt>
      <trkpt lat="44.88744" lon="5.43904">
        <ele>1306.41</ele>
        <time>2019-08-25T09:11:33Z</time>
      </trkpt>
      <trkpt lat="44.88743" lon="5.43903">
        <ele>1306.48</ele>
        <time>2019-08-25T09:11:34Z</time>
      </trkpt>
      <trkpt lat="44.8873" lon="5.4389">
        <ele>1307.34</ele>
        <time>2019-08-25T09:11:44Z</time>
      </trkpt>
      <trkpt lat="44.88717" lon="5.43871">
        <ele>1308.61</ele>
        <time>2019-08-25T09:11:54Z</time>
      </trkpt>
      <trkpt lat="44.88711" lon="5.43856">
        <ele>1309.21</ele>
        <time>2019-08-25T09:12:01Z</time>
      </trkpt>
      <trkpt lat="44.88711" lon="5.43854">
        <ele>1309.3</ele>
        <time>2019-08-25T09:12:02Z</time>
      </trkpt>
      <trkpt lat="44.8871" lon="5.43851">
        <ele>1309.41</ele>
        <time>2019-08-25T09:12:03Z</time>
      </trkpt>
      <trkpt lat="44.8871" lon="5.43849">
        <ele>1309.53</ele>
        <time>2019-08-25T09:12:04Z</time>
      </trkpt>
      <trkpt lat="44.88709" lon="5.43847">
        <ele>1309.64</ele>
        <time>2019-08-25T09:12:05Z</time>
      </trkpt>
      <trkpt lat="44.88709" lon="5.43844">
        <ele>1309.74</ele>
        <time>2019-08-25T09:12:06Z</time>
      </trkpt>
      <trkpt lat="44.88709" lon="5.43833">
        <ele>1310.19</ele>
        <time>2019-08-25T09:12:11Z</time>
      </trkpt>
      <trkpt lat="44.88709" lon="5.43831">
        <ele>1310.29</ele>
        <time>2019-08-25T09:12:12Z</time>
      </trkpt>
      <trkpt lat="44.88709" lon="5.43829">
        <ele>1310.44</ele>
        <time>2019-08-25T09:12:13Z</time>
      </trkpt>
      <trkpt lat="44.88709" lon="5.43826">
        <ele>1310.61</ele>
        <time>2019-08-25T09:12:14Z</time>
      </trkpt>
      <trkpt lat="44.88709" lon="5.43824">
        <ele>1310.86</ele>
        <time>2019-08-25T09:12:15Z</time>
      </trkpt>
      <trkpt lat="44.88709" lon="5.43822">
        <ele>1310.86</ele>
        <time>2019-08-25T09:12:16Z</time>
      </trkpt>
      <trkpt lat="44.88709" lon="5.43819">
        <ele>1311.06</ele>
        <time>2019-08-25T09:12:17Z</time>
      </trkpt>
      <trkpt lat="44.88709" lon="5.43817">
        <ele>1311.16</ele>
        <time>2019-08-25T09:12:18Z</time>
      </trkpt>
      <trkpt lat="44.88709" lon="5.43815">
        <ele>1311.3</ele>
        <time>2019-08-25T09:12:19Z</time>
      </trkpt>
      <trkpt lat="44.88711" lon="5.4379">
        <ele>1313.22</ele>
        <time>2019-08-25T09:12:31Z</time>
      </trkpt>
      <trkpt lat="44.88708" lon="5.43763">
        <ele>1314.5</ele>
        <time>2019-08-25T09:12:44Z</time>
      </trkpt>
      <trkpt lat="44.88692" lon="5.43745">
        <ele>1315.09</ele>
        <time>2019-08-25T09:12:54Z</time>
      </trkpt>
      <trkpt lat="44.88673" lon="5.43733">
        <ele>1316.55</ele>
        <time>2019-08-25T09:13:08Z</time>
      </trkpt>
      <trkpt lat="44.88659" lon="5.43726">
        <ele>1317.56</ele>
        <time>2019-08-25T09:13:17Z</time>
      </trkpt>
      <trkpt lat="44.88635" lon="5.43719">
        <ele>1319.61</ele>
        <time>2019-08-25T09:13:33Z</time>
      </trkpt>
      <trkpt lat="44.88624" lon="5.43723">
        <ele>1320.89</ele>
        <time>2019-08-25T09:13:42Z</time>
      </trkpt>
      <trkpt lat="44.88623" lon="5.43725">
        <ele>1321.06</ele>
        <time>2019-08-25T09:13:43Z</time>
      </trkpt>
      <trkpt lat="44.88622" lon="5.43726">
        <ele>1321.21</ele>
        <time>2019-08-25T09:13:44Z</time>
      </trkpt>
      <trkpt lat="44.88622" lon="5.43728">
        <ele>1321.47</ele>
        <time>2019-08-25T09:13:45Z</time>
      </trkpt>
      <trkpt lat="44.88621" lon="5.4373">
        <ele>1321.61</ele>
        <time>2019-08-25T09:13:46Z</time>
      </trkpt>
      <trkpt lat="44.8862" lon="5.43732">
        <ele>1321.75</ele>
        <time>2019-08-25T09:13:47Z</time>
      </trkpt>
      <trkpt lat="44.8862" lon="5.43734">
        <ele>1321.88</ele>
        <time>2019-08-25T09:13:48Z</time>
      </trkpt>
      <trkpt lat="44.8862" lon="5.43736">
        <ele>1322</ele>
        <time>2019-08-25T09:13:49Z</time>
      </trkpt>
      <trkpt lat="44.8862" lon="5.43738">
        <ele>1322.1</ele>
        <time>2019-08-25T09:13:50Z</time>
      </trkpt>
      <trkpt lat="44.88629" lon="5.43756">
        <ele>1323.39</ele>
        <time>2019-08-25T09:14:02Z</time>
      </trkpt>
      <trkpt lat="44.88635" lon="5.43765">
        <ele>1324.18</ele>
        <time>2019-08-25T09:14:08Z</time>
      </trkpt>
      <trkpt lat="44.88644" lon="5.43785">
        <ele>1325.78</ele>
        <time>2019-08-25T09:14:19Z</time>
      </trkpt>
      <trkpt lat="44.88651" lon="5.43809">
        <ele>1327.38</ele>
        <time>2019-08-25T09:14:32Z</time>
      </trkpt>
      <trkpt lat="44.88651" lon="5.43811">
        <ele>1327.53</ele>
        <time>2019-08-25T09:14:33Z</time>
      </trkpt>
      <trkpt lat="44.88652" lon="5.43813">
        <ele>1327.69</ele>
        <time>2019-08-25T09:14:34Z</time>
      </trkpt>
      <trkpt lat="44.88652" lon="5.43815">
        <ele>1327.82</ele>
        <time>2019-08-25T09:14:35Z</time>
      </trkpt>
      <trkpt lat="44.88653" lon="5.43818">
        <ele>1327.93</ele>
        <time>2019-08-25T09:14:36Z</time>
      </trkpt>
      <trkpt lat="44.88654" lon="5.4382">
        <ele>1328.12</ele>
        <time>2019-08-25T09:14:37Z</time>
      </trkpt>
      <trkpt lat="44.88657" lon="5.43833">
        <ele>1328.81</ele>
        <time>2019-08-25T09:14:42Z</time>
      </trkpt>
      <trkpt lat="44.88657" lon="5.43835">
        <ele>1328.97</ele>
        <time>2019-08-25T09:14:43Z</time>
      </trkpt>
      <trkpt lat="44.88657" lon="5.43837">
        <ele>1329.12</ele>
        <time>2019-08-25T09:14:44Z</time>
      </trkpt>
      <trkpt lat="44.88658" lon="5.4384">
        <ele>1329.28</ele>
        <time>2019-08-25T09:14:45Z</time>
      </trkpt>
      <trkpt lat="44.88659" lon="5.43843">
        <ele>1329.45</ele>
        <time>2019-08-25T09:14:46Z</time>
      </trkpt>
      <trkpt lat="44.88659" lon="5.43845">
        <ele>1329.62</ele>
        <time>2019-08-25T09:14:47Z</time>
      </trkpt>
      <trkpt lat="44.88668" lon="5.43875">
        <ele>1331.51</ele>
        <time>2019-08-25T09:15:00Z</time>
      </trkpt>
      <trkpt lat="44.88667" lon="5.43878">
        <ele>1331.63</ele>
        <time>2019-08-25T09:15:01Z</time>
      </trkpt>
      <trkpt lat="44.88665" lon="5.43907">
        <ele>1333.75</ele>
        <time>2019-08-25T09:15:15Z</time>
      </trkpt>
      <trkpt lat="44.88664" lon="5.43912">
        <ele>1334.08</ele>
        <time>2019-08-25T09:15:18Z</time>
      </trkpt>
      <trkpt lat="44.88664" lon="5.43915">
        <ele>1334.18</ele>
        <time>2019-08-25T09:15:19Z</time>
      </trkpt>
      <trkpt lat="44.88663" lon="5.43924">
        <ele>1334.85</ele>
        <time>2019-08-25T09:15:24Z</time>
      </trkpt>
      <trkpt lat="44.88663" lon="5.43926">
        <ele>1334.98</ele>
        <time>2019-08-25T09:15:25Z</time>
      </trkpt>
      <trkpt lat="44.88663" lon="5.43928">
        <ele>1335.11</ele>
        <time>2019-08-25T09:15:26Z</time>
      </trkpt>
      <trkpt lat="44.88663" lon="5.4393">
        <ele>1335.33</ele>
        <time>2019-08-25T09:15:27Z</time>
      </trkpt>
      <trkpt lat="44.88663" lon="5.43933">
        <ele>1335.43</ele>
        <time>2019-08-25T09:15:28Z</time>
      </trkpt>
      <trkpt lat="44.88663" lon="5.43935">
        <ele>1335.52</ele>
        <time>2019-08-25T09:15:29Z</time>
      </trkpt>
      <trkpt lat="44.88663" lon="5.43938">
        <ele>1335.6</ele>
        <time>2019-08-25T09:15:30Z</time>
      </trkpt>
      <trkpt lat="44.88663" lon="5.43941">
        <ele>1335.69</ele>
        <time>2019-08-25T09:15:31Z</time>
      </trkpt>
      <trkpt lat="44.88663" lon="5.43943">
        <ele>1335.78</ele>
        <time>2019-08-25T09:15:32Z</time>
      </trkpt>
      <trkpt lat="44.88666" lon="5.43971">
        <ele>1337.26</ele>
        <time>2019-08-25T09:15:44Z</time>
      </trkpt>
      <trkpt lat="44.88667" lon="5.43974">
        <ele>1337.36</ele>
        <time>2019-08-25T09:15:45Z</time>
      </trkpt>
      <trkpt lat="44.88666" lon="5.43976">
        <ele>1337.48</ele>
        <time>2019-08-25T09:15:46Z</time>
      </trkpt>
      <trkpt lat="44.88666" lon="5.43978">
        <ele>1337.58</ele>
        <time>2019-08-25T09:15:47Z</time>
      </trkpt>
      <trkpt lat="44.88666" lon="5.4398">
        <ele>1337.69</ele>
        <time>2019-08-25T09:15:48Z</time>
      </trkpt>
      <trkpt lat="44.88666" lon="5.43983">
        <ele>1337.82</ele>
        <time>2019-08-25T09:15:49Z</time>
      </trkpt>
      <trkpt lat="44.88665" lon="5.43985">
        <ele>1337.97</ele>
        <time>2019-08-25T09:15:50Z</time>
      </trkpt>
      <trkpt lat="44.88664" lon="5.43986">
        <ele>1338.28</ele>
        <time>2019-08-25T09:15:51Z</time>
      </trkpt>
      <trkpt lat="44.88663" lon="5.43988">
        <ele>1338.44</ele>
        <time>2019-08-25T09:15:52Z</time>
      </trkpt>
      <trkpt lat="44.88663" lon="5.4399">
        <ele>1338.59</ele>
        <time>2019-08-25T09:15:53Z</time>
      </trkpt>
      <trkpt lat="44.88662" lon="5.43992">
        <ele>1338.74</ele>
        <time>2019-08-25T09:15:54Z</time>
      </trkpt>
      <trkpt lat="44.88661" lon="5.43994">
        <ele>1338.9</ele>
        <time>2019-08-25T09:15:55Z</time>
      </trkpt>
      <trkpt lat="44.88661" lon="5.43996">
        <ele>1339.08</ele>
        <time>2019-08-25T09:15:56Z</time>
      </trkpt>
      <trkpt lat="44.8866" lon="5.43999">
        <ele>1339.27</ele>
        <time>2019-08-25T09:15:57Z</time>
      </trkpt>
      <trkpt lat="44.88654" lon="5.44015">
        <ele>1340.67</ele>
        <time>2019-08-25T09:16:06Z</time>
      </trkpt>
      <trkpt lat="44.88646" lon="5.44042">
        <ele>1342.56</ele>
        <time>2019-08-25T09:16:20Z</time>
      </trkpt>
      <trkpt lat="44.88651" lon="5.44082">
        <ele>1345.24</ele>
        <time>2019-08-25T09:16:39Z</time>
      </trkpt>
      <trkpt lat="44.88659" lon="5.44103">
        <ele>1346.51</ele>
        <time>2019-08-25T09:16:48Z</time>
      </trkpt>
      <trkpt lat="44.8866" lon="5.44106">
        <ele>1346.62</ele>
        <time>2019-08-25T09:16:49Z</time>
      </trkpt>
      <trkpt lat="44.8866" lon="5.44108">
        <ele>1346.74</ele>
        <time>2019-08-25T09:16:50Z</time>
      </trkpt>
      <trkpt lat="44.8866" lon="5.44111">
        <ele>1346.87</ele>
        <time>2019-08-25T09:16:51Z</time>
      </trkpt>
      <trkpt lat="44.88661" lon="5.44113">
        <ele>1347</ele>
        <time>2019-08-25T09:16:52Z</time>
      </trkpt>
      <trkpt lat="44.88661" lon="5.44116">
        <ele>1347.12</ele>
        <time>2019-08-25T09:16:53Z</time>
      </trkpt>
      <trkpt lat="44.88661" lon="5.44118">
        <ele>1347.24</ele>
        <time>2019-08-25T09:16:54Z</time>
      </trkpt>
      <trkpt lat="44.88661" lon="5.4412">
        <ele>1347.4</ele>
        <time>2019-08-25T09:16:55Z</time>
      </trkpt>
      <trkpt lat="44.88661" lon="5.44122">
        <ele>1347.55</ele>
        <time>2019-08-25T09:16:56Z</time>
      </trkpt>
      <trkpt lat="44.88661" lon="5.44124">
        <ele>1347.67</ele>
        <time>2019-08-25T09:16:57Z</time>
      </trkpt>
      <trkpt lat="44.88661" lon="5.44127">
        <ele>1347.78</ele>
        <time>2019-08-25T09:16:58Z</time>
      </trkpt>
      <trkpt lat="44.88659" lon="5.44156">
        <ele>1349.61</ele>
        <time>2019-08-25T09:17:10Z</time>
      </trkpt>
      <trkpt lat="44.88659" lon="5.44158">
        <ele>1349.74</ele>
        <time>2019-08-25T09:17:11Z</time>
      </trkpt>
      <trkpt lat="44.88658" lon="5.4416">
        <ele>1349.87</ele>
        <time>2019-08-25T09:17:12Z</time>
      </trkpt>
      <trkpt lat="44.88657" lon="5.44162">
        <ele>1349.98</ele>
        <time>2019-08-25T09:17:13Z</time>
      </trkpt>
      <trkpt lat="44.88657" lon="5.44165">
        <ele>1350.08</ele>
        <time>2019-08-25T09:17:14Z</time>
      </trkpt>
      <trkpt lat="44.88656" lon="5.44167">
        <ele>1350.19</ele>
        <time>2019-08-25T09:17:15Z</time>
      </trkpt>
      <trkpt lat="44.88656" lon="5.44169">
        <ele>1350.31</ele>
        <time>2019-08-25T09:17:16Z</time>
      </trkpt>
      <trkpt lat="44.88656" lon="5.44172">
        <ele>1350.46</ele>
        <time>2019-08-25T09:17:17Z</time>
      </trkpt>
      <trkpt lat="44.88656" lon="5.44174">
        <ele>1350.62</ele>
        <time>2019-08-25T09:17:18Z</time>
      </trkpt>
      <trkpt lat="44.88645" lon="5.44208">
        <ele>1353.15</ele>
        <time>2019-08-25T09:17:33Z</time>
      </trkpt>
      <trkpt lat="44.88635" lon="5.44224">
        <ele>1354.48</ele>
        <time>2019-08-25T09:17:42Z</time>
      </trkpt>
      <trkpt lat="44.88626" lon="5.44231">
        <ele>1355.55</ele>
        <time>2019-08-25T09:17:56Z</time>
      </trkpt>
      <trkpt lat="44.88624" lon="5.44233">
        <ele>1355.65</ele>
        <time>2019-08-25T09:18:20Z</time>
      </trkpt>
      <trkpt lat="44.88625" lon="5.44235">
        <ele>1355.66</ele>
        <time>2019-08-25T09:18:28Z</time>
      </trkpt>
      <trkpt lat="44.88621" lon="5.44235">
        <ele>1355.45</ele>
        <time>2019-08-25T09:18:44Z</time>
      </trkpt>
      <trkpt lat="44.88625" lon="5.44233">
        <ele>1355.67</ele>
        <time>2019-08-25T09:18:58Z</time>
      </trkpt>
      <trkpt lat="44.88624" lon="5.44231">
        <ele>1355.49</ele>
        <time>2019-08-25T09:19:24Z</time>
      </trkpt>
      <trkpt lat="44.88628" lon="5.44235">
        <ele>1355.12</ele>
        <time>2019-08-25T09:19:47Z</time>
      </trkpt>
      <trkpt lat="44.88627" lon="5.44236">
        <ele>1355.02</ele>
        <time>2019-08-25T09:20:08Z</time>
      </trkpt>
      <trkpt lat="44.88627" lon="5.44236">
        <ele>1354.9</ele>
        <time>2019-08-25T09:20:22Z</time>
      </trkpt>
      <trkpt lat="44.88628" lon="5.44237">
        <ele>1354.91</ele>
        <time>2019-08-25T09:20:23Z</time>
      </trkpt>
      <trkpt lat="44.88628" lon="5.44236">
        <ele>1354.69</ele>
        <time>2019-08-25T09:20:48Z</time>
      </trkpt>
      <trkpt lat="44.88628" lon="5.44235">
        <ele>1354.62</ele>
        <time>2019-08-25T09:21:18Z</time>
      </trkpt>
      <trkpt lat="44.88631" lon="5.44236">
        <ele>1354.74</ele>
        <time>2019-08-25T09:21:41Z</time>
      </trkpt>
      <trkpt lat="44.8863" lon="5.44235">
        <ele>1354.68</ele>
        <time>2019-08-25T09:22:11Z</time>
      </trkpt>
      <trkpt lat="44.88629" lon="5.44233">
        <ele>1354.7</ele>
        <time>2019-08-25T09:22:43Z</time>
      </trkpt>
      <trkpt lat="44.88626" lon="5.44231">
        <ele>1354.66</ele>
        <time>2019-08-25T09:23:09Z</time>
      </trkpt>
      <trkpt lat="44.88627" lon="5.44232">
        <ele>1354.74</ele>
        <time>2019-08-25T09:23:33Z</time>
      </trkpt>
      <trkpt lat="44.88625" lon="5.44232">
        <ele>1354.3</ele>
        <time>2019-08-25T09:24:01Z</time>
      </trkpt>
      <trkpt lat="44.88621" lon="5.44231">
        <ele>1354.4</ele>
        <time>2019-08-25T09:24:06Z</time>
      </trkpt>
      <trkpt lat="44.88613" lon="5.44233">
        <ele>1354.44</ele>
        <time>2019-08-25T09:24:11Z</time>
      </trkpt>
      <trkpt lat="44.88612" lon="5.44234">
        <ele>1354.46</ele>
        <time>2019-08-25T09:24:12Z</time>
      </trkpt>
      <trkpt lat="44.88595" lon="5.44238">
        <ele>1355.13</ele>
        <time>2019-08-25T09:24:26Z</time>
      </trkpt>
      <trkpt lat="44.88574" lon="5.44246">
        <ele>1355.36</ele>
        <time>2019-08-25T09:24:40Z</time>
      </trkpt>
      <trkpt lat="44.88569" lon="5.44247">
        <ele>1355.42</ele>
        <time>2019-08-25T09:24:43Z</time>
      </trkpt>
      <trkpt lat="44.88567" lon="5.44248">
        <ele>1355.44</ele>
        <time>2019-08-25T09:24:45Z</time>
      </trkpt>
      <trkpt lat="44.88566" lon="5.44248">
        <ele>1355.43</ele>
        <time>2019-08-25T09:24:46Z</time>
      </trkpt>
      <trkpt lat="44.88564" lon="5.44249">
        <ele>1355.43</ele>
        <time>2019-08-25T09:24:47Z</time>
      </trkpt>
      <trkpt lat="44.88563" lon="5.44249">
        <ele>1355.43</ele>
        <time>2019-08-25T09:24:48Z</time>
      </trkpt>
      <trkpt lat="44.88562" lon="5.4425">
        <ele>1355.41</ele>
        <time>2019-08-25T09:24:49Z</time>
      </trkpt>
      <trkpt lat="44.8856" lon="5.44251">
        <ele>1355.38</ele>
        <time>2019-08-25T09:24:50Z</time>
      </trkpt>
      <trkpt lat="44.88558" lon="5.44251">
        <ele>1355.33</ele>
        <time>2019-08-25T09:24:51Z</time>
      </trkpt>
      <trkpt lat="44.88551" lon="5.44257">
        <ele>1355.24</ele>
        <time>2019-08-25T09:24:56Z</time>
      </trkpt>
      <trkpt lat="44.8855" lon="5.44259">
        <ele>1355.24</ele>
        <time>2019-08-25T09:24:57Z</time>
      </trkpt>
      <trkpt lat="44.88548" lon="5.44261">
        <ele>1355.25</ele>
        <time>2019-08-25T09:24:58Z</time>
      </trkpt>
      <trkpt lat="44.88547" lon="5.44262">
        <ele>1355.26</ele>
        <time>2019-08-25T09:24:59Z</time>
      </trkpt>
      <trkpt lat="44.88545" lon="5.44264">
        <ele>1355.27</ele>
        <time>2019-08-25T09:25:00Z</time>
      </trkpt>
      <trkpt lat="44.88542" lon="5.4427">
        <ele>1355.32</ele>
        <time>2019-08-25T09:25:03Z</time>
      </trkpt>
      <trkpt lat="44.88541" lon="5.44272">
        <ele>1355.35</ele>
        <time>2019-08-25T09:25:04Z</time>
      </trkpt>
      <trkpt lat="44.88539" lon="5.44274">
        <ele>1355.4</ele>
        <time>2019-08-25T09:25:05Z</time>
      </trkpt>
      <trkpt lat="44.88538" lon="5.44276">
        <ele>1355.44</ele>
        <time>2019-08-25T09:25:06Z</time>
      </trkpt>
      <trkpt lat="44.88537" lon="5.44277">
        <ele>1355.46</ele>
        <time>2019-08-25T09:25:07Z</time>
      </trkpt>
      <trkpt lat="44.88535" lon="5.44279">
        <ele>1355.49</ele>
        <time>2019-08-25T09:25:08Z</time>
      </trkpt>
      <trkpt lat="44.88518" lon="5.44304">
        <ele>1355.67</ele>
        <time>2019-08-25T09:25:19Z</time>
      </trkpt>
      <trkpt lat="44.88502" lon="5.44336">
        <ele>1355.47</ele>
        <time>2019-08-25T09:25:31Z</time>
      </trkpt>
      <trkpt lat="44.88479" lon="5.44369">
        <ele>1355.84</ele>
        <time>2019-08-25T09:25:42Z</time>
      </trkpt>
      <trkpt lat="44.88461" lon="5.444">
        <ele>1356.21</ele>
        <time>2019-08-25T09:25:51Z</time>
      </trkpt>
      <trkpt lat="44.8844" lon="5.44434">
        <ele>1356.67</ele>
        <time>2019-08-25T09:26:03Z</time>
      </trkpt>
      <trkpt lat="44.88429" lon="5.4446">
        <ele>1357.16</ele>
        <time>2019-08-25T09:26:15Z</time>
      </trkpt>
      <trkpt lat="44.88427" lon="5.44461">
        <ele>1357.18</ele>
        <time>2019-08-25T09:26:16Z</time>
      </trkpt>
      <trkpt lat="44.88426" lon="5.44463">
        <ele>1357.21</ele>
        <time>2019-08-25T09:26:17Z</time>
      </trkpt>
      <trkpt lat="44.88424" lon="5.44465">
        <ele>1357.24</ele>
        <time>2019-08-25T09:26:18Z</time>
      </trkpt>
      <trkpt lat="44.88423" lon="5.44467">
        <ele>1357.26</ele>
        <time>2019-08-25T09:26:19Z</time>
      </trkpt>
      <trkpt lat="44.88404" lon="5.44487">
        <ele>1357.88</ele>
        <time>2019-08-25T09:26:31Z</time>
      </trkpt>
      <trkpt lat="44.88382" lon="5.44499">
        <ele>1358.56</ele>
        <time>2019-08-25T09:26:43Z</time>
      </trkpt>
      <trkpt lat="44.88357" lon="5.44508">
        <ele>1360.15</ele>
        <time>2019-08-25T09:26:58Z</time>
      </trkpt>
      <trkpt lat="44.88354" lon="5.44509">
        <ele>1360.36</ele>
        <time>2019-08-25T09:27:00Z</time>
      </trkpt>
      <trkpt lat="44.88353" lon="5.44509">
        <ele>1360.48</ele>
        <time>2019-08-25T09:27:01Z</time>
      </trkpt>
      <trkpt lat="44.88331" lon="5.44519">
        <ele>1362.07</ele>
        <time>2019-08-25T09:27:14Z</time>
      </trkpt>
      <trkpt lat="44.88317" lon="5.44527">
        <ele>1363.19</ele>
        <time>2019-08-25T09:27:22Z</time>
      </trkpt>
      <trkpt lat="44.88292" lon="5.44512">
        <ele>1365.47</ele>
        <time>2019-08-25T09:27:37Z</time>
      </trkpt>
      <trkpt lat="44.88277" lon="5.44487">
        <ele>1366.51</ele>
        <time>2019-08-25T09:27:49Z</time>
      </trkpt>
      <trkpt lat="44.88256" lon="5.4446">
        <ele>1368.46</ele>
        <time>2019-08-25T09:28:03Z</time>
      </trkpt>
      <trkpt lat="44.88231" lon="5.44448">
        <ele>1369.94</ele>
        <time>2019-08-25T09:28:16Z</time>
      </trkpt>
      <trkpt lat="44.88206" lon="5.44443">
        <ele>1370.39</ele>
        <time>2019-08-25T09:28:26Z</time>
      </trkpt>
      <trkpt lat="44.8817" lon="5.44434">
        <ele>1370.39</ele>
        <time>2019-08-25T09:28:38Z</time>
      </trkpt>
      <trkpt lat="44.88165" lon="5.44436">
        <ele>1370.54</ele>
        <time>2019-08-25T09:28:40Z</time>
      </trkpt>
      <trkpt lat="44.88164" lon="5.44439">
        <ele>1370.63</ele>
        <time>2019-08-25T09:28:41Z</time>
      </trkpt>
      <trkpt lat="44.88158" lon="5.44455">
        <ele>1370.96</ele>
        <time>2019-08-25T09:28:46Z</time>
      </trkpt>
      <trkpt lat="44.88158" lon="5.44457">
        <ele>1371.01</ele>
        <time>2019-08-25T09:28:47Z</time>
      </trkpt>
      <trkpt lat="44.88158" lon="5.44459">
        <ele>1371.05</ele>
        <time>2019-08-25T09:28:48Z</time>
      </trkpt>
      <trkpt lat="44.88158" lon="5.44461">
        <ele>1371.08</ele>
        <time>2019-08-25T09:28:49Z</time>
      </trkpt>
      <trkpt lat="44.88158" lon="5.44463">
        <ele>1371.1</ele>
        <time>2019-08-25T09:28:50Z</time>
      </trkpt>
      <trkpt lat="44.88158" lon="5.44466">
        <ele>1371.15</ele>
        <time>2019-08-25T09:28:51Z</time>
      </trkpt>
      <trkpt lat="44.88158" lon="5.4447">
        <ele>1371.16</ele>
        <time>2019-08-25T09:28:52Z</time>
      </trkpt>
      <trkpt lat="44.88157" lon="5.44473">
        <ele>1371.14</ele>
        <time>2019-08-25T09:28:53Z</time>
      </trkpt>
      <trkpt lat="44.88154" lon="5.44512">
        <ele>1371.24</ele>
        <time>2019-08-25T09:29:04Z</time>
      </trkpt>
      <trkpt lat="44.88149" lon="5.44543">
        <ele>1371.35</ele>
        <time>2019-08-25T09:29:14Z</time>
      </trkpt>
      <trkpt lat="44.88141" lon="5.44584">
        <ele>1371.47</ele>
        <time>2019-08-25T09:29:23Z</time>
      </trkpt>
      <trkpt lat="44.88132" lon="5.4461">
        <ele>1371.78</ele>
        <time>2019-08-25T09:29:30Z</time>
      </trkpt>
      <trkpt lat="44.8811" lon="5.44637">
        <ele>1372</ele>
        <time>2019-08-25T09:29:40Z</time>
      </trkpt>
      <trkpt lat="44.8809" lon="5.44658">
        <ele>1372.75</ele>
        <time>2019-08-25T09:29:52Z</time>
      </trkpt>
      <trkpt lat="44.88087" lon="5.4466">
        <ele>1372.76</ele>
        <time>2019-08-25T09:30:21Z</time>
      </trkpt>
      <trkpt lat="44.88085" lon="5.44654">
        <ele>1372.98</ele>
        <time>2019-08-25T09:30:49Z</time>
      </trkpt>
      <trkpt lat="44.88079" lon="5.44663">
        <ele>1373.12</ele>
        <time>2019-08-25T09:31:00Z</time>
      </trkpt>
      <trkpt lat="44.88077" lon="5.44665">
        <ele>1373.16</ele>
        <time>2019-08-25T09:31:01Z</time>
      </trkpt>
      <trkpt lat="44.88075" lon="5.44667">
        <ele>1373.19</ele>
        <time>2019-08-25T09:31:02Z</time>
      </trkpt>
      <trkpt lat="44.88074" lon="5.4467">
        <ele>1373.23</ele>
        <time>2019-08-25T09:31:03Z</time>
      </trkpt>
      <trkpt lat="44.88072" lon="5.44673">
        <ele>1373.26</ele>
        <time>2019-08-25T09:31:04Z</time>
      </trkpt>
      <trkpt lat="44.88071" lon="5.44675">
        <ele>1373.28</ele>
        <time>2019-08-25T09:31:05Z</time>
      </trkpt>
      <trkpt lat="44.8807" lon="5.44678">
        <ele>1373.31</ele>
        <time>2019-08-25T09:31:06Z</time>
      </trkpt>
      <trkpt lat="44.88069" lon="5.44681">
        <ele>1373.35</ele>
        <time>2019-08-25T09:31:07Z</time>
      </trkpt>
      <trkpt lat="44.88067" lon="5.44683">
        <ele>1373.38</ele>
        <time>2019-08-25T09:31:08Z</time>
      </trkpt>
      <trkpt lat="44.88066" lon="5.44686">
        <ele>1373.43</ele>
        <time>2019-08-25T09:31:09Z</time>
      </trkpt>
      <trkpt lat="44.88065" lon="5.44688">
        <ele>1373.47</ele>
        <time>2019-08-25T09:31:10Z</time>
      </trkpt>
      <trkpt lat="44.88064" lon="5.4469">
        <ele>1373.55</ele>
        <time>2019-08-25T09:31:11Z</time>
      </trkpt>
      <trkpt lat="44.88063" lon="5.44693">
        <ele>1373.61</ele>
        <time>2019-08-25T09:31:12Z</time>
      </trkpt>
      <trkpt lat="44.88062" lon="5.44695">
        <ele>1373.68</ele>
        <time>2019-08-25T09:31:13Z</time>
      </trkpt>
      <trkpt lat="44.88053" lon="5.4472">
        <ele>1374.74</ele>
        <time>2019-08-25T09:31:23Z</time>
      </trkpt>
      <trkpt lat="44.88042" lon="5.44755">
        <ele>1376.05</ele>
        <time>2019-08-25T09:31:34Z</time>
      </trkpt>
      <trkpt lat="44.88014" lon="5.44772">
        <ele>1377.42</ele>
        <time>2019-08-25T09:31:48Z</time>
      </trkpt>
      <trkpt lat="44.87989" lon="5.44788">
        <ele>1378.2</ele>
        <time>2019-08-25T09:32:02Z</time>
      </trkpt>
      <trkpt lat="44.87988" lon="5.44791">
        <ele>1378.32</ele>
        <time>2019-08-25T09:32:03Z</time>
      </trkpt>
      <trkpt lat="44.87988" lon="5.44793">
        <ele>1378.46</ele>
        <time>2019-08-25T09:32:04Z</time>
      </trkpt>
      <trkpt lat="44.87987" lon="5.44795">
        <ele>1378.61</ele>
        <time>2019-08-25T09:32:05Z</time>
      </trkpt>
      <trkpt lat="44.87987" lon="5.44798">
        <ele>1378.77</ele>
        <time>2019-08-25T09:32:06Z</time>
      </trkpt>
      <trkpt lat="44.87987" lon="5.44801">
        <ele>1378.95</ele>
        <time>2019-08-25T09:32:07Z</time>
      </trkpt>
      <trkpt lat="44.87987" lon="5.44804">
        <ele>1379.27</ele>
        <time>2019-08-25T09:32:08Z</time>
      </trkpt>
      <trkpt lat="44.87986" lon="5.44806">
        <ele>1379.38</ele>
        <time>2019-08-25T09:32:09Z</time>
      </trkpt>
      <trkpt lat="44.87986" lon="5.44808">
        <ele>1379.5</ele>
        <time>2019-08-25T09:32:10Z</time>
      </trkpt>
      <trkpt lat="44.87987" lon="5.44816">
        <ele>1380.03</ele>
        <time>2019-08-25T09:32:14Z</time>
      </trkpt>
      <trkpt lat="44.87987" lon="5.44818">
        <ele>1380.17</ele>
        <time>2019-08-25T09:32:15Z</time>
      </trkpt>
      <trkpt lat="44.87987" lon="5.44821">
        <ele>1380.29</ele>
        <time>2019-08-25T09:32:16Z</time>
      </trkpt>
      <trkpt lat="44.87987" lon="5.44823">
        <ele>1380.41</ele>
        <time>2019-08-25T09:32:17Z</time>
      </trkpt>
      <trkpt lat="44.87987" lon="5.44826">
        <ele>1380.52</ele>
        <time>2019-08-25T09:32:18Z</time>
      </trkpt>
      <trkpt lat="44.87987" lon="5.44832">
        <ele>1380.82</ele>
        <time>2019-08-25T09:32:20Z</time>
      </trkpt>
      <trkpt lat="44.87987" lon="5.44834">
        <ele>1380.97</ele>
        <time>2019-08-25T09:32:21Z</time>
      </trkpt>
      <trkpt lat="44.87986" lon="5.44836">
        <ele>1381.11</ele>
        <time>2019-08-25T09:32:22Z</time>
      </trkpt>
      <trkpt lat="44.87978" lon="5.44861">
        <ele>1382.95</ele>
        <time>2019-08-25T09:32:33Z</time>
      </trkpt>
      <trkpt lat="44.87977" lon="5.44862">
        <ele>1383.09</ele>
        <time>2019-08-25T09:32:34Z</time>
      </trkpt>
      <trkpt lat="44.87963" lon="5.44857">
        <ele>1384.43</ele>
        <time>2019-08-25T09:32:43Z</time>
      </trkpt>
      <trkpt lat="44.8795" lon="5.44865">
        <ele>1385.71</ele>
        <time>2019-08-25T09:32:54Z</time>
      </trkpt>
      <trkpt lat="44.87948" lon="5.44868">
        <ele>1386.12</ele>
        <time>2019-08-25T09:32:56Z</time>
      </trkpt>
      <trkpt lat="44.87948" lon="5.44869">
        <ele>1386.23</ele>
        <time>2019-08-25T09:32:57Z</time>
      </trkpt>
      <trkpt lat="44.87947" lon="5.44871">
        <ele>1386.32</ele>
        <time>2019-08-25T09:32:58Z</time>
      </trkpt>
      <trkpt lat="44.8794" lon="5.44891">
        <ele>1387.74</ele>
        <time>2019-08-25T09:33:08Z</time>
      </trkpt>
      <trkpt lat="44.8794" lon="5.44894">
        <ele>1387.86</ele>
        <time>2019-08-25T09:33:09Z</time>
      </trkpt>
      <trkpt lat="44.87939" lon="5.44896">
        <ele>1387.96</ele>
        <time>2019-08-25T09:33:10Z</time>
      </trkpt>
      <trkpt lat="44.87939" lon="5.44898">
        <ele>1388.05</ele>
        <time>2019-08-25T09:33:11Z</time>
      </trkpt>
      <trkpt lat="44.87938" lon="5.449">
        <ele>1388.14</ele>
        <time>2019-08-25T09:33:12Z</time>
      </trkpt>
      <trkpt lat="44.87938" lon="5.44902">
        <ele>1388.27</ele>
        <time>2019-08-25T09:33:13Z</time>
      </trkpt>
      <trkpt lat="44.87938" lon="5.44904">
        <ele>1388.41</ele>
        <time>2019-08-25T09:33:14Z</time>
      </trkpt>
      <trkpt lat="44.87937" lon="5.44906">
        <ele>1388.54</ele>
        <time>2019-08-25T09:33:15Z</time>
      </trkpt>
      <trkpt lat="44.8793" lon="5.44923">
        <ele>1389.77</ele>
        <time>2019-08-25T09:33:25Z</time>
      </trkpt>
      <trkpt lat="44.8793" lon="5.44924">
        <ele>1389.87</ele>
        <time>2019-08-25T09:33:26Z</time>
      </trkpt>
      <trkpt lat="44.8793" lon="5.44926">
        <ele>1389.99</ele>
        <time>2019-08-25T09:33:27Z</time>
      </trkpt>
      <trkpt lat="44.87926" lon="5.4495">
        <ele>1391.57</ele>
        <time>2019-08-25T09:33:39Z</time>
      </trkpt>
      <trkpt lat="44.87923" lon="5.44976">
        <ele>1393.31</ele>
        <time>2019-08-25T09:33:51Z</time>
      </trkpt>
      <trkpt lat="44.87922" lon="5.44977">
        <ele>1393.42</ele>
        <time>2019-08-25T09:33:52Z</time>
      </trkpt>
      <trkpt lat="44.87921" lon="5.44983">
        <ele>1393.8</ele>
        <time>2019-08-25T09:33:55Z</time>
      </trkpt>
      <trkpt lat="44.8792" lon="5.44985">
        <ele>1393.95</ele>
        <time>2019-08-25T09:33:56Z</time>
      </trkpt>
      <trkpt lat="44.87919" lon="5.44987">
        <ele>1394.11</ele>
        <time>2019-08-25T09:33:57Z</time>
      </trkpt>
      <trkpt lat="44.87917" lon="5.44994">
        <ele>1394.53</ele>
        <time>2019-08-25T09:34:00Z</time>
      </trkpt>
      <trkpt lat="44.87916" lon="5.44996">
        <ele>1394.67</ele>
        <time>2019-08-25T09:34:01Z</time>
      </trkpt>
      <trkpt lat="44.87916" lon="5.44999">
        <ele>1394.83</ele>
        <time>2019-08-25T09:34:02Z</time>
      </trkpt>
      <trkpt lat="44.87915" lon="5.45002">
        <ele>1394.99</ele>
        <time>2019-08-25T09:34:03Z</time>
      </trkpt>
      <trkpt lat="44.87915" lon="5.45004">
        <ele>1395.12</ele>
        <time>2019-08-25T09:34:04Z</time>
      </trkpt>
      <trkpt lat="44.87914" lon="5.45007">
        <ele>1395.26</ele>
        <time>2019-08-25T09:34:05Z</time>
      </trkpt>
      <trkpt lat="44.87914" lon="5.45009">
        <ele>1395.41</ele>
        <time>2019-08-25T09:34:06Z</time>
      </trkpt>
      <trkpt lat="44.87913" lon="5.45011">
        <ele>1395.56</ele>
        <time>2019-08-25T09:34:07Z</time>
      </trkpt>
      <trkpt lat="44.87909" lon="5.45037">
        <ele>1397.41</ele>
        <time>2019-08-25T09:34:20Z</time>
      </trkpt>
      <trkpt lat="44.87905" lon="5.45039">
        <ele>1397.66</ele>
        <time>2019-08-25T09:34:22Z</time>
      </trkpt>
      <trkpt lat="44.87904" lon="5.45039">
        <ele>1397.78</ele>
        <time>2019-08-25T09:34:23Z</time>
      </trkpt>
      <trkpt lat="44.87902" lon="5.4504">
        <ele>1397.93</ele>
        <time>2019-08-25T09:34:24Z</time>
      </trkpt>
      <trkpt lat="44.879" lon="5.45041">
        <ele>1398.09</ele>
        <time>2019-08-25T09:34:25Z</time>
      </trkpt>
      <trkpt lat="44.87899" lon="5.45042">
        <ele>1398.25</ele>
        <time>2019-08-25T09:34:26Z</time>
      </trkpt>
      <trkpt lat="44.87897" lon="5.45043">
        <ele>1398.39</ele>
        <time>2019-08-25T09:34:27Z</time>
      </trkpt>
      <trkpt lat="44.87896" lon="5.45044">
        <ele>1398.51</ele>
        <time>2019-08-25T09:34:28Z</time>
      </trkpt>
      <trkpt lat="44.87894" lon="5.45044">
        <ele>1398.63</ele>
        <time>2019-08-25T09:34:29Z</time>
      </trkpt>
      <trkpt lat="44.87892" lon="5.45045">
        <ele>1398.78</ele>
        <time>2019-08-25T09:34:30Z</time>
      </trkpt>
      <trkpt lat="44.87891" lon="5.45045">
        <ele>1398.96</ele>
        <time>2019-08-25T09:34:31Z</time>
      </trkpt>
      <trkpt lat="44.8789" lon="5.45045">
        <ele>1399.17</ele>
        <time>2019-08-25T09:34:32Z</time>
      </trkpt>
      <trkpt lat="44.87889" lon="5.45046">
        <ele>1399.51</ele>
        <time>2019-08-25T09:34:33Z</time>
      </trkpt>
      <trkpt lat="44.87887" lon="5.45046">
        <ele>1399.51</ele>
        <time>2019-08-25T09:34:34Z</time>
      </trkpt>
      <trkpt lat="44.87877" lon="5.45046">
        <ele>1400.76</ele>
        <time>2019-08-25T09:34:41Z</time>
      </trkpt>
      <trkpt lat="44.87876" lon="5.45046">
        <ele>1400.87</ele>
        <time>2019-08-25T09:34:42Z</time>
      </trkpt>
      <trkpt lat="44.87874" lon="5.45046">
        <ele>1400.96</ele>
        <time>2019-08-25T09:34:43Z</time>
      </trkpt>
      <trkpt lat="44.87872" lon="5.45046">
        <ele>1401.05</ele>
        <time>2019-08-25T09:34:44Z</time>
      </trkpt>
      <trkpt lat="44.87871" lon="5.45047">
        <ele>1401.14</ele>
        <time>2019-08-25T09:34:45Z</time>
      </trkpt>
      <trkpt lat="44.8787" lon="5.45046">
        <ele>1401.24</ele>
        <time>2019-08-25T09:34:46Z</time>
      </trkpt>
      <trkpt lat="44.87868" lon="5.45046">
        <ele>1401.35</ele>
        <time>2019-08-25T09:34:47Z</time>
      </trkpt>
      <trkpt lat="44.87867" lon="5.45046">
        <ele>1401.49</ele>
        <time>2019-08-25T09:34:48Z</time>
      </trkpt>
      <trkpt lat="44.87856" lon="5.45045">
        <ele>1402.59</ele>
        <time>2019-08-25T09:34:56Z</time>
      </trkpt>
      <trkpt lat="44.87855" lon="5.45046">
        <ele>1402.83</ele>
        <time>2019-08-25T09:34:57Z</time>
      </trkpt>
      <trkpt lat="44.87853" lon="5.45047">
        <ele>1402.83</ele>
        <time>2019-08-25T09:34:58Z</time>
      </trkpt>
      <trkpt lat="44.87852" lon="5.45048">
        <ele>1403.05</ele>
        <time>2019-08-25T09:34:59Z</time>
      </trkpt>
      <trkpt lat="44.87851" lon="5.45049">
        <ele>1403.16</ele>
        <time>2019-08-25T09:35:00Z</time>
      </trkpt>
      <trkpt lat="44.8785" lon="5.4505">
        <ele>1403.28</ele>
        <time>2019-08-25T09:35:01Z</time>
      </trkpt>
      <trkpt lat="44.87847" lon="5.45055">
        <ele>1403.77</ele>
        <time>2019-08-25T09:35:04Z</time>
      </trkpt>
      <trkpt lat="44.87846" lon="5.45057">
        <ele>1403.97</ele>
        <time>2019-08-25T09:35:05Z</time>
      </trkpt>
      <trkpt lat="44.87845" lon="5.45058">
        <ele>1404.16</ele>
        <time>2019-08-25T09:35:06Z</time>
      </trkpt>
      <trkpt lat="44.87844" lon="5.4506">
        <ele>1404.34</ele>
        <time>2019-08-25T09:35:07Z</time>
      </trkpt>
      <trkpt lat="44.87844" lon="5.45062">
        <ele>1404.52</ele>
        <time>2019-08-25T09:35:08Z</time>
      </trkpt>
      <trkpt lat="44.87844" lon="5.45064">
        <ele>1404.67</ele>
        <time>2019-08-25T09:35:09Z</time>
      </trkpt>
      <trkpt lat="44.87843" lon="5.45066">
        <ele>1404.81</ele>
        <time>2019-08-25T09:35:10Z</time>
      </trkpt>
      <trkpt lat="44.87843" lon="5.45067">
        <ele>1404.95</ele>
        <time>2019-08-25T09:35:11Z</time>
      </trkpt>
      <trkpt lat="44.87843" lon="5.45069">
        <ele>1405.09</ele>
        <time>2019-08-25T09:35:12Z</time>
      </trkpt>
      <trkpt lat="44.87842" lon="5.45071">
        <ele>1405.23</ele>
        <time>2019-08-25T09:35:13Z</time>
      </trkpt>
      <trkpt lat="44.87842" lon="5.45073">
        <ele>1405.34</ele>
        <time>2019-08-25T09:35:14Z</time>
      </trkpt>
      <trkpt lat="44.87842" lon="5.45075">
        <ele>1405.44</ele>
        <time>2019-08-25T09:35:15Z</time>
      </trkpt>
      <trkpt lat="44.87841" lon="5.45077">
        <ele>1405.54</ele>
        <time>2019-08-25T09:35:16Z</time>
      </trkpt>
      <trkpt lat="44.87841" lon="5.4508">
        <ele>1405.66</ele>
        <time>2019-08-25T09:35:17Z</time>
      </trkpt>
      <trkpt lat="44.87838" lon="5.45104">
        <ele>1407.08</ele>
        <time>2019-08-25T09:35:30Z</time>
      </trkpt>
      <trkpt lat="44.87818" lon="5.45127">
        <ele>1409.1</ele>
        <time>2019-08-25T09:35:46Z</time>
      </trkpt>
      <trkpt lat="44.87812" lon="5.45135">
        <ele>1409.87</ele>
        <time>2019-08-25T09:35:51Z</time>
      </trkpt>
      <trkpt lat="44.87811" lon="5.45136">
        <ele>1410.04</ele>
        <time>2019-08-25T09:35:52Z</time>
      </trkpt>
      <trkpt lat="44.8781" lon="5.45138">
        <ele>1410.22</ele>
        <time>2019-08-25T09:35:53Z</time>
      </trkpt>
      <trkpt lat="44.878" lon="5.45157">
        <ele>1411.91</ele>
        <time>2019-08-25T09:36:05Z</time>
      </trkpt>
      <trkpt lat="44.87797" lon="5.45167">
        <ele>1412.65</ele>
        <time>2019-08-25T09:36:10Z</time>
      </trkpt>
      <trkpt lat="44.87793" lon="5.45172">
        <ele>1413.26</ele>
        <time>2019-08-25T09:36:14Z</time>
      </trkpt>
      <trkpt lat="44.87792" lon="5.45174">
        <ele>1413.42</ele>
        <time>2019-08-25T09:36:15Z</time>
      </trkpt>
      <trkpt lat="44.87791" lon="5.45175">
        <ele>1413.55</ele>
        <time>2019-08-25T09:36:16Z</time>
      </trkpt>
      <trkpt lat="44.8779" lon="5.45177">
        <ele>1413.68</ele>
        <time>2019-08-25T09:36:17Z</time>
      </trkpt>
      <trkpt lat="44.87789" lon="5.45178">
        <ele>1413.84</ele>
        <time>2019-08-25T09:36:18Z</time>
      </trkpt>
      <trkpt lat="44.87788" lon="5.4518">
        <ele>1414</ele>
        <time>2019-08-25T09:36:19Z</time>
      </trkpt>
      <trkpt lat="44.87787" lon="5.45181">
        <ele>1414.15</ele>
        <time>2019-08-25T09:36:20Z</time>
      </trkpt>
      <trkpt lat="44.87786" lon="5.45183">
        <ele>1414.27</ele>
        <time>2019-08-25T09:36:21Z</time>
      </trkpt>
      <trkpt lat="44.87785" lon="5.4519">
        <ele>1414.72</ele>
        <time>2019-08-25T09:36:25Z</time>
      </trkpt>
      <trkpt lat="44.87788" lon="5.45199">
        <ele>1415.52</ele>
        <time>2019-08-25T09:36:43Z</time>
      </trkpt>
      <trkpt lat="44.87788" lon="5.452">
        <ele>1415.6</ele>
        <time>2019-08-25T09:37:14Z</time>
      </trkpt>
      <trkpt lat="44.87788" lon="5.45201">
        <ele>1415.55</ele>
        <time>2019-08-25T09:37:48Z</time>
      </trkpt>
      <trkpt lat="44.87785" lon="5.45201">
        <ele>1416.19</ele>
        <time>2019-08-25T09:38:19Z</time>
      </trkpt>
      <trkpt lat="44.87786" lon="5.45201">
        <ele>1415.68</ele>
        <time>2019-08-25T09:38:47Z</time>
      </trkpt>
      <trkpt lat="44.8779" lon="5.45214">
        <ele>1415.84</ele>
        <time>2019-08-25T09:39:10Z</time>
      </trkpt>
      <trkpt lat="44.87797" lon="5.45238">
        <ele>1416.12</ele>
        <time>2019-08-25T09:39:19Z</time>
      </trkpt>
      <trkpt lat="44.87797" lon="5.45241">
        <ele>1416.16</ele>
        <time>2019-08-25T09:39:20Z</time>
      </trkpt>
      <trkpt lat="44.87798" lon="5.45244">
        <ele>1416.19</ele>
        <time>2019-08-25T09:39:21Z</time>
      </trkpt>
      <trkpt lat="44.87798" lon="5.45247">
        <ele>1416.23</ele>
        <time>2019-08-25T09:39:22Z</time>
      </trkpt>
      <trkpt lat="44.87799" lon="5.45251">
        <ele>1416.25</ele>
        <time>2019-08-25T09:39:23Z</time>
      </trkpt>
      <trkpt lat="44.87799" lon="5.45253">
        <ele>1416.25</ele>
        <time>2019-08-25T09:39:24Z</time>
      </trkpt>
      <trkpt lat="44.878" lon="5.45256">
        <ele>1416.25</ele>
        <time>2019-08-25T09:39:25Z</time>
      </trkpt>
      <trkpt lat="44.878" lon="5.4526">
        <ele>1416.24</ele>
        <time>2019-08-25T09:39:26Z</time>
      </trkpt>
      <trkpt lat="44.87808" lon="5.45297">
        <ele>1416.19</ele>
        <time>2019-08-25T09:39:37Z</time>
      </trkpt>
      <trkpt lat="44.87809" lon="5.45304">
        <ele>1416.21</ele>
        <time>2019-08-25T09:39:39Z</time>
      </trkpt>
      <trkpt lat="44.87809" lon="5.45309">
        <ele>1416.23</ele>
        <time>2019-08-25T09:39:40Z</time>
      </trkpt>
      <trkpt lat="44.87809" lon="5.45313">
        <ele>1416.24</ele>
        <time>2019-08-25T09:39:41Z</time>
      </trkpt>
      <trkpt lat="44.87809" lon="5.45317">
        <ele>1416.26</ele>
        <time>2019-08-25T09:39:42Z</time>
      </trkpt>
      <trkpt lat="44.87809" lon="5.45321">
        <ele>1416.28</ele>
        <time>2019-08-25T09:39:43Z</time>
      </trkpt>
      <trkpt lat="44.8781" lon="5.45326">
        <ele>1416.28</ele>
        <time>2019-08-25T09:39:44Z</time>
      </trkpt>
      <trkpt lat="44.87809" lon="5.4533">
        <ele>1416.26</ele>
        <time>2019-08-25T09:39:45Z</time>
      </trkpt>
      <trkpt lat="44.87809" lon="5.45334">
        <ele>1416.25</ele>
        <time>2019-08-25T09:39:46Z</time>
      </trkpt>
      <trkpt lat="44.87808" lon="5.45339">
        <ele>1416.24</ele>
        <time>2019-08-25T09:39:47Z</time>
      </trkpt>
      <trkpt lat="44.87808" lon="5.45343">
        <ele>1416.23</ele>
        <time>2019-08-25T09:39:48Z</time>
      </trkpt>
      <trkpt lat="44.87808" lon="5.45347">
        <ele>1416.24</ele>
        <time>2019-08-25T09:39:49Z</time>
      </trkpt>
      <trkpt lat="44.87808" lon="5.45351">
        <ele>1416.26</ele>
        <time>2019-08-25T09:39:50Z</time>
      </trkpt>
      <trkpt lat="44.87808" lon="5.45355">
        <ele>1416.28</ele>
        <time>2019-08-25T09:39:51Z</time>
      </trkpt>
      <trkpt lat="44.87807" lon="5.45373">
        <ele>1416.6</ele>
        <time>2019-08-25T09:39:56Z</time>
      </trkpt>
      <trkpt lat="44.87807" lon="5.45377">
        <ele>1416.64</ele>
        <time>2019-08-25T09:39:57Z</time>
      </trkpt>
      <trkpt lat="44.87806" lon="5.45381">
        <ele>1416.66</ele>
        <time>2019-08-25T09:39:58Z</time>
      </trkpt>
      <trkpt lat="44.87805" lon="5.45385">
        <ele>1416.66</ele>
        <time>2019-08-25T09:39:59Z</time>
      </trkpt>
      <trkpt lat="44.87805" lon="5.45388">
        <ele>1416.68</ele>
        <time>2019-08-25T09:40:00Z</time>
      </trkpt>
      <trkpt lat="44.87803" lon="5.4539">
        <ele>1416.72</ele>
        <time>2019-08-25T09:40:01Z</time>
      </trkpt>
      <trkpt lat="44.87802" lon="5.45392">
        <ele>1416.79</ele>
        <time>2019-08-25T09:40:02Z</time>
      </trkpt>
      <trkpt lat="44.878" lon="5.45395">
        <ele>1416.9</ele>
        <time>2019-08-25T09:40:03Z</time>
      </trkpt>
      <trkpt lat="44.87799" lon="5.45397">
        <ele>1417.02</ele>
        <time>2019-08-25T09:40:04Z</time>
      </trkpt>
      <trkpt lat="44.87798" lon="5.45399">
        <ele>1417.13</ele>
        <time>2019-08-25T09:40:05Z</time>
      </trkpt>
      <trkpt lat="44.87797" lon="5.45402">
        <ele>1417.22</ele>
        <time>2019-08-25T09:40:06Z</time>
      </trkpt>
      <trkpt lat="44.87797" lon="5.45405">
        <ele>1417.3</ele>
        <time>2019-08-25T09:40:07Z</time>
      </trkpt>
      <trkpt lat="44.87797" lon="5.45408">
        <ele>1417.37</ele>
        <time>2019-08-25T09:40:08Z</time>
      </trkpt>
      <trkpt lat="44.87797" lon="5.45411">
        <ele>1417.47</ele>
        <time>2019-08-25T09:40:09Z</time>
      </trkpt>
      <trkpt lat="44.87797" lon="5.45412">
        <ele>1417.6</ele>
        <time>2019-08-25T09:40:10Z</time>
      </trkpt>
      <trkpt lat="44.87797" lon="5.45415">
        <ele>1417.77</ele>
        <time>2019-08-25T09:40:11Z</time>
      </trkpt>
      <trkpt lat="44.87797" lon="5.45418">
        <ele>1417.94</ele>
        <time>2019-08-25T09:40:12Z</time>
      </trkpt>
      <trkpt lat="44.87797" lon="5.4542">
        <ele>1418.11</ele>
        <time>2019-08-25T09:40:13Z</time>
      </trkpt>
      <trkpt lat="44.87796" lon="5.45422">
        <ele>1418.29</ele>
        <time>2019-08-25T09:40:14Z</time>
      </trkpt>
      <trkpt lat="44.87797" lon="5.45425">
        <ele>1418.46</ele>
        <time>2019-08-25T09:40:15Z</time>
      </trkpt>
      <trkpt lat="44.87798" lon="5.45428">
        <ele>1418.61</ele>
        <time>2019-08-25T09:40:16Z</time>
      </trkpt>
      <trkpt lat="44.87798" lon="5.45431">
        <ele>1418.76</ele>
        <time>2019-08-25T09:40:17Z</time>
      </trkpt>
      <trkpt lat="44.87799" lon="5.45433">
        <ele>1418.91</ele>
        <time>2019-08-25T09:40:18Z</time>
      </trkpt>
      <trkpt lat="44.87801" lon="5.45436">
        <ele>1419.05</ele>
        <time>2019-08-25T09:40:19Z</time>
      </trkpt>
      <trkpt lat="44.87802" lon="5.45439">
        <ele>1419.22</ele>
        <time>2019-08-25T09:40:20Z</time>
      </trkpt>
      <trkpt lat="44.87803" lon="5.45441">
        <ele>1419.62</ele>
        <time>2019-08-25T09:40:21Z</time>
      </trkpt>
      <trkpt lat="44.87803" lon="5.45444">
        <ele>1419.83</ele>
        <time>2019-08-25T09:40:22Z</time>
      </trkpt>
      <trkpt lat="44.87804" lon="5.45447">
        <ele>1420.04</ele>
        <time>2019-08-25T09:40:23Z</time>
      </trkpt>
      <trkpt lat="44.87805" lon="5.4545">
        <ele>1420.27</ele>
        <time>2019-08-25T09:40:24Z</time>
      </trkpt>
      <trkpt lat="44.87805" lon="5.45452">
        <ele>1420.5</ele>
        <time>2019-08-25T09:40:25Z</time>
      </trkpt>
      <trkpt lat="44.87806" lon="5.45454">
        <ele>1420.75</ele>
        <time>2019-08-25T09:40:26Z</time>
      </trkpt>
      <trkpt lat="44.87805" lon="5.45456">
        <ele>1420.99</ele>
        <time>2019-08-25T09:40:27Z</time>
      </trkpt>
      <trkpt lat="44.87804" lon="5.45458">
        <ele>1421.23</ele>
        <time>2019-08-25T09:40:28Z</time>
      </trkpt>
      <trkpt lat="44.87803" lon="5.45461">
        <ele>1421.43</ele>
        <time>2019-08-25T09:40:29Z</time>
      </trkpt>
      <trkpt lat="44.87803" lon="5.45463">
        <ele>1421.61</ele>
        <time>2019-08-25T09:40:30Z</time>
      </trkpt>
      <trkpt lat="44.87803" lon="5.45465">
        <ele>1421.77</ele>
        <time>2019-08-25T09:40:31Z</time>
      </trkpt>
      <trkpt lat="44.87802" lon="5.45467">
        <ele>1421.9</ele>
        <time>2019-08-25T09:40:32Z</time>
      </trkpt>
      <trkpt lat="44.87802" lon="5.4547">
        <ele>1422.03</ele>
        <time>2019-08-25T09:40:33Z</time>
      </trkpt>
      <trkpt lat="44.87802" lon="5.45472">
        <ele>1422.17</ele>
        <time>2019-08-25T09:40:34Z</time>
      </trkpt>
      <trkpt lat="44.87801" lon="5.45474">
        <ele>1422.34</ele>
        <time>2019-08-25T09:40:35Z</time>
      </trkpt>
      <trkpt lat="44.878" lon="5.45476">
        <ele>1422.52</ele>
        <time>2019-08-25T09:40:36Z</time>
      </trkpt>
      <trkpt lat="44.87799" lon="5.45479">
        <ele>1422.7</ele>
        <time>2019-08-25T09:40:37Z</time>
      </trkpt>
      <trkpt lat="44.87787" lon="5.45498">
        <ele>1424.26</ele>
        <time>2019-08-25T09:40:47Z</time>
      </trkpt>
      <trkpt lat="44.87786" lon="5.45499">
        <ele>1424.34</ele>
        <time>2019-08-25T09:40:48Z</time>
      </trkpt>
      <trkpt lat="44.87779" lon="5.45509">
        <ele>1425.49</ele>
        <time>2019-08-25T09:40:55Z</time>
      </trkpt>
      <trkpt lat="44.87778" lon="5.45511">
        <ele>1425.65</ele>
        <time>2019-08-25T09:40:56Z</time>
      </trkpt>
      <trkpt lat="44.87778" lon="5.45513">
        <ele>1425.81</ele>
        <time>2019-08-25T09:40:57Z</time>
      </trkpt>
      <trkpt lat="44.87777" lon="5.45516">
        <ele>1425.96</ele>
        <time>2019-08-25T09:40:58Z</time>
      </trkpt>
      <trkpt lat="44.87776" lon="5.45518">
        <ele>1426.13</ele>
        <time>2019-08-25T09:40:59Z</time>
      </trkpt>
      <trkpt lat="44.87776" lon="5.4552">
        <ele>1426.33</ele>
        <time>2019-08-25T09:41:00Z</time>
      </trkpt>
      <trkpt lat="44.87775" lon="5.45523">
        <ele>1426.54</ele>
        <time>2019-08-25T09:41:01Z</time>
      </trkpt>
      <trkpt lat="44.87774" lon="5.45525">
        <ele>1426.71</ele>
        <time>2019-08-25T09:41:02Z</time>
      </trkpt>
      <trkpt lat="44.87774" lon="5.45528">
        <ele>1426.87</ele>
        <time>2019-08-25T09:41:03Z</time>
      </trkpt>
      <trkpt lat="44.87773" lon="5.4553">
        <ele>1427.01</ele>
        <time>2019-08-25T09:41:04Z</time>
      </trkpt>
      <trkpt lat="44.87772" lon="5.45533">
        <ele>1427.14</ele>
        <time>2019-08-25T09:41:05Z</time>
      </trkpt>
      <trkpt lat="44.87764" lon="5.45562">
        <ele>1429.26</ele>
        <time>2019-08-25T09:41:17Z</time>
      </trkpt>
      <trkpt lat="44.87759" lon="5.45592">
        <ele>1431.2</ele>
        <time>2019-08-25T09:41:30Z</time>
      </trkpt>
      <trkpt lat="44.87758" lon="5.45598">
        <ele>1431.54</ele>
        <time>2019-08-25T09:41:32Z</time>
      </trkpt>
      <trkpt lat="44.87757" lon="5.456">
        <ele>1431.95</ele>
        <time>2019-08-25T09:41:33Z</time>
      </trkpt>
      <trkpt lat="44.87756" lon="5.45603">
        <ele>1432.22</ele>
        <time>2019-08-25T09:41:34Z</time>
      </trkpt>
      <trkpt lat="44.87755" lon="5.45605">
        <ele>1432.49</ele>
        <time>2019-08-25T09:41:35Z</time>
      </trkpt>
      <trkpt lat="44.87754" lon="5.45608">
        <ele>1432.72</ele>
        <time>2019-08-25T09:41:36Z</time>
      </trkpt>
      <trkpt lat="44.87753" lon="5.45609">
        <ele>1432.94</ele>
        <time>2019-08-25T09:41:37Z</time>
      </trkpt>
      <trkpt lat="44.87751" lon="5.45612">
        <ele>1433.16</ele>
        <time>2019-08-25T09:41:38Z</time>
      </trkpt>
      <trkpt lat="44.8775" lon="5.45614">
        <ele>1433.38</ele>
        <time>2019-08-25T09:41:39Z</time>
      </trkpt>
      <trkpt lat="44.87735" lon="5.45632">
        <ele>1435.18</ele>
        <time>2019-08-25T09:41:51Z</time>
      </trkpt>
      <trkpt lat="44.87733" lon="5.45637">
        <ele>1435.56</ele>
        <time>2019-08-25T09:41:54Z</time>
      </trkpt>
      <trkpt lat="44.87732" lon="5.4564">
        <ele>1435.74</ele>
        <time>2019-08-25T09:41:56Z</time>
      </trkpt>
      <trkpt lat="44.87731" lon="5.45642">
        <ele>1435.93</ele>
        <time>2019-08-25T09:41:57Z</time>
      </trkpt>
      <trkpt lat="44.87726" lon="5.4565">
        <ele>1436.59</ele>
        <time>2019-08-25T09:42:02Z</time>
      </trkpt>
      <trkpt lat="44.87725" lon="5.45652">
        <ele>1436.72</ele>
        <time>2019-08-25T09:42:03Z</time>
      </trkpt>
      <trkpt lat="44.87724" lon="5.45654">
        <ele>1436.84</ele>
        <time>2019-08-25T09:42:04Z</time>
      </trkpt>
      <trkpt lat="44.87723" lon="5.45656">
        <ele>1436.95</ele>
        <time>2019-08-25T09:42:05Z</time>
      </trkpt>
      <trkpt lat="44.87722" lon="5.45658">
        <ele>1437.06</ele>
        <time>2019-08-25T09:42:06Z</time>
      </trkpt>
      <trkpt lat="44.87717" lon="5.45673">
        <ele>1437.84</ele>
        <time>2019-08-25T09:42:14Z</time>
      </trkpt>
      <trkpt lat="44.87717" lon="5.45675">
        <ele>1437.95</ele>
        <time>2019-08-25T09:42:15Z</time>
      </trkpt>
      <trkpt lat="44.87716" lon="5.45677">
        <ele>1438.06</ele>
        <time>2019-08-25T09:42:16Z</time>
      </trkpt>
      <trkpt lat="44.87706" lon="5.457">
        <ele>1439.72</ele>
        <time>2019-08-25T09:42:30Z</time>
      </trkpt>
      <trkpt lat="44.87705" lon="5.45704">
        <ele>1439.91</ele>
        <time>2019-08-25T09:42:32Z</time>
      </trkpt>
      <trkpt lat="44.87705" lon="5.45706">
        <ele>1440.01</ele>
        <time>2019-08-25T09:42:33Z</time>
      </trkpt>
      <trkpt lat="44.87705" lon="5.45708">
        <ele>1440.12</ele>
        <time>2019-08-25T09:42:34Z</time>
      </trkpt>
      <trkpt lat="44.87704" lon="5.4571">
        <ele>1440.25</ele>
        <time>2019-08-25T09:42:35Z</time>
      </trkpt>
      <trkpt lat="44.87704" lon="5.45712">
        <ele>1440.36</ele>
        <time>2019-08-25T09:42:36Z</time>
      </trkpt>
      <trkpt lat="44.87704" lon="5.45714">
        <ele>1440.48</ele>
        <time>2019-08-25T09:42:37Z</time>
      </trkpt>
      <trkpt lat="44.87703" lon="5.45715">
        <ele>1440.6</ele>
        <time>2019-08-25T09:42:38Z</time>
      </trkpt>
      <trkpt lat="44.87703" lon="5.45717">
        <ele>1440.69</ele>
        <time>2019-08-25T09:42:39Z</time>
      </trkpt>
      <trkpt lat="44.87703" lon="5.45719">
        <ele>1440.78</ele>
        <time>2019-08-25T09:42:40Z</time>
      </trkpt>
      <trkpt lat="44.87703" lon="5.45722">
        <ele>1440.86</ele>
        <time>2019-08-25T09:42:41Z</time>
      </trkpt>
      <trkpt lat="44.87703" lon="5.45731">
        <ele>1441.19</ele>
        <time>2019-08-25T09:42:45Z</time>
      </trkpt>
      <trkpt lat="44.87703" lon="5.45733">
        <ele>1441.19</ele>
        <time>2019-08-25T09:42:46Z</time>
      </trkpt>
      <trkpt lat="44.87702" lon="5.45735">
        <ele>1441.34</ele>
        <time>2019-08-25T09:42:47Z</time>
      </trkpt>
      <trkpt lat="44.87702" lon="5.45737">
        <ele>1441.41</ele>
        <time>2019-08-25T09:42:48Z</time>
      </trkpt>
      <trkpt lat="44.87702" lon="5.45739">
        <ele>1441.47</ele>
        <time>2019-08-25T09:42:49Z</time>
      </trkpt>
      <trkpt lat="44.87701" lon="5.45741">
        <ele>1441.54</ele>
        <time>2019-08-25T09:42:50Z</time>
      </trkpt>
      <trkpt lat="44.87701" lon="5.45743">
        <ele>1441.62</ele>
        <time>2019-08-25T09:42:51Z</time>
      </trkpt>
      <trkpt lat="44.87701" lon="5.45746">
        <ele>1441.7</ele>
        <time>2019-08-25T09:42:52Z</time>
      </trkpt>
      <trkpt lat="44.877" lon="5.45748">
        <ele>1441.76</ele>
        <time>2019-08-25T09:42:53Z</time>
      </trkpt>
      <trkpt lat="44.87696" lon="5.45763">
        <ele>1442.23</ele>
        <time>2019-08-25T09:42:59Z</time>
      </trkpt>
      <trkpt lat="44.87696" lon="5.45766">
        <ele>1442.32</ele>
        <time>2019-08-25T09:43:00Z</time>
      </trkpt>
      <trkpt lat="44.87695" lon="5.4577">
        <ele>1442.4</ele>
        <time>2019-08-25T09:43:01Z</time>
      </trkpt>
      <trkpt lat="44.87694" lon="5.45773">
        <ele>1442.48</ele>
        <time>2019-08-25T09:43:02Z</time>
      </trkpt>
      <trkpt lat="44.87693" lon="5.45776">
        <ele>1442.57</ele>
        <time>2019-08-25T09:43:03Z</time>
      </trkpt>
      <trkpt lat="44.87675" lon="5.45806">
        <ele>1443.33</ele>
        <time>2019-08-25T09:43:14Z</time>
      </trkpt>
      <trkpt lat="44.87655" lon="5.45836">
        <ele>1444.19</ele>
        <time>2019-08-25T09:43:25Z</time>
      </trkpt>
      <trkpt lat="44.87637" lon="5.45871">
        <ele>1445.55</ele>
        <time>2019-08-25T09:43:36Z</time>
      </trkpt>
      <trkpt lat="44.87624" lon="5.45895">
        <ele>1447.19</ele>
        <time>2019-08-25T09:43:47Z</time>
      </trkpt>
      <trkpt lat="44.87613" lon="5.45921">
        <ele>1448.86</ele>
        <time>2019-08-25T09:43:59Z</time>
      </trkpt>
      <trkpt lat="44.87612" lon="5.45926">
        <ele>1449.14</ele>
        <time>2019-08-25T09:44:01Z</time>
      </trkpt>
      <trkpt lat="44.87604" lon="5.45954">
        <ele>1451.07</ele>
        <time>2019-08-25T09:44:13Z</time>
      </trkpt>
      <trkpt lat="44.87591" lon="5.45974">
        <ele>1452.49</ele>
        <time>2019-08-25T09:44:25Z</time>
      </trkpt>
      <trkpt lat="44.87575" lon="5.45999">
        <ele>1454.52</ele>
        <time>2019-08-25T09:44:40Z</time>
      </trkpt>
      <trkpt lat="44.8757" lon="5.46011">
        <ele>1455.45</ele>
        <time>2019-08-25T09:44:47Z</time>
      </trkpt>
      <trkpt lat="44.87569" lon="5.46012">
        <ele>1455.57</ele>
        <time>2019-08-25T09:44:48Z</time>
      </trkpt>
      <trkpt lat="44.87568" lon="5.46014">
        <ele>1455.7</ele>
        <time>2019-08-25T09:44:49Z</time>
      </trkpt>
      <trkpt lat="44.87567" lon="5.46016">
        <ele>1455.82</ele>
        <time>2019-08-25T09:44:50Z</time>
      </trkpt>
      <trkpt lat="44.87566" lon="5.46018">
        <ele>1456.05</ele>
        <time>2019-08-25T09:44:51Z</time>
      </trkpt>
      <trkpt lat="44.87552" lon="5.46045">
        <ele>1457.01</ele>
        <time>2019-08-25T09:45:03Z</time>
      </trkpt>
      <trkpt lat="44.87533" lon="5.46074">
        <ele>1457.57</ele>
        <time>2019-08-25T09:45:14Z</time>
      </trkpt>
      <trkpt lat="44.87514" lon="5.46099">
        <ele>1458.41</ele>
        <time>2019-08-25T09:45:25Z</time>
      </trkpt>
      <trkpt lat="44.87498" lon="5.46134">
        <ele>1459.38</ele>
        <time>2019-08-25T09:45:38Z</time>
      </trkpt>
      <trkpt lat="44.87484" lon="5.46167">
        <ele>1460.46</ele>
        <time>2019-08-25T09:45:50Z</time>
      </trkpt>
      <trkpt lat="44.87469" lon="5.462">
        <ele>1461.55</ele>
        <time>2019-08-25T09:46:02Z</time>
      </trkpt>
      <trkpt lat="44.8745" lon="5.46237">
        <ele>1462.44</ele>
        <time>2019-08-25T09:46:16Z</time>
      </trkpt>
      <trkpt lat="44.87434" lon="5.46279">
        <ele>1463.72</ele>
        <time>2019-08-25T09:46:29Z</time>
      </trkpt>
      <trkpt lat="44.87406" lon="5.46317">
        <ele>1464.64</ele>
        <time>2019-08-25T09:46:43Z</time>
      </trkpt>
      <trkpt lat="44.87388" lon="5.46357">
        <ele>1465.96</ele>
        <time>2019-08-25T09:46:56Z</time>
      </trkpt>
      <trkpt lat="44.87368" lon="5.46401">
        <ele>1467.44</ele>
        <time>2019-08-25T09:47:11Z</time>
      </trkpt>
      <trkpt lat="44.87352" lon="5.4645">
        <ele>1468.39</ele>
        <time>2019-08-25T09:47:26Z</time>
      </trkpt>
      <trkpt lat="44.87339" lon="5.46491">
        <ele>1468.98</ele>
        <time>2019-08-25T09:47:39Z</time>
      </trkpt>
      <trkpt lat="44.87326" lon="5.46539">
        <ele>1469.46</ele>
        <time>2019-08-25T09:47:53Z</time>
      </trkpt>
      <trkpt lat="44.87314" lon="5.46599">
        <ele>1468.99</ele>
        <time>2019-08-25T09:48:07Z</time>
      </trkpt>
      <trkpt lat="44.87309" lon="5.46658">
        <ele>1468.45</ele>
        <time>2019-08-25T09:48:22Z</time>
      </trkpt>
      <trkpt lat="44.87292" lon="5.46715">
        <ele>1468.94</ele>
        <time>2019-08-25T09:48:37Z</time>
      </trkpt>
      <trkpt lat="44.87279" lon="5.46767">
        <ele>1469.22</ele>
        <time>2019-08-25T09:48:51Z</time>
      </trkpt>
      <trkpt lat="44.87253" lon="5.46819">
        <ele>1470.5</ele>
        <time>2019-08-25T09:49:09Z</time>
      </trkpt>
      <trkpt lat="44.87219" lon="5.46858">
        <ele>1471.5</ele>
        <time>2019-08-25T09:49:25Z</time>
      </trkpt>
      <trkpt lat="44.87194" lon="5.46895">
        <ele>1472.3</ele>
        <time>2019-08-25T09:49:39Z</time>
      </trkpt>
      <trkpt lat="44.87168" lon="5.46918">
        <ele>1472.93</ele>
        <time>2019-08-25T09:49:50Z</time>
      </trkpt>
      <trkpt lat="44.87154" lon="5.46952">
        <ele>1473.61</ele>
        <time>2019-08-25T09:50:01Z</time>
      </trkpt>
      <trkpt lat="44.87143" lon="5.47001">
        <ele>1474.62</ele>
        <time>2019-08-25T09:50:16Z</time>
      </trkpt>
      <trkpt lat="44.87132" lon="5.47043">
        <ele>1475.28</ele>
        <time>2019-08-25T09:50:28Z</time>
      </trkpt>
      <trkpt lat="44.8712" lon="5.47094">
        <ele>1476.14</ele>
        <time>2019-08-25T09:50:42Z</time>
      </trkpt>
      <trkpt lat="44.87119" lon="5.47097">
        <ele>1476.23</ele>
        <time>2019-08-25T09:50:43Z</time>
      </trkpt>
      <trkpt lat="44.87086" lon="5.47139">
        <ele>1477.41</ele>
        <time>2019-08-25T09:51:00Z</time>
      </trkpt>
      <trkpt lat="44.87058" lon="5.47171">
        <ele>1478</ele>
        <time>2019-08-25T09:51:13Z</time>
      </trkpt>
      <trkpt lat="44.87031" lon="5.47199">
        <ele>1480.23</ele>
        <time>2019-08-25T09:51:29Z</time>
      </trkpt>
      <trkpt lat="44.8701" lon="5.47227">
        <ele>1482.58</ele>
        <time>2019-08-25T09:51:45Z</time>
      </trkpt>
      <trkpt lat="44.86988" lon="5.47242">
        <ele>1484.29</ele>
        <time>2019-08-25T09:52:00Z</time>
      </trkpt>
      <trkpt lat="44.8696" lon="5.47251">
        <ele>1485.29</ele>
        <time>2019-08-25T09:52:15Z</time>
      </trkpt>
      <trkpt lat="44.86941" lon="5.47287">
        <ele>1486.05</ele>
        <time>2019-08-25T09:52:30Z</time>
      </trkpt>
      <trkpt lat="44.86924" lon="5.47322">
        <ele>1487.52</ele>
        <time>2019-08-25T09:52:45Z</time>
      </trkpt>
      <trkpt lat="44.86901" lon="5.47355">
        <ele>1489.15</ele>
        <time>2019-08-25T09:53:01Z</time>
      </trkpt>
      <trkpt lat="44.86896" lon="5.47362">
        <ele>1489.63</ele>
        <time>2019-08-25T09:53:05Z</time>
      </trkpt>
      <trkpt lat="44.86872" lon="5.47394">
        <ele>1490.8</ele>
        <time>2019-08-25T09:53:20Z</time>
      </trkpt>
      <trkpt lat="44.86839" lon="5.47438">
        <ele>1491.41</ele>
        <time>2019-08-25T09:53:38Z</time>
      </trkpt>
      <trkpt lat="44.86808" lon="5.47468">
        <ele>1492.56</ele>
        <time>2019-08-25T09:53:54Z</time>
      </trkpt>
      <trkpt lat="44.86786" lon="5.47497">
        <ele>1494.71</ele>
        <time>2019-08-25T09:54:09Z</time>
      </trkpt>
      <trkpt lat="44.86764" lon="5.47531">
        <ele>1496.7</ele>
        <time>2019-08-25T09:54:26Z</time>
      </trkpt>
      <trkpt lat="44.86754" lon="5.47542">
        <ele>1497.68</ele>
        <time>2019-08-25T09:54:40Z</time>
      </trkpt>
      <trkpt lat="44.86748" lon="5.47546">
        <ele>1497.61</ele>
        <time>2019-08-25T09:54:56Z</time>
      </trkpt>
      <trkpt lat="44.86746" lon="5.47548">
        <ele>1497.54</ele>
        <time>2019-08-25T09:54:59Z</time>
      </trkpt>
      <trkpt lat="44.86729" lon="5.4756">
        <ele>1497.18</ele>
        <time>2019-08-25T09:55:16Z</time>
      </trkpt>
      <trkpt lat="44.8673" lon="5.47561">
        <ele>1496.86</ele>
        <time>2019-08-25T09:55:34Z</time>
      </trkpt>
      <trkpt lat="44.8673" lon="5.47562">
        <ele>1496.64</ele>
        <time>2019-08-25T09:56:35Z</time>
      </trkpt>
      <trkpt lat="44.8673" lon="5.47562">
        <ele>1496.46</ele>
        <time>2019-08-25T09:57:34Z</time>
      </trkpt>
      <trkpt lat="44.86729" lon="5.47562">
        <ele>1496.43</ele>
        <time>2019-08-25T09:58:42Z</time>
      </trkpt>
      <trkpt lat="44.8673" lon="5.4756">
        <ele>1496.02</ele>
        <time>2019-08-25T09:59:49Z</time>
      </trkpt>
      <trkpt lat="44.8673" lon="5.47561">
        <ele>1496.43</ele>
        <time>2019-08-25T10:00:51Z</time>
      </trkpt>
      <trkpt lat="44.8673" lon="5.47559">
        <ele>1496.61</ele>
        <time>2019-08-25T10:01:45Z</time>
      </trkpt>
      <trkpt lat="44.8673" lon="5.47561">
        <ele>1496.23</ele>
        <time>2019-08-25T10:02:29Z</time>
      </trkpt>
      <trkpt lat="44.8673" lon="5.47558">
        <ele>1496.36</ele>
        <time>2019-08-25T10:02:54Z</time>
      </trkpt>
      <trkpt lat="44.86728" lon="5.4756">
        <ele>1496.87</ele>
        <time>2019-08-25T10:03:22Z</time>
      </trkpt>
      <trkpt lat="44.86726" lon="5.47563">
        <ele>1497.1</ele>
        <time>2019-08-25T10:03:46Z</time>
      </trkpt>
      <trkpt lat="44.86716" lon="5.47561">
        <ele>1496.8</ele>
        <time>2019-08-25T10:04:12Z</time>
      </trkpt>
      <trkpt lat="44.86711" lon="5.4756">
        <ele>1497.3</ele>
        <time>2019-08-25T10:04:21Z</time>
      </trkpt>
      <trkpt lat="44.86705" lon="5.47557">
        <ele>1497.43</ele>
        <time>2019-08-25T10:04:25Z</time>
      </trkpt>
      <trkpt lat="44.86667" lon="5.47528">
        <ele>1497.05</ele>
        <time>2019-08-25T10:04:40Z</time>
      </trkpt>
      <trkpt lat="44.86634" lon="5.47513">
        <ele>1495.87</ele>
        <time>2019-08-25T10:04:52Z</time>
      </trkpt>
      <trkpt lat="44.86606" lon="5.47514">
        <ele>1495.43</ele>
        <time>2019-08-25T10:05:03Z</time>
      </trkpt>
      <trkpt lat="44.86598" lon="5.47516">
        <ele>1495.18</ele>
        <time>2019-08-25T10:05:05Z</time>
      </trkpt>
      <trkpt lat="44.86581" lon="5.47527">
        <ele>1494.5</ele>
        <time>2019-08-25T10:05:09Z</time>
      </trkpt>
      <trkpt lat="44.86552" lon="5.47559">
        <ele>1494.73</ele>
        <time>2019-08-25T10:05:22Z</time>
      </trkpt>
      <trkpt lat="44.86523" lon="5.47582">
        <ele>1495.72</ele>
        <time>2019-08-25T10:05:35Z</time>
      </trkpt>
      <trkpt lat="44.86496" lon="5.47589">
        <ele>1497.47</ele>
        <time>2019-08-25T10:05:48Z</time>
      </trkpt>
      <trkpt lat="44.86459" lon="5.47577">
        <ele>1497.57</ele>
        <time>2019-08-25T10:06:01Z</time>
      </trkpt>
      <trkpt lat="44.86426" lon="5.47581">
        <ele>1497.57</ele>
        <time>2019-08-25T10:06:15Z</time>
      </trkpt>
      <trkpt lat="44.86397" lon="5.47573">
        <ele>1498.46</ele>
        <time>2019-08-25T10:06:27Z</time>
      </trkpt>
      <trkpt lat="44.86371" lon="5.47542">
        <ele>1498.56</ele>
        <time>2019-08-25T10:06:38Z</time>
      </trkpt>
      <trkpt lat="44.86346" lon="5.47532">
        <ele>1499.07</ele>
        <time>2019-08-25T10:06:48Z</time>
      </trkpt>
      <trkpt lat="44.86309" lon="5.47518">
        <ele>1499.35</ele>
        <time>2019-08-25T10:07:01Z</time>
      </trkpt>
      <trkpt lat="44.86284" lon="5.47509">
        <ele>1499.74</ele>
        <time>2019-08-25T10:07:14Z</time>
      </trkpt>
      <trkpt lat="44.86282" lon="5.47509">
        <ele>1499.86</ele>
        <time>2019-08-25T10:07:15Z</time>
      </trkpt>
      <trkpt lat="44.86276" lon="5.47513">
        <ele>1500.31</ele>
        <time>2019-08-25T10:07:19Z</time>
      </trkpt>
      <trkpt lat="44.86252" lon="5.47547">
        <ele>1501.61</ele>
        <time>2019-08-25T10:07:34Z</time>
      </trkpt>
      <trkpt lat="44.8623" lon="5.4758">
        <ele>1502.32</ele>
        <time>2019-08-25T10:07:48Z</time>
      </trkpt>
      <trkpt lat="44.8621" lon="5.476">
        <ele>1503.11</ele>
        <time>2019-08-25T10:08:00Z</time>
      </trkpt>
      <trkpt lat="44.86184" lon="5.4761">
        <ele>1504.57</ele>
        <time>2019-08-25T10:08:13Z</time>
      </trkpt>
      <trkpt lat="44.86158" lon="5.47604">
        <ele>1504.99</ele>
        <time>2019-08-25T10:08:24Z</time>
      </trkpt>
      <trkpt lat="44.86133" lon="5.47607">
        <ele>1506.94</ele>
        <time>2019-08-25T10:08:37Z</time>
      </trkpt>
      <trkpt lat="44.86118" lon="5.4763">
        <ele>1507.97</ele>
        <time>2019-08-25T10:08:48Z</time>
      </trkpt>
      <trkpt lat="44.86102" lon="5.47646">
        <ele>1508.83</ele>
        <time>2019-08-25T10:08:59Z</time>
      </trkpt>
      <trkpt lat="44.86083" lon="5.47659">
        <ele>1511.6</ele>
        <time>2019-08-25T10:09:12Z</time>
      </trkpt>
      <trkpt lat="44.86059" lon="5.47667">
        <ele>1513.71</ele>
        <time>2019-08-25T10:09:26Z</time>
      </trkpt>
      <trkpt lat="44.86044" lon="5.47666">
        <ele>1514.39</ele>
        <time>2019-08-25T10:09:34Z</time>
      </trkpt>
      <trkpt lat="44.86031" lon="5.47674">
        <ele>1514.99</ele>
        <time>2019-08-25T10:09:43Z</time>
      </trkpt>
      <trkpt lat="44.8601" lon="5.47686">
        <ele>1515.77</ele>
        <time>2019-08-25T10:09:57Z</time>
      </trkpt>
      <trkpt lat="44.8598" lon="5.47686">
        <ele>1516.66</ele>
        <time>2019-08-25T10:10:08Z</time>
      </trkpt>
      <trkpt lat="44.85957" lon="5.47692">
        <ele>1517.17</ele>
        <time>2019-08-25T10:10:20Z</time>
      </trkpt>
      <trkpt lat="44.85934" lon="5.47695">
        <ele>1519.47</ele>
        <time>2019-08-25T10:10:33Z</time>
      </trkpt>
      <trkpt lat="44.85915" lon="5.47697">
        <ele>1520.62</ele>
        <time>2019-08-25T10:10:44Z</time>
      </trkpt>
      <trkpt lat="44.85889" lon="5.47708">
        <ele>1522.03</ele>
        <time>2019-08-25T10:10:58Z</time>
      </trkpt>
      <trkpt lat="44.85863" lon="5.47714">
        <ele>1522.63</ele>
        <time>2019-08-25T10:11:11Z</time>
      </trkpt>
      <trkpt lat="44.85842" lon="5.47714">
        <ele>1523.08</ele>
        <time>2019-08-25T10:11:25Z</time>
      </trkpt>
      <trkpt lat="44.85821" lon="5.47711">
        <ele>1523.91</ele>
        <time>2019-08-25T10:11:38Z</time>
      </trkpt>
      <trkpt lat="44.85797" lon="5.47702">
        <ele>1523.91</ele>
        <time>2019-08-25T10:11:50Z</time>
      </trkpt>
      <trkpt lat="44.85771" lon="5.47699">
        <ele>1524.32</ele>
        <time>2019-08-25T10:12:03Z</time>
      </trkpt>
      <trkpt lat="44.85745" lon="5.47691">
        <ele>1525.04</ele>
        <time>2019-08-25T10:12:17Z</time>
      </trkpt>
      <trkpt lat="44.85722" lon="5.47686">
        <ele>1525.72</ele>
        <time>2019-08-25T10:12:30Z</time>
      </trkpt>
      <trkpt lat="44.85716" lon="5.47686">
        <ele>1526.24</ele>
        <time>2019-08-25T10:12:35Z</time>
      </trkpt>
      <trkpt lat="44.85702" lon="5.47689">
        <ele>1526.89</ele>
        <time>2019-08-25T10:12:45Z</time>
      </trkpt>
      <trkpt lat="44.85683" lon="5.47692">
        <ele>1526.64</ele>
        <time>2019-08-25T10:12:59Z</time>
      </trkpt>
      <trkpt lat="44.85675" lon="5.47698">
        <ele>1526.93</ele>
        <time>2019-08-25T10:13:05Z</time>
      </trkpt>
      <trkpt lat="44.85651" lon="5.47715">
        <ele>1527.06</ele>
        <time>2019-08-25T10:13:18Z</time>
      </trkpt>
      <trkpt lat="44.8564" lon="5.47719">
        <ele>1526.99</ele>
        <time>2019-08-25T10:13:24Z</time>
      </trkpt>
      <trkpt lat="44.85634" lon="5.47725">
        <ele>1527.33</ele>
        <time>2019-08-25T10:13:29Z</time>
      </trkpt>
      <trkpt lat="44.85622" lon="5.47747">
        <ele>1528.38</ele>
        <time>2019-08-25T10:13:41Z</time>
      </trkpt>
      <trkpt lat="44.856" lon="5.47765">
        <ele>1529.38</ele>
        <time>2019-08-25T10:13:57Z</time>
      </trkpt>
      <trkpt lat="44.85585" lon="5.47784">
        <ele>1530.57</ele>
        <time>2019-08-25T10:14:12Z</time>
      </trkpt>
      <trkpt lat="44.85571" lon="5.47797">
        <ele>1531.67</ele>
        <time>2019-08-25T10:14:26Z</time>
      </trkpt>
      <trkpt lat="44.85554" lon="5.47797">
        <ele>1532.88</ele>
        <time>2019-08-25T10:14:37Z</time>
      </trkpt>
      <trkpt lat="44.85542" lon="5.47795">
        <ele>1533.66</ele>
        <time>2019-08-25T10:14:44Z</time>
      </trkpt>
      <trkpt lat="44.8553" lon="5.47795">
        <ele>1533.95</ele>
        <time>2019-08-25T10:14:50Z</time>
      </trkpt>
      <trkpt lat="44.8552" lon="5.47796">
        <ele>1534.45</ele>
        <time>2019-08-25T10:14:56Z</time>
      </trkpt>
      <trkpt lat="44.855" lon="5.47797">
        <ele>1536.01</ele>
        <time>2019-08-25T10:15:08Z</time>
      </trkpt>
      <trkpt lat="44.85479" lon="5.47799">
        <ele>1537.7</ele>
        <time>2019-08-25T10:15:22Z</time>
      </trkpt>
      <trkpt lat="44.85472" lon="5.47798">
        <ele>1538.13</ele>
        <time>2019-08-25T10:15:26Z</time>
      </trkpt>
      <trkpt lat="44.85453" lon="5.47801">
        <ele>1538.7</ele>
        <time>2019-08-25T10:15:36Z</time>
      </trkpt>
      <trkpt lat="44.85444" lon="5.47803">
        <ele>1539.4</ele>
        <time>2019-08-25T10:15:42Z</time>
      </trkpt>
      <trkpt lat="44.85425" lon="5.47821">
        <ele>1542.27</ele>
        <time>2019-08-25T10:15:56Z</time>
      </trkpt>
      <trkpt lat="44.85414" lon="5.47835">
        <ele>1543.79</ele>
        <time>2019-08-25T10:16:08Z</time>
      </trkpt>
      <trkpt lat="44.85393" lon="5.47843">
        <ele>1545.2</ele>
        <time>2019-08-25T10:16:23Z</time>
      </trkpt>
      <trkpt lat="44.85391" lon="5.47844">
        <ele>1545.31</ele>
        <time>2019-08-25T10:16:24Z</time>
      </trkpt>
      <trkpt lat="44.85368" lon="5.47847">
        <ele>1547.08</ele>
        <time>2019-08-25T10:16:39Z</time>
      </trkpt>
      <trkpt lat="44.85355" lon="5.47848">
        <ele>1548.17</ele>
        <time>2019-08-25T10:16:50Z</time>
      </trkpt>
      <trkpt lat="44.85351" lon="5.4785">
        <ele>1548.4</ele>
        <time>2019-08-25T10:16:53Z</time>
      </trkpt>
      <trkpt lat="44.8533" lon="5.47853">
        <ele>1549.97</ele>
        <time>2019-08-25T10:17:07Z</time>
      </trkpt>
      <trkpt lat="44.85327" lon="5.47853">
        <ele>1550.15</ele>
        <time>2019-08-25T10:17:09Z</time>
      </trkpt>
      <trkpt lat="44.85307" lon="5.47848">
        <ele>1551.09</ele>
        <time>2019-08-25T10:17:21Z</time>
      </trkpt>
      <trkpt lat="44.85288" lon="5.47843">
        <ele>1552.83</ele>
        <time>2019-08-25T10:17:36Z</time>
      </trkpt>
      <trkpt lat="44.85278" lon="5.4784">
        <ele>1553.77</ele>
        <time>2019-08-25T10:17:43Z</time>
      </trkpt>
      <trkpt lat="44.85271" lon="5.4784">
        <ele>1554.16</ele>
        <time>2019-08-25T10:17:47Z</time>
      </trkpt>
      <trkpt lat="44.85247" lon="5.47838">
        <ele>1555.21</ele>
        <time>2019-08-25T10:18:03Z</time>
      </trkpt>
      <trkpt lat="44.85237" lon="5.47838">
        <ele>1555.89</ele>
        <time>2019-08-25T10:18:10Z</time>
      </trkpt>
      <trkpt lat="44.85227" lon="5.47842">
        <ele>1555.86</ele>
        <time>2019-08-25T10:18:26Z</time>
      </trkpt>
      <trkpt lat="44.85225" lon="5.47842">
        <ele>1555.67</ele>
        <time>2019-08-25T10:18:57Z</time>
      </trkpt>
      <trkpt lat="44.85223" lon="5.47845">
        <ele>1555.92</ele>
        <time>2019-08-25T10:19:27Z</time>
      </trkpt>
      <trkpt lat="44.85224" lon="5.47846">
        <ele>1556.42</ele>
        <time>2019-08-25T10:19:58Z</time>
      </trkpt>
      <trkpt lat="44.85224" lon="5.47843">
        <ele>1557.02</ele>
        <time>2019-08-25T10:20:28Z</time>
      </trkpt>
      <trkpt lat="44.85224" lon="5.47838">
        <ele>1556.83</ele>
        <time>2019-08-25T10:21:00Z</time>
      </trkpt>
      <trkpt lat="44.85225" lon="5.47839">
        <ele>1556.9</ele>
        <time>2019-08-25T10:21:28Z</time>
      </trkpt>
      <trkpt lat="44.85225" lon="5.47845">
        <ele>1556.91</ele>
        <time>2019-08-25T10:21:58Z</time>
      </trkpt>
      <trkpt lat="44.8522" lon="5.47846">
        <ele>1556.9</ele>
        <time>2019-08-25T10:22:23Z</time>
      </trkpt>
      <trkpt lat="44.85206" lon="5.47851">
        <ele>1556.23</ele>
        <time>2019-08-25T10:22:31Z</time>
      </trkpt>
      <trkpt lat="44.85176" lon="5.47865">
        <ele>1553.79</ele>
        <time>2019-08-25T10:22:42Z</time>
      </trkpt>
      <trkpt lat="44.85172" lon="5.47867">
        <ele>1553.47</ele>
        <time>2019-08-25T10:22:43Z</time>
      </trkpt>
      <trkpt lat="44.85136" lon="5.47866">
        <ele>1551.64</ele>
        <time>2019-08-25T10:22:53Z</time>
      </trkpt>
      <trkpt lat="44.85112" lon="5.47858">
        <ele>1552.36</ele>
        <time>2019-08-25T10:23:08Z</time>
      </trkpt>
      <trkpt lat="44.85089" lon="5.47847">
        <ele>1553.34</ele>
        <time>2019-08-25T10:23:22Z</time>
      </trkpt>
      <trkpt lat="44.85071" lon="5.47843">
        <ele>1553.56</ele>
        <time>2019-08-25T10:23:33Z</time>
      </trkpt>
      <trkpt lat="44.85048" lon="5.47834">
        <ele>1554.37</ele>
        <time>2019-08-25T10:23:47Z</time>
      </trkpt>
      <trkpt lat="44.85029" lon="5.47826">
        <ele>1555.21</ele>
        <time>2019-08-25T10:23:59Z</time>
      </trkpt>
      <trkpt lat="44.8502" lon="5.4782">
        <ele>1556.07</ele>
        <time>2019-08-25T10:24:07Z</time>
      </trkpt>
      <trkpt lat="44.85017" lon="5.47831">
        <ele>1555.86</ele>
        <time>2019-08-25T10:24:15Z</time>
      </trkpt>
      <trkpt lat="44.85013" lon="5.47859">
        <ele>1554.42</ele>
        <time>2019-08-25T10:24:24Z</time>
      </trkpt>
      <trkpt lat="44.85001" lon="5.4789">
        <ele>1553.79</ele>
        <time>2019-08-25T10:24:37Z</time>
      </trkpt>
      <trkpt lat="44.84986" lon="5.47899">
        <ele>1554.8</ele>
        <time>2019-08-25T10:24:47Z</time>
      </trkpt>
      <trkpt lat="44.84962" lon="5.4791">
        <ele>1556.82</ele>
        <time>2019-08-25T10:25:02Z</time>
      </trkpt>
      <trkpt lat="44.84941" lon="5.47916">
        <ele>1556.27</ele>
        <time>2019-08-25T10:25:12Z</time>
      </trkpt>
      <trkpt lat="44.84918" lon="5.4792">
        <ele>1557.68</ele>
        <time>2019-08-25T10:25:24Z</time>
      </trkpt>
      <trkpt lat="44.8489" lon="5.47921">
        <ele>1557.96</ele>
        <time>2019-08-25T10:25:35Z</time>
      </trkpt>
      <trkpt lat="44.84878" lon="5.47923">
        <ele>1558.02</ele>
        <time>2019-08-25T10:25:40Z</time>
      </trkpt>
      <trkpt lat="44.84861" lon="5.47928">
        <ele>1558.93</ele>
        <time>2019-08-25T10:25:52Z</time>
      </trkpt>
      <trkpt lat="44.8486" lon="5.47929">
        <ele>1559.02</ele>
        <time>2019-08-25T10:25:53Z</time>
      </trkpt>
      <trkpt lat="44.84851" lon="5.47936">
        <ele>1559.41</ele>
        <time>2019-08-25T10:25:58Z</time>
      </trkpt>
      <trkpt lat="44.84827" lon="5.47975">
        <ele>1559.21</ele>
        <time>2019-08-25T10:26:11Z</time>
      </trkpt>
      <trkpt lat="44.84791" lon="5.4799">
        <ele>1558.58</ele>
        <time>2019-08-25T10:26:21Z</time>
      </trkpt>
      <trkpt lat="44.84746" lon="5.47978">
        <ele>1558.4</ele>
        <time>2019-08-25T10:26:32Z</time>
      </trkpt>
      <trkpt lat="44.84713" lon="5.47973">
        <ele>1559.49</ele>
        <time>2019-08-25T10:26:46Z</time>
      </trkpt>
      <trkpt lat="44.84683" lon="5.47976">
        <ele>1560.9</ele>
        <time>2019-08-25T10:26:58Z</time>
      </trkpt>
      <trkpt lat="44.84657" lon="5.47974">
        <ele>1560.48</ele>
        <time>2019-08-25T10:27:08Z</time>
      </trkpt>
      <trkpt lat="44.84647" lon="5.47986">
        <ele>1560.04</ele>
        <time>2019-08-25T10:27:12Z</time>
      </trkpt>
      <trkpt lat="44.84629" lon="5.48011">
        <ele>1559.15</ele>
        <time>2019-08-25T10:27:23Z</time>
      </trkpt>
      <trkpt lat="44.84603" lon="5.48016">
        <ele>1559.53</ele>
        <time>2019-08-25T10:27:33Z</time>
      </trkpt>
      <trkpt lat="44.8459" lon="5.4802">
        <ele>1560.66</ele>
        <time>2019-08-25T10:27:42Z</time>
      </trkpt>
      <trkpt lat="44.84586" lon="5.4802">
        <ele>1560.93</ele>
        <time>2019-08-25T10:27:44Z</time>
      </trkpt>
      <trkpt lat="44.84577" lon="5.48023">
        <ele>1561.63</ele>
        <time>2019-08-25T10:27:50Z</time>
      </trkpt>
      <trkpt lat="44.84553" lon="5.4804">
        <ele>1562.08</ele>
        <time>2019-08-25T10:28:01Z</time>
      </trkpt>
      <trkpt lat="44.84529" lon="5.48049">
        <ele>1561.41</ele>
        <time>2019-08-25T10:28:11Z</time>
      </trkpt>
      <trkpt lat="44.84521" lon="5.48056">
        <ele>1561.56</ele>
        <time>2019-08-25T10:28:17Z</time>
      </trkpt>
      <trkpt lat="44.84498" lon="5.48067">
        <ele>1561.85</ele>
        <time>2019-08-25T10:28:28Z</time>
      </trkpt>
      <trkpt lat="44.84478" lon="5.4808">
        <ele>1563</ele>
        <time>2019-08-25T10:28:40Z</time>
      </trkpt>
      <trkpt lat="44.84459" lon="5.48089">
        <ele>1563.86</ele>
        <time>2019-08-25T10:28:51Z</time>
      </trkpt>
      <trkpt lat="44.84449" lon="5.48096">
        <ele>1563.74</ele>
        <time>2019-08-25T10:28:55Z</time>
      </trkpt>
      <trkpt lat="44.84446" lon="5.48098">
        <ele>1563.47</ele>
        <time>2019-08-25T10:28:57Z</time>
      </trkpt>
      <trkpt lat="44.84442" lon="5.48104">
        <ele>1563.3</ele>
        <time>2019-08-25T10:29:01Z</time>
      </trkpt>
      <trkpt lat="44.84431" lon="5.48117">
        <ele>1564.35</ele>
        <time>2019-08-25T10:29:11Z</time>
      </trkpt>
      <trkpt lat="44.84423" lon="5.48139">
        <ele>1566.56</ele>
        <time>2019-08-25T10:29:24Z</time>
      </trkpt>
      <trkpt lat="44.84414" lon="5.48164">
        <ele>1568.42</ele>
        <time>2019-08-25T10:29:37Z</time>
      </trkpt>
      <trkpt lat="44.84412" lon="5.4817">
        <ele>1568.79</ele>
        <time>2019-08-25T10:29:40Z</time>
      </trkpt>
      <trkpt lat="44.84405" lon="5.48195">
        <ele>1570.68</ele>
        <time>2019-08-25T10:29:56Z</time>
      </trkpt>
      <trkpt lat="44.84397" lon="5.48205">
        <ele>1571.35</ele>
        <time>2019-08-25T10:30:15Z</time>
      </trkpt>
      <trkpt lat="44.84394" lon="5.48209">
        <ele>1571.26</ele>
        <time>2019-08-25T10:30:40Z</time>
      </trkpt>
      <trkpt lat="44.84391" lon="5.48207">
        <ele>1571.62</ele>
        <time>2019-08-25T10:31:04Z</time>
      </trkpt>
      <trkpt lat="44.84392" lon="5.48206">
        <ele>1571.59</ele>
        <time>2019-08-25T10:31:06Z</time>
      </trkpt>
      <trkpt lat="44.84392" lon="5.48206">
        <ele>1571.63</ele>
        <time>2019-08-25T10:31:13Z</time>
      </trkpt>
      <trkpt lat="44.84383" lon="5.48209">
        <ele>1571.27</ele>
        <time>2019-08-25T10:31:39Z</time>
      </trkpt>
      <trkpt lat="44.84389" lon="5.4821">
        <ele>1571.34</ele>
        <time>2019-08-25T10:32:13Z</time>
      </trkpt>
      <trkpt lat="44.84388" lon="5.4821">
        <ele>1571.51</ele>
        <time>2019-08-25T10:32:44Z</time>
      </trkpt>
      <trkpt lat="44.84384" lon="5.4821">
        <ele>1571.41</ele>
        <time>2019-08-25T10:33:18Z</time>
      </trkpt>
      <trkpt lat="44.84384" lon="5.48212">
        <ele>1571.2</ele>
        <time>2019-08-25T10:33:52Z</time>
      </trkpt>
      <trkpt lat="44.84386" lon="5.48211">
        <ele>1571.68</ele>
        <time>2019-08-25T10:34:21Z</time>
      </trkpt>
      <trkpt lat="44.84387" lon="5.48216">
        <ele>1572.01</ele>
        <time>2019-08-25T10:34:45Z</time>
      </trkpt>
      <trkpt lat="44.84386" lon="5.48232">
        <ele>1572.43</ele>
        <time>2019-08-25T10:35:08Z</time>
      </trkpt>
      <trkpt lat="44.84386" lon="5.48237">
        <ele>1572.59</ele>
        <time>2019-08-25T10:35:10Z</time>
      </trkpt>
      <trkpt lat="44.84385" lon="5.48256">
        <ele>1573.89</ele>
        <time>2019-08-25T10:35:19Z</time>
      </trkpt>
      <trkpt lat="44.84383" lon="5.4827">
        <ele>1574.69</ele>
        <time>2019-08-25T10:35:26Z</time>
      </trkpt>
      <trkpt lat="44.84382" lon="5.48275">
        <ele>1574.85</ele>
        <time>2019-08-25T10:35:28Z</time>
      </trkpt>
      <trkpt lat="44.84382" lon="5.48285">
        <ele>1575.2</ele>
        <time>2019-08-25T10:35:33Z</time>
      </trkpt>
      <trkpt lat="44.84382" lon="5.48291">
        <ele>1575.43</ele>
        <time>2019-08-25T10:35:36Z</time>
      </trkpt>
      <trkpt lat="44.84379" lon="5.48301">
        <ele>1576</ele>
        <time>2019-08-25T10:35:41Z</time>
      </trkpt>
      <trkpt lat="44.84373" lon="5.4833">
        <ele>1577.56</ele>
        <time>2019-08-25T10:35:56Z</time>
      </trkpt>
      <trkpt lat="44.84367" lon="5.48347">
        <ele>1578.63</ele>
        <time>2019-08-25T10:36:05Z</time>
      </trkpt>
      <trkpt lat="44.84367" lon="5.48356">
        <ele>1579.22</ele>
        <time>2019-08-25T10:36:10Z</time>
      </trkpt>
      <trkpt lat="44.84369" lon="5.48364">
        <ele>1579.66</ele>
        <time>2019-08-25T10:36:14Z</time>
      </trkpt>
      <trkpt lat="44.84366" lon="5.48385">
        <ele>1580.62</ele>
        <time>2019-08-25T10:36:24Z</time>
      </trkpt>
      <trkpt lat="44.84365" lon="5.48393">
        <ele>1581.03</ele>
        <time>2019-08-25T10:36:28Z</time>
      </trkpt>
      <trkpt lat="44.84358" lon="5.4841">
        <ele>1582.27</ele>
        <time>2019-08-25T10:36:38Z</time>
      </trkpt>
      <trkpt lat="44.8435" lon="5.48412">
        <ele>1582.92</ele>
        <time>2019-08-25T10:36:42Z</time>
      </trkpt>
      <trkpt lat="44.84323" lon="5.48418">
        <ele>1584</ele>
        <time>2019-08-25T10:36:54Z</time>
      </trkpt>
      <trkpt lat="44.8432" lon="5.48419">
        <ele>1584.16</ele>
        <time>2019-08-25T10:36:56Z</time>
      </trkpt>
      <trkpt lat="44.84294" lon="5.48418">
        <ele>1585.85</ele>
        <time>2019-08-25T10:37:10Z</time>
      </trkpt>
      <trkpt lat="44.84268" lon="5.48408">
        <ele>1587.61</ele>
        <time>2019-08-25T10:37:25Z</time>
      </trkpt>
      <trkpt lat="44.84255" lon="5.48401">
        <ele>1588.83</ele>
        <time>2019-08-25T10:37:34Z</time>
      </trkpt>
      <trkpt lat="44.84245" lon="5.48395">
        <ele>1589.53</ele>
        <time>2019-08-25T10:37:41Z</time>
      </trkpt>
      <trkpt lat="44.84219" lon="5.48382">
        <ele>1590.79</ele>
        <time>2019-08-25T10:37:56Z</time>
      </trkpt>
      <trkpt lat="44.84202" lon="5.48377">
        <ele>1592.24</ele>
        <time>2019-08-25T10:38:09Z</time>
      </trkpt>
      <trkpt lat="44.84187" lon="5.4837">
        <ele>1594.34</ele>
        <time>2019-08-25T10:38:25Z</time>
      </trkpt>
      <trkpt lat="44.84159" lon="5.48371">
        <ele>1597.17</ele>
        <time>2019-08-25T10:38:44Z</time>
      </trkpt>
      <trkpt lat="44.84157" lon="5.4837">
        <ele>1597.89</ele>
        <time>2019-08-25T10:38:48Z</time>
      </trkpt>
      <trkpt lat="44.84147" lon="5.48371">
        <ele>1599.35</ele>
        <time>2019-08-25T10:38:58Z</time>
      </trkpt>
      <trkpt lat="44.84115" lon="5.48374">
        <ele>1602.57</ele>
        <time>2019-08-25T10:39:24Z</time>
      </trkpt>
      <trkpt lat="44.84089" lon="5.48368">
        <ele>1605.1</ele>
        <time>2019-08-25T10:39:48Z</time>
      </trkpt>
      <trkpt lat="44.8407" lon="5.48366">
        <ele>1607.51</ele>
        <time>2019-08-25T10:40:11Z</time>
      </trkpt>
      <trkpt lat="44.84053" lon="5.48363">
        <ele>1609.71</ele>
        <time>2019-08-25T10:40:29Z</time>
      </trkpt>
      <trkpt lat="44.84031" lon="5.48348">
        <ele>1612.62</ele>
        <time>2019-08-25T10:40:54Z</time>
      </trkpt>
      <trkpt lat="44.84016" lon="5.48345">
        <ele>1613.62</ele>
        <time>2019-08-25T10:41:06Z</time>
      </trkpt>
      <trkpt lat="44.83988" lon="5.48338">
        <ele>1615.81</ele>
        <time>2019-08-25T10:41:31Z</time>
      </trkpt>
      <trkpt lat="44.83967" lon="5.48322">
        <ele>1616.69</ele>
        <time>2019-08-25T10:41:53Z</time>
      </trkpt>
      <trkpt lat="44.83943" lon="5.48308">
        <ele>1618.11</ele>
        <time>2019-08-25T10:42:16Z</time>
      </trkpt>
      <trkpt lat="44.8392" lon="5.48289">
        <ele>1618.87</ele>
        <time>2019-08-25T10:42:34Z</time>
      </trkpt>
      <trkpt lat="44.83916" lon="5.48284">
        <ele>1619.21</ele>
        <time>2019-08-25T10:42:38Z</time>
      </trkpt>
      <trkpt lat="44.83901" lon="5.48281">
        <ele>1619.8</ele>
        <time>2019-08-25T10:42:46Z</time>
      </trkpt>
      <trkpt lat="44.8389" lon="5.48265">
        <ele>1620.57</ele>
        <time>2019-08-25T10:42:59Z</time>
      </trkpt>
      <trkpt lat="44.83895" lon="5.4825">
        <ele>1621.03</ele>
        <time>2019-08-25T10:43:27Z</time>
      </trkpt>
      <trkpt lat="44.83896" lon="5.48246">
        <ele>1621.03</ele>
        <time>2019-08-25T10:43:45Z</time>
      </trkpt>
      <trkpt lat="44.83892" lon="5.48246">
        <ele>1621</ele>
        <time>2019-08-25T10:44:13Z</time>
      </trkpt>
      <trkpt lat="44.83897" lon="5.4825">
        <ele>1620.81</ele>
        <time>2019-08-25T10:44:43Z</time>
      </trkpt>
      <trkpt lat="44.83895" lon="5.48249">
        <ele>1621.21</ele>
        <time>2019-08-25T10:45:09Z</time>
      </trkpt>
      <trkpt lat="44.83895" lon="5.48243">
        <ele>1621.22</ele>
        <time>2019-08-25T10:45:38Z</time>
      </trkpt>
      <trkpt lat="44.8389" lon="5.48241">
        <ele>1620.97</ele>
        <time>2019-08-25T10:46:10Z</time>
      </trkpt>
      <trkpt lat="44.83887" lon="5.48241">
        <ele>1621</ele>
        <time>2019-08-25T10:46:12Z</time>
      </trkpt>
      <trkpt lat="44.83872" lon="5.48235">
        <ele>1620.92</ele>
        <time>2019-08-25T10:46:19Z</time>
      </trkpt>
      <trkpt lat="44.83863" lon="5.4823">
        <ele>1621.03</ele>
        <time>2019-08-25T10:46:24Z</time>
      </trkpt>
      <trkpt lat="44.8385" lon="5.4823">
        <ele>1621.78</ele>
        <time>2019-08-25T10:46:30Z</time>
      </trkpt>
      <trkpt lat="44.83814" lon="5.4822">
        <ele>1623.2</ele>
        <time>2019-08-25T10:46:44Z</time>
      </trkpt>
      <trkpt lat="44.8378" lon="5.48213">
        <ele>1624.72</ele>
        <time>2019-08-25T10:46:56Z</time>
      </trkpt>
      <trkpt lat="44.8375" lon="5.48206">
        <ele>1625.9</ele>
        <time>2019-08-25T10:47:09Z</time>
      </trkpt>
      <trkpt lat="44.83716" lon="5.48205">
        <ele>1626.23</ele>
        <time>2019-08-25T10:47:20Z</time>
      </trkpt>
      <trkpt lat="44.83702" lon="5.48203">
        <ele>1625.99</ele>
        <time>2019-08-25T10:47:24Z</time>
      </trkpt>
      <trkpt lat="44.83661" lon="5.48185">
        <ele>1624.6</ele>
        <time>2019-08-25T10:47:37Z</time>
      </trkpt>
      <trkpt lat="44.83633" lon="5.48173">
        <ele>1625.5</ele>
        <time>2019-08-25T10:47:49Z</time>
      </trkpt>
      <trkpt lat="44.83613" lon="5.48164">
        <ele>1625.63</ele>
        <time>2019-08-25T10:48:01Z</time>
      </trkpt>
      <trkpt lat="44.83589" lon="5.48158">
        <ele>1627.45</ele>
        <time>2019-08-25T10:48:13Z</time>
      </trkpt>
      <trkpt lat="44.83563" lon="5.48154">
        <ele>1628.18</ele>
        <time>2019-08-25T10:48:24Z</time>
      </trkpt>
      <trkpt lat="44.8353" lon="5.48155">
        <ele>1627.81</ele>
        <time>2019-08-25T10:48:35Z</time>
      </trkpt>
      <trkpt lat="44.83496" lon="5.48155">
        <ele>1628.43</ele>
        <time>2019-08-25T10:48:49Z</time>
      </trkpt>
      <trkpt lat="44.83472" lon="5.48162">
        <ele>1629.88</ele>
        <time>2019-08-25T10:49:02Z</time>
      </trkpt>
      <trkpt lat="44.83444" lon="5.4817">
        <ele>1630.59</ele>
        <time>2019-08-25T10:49:17Z</time>
      </trkpt>
      <trkpt lat="44.83418" lon="5.48172">
        <ele>1630.73</ele>
        <time>2019-08-25T10:49:28Z</time>
      </trkpt>
      <trkpt lat="44.83403" lon="5.48162">
        <ele>1629.38</ele>
        <time>2019-08-25T10:49:37Z</time>
      </trkpt>
      <trkpt lat="44.83404" lon="5.48159">
        <ele>1627.29</ele>
        <time>2019-08-25T10:50:05Z</time>
      </trkpt>
      <trkpt lat="44.83405" lon="5.48159">
        <ele>1627.31</ele>
        <time>2019-08-25T10:50:32Z</time>
      </trkpt>
      <trkpt lat="44.83404" lon="5.48159">
        <ele>1627.78</ele>
        <time>2019-08-25T10:50:55Z</time>
      </trkpt>
      <trkpt lat="44.83403" lon="5.48157">
        <ele>1627.94</ele>
        <time>2019-08-25T10:51:05Z</time>
      </trkpt>
      <trkpt lat="44.83402" lon="5.48151">
        <ele>1628.03</ele>
        <time>2019-08-25T10:51:07Z</time>
      </trkpt>
      <trkpt lat="44.83401" lon="5.48129">
        <ele>1628.26</ele>
        <time>2019-08-25T10:51:12Z</time>
      </trkpt>
      <trkpt lat="44.8339" lon="5.48095">
        <ele>1628.06</ele>
        <time>2019-08-25T10:51:17Z</time>
      </trkpt>
      <trkpt lat="44.83379" lon="5.48077">
        <ele>1627.22</ele>
        <time>2019-08-25T10:51:20Z</time>
      </trkpt>
      <trkpt lat="44.83368" lon="5.4806">
        <ele>1625.77</ele>
        <time>2019-08-25T10:51:23Z</time>
      </trkpt>
      <trkpt lat="44.83365" lon="5.48055">
        <ele>1625.47</ele>
        <time>2019-08-25T10:51:24Z</time>
      </trkpt>
      <trkpt lat="44.83338" lon="5.48031">
        <ele>1622.43</ele>
        <time>2019-08-25T10:51:34Z</time>
      </trkpt>
      <trkpt lat="44.83325" lon="5.48008">
        <ele>1622</ele>
        <time>2019-08-25T10:51:44Z</time>
      </trkpt>
      <trkpt lat="44.83313" lon="5.4797">
        <ele>1622.72</ele>
        <time>2019-08-25T10:51:58Z</time>
      </trkpt>
      <trkpt lat="44.8332" lon="5.47923">
        <ele>1623.02</ele>
        <time>2019-08-25T10:52:13Z</time>
      </trkpt>
      <trkpt lat="44.83325" lon="5.47885">
        <ele>1623.49</ele>
        <time>2019-08-25T10:52:26Z</time>
      </trkpt>
      <trkpt lat="44.83312" lon="5.47849">
        <ele>1624.07</ele>
        <time>2019-08-25T10:52:42Z</time>
      </trkpt>
      <trkpt lat="44.83296" lon="5.47823">
        <ele>1625.27</ele>
        <time>2019-08-25T10:52:57Z</time>
      </trkpt>
      <trkpt lat="44.83294" lon="5.47819">
        <ele>1625.79</ele>
        <time>2019-08-25T10:53:00Z</time>
      </trkpt>
      <trkpt lat="44.8329" lon="5.47794">
        <ele>1628.7</ele>
        <time>2019-08-25T10:53:15Z</time>
      </trkpt>
      <trkpt lat="44.83278" lon="5.47762">
        <ele>1629.13</ele>
        <time>2019-08-25T10:53:28Z</time>
      </trkpt>
      <trkpt lat="44.83267" lon="5.47741">
        <ele>1629.71</ele>
        <time>2019-08-25T10:53:40Z</time>
      </trkpt>
      <trkpt lat="44.83243" lon="5.47741">
        <ele>1629.96</ele>
        <time>2019-08-25T10:53:52Z</time>
      </trkpt>
      <trkpt lat="44.83226" lon="5.47732">
        <ele>1630.72</ele>
        <time>2019-08-25T10:54:03Z</time>
      </trkpt>
      <trkpt lat="44.83206" lon="5.47722">
        <ele>1631.84</ele>
        <time>2019-08-25T10:54:14Z</time>
      </trkpt>
      <trkpt lat="44.83185" lon="5.47708">
        <ele>1634</ele>
        <time>2019-08-25T10:54:30Z</time>
      </trkpt>
      <trkpt lat="44.83167" lon="5.47693">
        <ele>1635.68</ele>
        <time>2019-08-25T10:54:46Z</time>
      </trkpt>
      <trkpt lat="44.83154" lon="5.47682">
        <ele>1636.81</ele>
        <time>2019-08-25T10:54:58Z</time>
      </trkpt>
      <trkpt lat="44.83149" lon="5.47677">
        <ele>1637.24</ele>
        <time>2019-08-25T10:55:02Z</time>
      </trkpt>
      <trkpt lat="44.83134" lon="5.4765">
        <ele>1638.2</ele>
        <time>2019-08-25T10:55:18Z</time>
      </trkpt>
      <trkpt lat="44.83122" lon="5.47629">
        <ele>1639.14</ele>
        <time>2019-08-25T10:55:32Z</time>
      </trkpt>
      <trkpt lat="44.83109" lon="5.47609">
        <ele>1639.86</ele>
        <time>2019-08-25T10:55:46Z</time>
      </trkpt>
      <trkpt lat="44.83105" lon="5.47582">
        <ele>1641.85</ele>
        <time>2019-08-25T10:56:01Z</time>
      </trkpt>
      <trkpt lat="44.831" lon="5.47562">
        <ele>1643.19</ele>
        <time>2019-08-25T10:56:11Z</time>
      </trkpt>
      <trkpt lat="44.83095" lon="5.47546">
        <ele>1645.49</ele>
        <time>2019-08-25T10:56:23Z</time>
      </trkpt>
      <trkpt lat="44.83078" lon="5.47529">
        <ele>1646.57</ele>
        <time>2019-08-25T10:56:39Z</time>
      </trkpt>
      <trkpt lat="44.83065" lon="5.47507">
        <ele>1647.71</ele>
        <time>2019-08-25T10:56:53Z</time>
      </trkpt>
      <trkpt lat="44.83053" lon="5.47485">
        <ele>1648.85</ele>
        <time>2019-08-25T10:57:07Z</time>
      </trkpt>
      <trkpt lat="44.83039" lon="5.47458">
        <ele>1650.29</ele>
        <time>2019-08-25T10:57:23Z</time>
      </trkpt>
      <trkpt lat="44.83031" lon="5.47443">
        <ele>1650.55</ele>
        <time>2019-08-25T10:57:30Z</time>
      </trkpt>
      <trkpt lat="44.83019" lon="5.4743">
        <ele>1651.54</ele>
        <time>2019-08-25T10:57:39Z</time>
      </trkpt>
      <trkpt lat="44.83016" lon="5.47425">
        <ele>1652.37</ele>
        <time>2019-08-25T10:57:44Z</time>
      </trkpt>
      <trkpt lat="44.82999" lon="5.47404">
        <ele>1654.53</ele>
        <time>2019-08-25T10:58:01Z</time>
      </trkpt>
      <trkpt lat="44.82985" lon="5.47381">
        <ele>1654.37</ele>
        <time>2019-08-25T10:58:15Z</time>
      </trkpt>
      <trkpt lat="44.82978" lon="5.4737">
        <ele>1654.1</ele>
        <time>2019-08-25T10:58:21Z</time>
      </trkpt>
      <trkpt lat="44.82961" lon="5.47346">
        <ele>1654.35</ele>
        <time>2019-08-25T10:58:35Z</time>
      </trkpt>
      <trkpt lat="44.8296" lon="5.47338">
        <ele>1654.96</ele>
        <time>2019-08-25T10:58:39Z</time>
      </trkpt>
      <trkpt lat="44.82961" lon="5.473">
        <ele>1656.94</ele>
        <time>2019-08-25T10:58:57Z</time>
      </trkpt>
      <trkpt lat="44.82972" lon="5.47275">
        <ele>1658.89</ele>
        <time>2019-08-25T10:59:11Z</time>
      </trkpt>
      <trkpt lat="44.82982" lon="5.47249">
        <ele>1660.18</ele>
        <time>2019-08-25T10:59:26Z</time>
      </trkpt>
      <trkpt lat="44.82993" lon="5.47219">
        <ele>1661.95</ele>
        <time>2019-08-25T10:59:41Z</time>
      </trkpt>
      <trkpt lat="44.83001" lon="5.47201">
        <ele>1663.08</ele>
        <time>2019-08-25T10:59:52Z</time>
      </trkpt>
      <trkpt lat="44.83012" lon="5.47166">
        <ele>1665.2</ele>
        <time>2019-08-25T11:00:09Z</time>
      </trkpt>
      <trkpt lat="44.83017" lon="5.47136">
        <ele>1665.05</ele>
        <time>2019-08-25T11:00:21Z</time>
      </trkpt>
      <trkpt lat="44.83012" lon="5.47101">
        <ele>1664.48</ele>
        <time>2019-08-25T11:00:34Z</time>
      </trkpt>
      <trkpt lat="44.8301" lon="5.47073">
        <ele>1665.92</ele>
        <time>2019-08-25T11:00:46Z</time>
      </trkpt>
      <trkpt lat="44.83012" lon="5.4706">
        <ele>1667.05</ele>
        <time>2019-08-25T11:00:53Z</time>
      </trkpt>
      <trkpt lat="44.8301" lon="5.47055">
        <ele>1667.26</ele>
        <time>2019-08-25T11:00:58Z</time>
      </trkpt>
      <trkpt lat="44.83009" lon="5.47051">
        <ele>1667.28</ele>
        <time>2019-08-25T11:01:01Z</time>
      </trkpt>
      <trkpt lat="44.83008" lon="5.47048">
        <ele>1667.51</ele>
        <time>2019-08-25T11:01:13Z</time>
      </trkpt>
      <trkpt lat="44.82999" lon="5.47051">
        <ele>1668.26</ele>
        <time>2019-08-25T11:01:25Z</time>
      </trkpt>
      <trkpt lat="44.83001" lon="5.47051">
        <ele>1668.74</ele>
        <time>2019-08-25T11:01:50Z</time>
      </trkpt>
      <trkpt lat="44.83002" lon="5.47053">
        <ele>1668.61</ele>
        <time>2019-08-25T11:02:10Z</time>
      </trkpt>
      <trkpt lat="44.83002" lon="5.47052">
        <ele>1668.59</ele>
        <time>2019-08-25T11:02:37Z</time>
      </trkpt>
      <trkpt lat="44.83002" lon="5.47051">
        <ele>1668.36</ele>
        <time>2019-08-25T11:02:59Z</time>
      </trkpt>
      <trkpt lat="44.83006" lon="5.47047">
        <ele>1667.85</ele>
        <time>2019-08-25T11:03:21Z</time>
      </trkpt>
      <trkpt lat="44.83003" lon="5.4705">
        <ele>1668.28</ele>
        <time>2019-08-25T11:03:38Z</time>
      </trkpt>
      <trkpt lat="44.83007" lon="5.47056">
        <ele>1668.1</ele>
        <time>2019-08-25T11:03:59Z</time>
      </trkpt>
      <trkpt lat="44.83004" lon="5.47053">
        <ele>1667.88</ele>
        <time>2019-08-25T11:04:26Z</time>
      </trkpt>
      <trkpt lat="44.83006" lon="5.47058">
        <ele>1667.9</ele>
        <time>2019-08-25T11:04:57Z</time>
      </trkpt>
      <trkpt lat="44.83001" lon="5.47052">
        <ele>1667.89</ele>
        <time>2019-08-25T11:05:22Z</time>
      </trkpt>
      <trkpt lat="44.82999" lon="5.47049">
        <ele>1668.11</ele>
        <time>2019-08-25T11:05:45Z</time>
      </trkpt>
      <trkpt lat="44.83002" lon="5.47048">
        <ele>1668.5</ele>
        <time>2019-08-25T11:06:03Z</time>
      </trkpt>
      <trkpt lat="44.83003" lon="5.4705">
        <ele>1667.78</ele>
        <time>2019-08-25T11:06:24Z</time>
      </trkpt>
      <trkpt lat="44.83001" lon="5.47051">
        <ele>1668.12</ele>
        <time>2019-08-25T11:06:59Z</time>
      </trkpt>
      <trkpt lat="44.82997" lon="5.47053">
        <ele>1668.32</ele>
        <time>2019-08-25T11:07:18Z</time>
      </trkpt>
      <trkpt lat="44.82999" lon="5.47051">
        <ele>1668.1</ele>
        <time>2019-08-25T11:07:54Z</time>
      </trkpt>
      <trkpt lat="44.82999" lon="5.47051">
        <ele>1668.08</ele>
        <time>2019-08-25T11:08:36Z</time>
      </trkpt>
      <trkpt lat="44.82999" lon="5.47051">
        <ele>1667.91</ele>
        <time>2019-08-25T11:09:09Z</time>
      </trkpt>
      <trkpt lat="44.82998" lon="5.47052">
        <ele>1667.97</ele>
        <time>2019-08-25T11:09:58Z</time>
      </trkpt>
      <trkpt lat="44.82998" lon="5.4705">
        <ele>1667.9</ele>
        <time>2019-08-25T11:10:51Z</time>
      </trkpt>
      <trkpt lat="44.82999" lon="5.4705">
        <ele>1667.98</ele>
        <time>2019-08-25T11:11:57Z</time>
      </trkpt>
      <trkpt lat="44.82999" lon="5.47051">
        <ele>1668.09</ele>
        <time>2019-08-25T11:12:55Z</time>
      </trkpt>
      <trkpt lat="44.82997" lon="5.4705">
        <ele>1667.94</ele>
        <time>2019-08-25T11:13:33Z</time>
      </trkpt>
      <trkpt lat="44.82997" lon="5.47052">
        <ele>1667.86</ele>
        <time>2019-08-25T11:14:07Z</time>
      </trkpt>
      <trkpt lat="44.82997" lon="5.47052">
        <ele>1667.76</ele>
        <time>2019-08-25T11:14:39Z</time>
      </trkpt>
      <trkpt lat="44.82998" lon="5.47049">
        <ele>1668.64</ele>
        <time>2019-08-25T11:15:11Z</time>
      </trkpt>
      <trkpt lat="44.82998" lon="5.47051">
        <ele>1667.73</ele>
        <time>2019-08-25T11:16:05Z</time>
      </trkpt>
      <trkpt lat="44.82999" lon="5.47052">
        <ele>1667.76</ele>
        <time>2019-08-25T11:16:45Z</time>
      </trkpt>
      <trkpt lat="44.82999" lon="5.47054">
        <ele>1668.24</ele>
        <time>2019-08-25T11:17:30Z</time>
      </trkpt>
      <trkpt lat="44.82999" lon="5.47054">
        <ele>1667.87</ele>
        <time>2019-08-25T11:18:11Z</time>
      </trkpt>
      <trkpt lat="44.82998" lon="5.47051">
        <ele>1668.36</ele>
        <time>2019-08-25T11:18:45Z</time>
      </trkpt>
      <trkpt lat="44.82998" lon="5.47052">
        <ele>1668.19</ele>
        <time>2019-08-25T11:19:13Z</time>
      </trkpt>
      <trkpt lat="44.83" lon="5.47052">
        <ele>1668.44</ele>
        <time>2019-08-25T11:19:47Z</time>
      </trkpt>
      <trkpt lat="44.83001" lon="5.47051">
        <ele>1668.82</ele>
        <time>2019-08-25T11:20:30Z</time>
      </trkpt>
      <trkpt lat="44.83002" lon="5.4705">
        <ele>1668.53</ele>
        <time>2019-08-25T11:21:16Z</time>
      </trkpt>
      <trkpt lat="44.82999" lon="5.47051">
        <ele>1668.78</ele>
        <time>2019-08-25T11:21:56Z</time>
      </trkpt>
      <trkpt lat="44.82998" lon="5.47051">
        <ele>1668.75</ele>
        <time>2019-08-25T11:22:45Z</time>
      </trkpt>
      <trkpt lat="44.82998" lon="5.47052">
        <ele>1668.61</ele>
        <time>2019-08-25T11:23:21Z</time>
      </trkpt>
      <trkpt lat="44.82998" lon="5.47051">
        <ele>1668.49</ele>
        <time>2019-08-25T11:24:00Z</time>
      </trkpt>
      <trkpt lat="44.82999" lon="5.47048">
        <ele>1668.31</ele>
        <time>2019-08-25T11:24:39Z</time>
      </trkpt>
      <trkpt lat="44.82999" lon="5.47048">
        <ele>1667.81</ele>
        <time>2019-08-25T11:25:12Z</time>
      </trkpt>
      <trkpt lat="44.82999" lon="5.4705">
        <ele>1667.97</ele>
        <time>2019-08-25T11:25:51Z</time>
      </trkpt>
      <trkpt lat="44.82997" lon="5.4705">
        <ele>1667.97</ele>
        <time>2019-08-25T11:26:23Z</time>
      </trkpt>
      <trkpt lat="44.82998" lon="5.47051">
        <ele>1668.11</ele>
        <time>2019-08-25T11:26:54Z</time>
      </trkpt>
      <trkpt lat="44.83" lon="5.4705">
        <ele>1668</ele>
        <time>2019-08-25T11:27:28Z</time>
      </trkpt>
      <trkpt lat="44.82998" lon="5.4705">
        <ele>1667.92</ele>
        <time>2019-08-25T11:27:59Z</time>
      </trkpt>
      <trkpt lat="44.82998" lon="5.4705">
        <ele>1667.85</ele>
        <time>2019-08-25T11:28:48Z</time>
      </trkpt>
      <trkpt lat="44.82996" lon="5.47051">
        <ele>1667.83</ele>
        <time>2019-08-25T11:29:32Z</time>
      </trkpt>
      <trkpt lat="44.82996" lon="5.4705">
        <ele>1667.77</ele>
        <time>2019-08-25T11:30:12Z</time>
      </trkpt>
      <trkpt lat="44.82997" lon="5.4705">
        <ele>1667.95</ele>
        <time>2019-08-25T11:30:46Z</time>
      </trkpt>
      <trkpt lat="44.82998" lon="5.47048">
        <ele>1668.15</ele>
        <time>2019-08-25T11:31:19Z</time>
      </trkpt>
      <trkpt lat="44.82996" lon="5.47048">
        <ele>1667.74</ele>
        <time>2019-08-25T11:31:53Z</time>
      </trkpt>
      <trkpt lat="44.82997" lon="5.47048">
        <ele>1667.65</ele>
        <time>2019-08-25T11:32:28Z</time>
      </trkpt>
      <trkpt lat="44.82997" lon="5.47048">
        <ele>1667.6</ele>
        <time>2019-08-25T11:33:11Z</time>
      </trkpt>
      <trkpt lat="44.82997" lon="5.47047">
        <ele>1667.22</ele>
        <time>2019-08-25T11:33:51Z</time>
      </trkpt>
      <trkpt lat="44.82999" lon="5.47048">
        <ele>1667.28</ele>
        <time>2019-08-25T11:34:24Z</time>
      </trkpt>
      <trkpt lat="44.82999" lon="5.47049">
        <ele>1667.41</ele>
        <time>2019-08-25T11:35:01Z</time>
      </trkpt>
      <trkpt lat="44.82997" lon="5.47049">
        <ele>1667.16</ele>
        <time>2019-08-25T11:35:32Z</time>
      </trkpt>
      <trkpt lat="44.82997" lon="5.47048">
        <ele>1666.72</ele>
        <time>2019-08-25T11:36:05Z</time>
      </trkpt>
      <trkpt lat="44.82998" lon="5.47048">
        <ele>1667</ele>
        <time>2019-08-25T11:36:42Z</time>
      </trkpt>
      <trkpt lat="44.82997" lon="5.47047">
        <ele>1666.87</ele>
        <time>2019-08-25T11:37:17Z</time>
      </trkpt>
      <trkpt lat="44.82995" lon="5.47049">
        <ele>1666.75</ele>
        <time>2019-08-25T11:38:07Z</time>
      </trkpt>
      <trkpt lat="44.82996" lon="5.47049">
        <ele>1666.72</ele>
        <time>2019-08-25T11:38:44Z</time>
      </trkpt>
      <trkpt lat="44.82997" lon="5.47049">
        <ele>1666.89</ele>
        <time>2019-08-25T11:39:20Z</time>
      </trkpt>
      <trkpt lat="44.82997" lon="5.47049">
        <ele>1666.73</ele>
        <time>2019-08-25T11:39:55Z</time>
      </trkpt>
      <trkpt lat="44.82998" lon="5.47049">
        <ele>1666.36</ele>
        <time>2019-08-25T11:40:30Z</time>
      </trkpt>
      <trkpt lat="44.82998" lon="5.47047">
        <ele>1666.69</ele>
        <time>2019-08-25T11:41:07Z</time>
      </trkpt>
      <trkpt lat="44.82998" lon="5.47049">
        <ele>1666.89</ele>
        <time>2019-08-25T11:41:49Z</time>
      </trkpt>
      <trkpt lat="44.82998" lon="5.47048">
        <ele>1666.47</ele>
        <time>2019-08-25T11:42:46Z</time>
      </trkpt>
      <trkpt lat="44.82998" lon="5.47048">
        <ele>1666.01</ele>
        <time>2019-08-25T11:43:20Z</time>
      </trkpt>
      <trkpt lat="44.82996" lon="5.47049">
        <ele>1666.73</ele>
        <time>2019-08-25T11:44:21Z</time>
      </trkpt>
      <trkpt lat="44.82996" lon="5.47049">
        <ele>1666.62</ele>
        <time>2019-08-25T11:45:24Z</time>
      </trkpt>
      <trkpt lat="44.82995" lon="5.47047">
        <ele>1666.22</ele>
        <time>2019-08-25T11:46:18Z</time>
      </trkpt>
      <trkpt lat="44.82996" lon="5.47048">
        <ele>1666.48</ele>
        <time>2019-08-25T11:47:20Z</time>
      </trkpt>
      <trkpt lat="44.82995" lon="5.47049">
        <ele>1666.01</ele>
        <time>2019-08-25T11:48:18Z</time>
      </trkpt>
      <trkpt lat="44.82996" lon="5.47047">
        <ele>1666.01</ele>
        <time>2019-08-25T11:49:20Z</time>
      </trkpt>
      <trkpt lat="44.82996" lon="5.47047">
        <ele>1666.15</ele>
        <time>2019-08-25T11:50:20Z</time>
      </trkpt>
      <trkpt lat="44.82995" lon="5.47048">
        <ele>1665.72</ele>
        <time>2019-08-25T11:51:20Z</time>
      </trkpt>
      <trkpt lat="44.82995" lon="5.47048">
        <ele>1665.85</ele>
        <time>2019-08-25T11:52:27Z</time>
      </trkpt>
      <trkpt lat="44.82995" lon="5.47048">
        <ele>1665.64</ele>
        <time>2019-08-25T11:52:58Z</time>
      </trkpt>
      <trkpt lat="44.82995" lon="5.47049">
        <ele>1665.7</ele>
        <time>2019-08-25T11:53:36Z</time>
      </trkpt>
      <trkpt lat="44.82998" lon="5.47048">
        <ele>1665.92</ele>
        <time>2019-08-25T11:53:55Z</time>
      </trkpt>
      <trkpt lat="44.82998" lon="5.47047">
        <ele>1666.12</ele>
        <time>2019-08-25T11:54:16Z</time>
      </trkpt>
      <trkpt lat="44.82998" lon="5.47044">
        <ele>1666.71</ele>
        <time>2019-08-25T11:54:40Z</time>
      </trkpt>
      <trkpt lat="44.83" lon="5.47044">
        <ele>1666.01</ele>
        <time>2019-08-25T11:54:59Z</time>
      </trkpt>
      <trkpt lat="44.82996" lon="5.47044">
        <ele>1666.41</ele>
        <time>2019-08-25T11:55:20Z</time>
      </trkpt>
      <trkpt lat="44.83002" lon="5.47044">
        <ele>1665.96</ele>
        <time>2019-08-25T11:55:38Z</time>
      </trkpt>
      <trkpt lat="44.83006" lon="5.47046">
        <ele>1665.67</ele>
        <time>2019-08-25T11:56:01Z</time>
      </trkpt>
      <trkpt lat="44.83006" lon="5.47043">
        <ele>1665.65</ele>
        <time>2019-08-25T11:56:21Z</time>
      </trkpt>
      <trkpt lat="44.83003" lon="5.4704">
        <ele>1666.05</ele>
        <time>2019-08-25T11:56:41Z</time>
      </trkpt>
      <trkpt lat="44.83001" lon="5.47038">
        <ele>1666.02</ele>
        <time>2019-08-25T11:57:03Z</time>
      </trkpt>
      <trkpt lat="44.83005" lon="5.47037">
        <ele>1665.87</ele>
        <time>2019-08-25T11:57:18Z</time>
      </trkpt>
      <trkpt lat="44.83014" lon="5.47023">
        <ele>1665.29</ele>
        <time>2019-08-25T11:57:29Z</time>
      </trkpt>
      <trkpt lat="44.83029" lon="5.46987">
        <ele>1664.21</ele>
        <time>2019-08-25T11:57:41Z</time>
      </trkpt>
      <trkpt lat="44.83038" lon="5.46958">
        <ele>1662.57</ele>
        <time>2019-08-25T11:57:49Z</time>
      </trkpt>
      <trkpt lat="44.83054" lon="5.46914">
        <ele>1660.71</ele>
        <time>2019-08-25T11:58:03Z</time>
      </trkpt>
      <trkpt lat="44.83062" lon="5.46876">
        <ele>1659.91</ele>
        <time>2019-08-25T11:58:15Z</time>
      </trkpt>
      <trkpt lat="44.83063" lon="5.4687">
        <ele>1659.23</ele>
        <time>2019-08-25T11:58:27Z</time>
      </trkpt>
      <trkpt lat="44.83064" lon="5.46869">
        <ele>1658.9</ele>
        <time>2019-08-25T11:58:57Z</time>
      </trkpt>
      <trkpt lat="44.83066" lon="5.4687">
        <ele>1659.04</ele>
        <time>2019-08-25T11:59:38Z</time>
      </trkpt>
      <trkpt lat="44.83066" lon="5.4687">
        <ele>1658.75</ele>
        <time>2019-08-25T12:00:07Z</time>
      </trkpt>
      <trkpt lat="44.83067" lon="5.46871">
        <ele>1658.86</ele>
        <time>2019-08-25T12:00:38Z</time>
      </trkpt>
      <trkpt lat="44.83068" lon="5.46868">
        <ele>1659.07</ele>
        <time>2019-08-25T12:00:46Z</time>
      </trkpt>
      <trkpt lat="44.83071" lon="5.46855">
        <ele>1658.9</ele>
        <time>2019-08-25T12:00:50Z</time>
      </trkpt>
      <trkpt lat="44.83086" lon="5.46818">
        <ele>1657.08</ele>
        <time>2019-08-25T12:00:59Z</time>
      </trkpt>
      <trkpt lat="44.83091" lon="5.46799">
        <ele>1655.47</ele>
        <time>2019-08-25T12:01:03Z</time>
      </trkpt>
      <trkpt lat="44.83101" lon="5.46762">
        <ele>1651.9</ele>
        <time>2019-08-25T12:01:13Z</time>
      </trkpt>
      <trkpt lat="44.83116" lon="5.46728">
        <ele>1648.87</ele>
        <time>2019-08-25T12:01:23Z</time>
      </trkpt>
      <trkpt lat="44.83134" lon="5.46707">
        <ele>1646.81</ele>
        <time>2019-08-25T12:01:36Z</time>
      </trkpt>
      <trkpt lat="44.83129" lon="5.46693">
        <ele>1645.25</ele>
        <time>2019-08-25T12:01:48Z</time>
      </trkpt>
      <trkpt lat="44.83128" lon="5.46691">
        <ele>1644.85</ele>
        <time>2019-08-25T12:01:50Z</time>
      </trkpt>
      <trkpt lat="44.83127" lon="5.46686">
        <ele>1643.22</ele>
        <time>2019-08-25T12:02:07Z</time>
      </trkpt>
      <trkpt lat="44.83125" lon="5.46673">
        <ele>1641.47</ele>
        <time>2019-08-25T12:02:27Z</time>
      </trkpt>
      <trkpt lat="44.83125" lon="5.46672">
        <ele>1641.28</ele>
        <time>2019-08-25T12:02:53Z</time>
      </trkpt>
      <trkpt lat="44.83123" lon="5.46668">
        <ele>1641.25</ele>
        <time>2019-08-25T12:03:18Z</time>
      </trkpt>
      <trkpt lat="44.83119" lon="5.46658">
        <ele>1640.8</ele>
        <time>2019-08-25T12:03:22Z</time>
      </trkpt>
      <trkpt lat="44.83123" lon="5.46613">
        <ele>1639.23</ele>
        <time>2019-08-25T12:03:34Z</time>
      </trkpt>
      <trkpt lat="44.83137" lon="5.46569">
        <ele>1637.45</ele>
        <time>2019-08-25T12:03:46Z</time>
      </trkpt>
      <trkpt lat="44.83134" lon="5.4653">
        <ele>1634.33</ele>
        <time>2019-08-25T12:03:58Z</time>
      </trkpt>
      <trkpt lat="44.83138" lon="5.46501">
        <ele>1631.23</ele>
        <time>2019-08-25T12:04:08Z</time>
      </trkpt>
      <trkpt lat="44.83152" lon="5.46479">
        <ele>1628.23</ele>
        <time>2019-08-25T12:04:19Z</time>
      </trkpt>
      <trkpt lat="44.83156" lon="5.46473">
        <ele>1626.95</ele>
        <time>2019-08-25T12:04:22Z</time>
      </trkpt>
      <trkpt lat="44.83155" lon="5.46443">
        <ele>1623.72</ele>
        <time>2019-08-25T12:04:32Z</time>
      </trkpt>
      <trkpt lat="44.83147" lon="5.46414">
        <ele>1620.48</ele>
        <time>2019-08-25T12:04:39Z</time>
      </trkpt>
      <trkpt lat="44.83153" lon="5.46379">
        <ele>1617.54</ele>
        <time>2019-08-25T12:04:48Z</time>
      </trkpt>
      <trkpt lat="44.83161" lon="5.46365">
        <ele>1616.87</ele>
        <time>2019-08-25T12:04:52Z</time>
      </trkpt>
      <trkpt lat="44.83164" lon="5.46352">
        <ele>1616.01</ele>
        <time>2019-08-25T12:04:55Z</time>
      </trkpt>
      <trkpt lat="44.83175" lon="5.46309">
        <ele>1613.52</ele>
        <time>2019-08-25T12:05:04Z</time>
      </trkpt>
      <trkpt lat="44.83174" lon="5.46293">
        <ele>1612.29</ele>
        <time>2019-08-25T12:05:08Z</time>
      </trkpt>
      <trkpt lat="44.83185" lon="5.46253">
        <ele>1609.92</ele>
        <time>2019-08-25T12:05:18Z</time>
      </trkpt>
      <trkpt lat="44.83186" lon="5.46236">
        <ele>1607.75</ele>
        <time>2019-08-25T12:05:23Z</time>
      </trkpt>
      <trkpt lat="44.83202" lon="5.46204">
        <ele>1604.21</ele>
        <time>2019-08-25T12:05:33Z</time>
      </trkpt>
      <trkpt lat="44.83213" lon="5.46176">
        <ele>1602.02</ele>
        <time>2019-08-25T12:05:37Z</time>
      </trkpt>
      <trkpt lat="44.83227" lon="5.46146">
        <ele>1599.99</ele>
        <time>2019-08-25T12:05:41Z</time>
      </trkpt>
      <trkpt lat="44.8324" lon="5.46076">
        <ele>1596.23</ele>
        <time>2019-08-25T12:05:49Z</time>
      </trkpt>
      <trkpt lat="44.83254" lon="5.46013">
        <ele>1592.86</ele>
        <time>2019-08-25T12:05:57Z</time>
      </trkpt>
      <trkpt lat="44.83258" lon="5.45999">
        <ele>1592.08</ele>
        <time>2019-08-25T12:05:59Z</time>
      </trkpt>
      <trkpt lat="44.83262" lon="5.45967">
        <ele>1589.88</ele>
        <time>2019-08-25T12:06:04Z</time>
      </trkpt>
      <trkpt lat="44.83261" lon="5.45945">
        <ele>1588.55</ele>
        <time>2019-08-25T12:06:08Z</time>
      </trkpt>
      <trkpt lat="44.83261" lon="5.45925">
        <ele>1587.69</ele>
        <time>2019-08-25T12:06:11Z</time>
      </trkpt>
      <trkpt lat="44.8327" lon="5.45877">
        <ele>1584.37</ele>
        <time>2019-08-25T12:06:18Z</time>
      </trkpt>
      <trkpt lat="44.83271" lon="5.45868">
        <ele>1583.95</ele>
        <time>2019-08-25T12:06:19Z</time>
      </trkpt>
      <trkpt lat="44.83276" lon="5.45819">
        <ele>1581.17</ele>
        <time>2019-08-25T12:06:25Z</time>
      </trkpt>
      <trkpt lat="44.83275" lon="5.45777">
        <ele>1578.61</ele>
        <time>2019-08-25T12:06:30Z</time>
      </trkpt>
      <trkpt lat="44.83265" lon="5.45705">
        <ele>1574.97</ele>
        <time>2019-08-25T12:06:38Z</time>
      </trkpt>
      <trkpt lat="44.83256" lon="5.45678">
        <ele>1572.43</ele>
        <time>2019-08-25T12:06:43Z</time>
      </trkpt>
      <trkpt lat="44.83252" lon="5.45667">
        <ele>1571.62</ele>
        <time>2019-08-25T12:06:45Z</time>
      </trkpt>
      <trkpt lat="44.83238" lon="5.4563">
        <ele>1569.24</ele>
        <time>2019-08-25T12:06:56Z</time>
      </trkpt>
      <trkpt lat="44.83239" lon="5.45631">
        <ele>1569.04</ele>
        <time>2019-08-25T12:07:14Z</time>
      </trkpt>
      <trkpt lat="44.83238" lon="5.45629">
        <ele>1568.97</ele>
        <time>2019-08-25T12:07:38Z</time>
      </trkpt>
      <trkpt lat="44.83238" lon="5.45628">
        <ele>1569.03</ele>
        <time>2019-08-25T12:07:41Z</time>
      </trkpt>
      <trkpt lat="44.83233" lon="5.45618">
        <ele>1568.89</ele>
        <time>2019-08-25T12:07:45Z</time>
      </trkpt>
      <trkpt lat="44.83217" lon="5.45577">
        <ele>1568.46</ele>
        <time>2019-08-25T12:07:56Z</time>
      </trkpt>
      <trkpt lat="44.832" lon="5.45552">
        <ele>1566.3</ele>
        <time>2019-08-25T12:08:06Z</time>
      </trkpt>
      <trkpt lat="44.8317" lon="5.45528">
        <ele>1565.87</ele>
        <time>2019-08-25T12:08:18Z</time>
      </trkpt>
      <trkpt lat="44.83141" lon="5.45514">
        <ele>1564.89</ele>
        <time>2019-08-25T12:08:31Z</time>
      </trkpt>
      <trkpt lat="44.83109" lon="5.45497">
        <ele>1562.8</ele>
        <time>2019-08-25T12:08:43Z</time>
      </trkpt>
      <trkpt lat="44.83081" lon="5.45487">
        <ele>1560.68</ele>
        <time>2019-08-25T12:08:55Z</time>
      </trkpt>
      <trkpt lat="44.8305" lon="5.4547">
        <ele>1558.04</ele>
        <time>2019-08-25T12:09:07Z</time>
      </trkpt>
      <trkpt lat="44.83017" lon="5.45439">
        <ele>1556.51</ele>
        <time>2019-08-25T12:09:20Z</time>
      </trkpt>
      <trkpt lat="44.83008" lon="5.45429">
        <ele>1554.79</ele>
        <time>2019-08-25T12:09:31Z</time>
      </trkpt>
      <trkpt lat="44.83011" lon="5.45427">
        <ele>1554.38</ele>
        <time>2019-08-25T12:09:59Z</time>
      </trkpt>
      <trkpt lat="44.83008" lon="5.45427">
        <ele>1554.28</ele>
        <time>2019-08-25T12:10:26Z</time>
      </trkpt>
      <trkpt lat="44.83008" lon="5.45427">
        <ele>1554.6</ele>
        <time>2019-08-25T12:10:47Z</time>
      </trkpt>
      <trkpt lat="44.83008" lon="5.4543">
        <ele>1554.5</ele>
        <time>2019-08-25T12:11:19Z</time>
      </trkpt>
      <trkpt lat="44.83008" lon="5.45428">
        <ele>1554.65</ele>
        <time>2019-08-25T12:11:47Z</time>
      </trkpt>
      <trkpt lat="44.83007" lon="5.45427">
        <ele>1554.54</ele>
        <time>2019-08-25T12:12:13Z</time>
      </trkpt>
      <trkpt lat="44.83007" lon="5.45427">
        <ele>1553.91</ele>
        <time>2019-08-25T12:12:45Z</time>
      </trkpt>
      <trkpt lat="44.83008" lon="5.45424">
        <ele>1554.04</ele>
        <time>2019-08-25T12:13:05Z</time>
      </trkpt>
      <trkpt lat="44.83012" lon="5.45387">
        <ele>1553.23</ele>
        <time>2019-08-25T12:13:15Z</time>
      </trkpt>
      <trkpt lat="44.83008" lon="5.45358">
        <ele>1552.28</ele>
        <time>2019-08-25T12:13:22Z</time>
      </trkpt>
      <trkpt lat="44.82994" lon="5.45322">
        <ele>1550.76</ele>
        <time>2019-08-25T12:13:32Z</time>
      </trkpt>
      <trkpt lat="44.82977" lon="5.45302">
        <ele>1552.52</ele>
        <time>2019-08-25T12:13:49Z</time>
      </trkpt>
      <trkpt lat="44.82964" lon="5.45278">
        <ele>1553.42</ele>
        <time>2019-08-25T12:14:03Z</time>
      </trkpt>
      <trkpt lat="44.82955" lon="5.45258">
        <ele>1556.3</ele>
        <time>2019-08-25T12:14:20Z</time>
      </trkpt>
      <trkpt lat="44.82959" lon="5.45236">
        <ele>1558.7</ele>
        <time>2019-08-25T12:14:40Z</time>
      </trkpt>
      <trkpt lat="44.82965" lon="5.45219">
        <ele>1561.75</ele>
        <time>2019-08-25T12:15:00Z</time>
      </trkpt>
      <trkpt lat="44.82971" lon="5.45204">
        <ele>1564.85</ele>
        <time>2019-08-25T12:15:19Z</time>
      </trkpt>
      <trkpt lat="44.8298" lon="5.4519">
        <ele>1568.03</ele>
        <time>2019-08-25T12:15:40Z</time>
      </trkpt>
      <trkpt lat="44.8299" lon="5.45176">
        <ele>1571.07</ele>
        <time>2019-08-25T12:15:59Z</time>
      </trkpt>
      <trkpt lat="44.82999" lon="5.45163">
        <ele>1574.22</ele>
        <time>2019-08-25T12:16:17Z</time>
      </trkpt>
      <trkpt lat="44.83008" lon="5.45147">
        <ele>1577.33</ele>
        <time>2019-08-25T12:16:38Z</time>
      </trkpt>
      <trkpt lat="44.83011" lon="5.45142">
        <ele>1578.04</ele>
        <time>2019-08-25T12:16:43Z</time>
      </trkpt>
      <trkpt lat="44.83017" lon="5.45136">
        <ele>1578.96</ele>
        <time>2019-08-25T12:16:51Z</time>
      </trkpt>
      <trkpt lat="44.83028" lon="5.45121">
        <ele>1580.62</ele>
        <time>2019-08-25T12:17:08Z</time>
      </trkpt>
      <trkpt lat="44.83039" lon="5.451">
        <ele>1583.74</ele>
        <time>2019-08-25T12:17:27Z</time>
      </trkpt>
      <trkpt lat="44.83047" lon="5.45082">
        <ele>1586.55</ele>
        <time>2019-08-25T12:17:45Z</time>
      </trkpt>
      <trkpt lat="44.83058" lon="5.45065">
        <ele>1589.1</ele>
        <time>2019-08-25T12:18:03Z</time>
      </trkpt>
      <trkpt lat="44.83066" lon="5.45051">
        <ele>1590.86</ele>
        <time>2019-08-25T12:18:16Z</time>
      </trkpt>
      <trkpt lat="44.83069" lon="5.45047">
        <ele>1591.34</ele>
        <time>2019-08-25T12:18:20Z</time>
      </trkpt>
      <trkpt lat="44.83071" lon="5.45043">
        <ele>1591.7</ele>
        <time>2019-08-25T12:18:23Z</time>
      </trkpt>
      <trkpt lat="44.83084" lon="5.4502">
        <ele>1593.44</ele>
        <time>2019-08-25T12:18:40Z</time>
      </trkpt>
      <trkpt lat="44.83094" lon="5.44999">
        <ele>1594.27</ele>
        <time>2019-08-25T12:18:56Z</time>
      </trkpt>
      <trkpt lat="44.83096" lon="5.44992">
        <ele>1594.77</ele>
        <time>2019-08-25T12:19:01Z</time>
      </trkpt>
      <trkpt lat="44.83104" lon="5.4497">
        <ele>1597.45</ele>
        <time>2019-08-25T12:19:21Z</time>
      </trkpt>
      <trkpt lat="44.83115" lon="5.44945">
        <ele>1599.27</ele>
        <time>2019-08-25T12:19:40Z</time>
      </trkpt>
      <trkpt lat="44.83116" lon="5.44942">
        <ele>1599.49</ele>
        <time>2019-08-25T12:19:42Z</time>
      </trkpt>
      <trkpt lat="44.83124" lon="5.44916">
        <ele>1600.97</ele>
        <time>2019-08-25T12:20:01Z</time>
      </trkpt>
      <trkpt lat="44.83129" lon="5.44878">
        <ele>1601.49</ele>
        <time>2019-08-25T12:20:17Z</time>
      </trkpt>
      <trkpt lat="44.83134" lon="5.44841">
        <ele>1602.17</ele>
        <time>2019-08-25T12:20:32Z</time>
      </trkpt>
      <trkpt lat="44.83131" lon="5.44809">
        <ele>1603.4</ele>
        <time>2019-08-25T12:20:47Z</time>
      </trkpt>
      <trkpt lat="44.83131" lon="5.44803">
        <ele>1604.31</ele>
        <time>2019-08-25T12:20:52Z</time>
      </trkpt>
      <trkpt lat="44.83134" lon="5.44796">
        <ele>1605.62</ele>
        <time>2019-08-25T12:20:57Z</time>
      </trkpt>
      <trkpt lat="44.83146" lon="5.4478">
        <ele>1608.69</ele>
        <time>2019-08-25T12:21:11Z</time>
      </trkpt>
      <trkpt lat="44.83157" lon="5.44758">
        <ele>1611.41</ele>
        <time>2019-08-25T12:21:30Z</time>
      </trkpt>
      <trkpt lat="44.83161" lon="5.44743">
        <ele>1612.66</ele>
        <time>2019-08-25T12:21:45Z</time>
      </trkpt>
      <trkpt lat="44.83169" lon="5.44719">
        <ele>1613.49</ele>
        <time>2019-08-25T12:22:02Z</time>
      </trkpt>
      <trkpt lat="44.83181" lon="5.44691">
        <ele>1613.15</ele>
        <time>2019-08-25T12:22:13Z</time>
      </trkpt>
      <trkpt lat="44.83188" lon="5.44675">
        <ele>1612.66</ele>
        <time>2019-08-25T12:22:17Z</time>
      </trkpt>
      <trkpt lat="44.83192" lon="5.44631">
        <ele>1611.02</ele>
        <time>2019-08-25T12:22:28Z</time>
      </trkpt>
      <trkpt lat="44.83188" lon="5.44597">
        <ele>1613.28</ele>
        <time>2019-08-25T12:22:47Z</time>
      </trkpt>
      <trkpt lat="44.83186" lon="5.4457">
        <ele>1615.69</ele>
        <time>2019-08-25T12:23:05Z</time>
      </trkpt>
      <trkpt lat="44.83183" lon="5.44555">
        <ele>1617.13</ele>
        <time>2019-08-25T12:23:15Z</time>
      </trkpt>
      <trkpt lat="44.83182" lon="5.4455">
        <ele>1617.81</ele>
        <time>2019-08-25T12:23:19Z</time>
      </trkpt>
      <trkpt lat="44.8319" lon="5.44521">
        <ele>1620.44</ele>
        <time>2019-08-25T12:23:39Z</time>
      </trkpt>
      <trkpt lat="44.83199" lon="5.44504">
        <ele>1622.97</ele>
        <time>2019-08-25T12:23:55Z</time>
      </trkpt>
      <trkpt lat="44.832" lon="5.44476">
        <ele>1625.38</ele>
        <time>2019-08-25T12:24:14Z</time>
      </trkpt>
      <trkpt lat="44.832" lon="5.44449">
        <ele>1627.4</ele>
        <time>2019-08-25T12:24:32Z</time>
      </trkpt>
      <trkpt lat="44.83204" lon="5.44424">
        <ele>1628.91</ele>
        <time>2019-08-25T12:24:49Z</time>
      </trkpt>
      <trkpt lat="44.83202" lon="5.44386">
        <ele>1628.98</ele>
        <time>2019-08-25T12:25:05Z</time>
      </trkpt>
      <trkpt lat="44.83193" lon="5.44345">
        <ele>1630.6</ele>
        <time>2019-08-25T12:25:24Z</time>
      </trkpt>
      <trkpt lat="44.83203" lon="5.44312">
        <ele>1630.57</ele>
        <time>2019-08-25T12:25:37Z</time>
      </trkpt>
      <trkpt lat="44.83207" lon="5.44269">
        <ele>1628.88</ele>
        <time>2019-08-25T12:25:50Z</time>
      </trkpt>
      <trkpt lat="44.83208" lon="5.4426">
        <ele>1625.71</ele>
        <time>2019-08-25T12:26:00Z</time>
      </trkpt>
      <trkpt lat="44.83207" lon="5.44255">
        <ele>1624.51</ele>
        <time>2019-08-25T12:26:06Z</time>
      </trkpt>
      <trkpt lat="44.83205" lon="5.44242">
        <ele>1623.61</ele>
        <time>2019-08-25T12:26:10Z</time>
      </trkpt>
      <trkpt lat="44.83205" lon="5.44201">
        <ele>1621.94</ele>
        <time>2019-08-25T12:26:24Z</time>
      </trkpt>
      <trkpt lat="44.8321" lon="5.44167">
        <ele>1622.68</ele>
        <time>2019-08-25T12:26:38Z</time>
      </trkpt>
      <trkpt lat="44.8322" lon="5.44161">
        <ele>1625.53</ele>
        <time>2019-08-25T12:26:52Z</time>
      </trkpt>
      <trkpt lat="44.83223" lon="5.44146">
        <ele>1627.93</ele>
        <time>2019-08-25T12:27:09Z</time>
      </trkpt>
      <trkpt lat="44.83226" lon="5.44126">
        <ele>1630.99</ele>
        <time>2019-08-25T12:27:27Z</time>
      </trkpt>
      <trkpt lat="44.83228" lon="5.44111">
        <ele>1633.3</ele>
        <time>2019-08-25T12:27:43Z</time>
      </trkpt>
      <trkpt lat="44.8323" lon="5.44087">
        <ele>1636.03</ele>
        <time>2019-08-25T12:28:01Z</time>
      </trkpt>
      <trkpt lat="44.83234" lon="5.44064">
        <ele>1638.22</ele>
        <time>2019-08-25T12:28:19Z</time>
      </trkpt>
      <trkpt lat="44.83237" lon="5.44057">
        <ele>1638.31</ele>
        <time>2019-08-25T12:28:32Z</time>
      </trkpt>
      <trkpt lat="44.83237" lon="5.44058">
        <ele>1637.31</ele>
        <time>2019-08-25T12:28:49Z</time>
      </trkpt>
      <trkpt lat="44.83235" lon="5.4406">
        <ele>1637.64</ele>
        <time>2019-08-25T12:29:42Z</time>
      </trkpt>
      <trkpt lat="44.83234" lon="5.44059">
        <ele>1638.16</ele>
        <time>2019-08-25T12:30:08Z</time>
      </trkpt>
      <trkpt lat="44.83235" lon="5.44059">
        <ele>1638.27</ele>
        <time>2019-08-25T12:30:35Z</time>
      </trkpt>
      <trkpt lat="44.83235" lon="5.44059">
        <ele>1638.3</ele>
        <time>2019-08-25T12:31:02Z</time>
      </trkpt>
      <trkpt lat="44.83233" lon="5.44057">
        <ele>1638.05</ele>
        <time>2019-08-25T12:31:19Z</time>
      </trkpt>
      <trkpt lat="44.83234" lon="5.44057">
        <ele>1638.04</ele>
        <time>2019-08-25T12:31:40Z</time>
      </trkpt>
      <trkpt lat="44.83234" lon="5.44056">
        <ele>1637.87</ele>
        <time>2019-08-25T12:32:04Z</time>
      </trkpt>
      <trkpt lat="44.83237" lon="5.44057">
        <ele>1638.21</ele>
        <time>2019-08-25T12:32:25Z</time>
      </trkpt>
      <trkpt lat="44.83237" lon="5.44059">
        <ele>1638.24</ele>
        <time>2019-08-25T12:32:48Z</time>
      </trkpt>
      <trkpt lat="44.83234" lon="5.4406">
        <ele>1638.64</ele>
        <time>2019-08-25T12:33:10Z</time>
      </trkpt>
      <trkpt lat="44.83231" lon="5.44058">
        <ele>1637.98</ele>
        <time>2019-08-25T12:33:29Z</time>
      </trkpt>
      <trkpt lat="44.83237" lon="5.44058">
        <ele>1638.28</ele>
        <time>2019-08-25T12:33:42Z</time>
      </trkpt>
      <trkpt lat="44.83231" lon="5.44044">
        <ele>1638.35</ele>
        <time>2019-08-25T12:33:58Z</time>
      </trkpt>
      <trkpt lat="44.83231" lon="5.44042">
        <ele>1639.01</ele>
        <time>2019-08-25T12:34:16Z</time>
      </trkpt>
      <trkpt lat="44.83232" lon="5.44044">
        <ele>1638.86</ele>
        <time>2019-08-25T12:34:35Z</time>
      </trkpt>
      <trkpt lat="44.83231" lon="5.44044">
        <ele>1639.12</ele>
        <time>2019-08-25T12:34:53Z</time>
      </trkpt>
      <trkpt lat="44.83231" lon="5.44043">
        <ele>1639.02</ele>
        <time>2019-08-25T12:35:20Z</time>
      </trkpt>
      <trkpt lat="44.83231" lon="5.44042">
        <ele>1638.96</ele>
        <time>2019-08-25T12:35:45Z</time>
      </trkpt>
      <trkpt lat="44.83231" lon="5.44043">
        <ele>1639.29</ele>
        <time>2019-08-25T12:36:09Z</time>
      </trkpt>
      <trkpt lat="44.83232" lon="5.44043">
        <ele>1639.27</ele>
        <time>2019-08-25T12:36:43Z</time>
      </trkpt>
      <trkpt lat="44.83231" lon="5.44043">
        <ele>1639.15</ele>
        <time>2019-08-25T12:37:04Z</time>
      </trkpt>
      <trkpt lat="44.83229" lon="5.44039">
        <ele>1639.68</ele>
        <time>2019-08-25T12:37:34Z</time>
      </trkpt>
      <trkpt lat="44.83228" lon="5.44033">
        <ele>1639.52</ele>
        <time>2019-08-25T12:37:51Z</time>
      </trkpt>
      <trkpt lat="44.83228" lon="5.4403">
        <ele>1639.72</ele>
        <time>2019-08-25T12:37:59Z</time>
      </trkpt>
      <trkpt lat="44.83228" lon="5.44022">
        <ele>1639.73</ele>
        <time>2019-08-25T12:38:03Z</time>
      </trkpt>
      <trkpt lat="44.83227" lon="5.43974">
        <ele>1639.49</ele>
        <time>2019-08-25T12:38:17Z</time>
      </trkpt>
      <trkpt lat="44.83237" lon="5.43929">
        <ele>1638.54</ele>
        <time>2019-08-25T12:38:28Z</time>
      </trkpt>
      <trkpt lat="44.83248" lon="5.43891">
        <ele>1635.08</ele>
        <time>2019-08-25T12:38:39Z</time>
      </trkpt>
      <trkpt lat="44.8325" lon="5.4388">
        <ele>1633.73</ele>
        <time>2019-08-25T12:38:42Z</time>
      </trkpt>
      <trkpt lat="44.83258" lon="5.43849">
        <ele>1630.73</ele>
        <time>2019-08-25T12:38:50Z</time>
      </trkpt>
      <trkpt lat="44.83262" lon="5.43823">
        <ele>1630.08</ele>
        <time>2019-08-25T12:38:56Z</time>
      </trkpt>
      <trkpt lat="44.83259" lon="5.43786">
        <ele>1628.09</ele>
        <time>2019-08-25T12:39:06Z</time>
      </trkpt>
      <trkpt lat="44.83235" lon="5.43749">
        <ele>1624.88</ele>
        <time>2019-08-25T12:39:16Z</time>
      </trkpt>
      <trkpt lat="44.83227" lon="5.43715">
        <ele>1622.49</ele>
        <time>2019-08-25T12:39:26Z</time>
      </trkpt>
      <trkpt lat="44.83223" lon="5.43666">
        <ele>1619.06</ele>
        <time>2019-08-25T12:39:38Z</time>
      </trkpt>
      <trkpt lat="44.83214" lon="5.43635">
        <ele>1615.87</ele>
        <time>2019-08-25T12:39:49Z</time>
      </trkpt>
      <trkpt lat="44.83213" lon="5.43626">
        <ele>1615.08</ele>
        <time>2019-08-25T12:39:51Z</time>
      </trkpt>
      <trkpt lat="44.83201" lon="5.43569">
        <ele>1611.55</ele>
        <time>2019-08-25T12:40:02Z</time>
      </trkpt>
      <trkpt lat="44.83183" lon="5.43512">
        <ele>1609.18</ele>
        <time>2019-08-25T12:40:15Z</time>
      </trkpt>
      <trkpt lat="44.83166" lon="5.43477">
        <ele>1606.6</ele>
        <time>2019-08-25T12:40:27Z</time>
      </trkpt>
      <trkpt lat="44.83159" lon="5.43473">
        <ele>1603.75</ele>
        <time>2019-08-25T12:40:39Z</time>
      </trkpt>
      <trkpt lat="44.83153" lon="5.43466">
        <ele>1601.56</ele>
        <time>2019-08-25T12:40:56Z</time>
      </trkpt>
      <trkpt lat="44.83151" lon="5.43465">
        <ele>1600.8</ele>
        <time>2019-08-25T12:41:00Z</time>
      </trkpt>
      <trkpt lat="44.83143" lon="5.43451">
        <ele>1598.6</ele>
        <time>2019-08-25T12:41:16Z</time>
      </trkpt>
      <trkpt lat="44.83143" lon="5.4345">
        <ele>1598.49</ele>
        <time>2019-08-25T12:41:18Z</time>
      </trkpt>
      <trkpt lat="44.83141" lon="5.43443">
        <ele>1598.32</ele>
        <time>2019-08-25T12:41:22Z</time>
      </trkpt>
      <trkpt lat="44.83137" lon="5.43434">
        <ele>1597.83</ele>
        <time>2019-08-25T12:41:36Z</time>
      </trkpt>
      <trkpt lat="44.83136" lon="5.43434">
        <ele>1597.95</ele>
        <time>2019-08-25T12:42:03Z</time>
      </trkpt>
      <trkpt lat="44.83137" lon="5.43434">
        <ele>1597.65</ele>
        <time>2019-08-25T12:42:16Z</time>
      </trkpt>
      <trkpt lat="44.83133" lon="5.43428">
        <ele>1597.69</ele>
        <time>2019-08-25T12:42:20Z</time>
      </trkpt>
      <trkpt lat="44.83103" lon="5.43376">
        <ele>1596.76</ele>
        <time>2019-08-25T12:42:34Z</time>
      </trkpt>
      <trkpt lat="44.8309" lon="5.43348">
        <ele>1595.92</ele>
        <time>2019-08-25T12:42:38Z</time>
      </trkpt>
      <trkpt lat="44.83081" lon="5.433">
        <ele>1594</ele>
        <time>2019-08-25T12:42:47Z</time>
      </trkpt>
      <trkpt lat="44.83072" lon="5.43277">
        <ele>1592.39</ele>
        <time>2019-08-25T12:42:52Z</time>
      </trkpt>
      <trkpt lat="44.83067" lon="5.43252">
        <ele>1591.15</ele>
        <time>2019-08-25T12:42:56Z</time>
      </trkpt>
      <trkpt lat="44.83069" lon="5.43199">
        <ele>1589.33</ele>
        <time>2019-08-25T12:43:07Z</time>
      </trkpt>
      <trkpt lat="44.83056" lon="5.43154">
        <ele>1589.87</ele>
        <time>2019-08-25T12:43:21Z</time>
      </trkpt>
      <trkpt lat="44.83031" lon="5.43097">
        <ele>1589.01</ele>
        <time>2019-08-25T12:43:33Z</time>
      </trkpt>
      <trkpt lat="44.83013" lon="5.43069">
        <ele>1589.15</ele>
        <time>2019-08-25T12:43:44Z</time>
      </trkpt>
      <trkpt lat="44.82998" lon="5.4304">
        <ele>1591.06</ele>
        <time>2019-08-25T12:43:58Z</time>
      </trkpt>
      <trkpt lat="44.82972" lon="5.43019">
        <ele>1591.92</ele>
        <time>2019-08-25T12:44:13Z</time>
      </trkpt>
      <trkpt lat="44.82949" lon="5.43011">
        <ele>1594.61</ele>
        <time>2019-08-25T12:44:28Z</time>
      </trkpt>
      <trkpt lat="44.82927" lon="5.43002">
        <ele>1597.02</ele>
        <time>2019-08-25T12:44:44Z</time>
      </trkpt>
      <trkpt lat="44.82896" lon="5.42995">
        <ele>1597.44</ele>
        <time>2019-08-25T12:45:00Z</time>
      </trkpt>
      <trkpt lat="44.82868" lon="5.4299">
        <ele>1598.15</ele>
        <time>2019-08-25T12:45:14Z</time>
      </trkpt>
      <trkpt lat="44.82836" lon="5.42964">
        <ele>1599.84</ele>
        <time>2019-08-25T12:45:30Z</time>
      </trkpt>
      <trkpt lat="44.82806" lon="5.42931">
        <ele>1600.67</ele>
        <time>2019-08-25T12:45:48Z</time>
      </trkpt>
      <trkpt lat="44.82783" lon="5.42895">
        <ele>1600.96</ele>
        <time>2019-08-25T12:46:03Z</time>
      </trkpt>
      <trkpt lat="44.82768" lon="5.42884">
        <ele>1602.96</ele>
        <time>2019-08-25T12:46:18Z</time>
      </trkpt>
      <trkpt lat="44.82767" lon="5.42883">
        <ele>1603.83</ele>
        <time>2019-08-25T12:46:38Z</time>
      </trkpt>
      <trkpt lat="44.82769" lon="5.4288">
        <ele>1603.75</ele>
        <time>2019-08-25T12:47:01Z</time>
      </trkpt>
      <trkpt lat="44.82768" lon="5.42879">
        <ele>1605.86</ele>
        <time>2019-08-25T12:47:21Z</time>
      </trkpt>
      <trkpt lat="44.82768" lon="5.42878">
        <ele>1602.41</ele>
        <time>2019-08-25T12:47:39Z</time>
      </trkpt>
      <trkpt lat="44.82767" lon="5.42876">
        <ele>1603.81</ele>
        <time>2019-08-25T12:47:55Z</time>
      </trkpt>
      <trkpt lat="44.82766" lon="5.42874">
        <ele>1604.55</ele>
        <time>2019-08-25T12:48:12Z</time>
      </trkpt>
      <trkpt lat="44.82766" lon="5.42875">
        <ele>1603.87</ele>
        <time>2019-08-25T12:48:28Z</time>
      </trkpt>
      <trkpt lat="44.82766" lon="5.42875">
        <ele>1601.77</ele>
        <time>2019-08-25T12:48:55Z</time>
      </trkpt>
      <trkpt lat="44.82767" lon="5.42876">
        <ele>1602.92</ele>
        <time>2019-08-25T12:49:17Z</time>
      </trkpt>
      <trkpt lat="44.82769" lon="5.42877">
        <ele>1602.15</ele>
        <time>2019-08-25T12:49:33Z</time>
      </trkpt>
      <trkpt lat="44.82771" lon="5.42877">
        <ele>1601.97</ele>
        <time>2019-08-25T12:49:42Z</time>
      </trkpt>
      <trkpt lat="44.82771" lon="5.4287">
        <ele>1601.88</ele>
        <time>2019-08-25T12:49:47Z</time>
      </trkpt>
      <trkpt lat="44.82769" lon="5.42842">
        <ele>1604.72</ele>
        <time>2019-08-25T12:50:08Z</time>
      </trkpt>
      <trkpt lat="44.82769" lon="5.42819">
        <ele>1606.41</ele>
        <time>2019-08-25T12:50:27Z</time>
      </trkpt>
      <trkpt lat="44.82774" lon="5.42796">
        <ele>1608.27</ele>
        <time>2019-08-25T12:50:44Z</time>
      </trkpt>
      <trkpt lat="44.82778" lon="5.42774">
        <ele>1609.66</ele>
        <time>2019-08-25T12:51:01Z</time>
      </trkpt>
      <trkpt lat="44.82781" lon="5.42756">
        <ele>1612.45</ele>
        <time>2019-08-25T12:51:18Z</time>
      </trkpt>
      <trkpt lat="44.82785" lon="5.42736">
        <ele>1615.04</ele>
        <time>2019-08-25T12:51:35Z</time>
      </trkpt>
      <trkpt lat="44.82786" lon="5.42723">
        <ele>1616.06</ele>
        <time>2019-08-25T12:51:46Z</time>
      </trkpt>
      <trkpt lat="44.82788" lon="5.42706">
        <ele>1616.59</ele>
        <time>2019-08-25T12:51:58Z</time>
      </trkpt>
      <trkpt lat="44.82789" lon="5.42692">
        <ele>1617.01</ele>
        <time>2019-08-25T12:52:07Z</time>
      </trkpt>
      <trkpt lat="44.82788" lon="5.42686">
        <ele>1617.31</ele>
        <time>2019-08-25T12:52:11Z</time>
      </trkpt>
      <trkpt lat="44.82781" lon="5.42654">
        <ele>1620.07</ele>
        <time>2019-08-25T12:52:33Z</time>
      </trkpt>
      <trkpt lat="44.82778" lon="5.42624">
        <ele>1621.09</ele>
        <time>2019-08-25T12:52:52Z</time>
      </trkpt>
      <trkpt lat="44.82775" lon="5.42583">
        <ele>1621.29</ele>
        <time>2019-08-25T12:53:07Z</time>
      </trkpt>
      <trkpt lat="44.82772" lon="5.4257">
        <ele>1620.71</ele>
        <time>2019-08-25T12:53:21Z</time>
      </trkpt>
      <trkpt lat="44.82773" lon="5.42569">
        <ele>1620.49</ele>
        <time>2019-08-25T12:53:27Z</time>
      </trkpt>
      <trkpt lat="44.8277" lon="5.42555">
        <ele>1620.6</ele>
        <time>2019-08-25T12:53:33Z</time>
      </trkpt>
      <trkpt lat="44.82757" lon="5.42528">
        <ele>1617.86</ele>
        <time>2019-08-25T12:53:43Z</time>
      </trkpt>
      <trkpt lat="44.82755" lon="5.4249">
        <ele>1615.34</ele>
        <time>2019-08-25T12:53:49Z</time>
      </trkpt>
      <trkpt lat="44.82755" lon="5.42474">
        <ele>1613.67</ele>
        <time>2019-08-25T12:53:53Z</time>
      </trkpt>
      <trkpt lat="44.8275" lon="5.4242">
        <ele>1613.46</ele>
        <time>2019-08-25T12:54:09Z</time>
      </trkpt>
      <trkpt lat="44.82742" lon="5.42392">
        <ele>1613.48</ele>
        <time>2019-08-25T12:54:18Z</time>
      </trkpt>
      <trkpt lat="44.8273" lon="5.42345">
        <ele>1610.37</ele>
        <time>2019-08-25T12:54:26Z</time>
      </trkpt>
      <trkpt lat="44.82725" lon="5.42311">
        <ele>1607.35</ele>
        <time>2019-08-25T12:54:33Z</time>
      </trkpt>
      <trkpt lat="44.82716" lon="5.42294">
        <ele>1604.28</ele>
        <time>2019-08-25T12:54:39Z</time>
      </trkpt>
      <trkpt lat="44.82714" lon="5.4229">
        <ele>1604.28</ele>
        <time>2019-08-25T12:54:40Z</time>
      </trkpt>
      <trkpt lat="44.8271" lon="5.42272">
        <ele>1601.12</ele>
        <time>2019-08-25T12:54:44Z</time>
      </trkpt>
      <trkpt lat="44.82707" lon="5.42248">
        <ele>1597.87</ele>
        <time>2019-08-25T12:54:50Z</time>
      </trkpt>
      <trkpt lat="44.82697" lon="5.4218">
        <ele>1596.99</ele>
        <time>2019-08-25T12:55:09Z</time>
      </trkpt>
      <trkpt lat="44.82683" lon="5.42123">
        <ele>1596.99</ele>
        <time>2019-08-25T12:55:24Z</time>
      </trkpt>
      <trkpt lat="44.82687" lon="5.42081">
        <ele>1600.09</ele>
        <time>2019-08-25T12:55:39Z</time>
      </trkpt>
      <trkpt lat="44.82695" lon="5.42061">
        <ele>1602.49</ele>
        <time>2019-08-25T12:55:54Z</time>
      </trkpt>
      <trkpt lat="44.82697" lon="5.42048">
        <ele>1603.33</ele>
        <time>2019-08-25T12:56:04Z</time>
      </trkpt>
      <trkpt lat="44.827" lon="5.42019">
        <ele>1604.46</ele>
        <time>2019-08-25T12:56:23Z</time>
      </trkpt>
      <trkpt lat="44.82705" lon="5.4199">
        <ele>1605.58</ele>
        <time>2019-08-25T12:56:43Z</time>
      </trkpt>
      <trkpt lat="44.82704" lon="5.41963">
        <ele>1606.7</ele>
        <time>2019-08-25T12:57:01Z</time>
      </trkpt>
      <trkpt lat="44.82701" lon="5.41931">
        <ele>1609.75</ele>
        <time>2019-08-25T12:57:21Z</time>
      </trkpt>
      <trkpt lat="44.82699" lon="5.41903">
        <ele>1610.53</ele>
        <time>2019-08-25T12:57:40Z</time>
      </trkpt>
      <trkpt lat="44.82697" lon="5.4189">
        <ele>1610.79</ele>
        <time>2019-08-25T12:57:46Z</time>
      </trkpt>
      <trkpt lat="44.82691" lon="5.41836">
        <ele>1611.93</ele>
        <time>2019-08-25T12:58:01Z</time>
      </trkpt>
      <trkpt lat="44.82679" lon="5.41803">
        <ele>1611.73</ele>
        <time>2019-08-25T12:58:15Z</time>
      </trkpt>
      <trkpt lat="44.82659" lon="5.4177">
        <ele>1612.97</ele>
        <time>2019-08-25T12:58:38Z</time>
      </trkpt>
      <trkpt lat="44.82642" lon="5.41742">
        <ele>1613.99</ele>
        <time>2019-08-25T12:58:56Z</time>
      </trkpt>
      <trkpt lat="44.82631" lon="5.41723">
        <ele>1614.59</ele>
        <time>2019-08-25T12:59:11Z</time>
      </trkpt>
      <trkpt lat="44.82626" lon="5.41724">
        <ele>1614.78</ele>
        <time>2019-08-25T12:59:24Z</time>
      </trkpt>
      <trkpt lat="44.82628" lon="5.41723">
        <ele>1614.3</ele>
        <time>2019-08-25T12:59:42Z</time>
      </trkpt>
      <trkpt lat="44.8263" lon="5.41724">
        <ele>1615.01</ele>
        <time>2019-08-25T13:00:02Z</time>
      </trkpt>
      <trkpt lat="44.82631" lon="5.41723">
        <ele>1615.17</ele>
        <time>2019-08-25T13:00:23Z</time>
      </trkpt>
      <trkpt lat="44.82627" lon="5.4173">
        <ele>1614.76</ele>
        <time>2019-08-25T13:00:38Z</time>
      </trkpt>
      <trkpt lat="44.8263" lon="5.41725">
        <ele>1616.21</ele>
        <time>2019-08-25T13:00:57Z</time>
      </trkpt>
      <trkpt lat="44.82631" lon="5.41726">
        <ele>1617.28</ele>
        <time>2019-08-25T13:01:20Z</time>
      </trkpt>
      <trkpt lat="44.82631" lon="5.4173">
        <ele>1614.65</ele>
        <time>2019-08-25T13:01:41Z</time>
      </trkpt>
      <trkpt lat="44.82621" lon="5.41749">
        <ele>1617.15</ele>
        <time>2019-08-25T13:02:02Z</time>
      </trkpt>
      <trkpt lat="44.82608" lon="5.41765">
        <ele>1619.95</ele>
        <time>2019-08-25T13:02:25Z</time>
      </trkpt>
      <trkpt lat="44.82612" lon="5.41766">
        <ele>1620.35</ele>
        <time>2019-08-25T13:02:44Z</time>
      </trkpt>
      <trkpt lat="44.82613" lon="5.41765">
        <ele>1620.35</ele>
        <time>2019-08-25T13:03:05Z</time>
      </trkpt>
      <trkpt lat="44.82612" lon="5.41764">
        <ele>1620.29</ele>
        <time>2019-08-25T13:03:28Z</time>
      </trkpt>
      <trkpt lat="44.82613" lon="5.41763">
        <ele>1620.89</ele>
        <time>2019-08-25T13:03:50Z</time>
      </trkpt>
      <trkpt lat="44.82613" lon="5.41764">
        <ele>1620.85</ele>
        <time>2019-08-25T13:04:17Z</time>
      </trkpt>
      <trkpt lat="44.82613" lon="5.41763">
        <ele>1619.97</ele>
        <time>2019-08-25T13:04:41Z</time>
      </trkpt>
      <trkpt lat="44.82613" lon="5.41765">
        <ele>1619.98</ele>
        <time>2019-08-25T13:05:02Z</time>
      </trkpt>
      <trkpt lat="44.82613" lon="5.41765">
        <ele>1620.9</ele>
        <time>2019-08-25T13:05:30Z</time>
      </trkpt>
      <trkpt lat="44.82613" lon="5.41764">
        <ele>1620.61</ele>
        <time>2019-08-25T13:05:51Z</time>
      </trkpt>
      <trkpt lat="44.82613" lon="5.41755">
        <ele>1621.35</ele>
        <time>2019-08-25T13:06:14Z</time>
      </trkpt>
      <trkpt lat="44.82609" lon="5.41748">
        <ele>1619.72</ele>
        <time>2019-08-25T13:06:30Z</time>
      </trkpt>
      <trkpt lat="44.82606" lon="5.41748">
        <ele>1620.72</ele>
        <time>2019-08-25T13:06:47Z</time>
      </trkpt>
      <trkpt lat="44.82605" lon="5.41749">
        <ele>1620.4</ele>
        <time>2019-08-25T13:07:16Z</time>
      </trkpt>
      <trkpt lat="44.82609" lon="5.41746">
        <ele>1620.38</ele>
        <time>2019-08-25T13:07:41Z</time>
      </trkpt>
      <trkpt lat="44.82614" lon="5.41747">
        <ele>1620.04</ele>
        <time>2019-08-25T13:08:07Z</time>
      </trkpt>
      <trkpt lat="44.82627" lon="5.41745">
        <ele>1618.78</ele>
        <time>2019-08-25T13:08:27Z</time>
      </trkpt>
      <trkpt lat="44.82628" lon="5.41743">
        <ele>1618.52</ele>
        <time>2019-08-25T13:08:32Z</time>
      </trkpt>
      <trkpt lat="44.82631" lon="5.41738">
        <ele>1618.48</ele>
        <time>2019-08-25T13:08:36Z</time>
      </trkpt>
      <trkpt lat="44.8263" lon="5.41723">
        <ele>1616.89</ele>
        <time>2019-08-25T13:08:55Z</time>
      </trkpt>
      <trkpt lat="44.82631" lon="5.41722">
        <ele>1616.01</ele>
        <time>2019-08-25T13:09:15Z</time>
      </trkpt>
      <trkpt lat="44.82632" lon="5.41718">
        <ele>1615.71</ele>
        <time>2019-08-25T13:09:30Z</time>
      </trkpt>
      <trkpt lat="44.82644" lon="5.41695">
        <ele>1615.57</ele>
        <time>2019-08-25T13:09:39Z</time>
      </trkpt>
      <trkpt lat="44.82653" lon="5.41686">
        <ele>1614.06</ele>
        <time>2019-08-25T13:09:43Z</time>
      </trkpt>
      <trkpt lat="44.82677" lon="5.4167">
        <ele>1610.83</ele>
        <time>2019-08-25T13:09:51Z</time>
      </trkpt>
      <trkpt lat="44.82702" lon="5.41658">
        <ele>1607.2</ele>
        <time>2019-08-25T13:09:57Z</time>
      </trkpt>
      <trkpt lat="44.82706" lon="5.41656">
        <ele>1606.41</ele>
        <time>2019-08-25T13:09:58Z</time>
      </trkpt>
      <trkpt lat="44.82722" lon="5.41645">
        <ele>1603.29</ele>
        <time>2019-08-25T13:10:02Z</time>
      </trkpt>
      <trkpt lat="44.8274" lon="5.41637">
        <ele>1599.59</ele>
        <time>2019-08-25T13:10:06Z</time>
      </trkpt>
      <trkpt lat="44.8275" lon="5.4163">
        <ele>1596.45</ele>
        <time>2019-08-25T13:10:09Z</time>
      </trkpt>
      <trkpt lat="44.82756" lon="5.41624">
        <ele>1593.25</ele>
        <time>2019-08-25T13:10:12Z</time>
      </trkpt>
      <trkpt lat="44.82766" lon="5.41621">
        <ele>1589.56</ele>
        <time>2019-08-25T13:10:16Z</time>
      </trkpt>
      <trkpt lat="44.82788" lon="5.41605">
        <ele>1586.04</ele>
        <time>2019-08-25T13:10:22Z</time>
      </trkpt>
      <trkpt lat="44.82797" lon="5.41599">
        <ele>1584.79</ele>
        <time>2019-08-25T13:10:24Z</time>
      </trkpt>
      <trkpt lat="44.82822" lon="5.41583">
        <ele>1580.32</ele>
        <time>2019-08-25T13:10:30Z</time>
      </trkpt>
      <trkpt lat="44.82834" lon="5.41576">
        <ele>1577</ele>
        <time>2019-08-25T13:10:34Z</time>
      </trkpt>
      <trkpt lat="44.82867" lon="5.41565">
        <ele>1573.08</ele>
        <time>2019-08-25T13:10:40Z</time>
      </trkpt>
      <trkpt lat="44.82873" lon="5.41564">
        <ele>1572.36</ele>
        <time>2019-08-25T13:10:41Z</time>
      </trkpt>
      <trkpt lat="44.82887" lon="5.41564">
        <ele>1570.85</ele>
        <time>2019-08-25T13:10:43Z</time>
      </trkpt>
      <trkpt lat="44.82916" lon="5.41557">
        <ele>1567.53</ele>
        <time>2019-08-25T13:10:48Z</time>
      </trkpt>
      <trkpt lat="44.82953" lon="5.41545">
        <ele>1563.72</ele>
        <time>2019-08-25T13:10:53Z</time>
      </trkpt>
      <trkpt lat="44.82977" lon="5.41535">
        <ele>1559.12</ele>
        <time>2019-08-25T13:10:57Z</time>
      </trkpt>
      <trkpt lat="44.82995" lon="5.41528">
        <ele>1555.6</ele>
        <time>2019-08-25T13:11:01Z</time>
      </trkpt>
      <trkpt lat="44.83015" lon="5.41521">
        <ele>1551.86</ele>
        <time>2019-08-25T13:11:06Z</time>
      </trkpt>
      <trkpt lat="44.83031" lon="5.41516">
        <ele>1548.78</ele>
        <time>2019-08-25T13:11:10Z</time>
      </trkpt>
      <trkpt lat="44.83056" lon="5.41508">
        <ele>1545.6</ele>
        <time>2019-08-25T13:11:15Z</time>
      </trkpt>
      <trkpt lat="44.83069" lon="5.41502">
        <ele>1543.71</ele>
        <time>2019-08-25T13:11:18Z</time>
      </trkpt>
      <trkpt lat="44.83088" lon="5.41489">
        <ele>1540.86</ele>
        <time>2019-08-25T13:11:22Z</time>
      </trkpt>
      <trkpt lat="44.83104" lon="5.41476">
        <ele>1539.07</ele>
        <time>2019-08-25T13:11:25Z</time>
      </trkpt>
      <trkpt lat="44.83126" lon="5.41451">
        <ele>1535.28</ele>
        <time>2019-08-25T13:11:34Z</time>
      </trkpt>
      <trkpt lat="44.83145" lon="5.41423">
        <ele>1533.54</ele>
        <time>2019-08-25T13:11:43Z</time>
      </trkpt>
      <trkpt lat="44.83158" lon="5.41408">
        <ele>1532.71</ele>
        <time>2019-08-25T13:11:47Z</time>
      </trkpt>
      <trkpt lat="44.83173" lon="5.4139">
        <ele>1531.9</ele>
        <time>2019-08-25T13:11:51Z</time>
      </trkpt>
      <trkpt lat="44.83186" lon="5.4135">
        <ele>1528.58</ele>
        <time>2019-08-25T13:12:00Z</time>
      </trkpt>
      <trkpt lat="44.83186" lon="5.41344">
        <ele>1526.97</ele>
        <time>2019-08-25T13:12:15Z</time>
      </trkpt>
      <trkpt lat="44.83186" lon="5.41347">
        <ele>1525.79</ele>
        <time>2019-08-25T13:12:34Z</time>
      </trkpt>
      <trkpt lat="44.83189" lon="5.41343">
        <ele>1526.24</ele>
        <time>2019-08-25T13:13:01Z</time>
      </trkpt>
      <trkpt lat="44.83189" lon="5.41342">
        <ele>1525.1</ele>
        <time>2019-08-25T13:13:26Z</time>
      </trkpt>
      <trkpt lat="44.83189" lon="5.4134">
        <ele>1524.87</ele>
        <time>2019-08-25T13:13:46Z</time>
      </trkpt>
      <trkpt lat="44.83193" lon="5.41332">
        <ele>1524.72</ele>
        <time>2019-08-25T13:13:52Z</time>
      </trkpt>
      <trkpt lat="44.83203" lon="5.41303">
        <ele>1522.95</ele>
        <time>2019-08-25T13:14:13Z</time>
      </trkpt>
      <trkpt lat="44.83205" lon="5.41297">
        <ele>1522.5</ele>
        <time>2019-08-25T13:14:25Z</time>
      </trkpt>
      <trkpt lat="44.83215" lon="5.41276">
        <ele>1523.82</ele>
        <time>2019-08-25T13:14:41Z</time>
      </trkpt>
      <trkpt lat="44.83223" lon="5.41265">
        <ele>1523.87</ele>
        <time>2019-08-25T13:14:51Z</time>
      </trkpt>
      <trkpt lat="44.83236" lon="5.41251">
        <ele>1524.27</ele>
        <time>2019-08-25T13:15:08Z</time>
      </trkpt>
      <trkpt lat="44.83228" lon="5.41242">
        <ele>1524.99</ele>
        <time>2019-08-25T13:15:27Z</time>
      </trkpt>
      <trkpt lat="44.83211" lon="5.41247">
        <ele>1526.76</ele>
        <time>2019-08-25T13:15:44Z</time>
      </trkpt>
      <trkpt lat="44.832" lon="5.41248">
        <ele>1528.75</ele>
        <time>2019-08-25T13:16:00Z</time>
      </trkpt>
      <trkpt lat="44.83193" lon="5.41238">
        <ele>1531.31</ele>
        <time>2019-08-25T13:16:17Z</time>
      </trkpt>
      <trkpt lat="44.8319" lon="5.41225">
        <ele>1534.39</ele>
        <time>2019-08-25T13:16:30Z</time>
      </trkpt>
      <trkpt lat="44.83186" lon="5.41212">
        <ele>1535.42</ele>
        <time>2019-08-25T13:16:47Z</time>
      </trkpt>
      <trkpt lat="44.83184" lon="5.41209">
        <ele>1533.61</ele>
        <time>2019-08-25T13:17:07Z</time>
      </trkpt>
      <trkpt lat="44.83184" lon="5.41209">
        <ele>1533.18</ele>
        <time>2019-08-25T13:17:37Z</time>
      </trkpt>
      <trkpt lat="44.8318" lon="5.41211">
        <ele>1533.79</ele>
        <time>2019-08-25T13:18:00Z</time>
      </trkpt>
      <trkpt lat="44.8318" lon="5.41212">
        <ele>1533.21</ele>
        <time>2019-08-25T13:18:30Z</time>
      </trkpt>
      <trkpt lat="44.83173" lon="5.41217">
        <ele>1534.02</ele>
        <time>2019-08-25T13:18:50Z</time>
      </trkpt>
      <trkpt lat="44.83174" lon="5.41215">
        <ele>1534.04</ele>
        <time>2019-08-25T13:19:14Z</time>
      </trkpt>
      <trkpt lat="44.83176" lon="5.41212">
        <ele>1534.39</ele>
        <time>2019-08-25T13:19:33Z</time>
      </trkpt>
      <trkpt lat="44.83177" lon="5.41213">
        <ele>1534.44</ele>
        <time>2019-08-25T13:20:01Z</time>
      </trkpt>
      <trkpt lat="44.83176" lon="5.41211">
        <ele>1534.02</ele>
        <time>2019-08-25T13:20:25Z</time>
      </trkpt>
      <trkpt lat="44.83175" lon="5.41212">
        <ele>1533.86</ele>
        <time>2019-08-25T13:20:49Z</time>
      </trkpt>
      <trkpt lat="44.83176" lon="5.41212">
        <ele>1533.71</ele>
        <time>2019-08-25T13:21:15Z</time>
      </trkpt>
      <trkpt lat="44.83176" lon="5.4121">
        <ele>1533.34</ele>
        <time>2019-08-25T13:21:39Z</time>
      </trkpt>
      <trkpt lat="44.83181" lon="5.41209">
        <ele>1533.67</ele>
        <time>2019-08-25T13:22:00Z</time>
      </trkpt>
      <trkpt lat="44.83187" lon="5.41207">
        <ele>1533.84</ele>
        <time>2019-08-25T13:22:09Z</time>
      </trkpt>
      <trkpt lat="44.83189" lon="5.4121">
        <ele>1533.92</ele>
        <time>2019-08-25T13:22:12Z</time>
      </trkpt>
      <trkpt lat="44.8319" lon="5.41223">
        <ele>1534.4</ele>
        <time>2019-08-25T13:22:24Z</time>
      </trkpt>
      <trkpt lat="44.83194" lon="5.41241">
        <ele>1531.34</ele>
        <time>2019-08-25T13:22:45Z</time>
      </trkpt>
      <trkpt lat="44.83194" lon="5.41242">
        <ele>1529.77</ele>
        <time>2019-08-25T13:23:06Z</time>
      </trkpt>
      <trkpt lat="44.83197" lon="5.41246">
        <ele>1529.08</ele>
        <time>2019-08-25T13:23:14Z</time>
      </trkpt>
      <trkpt lat="44.83201" lon="5.41247">
        <ele>1528.65</ele>
        <time>2019-08-25T13:23:18Z</time>
      </trkpt>
      <trkpt lat="44.83223" lon="5.41242">
        <ele>1526.23</ele>
        <time>2019-08-25T13:23:37Z</time>
      </trkpt>
      <trkpt lat="44.83235" lon="5.41244">
        <ele>1524.47</ele>
        <time>2019-08-25T13:23:50Z</time>
      </trkpt>
      <trkpt lat="44.83239" lon="5.41251">
        <ele>1522.45</ele>
        <time>2019-08-25T13:24:08Z</time>
      </trkpt>
      <trkpt lat="44.83238" lon="5.41253">
        <ele>1520.99</ele>
        <time>2019-08-25T13:24:27Z</time>
      </trkpt>
      <trkpt lat="44.83239" lon="5.41252">
        <ele>1521.77</ele>
        <time>2019-08-25T13:24:57Z</time>
      </trkpt>
      <trkpt lat="44.83236" lon="5.41251">
        <ele>1520.51</ele>
        <time>2019-08-25T13:25:31Z</time>
      </trkpt>
      <trkpt lat="44.83236" lon="5.41249">
        <ele>1520.65</ele>
        <time>2019-08-25T13:26:02Z</time>
      </trkpt>
      <trkpt lat="44.83241" lon="5.41252">
        <ele>1520.14</ele>
        <time>2019-08-25T13:26:29Z</time>
      </trkpt>
      <trkpt lat="44.83241" lon="5.4125">
        <ele>1520.24</ele>
        <time>2019-08-25T13:27:00Z</time>
      </trkpt>
      <trkpt lat="44.8324" lon="5.41252">
        <ele>1520.18</ele>
        <time>2019-08-25T13:27:34Z</time>
      </trkpt>
      <trkpt lat="44.83239" lon="5.41251">
        <ele>1520.19</ele>
        <time>2019-08-25T13:28:04Z</time>
      </trkpt>
      <trkpt lat="44.83239" lon="5.41253">
        <ele>1520.05</ele>
        <time>2019-08-25T13:28:35Z</time>
      </trkpt>
      <trkpt lat="44.83237" lon="5.4125">
        <ele>1519.82</ele>
        <time>2019-08-25T13:29:05Z</time>
      </trkpt>
      <trkpt lat="44.83238" lon="5.41251">
        <ele>1519.85</ele>
        <time>2019-08-25T13:29:35Z</time>
      </trkpt>
      <trkpt lat="44.83239" lon="5.41252">
        <ele>1521.37</ele>
        <time>2019-08-25T13:29:55Z</time>
      </trkpt>
      <trkpt lat="44.83238" lon="5.41245">
        <ele>1521.66</ele>
        <time>2019-08-25T13:30:13Z</time>
      </trkpt>
      <trkpt lat="44.83242" lon="5.41241">
        <ele>1521.76</ele>
        <time>2019-08-25T13:30:18Z</time>
      </trkpt>
      <trkpt lat="44.83259" lon="5.41232">
        <ele>1520.85</ele>
        <time>2019-08-25T13:30:35Z</time>
      </trkpt>
      <trkpt lat="44.83263" lon="5.41231">
        <ele>1520.1</ele>
        <time>2019-08-25T13:30:39Z</time>
      </trkpt>
      <trkpt lat="44.83293" lon="5.41225">
        <ele>1519.06</ele>
        <time>2019-08-25T13:30:51Z</time>
      </trkpt>
      <trkpt lat="44.83304" lon="5.41226">
        <ele>1518.46</ele>
        <time>2019-08-25T13:30:54Z</time>
      </trkpt>
      <trkpt lat="44.83324" lon="5.41219">
        <ele>1516.72</ele>
        <time>2019-08-25T13:31:01Z</time>
      </trkpt>
      <trkpt lat="44.83368" lon="5.41208">
        <ele>1514.25</ele>
        <time>2019-08-25T13:31:15Z</time>
      </trkpt>
      <trkpt lat="44.83391" lon="5.41196">
        <ele>1512.8</ele>
        <time>2019-08-25T13:31:22Z</time>
      </trkpt>
      <trkpt lat="44.83399" lon="5.41183">
        <ele>1511.86</ele>
        <time>2019-08-25T13:31:25Z</time>
      </trkpt>
      <trkpt lat="44.83408" lon="5.41173">
        <ele>1510.55</ele>
        <time>2019-08-25T13:31:30Z</time>
      </trkpt>
      <trkpt lat="44.83414" lon="5.41168">
        <ele>1510.34</ele>
        <time>2019-08-25T13:31:33Z</time>
      </trkpt>
      <trkpt lat="44.83417" lon="5.41171">
        <ele>1510.06</ele>
        <time>2019-08-25T13:31:40Z</time>
      </trkpt>
      <trkpt lat="44.83414" lon="5.41191">
        <ele>1508.7</ele>
        <time>2019-08-25T13:31:52Z</time>
      </trkpt>
      <trkpt lat="44.83419" lon="5.41191">
        <ele>1507.37</ele>
        <time>2019-08-25T13:32:24Z</time>
      </trkpt>
      <trkpt lat="44.8342" lon="5.41189">
        <ele>1507.07</ele>
        <time>2019-08-25T13:32:53Z</time>
      </trkpt>
      <trkpt lat="44.83421" lon="5.4119">
        <ele>1506.86</ele>
        <time>2019-08-25T13:33:19Z</time>
      </trkpt>
      <trkpt lat="44.83416" lon="5.41198">
        <ele>1506.88</ele>
        <time>2019-08-25T13:33:32Z</time>
      </trkpt>
      <trkpt lat="44.83411" lon="5.41204">
        <ele>1507</ele>
        <time>2019-08-25T13:33:36Z</time>
      </trkpt>
      <trkpt lat="44.83393" lon="5.41256">
        <ele>1505.12</ele>
        <time>2019-08-25T13:33:46Z</time>
      </trkpt>
      <trkpt lat="44.83397" lon="5.41278">
        <ele>1501.38</ele>
        <time>2019-08-25T13:33:52Z</time>
      </trkpt>
      <trkpt lat="44.83411" lon="5.4129">
        <ele>1498.34</ele>
        <time>2019-08-25T13:33:58Z</time>
      </trkpt>
      <trkpt lat="44.83416" lon="5.41291">
        <ele>1495.32</ele>
        <time>2019-08-25T13:34:04Z</time>
      </trkpt>
      <trkpt lat="44.83417" lon="5.41289">
        <ele>1492.41</ele>
        <time>2019-08-25T13:34:29Z</time>
      </trkpt>
      <trkpt lat="44.83416" lon="5.41288">
        <ele>1492.23</ele>
        <time>2019-08-25T13:35:00Z</time>
      </trkpt>
      <trkpt lat="44.83417" lon="5.41287">
        <ele>1492.33</ele>
        <time>2019-08-25T13:35:05Z</time>
      </trkpt>
      <trkpt lat="44.8342" lon="5.41283">
        <ele>1492.19</ele>
        <time>2019-08-25T13:35:08Z</time>
      </trkpt>
      <trkpt lat="44.83448" lon="5.4125">
        <ele>1491.38</ele>
        <time>2019-08-25T13:35:20Z</time>
      </trkpt>
      <trkpt lat="44.83474" lon="5.41236">
        <ele>1489.17</ele>
        <time>2019-08-25T13:35:28Z</time>
      </trkpt>
      <trkpt lat="44.8348" lon="5.41236">
        <ele>1486.7</ele>
        <time>2019-08-25T13:35:32Z</time>
      </trkpt>
      <trkpt lat="44.83487" lon="5.41234">
        <ele>1484.61</ele>
        <time>2019-08-25T13:35:36Z</time>
      </trkpt>
      <trkpt lat="44.83509" lon="5.4124">
        <ele>1480.95</ele>
        <time>2019-08-25T13:35:44Z</time>
      </trkpt>
      <trkpt lat="44.83527" lon="5.41239">
        <ele>1477.69</ele>
        <time>2019-08-25T13:35:50Z</time>
      </trkpt>
      <trkpt lat="44.83535" lon="5.4124">
        <ele>1475.72</ele>
        <time>2019-08-25T13:35:53Z</time>
      </trkpt>
      <trkpt lat="44.83547" lon="5.41239">
        <ele>1472.48</ele>
        <time>2019-08-25T13:35:58Z</time>
      </trkpt>
      <trkpt lat="44.83561" lon="5.41244">
        <ele>1467.85</ele>
        <time>2019-08-25T13:36:05Z</time>
      </trkpt>
      <trkpt lat="44.83584" lon="5.41248">
        <ele>1464.62</ele>
        <time>2019-08-25T13:36:12Z</time>
      </trkpt>
      <trkpt lat="44.83603" lon="5.41253">
        <ele>1461.46</ele>
        <time>2019-08-25T13:36:18Z</time>
      </trkpt>
      <trkpt lat="44.83619" lon="5.41255">
        <ele>1458.29</ele>
        <time>2019-08-25T13:36:23Z</time>
      </trkpt>
      <trkpt lat="44.83638" lon="5.41271">
        <ele>1455.23</ele>
        <time>2019-08-25T13:36:29Z</time>
      </trkpt>
      <trkpt lat="44.8365" lon="5.41271">
        <ele>1451.51</ele>
        <time>2019-08-25T13:36:36Z</time>
      </trkpt>
      <trkpt lat="44.83651" lon="5.41272">
        <ele>1451.19</ele>
        <time>2019-08-25T13:36:37Z</time>
      </trkpt>
      <trkpt lat="44.83654" lon="5.41275">
        <ele>1450.43</ele>
        <time>2019-08-25T13:36:41Z</time>
      </trkpt>
      <trkpt lat="44.83658" lon="5.41277">
        <ele>1449.84</ele>
        <time>2019-08-25T13:36:45Z</time>
      </trkpt>
      <trkpt lat="44.83666" lon="5.4128">
        <ele>1449.09</ele>
        <time>2019-08-25T13:37:12Z</time>
      </trkpt>
      <trkpt lat="44.83671" lon="5.41282">
        <ele>1449.17</ele>
        <time>2019-08-25T13:37:14Z</time>
      </trkpt>
      <trkpt lat="44.83687" lon="5.41283">
        <ele>1449.12</ele>
        <time>2019-08-25T13:37:17Z</time>
      </trkpt>
      <trkpt lat="44.83736" lon="5.41305">
        <ele>1445.72</ele>
        <time>2019-08-25T13:37:26Z</time>
      </trkpt>
      <trkpt lat="44.83767" lon="5.41304">
        <ele>1441.4</ele>
        <time>2019-08-25T13:37:31Z</time>
      </trkpt>
      <trkpt lat="44.8381" lon="5.41296">
        <ele>1437.88</ele>
        <time>2019-08-25T13:37:36Z</time>
      </trkpt>
      <trkpt lat="44.83852" lon="5.41294">
        <ele>1433.73</ele>
        <time>2019-08-25T13:37:41Z</time>
      </trkpt>
      <trkpt lat="44.83867" lon="5.41293">
        <ele>1429.3</ele>
        <time>2019-08-25T13:37:44Z</time>
      </trkpt>
      <trkpt lat="44.83875" lon="5.41291">
        <ele>1426.14</ele>
        <time>2019-08-25T13:37:47Z</time>
      </trkpt>
      <trkpt lat="44.83888" lon="5.41288">
        <ele>1422.73</ele>
        <time>2019-08-25T13:37:52Z</time>
      </trkpt>
      <trkpt lat="44.83896" lon="5.41287">
        <ele>1419.51</ele>
        <time>2019-08-25T13:38:00Z</time>
      </trkpt>
      <trkpt lat="44.839" lon="5.41292">
        <ele>1417.98</ele>
        <time>2019-08-25T13:38:32Z</time>
      </trkpt>
      <trkpt lat="44.83942" lon="5.4128">
        <ele>1417.33</ele>
        <time>2019-08-25T13:38:43Z</time>
      </trkpt>
      <trkpt lat="44.8399" lon="5.41275">
        <ele>1412.75</ele>
        <time>2019-08-25T13:38:52Z</time>
      </trkpt>
      <trkpt lat="44.83993" lon="5.41274">
        <ele>1412.75</ele>
        <time>2019-08-25T13:38:53Z</time>
      </trkpt>
      <trkpt lat="44.84005" lon="5.41272">
        <ele>1410.9</ele>
        <time>2019-08-25T13:38:56Z</time>
      </trkpt>
      <trkpt lat="44.84027" lon="5.41273">
        <ele>1408.84</ele>
        <time>2019-08-25T13:39:00Z</time>
      </trkpt>
      <trkpt lat="44.84069" lon="5.41275">
        <ele>1405.83</ele>
        <time>2019-08-25T13:39:07Z</time>
      </trkpt>
      <trkpt lat="44.84085" lon="5.41275">
        <ele>1404.07</ele>
        <time>2019-08-25T13:39:10Z</time>
      </trkpt>
      <trkpt lat="44.84104" lon="5.41281">
        <ele>1400.18</ele>
        <time>2019-08-25T13:39:15Z</time>
      </trkpt>
      <trkpt lat="44.84115" lon="5.41274">
        <ele>1396.5</ele>
        <time>2019-08-25T13:39:20Z</time>
      </trkpt>
      <trkpt lat="44.84118" lon="5.41275">
        <ele>1395.77</ele>
        <time>2019-08-25T13:39:21Z</time>
      </trkpt>
      <trkpt lat="44.84123" lon="5.41281">
        <ele>1394.13</ele>
        <time>2019-08-25T13:39:24Z</time>
      </trkpt>
      <trkpt lat="44.84136" lon="5.41276">
        <ele>1391.34</ele>
        <time>2019-08-25T13:39:31Z</time>
      </trkpt>
      <trkpt lat="44.84156" lon="5.41279">
        <ele>1388.17</ele>
        <time>2019-08-25T13:39:39Z</time>
      </trkpt>
      <trkpt lat="44.8416" lon="5.41278">
        <ele>1387.18</ele>
        <time>2019-08-25T13:39:41Z</time>
      </trkpt>
      <trkpt lat="44.84177" lon="5.4128">
        <ele>1384.12</ele>
        <time>2019-08-25T13:39:47Z</time>
      </trkpt>
      <trkpt lat="44.84191" lon="5.41284">
        <ele>1380.55</ele>
        <time>2019-08-25T13:39:52Z</time>
      </trkpt>
      <trkpt lat="44.84198" lon="5.41282">
        <ele>1377.31</ele>
        <time>2019-08-25T13:39:57Z</time>
      </trkpt>
      <trkpt lat="44.84198" lon="5.41286">
        <ele>1374.3</ele>
        <time>2019-08-25T13:40:09Z</time>
      </trkpt>
      <trkpt lat="44.84201" lon="5.41288">
        <ele>1374.19</ele>
        <time>2019-08-25T13:40:39Z</time>
      </trkpt>
      <trkpt lat="44.84204" lon="5.41288">
        <ele>1374.01</ele>
        <time>2019-08-25T13:41:02Z</time>
      </trkpt>
      <trkpt lat="44.84222" lon="5.41263">
        <ele>1372.02</ele>
        <time>2019-08-25T13:41:12Z</time>
      </trkpt>
      <trkpt lat="44.84224" lon="5.4126">
        <ele>1371.53</ele>
        <time>2019-08-25T13:41:13Z</time>
      </trkpt>
      <trkpt lat="44.84223" lon="5.41246">
        <ele>1369.44</ele>
        <time>2019-08-25T13:41:17Z</time>
      </trkpt>
      <trkpt lat="44.84223" lon="5.41217">
        <ele>1365.53</ele>
        <time>2019-08-25T13:41:24Z</time>
      </trkpt>
      <trkpt lat="44.84222" lon="5.41212">
        <ele>1365.53</ele>
        <time>2019-08-25T13:41:25Z</time>
      </trkpt>
      <trkpt lat="44.84223" lon="5.412">
        <ele>1363.24</ele>
        <time>2019-08-25T13:41:28Z</time>
      </trkpt>
      <trkpt lat="44.84221" lon="5.41192">
        <ele>1359.84</ele>
        <time>2019-08-25T13:41:32Z</time>
      </trkpt>
      <trkpt lat="44.84224" lon="5.4119">
        <ele>1358.23</ele>
        <time>2019-08-25T13:41:36Z</time>
      </trkpt>
      <trkpt lat="44.84225" lon="5.41204">
        <ele>1356.9</ele>
        <time>2019-08-25T13:41:43Z</time>
      </trkpt>
      <trkpt lat="44.84229" lon="5.41214">
        <ele>1356.27</ele>
        <time>2019-08-25T13:41:46Z</time>
      </trkpt>
      <trkpt lat="44.84237" lon="5.41215">
        <ele>1355.02</ele>
        <time>2019-08-25T13:41:49Z</time>
      </trkpt>
      <trkpt lat="44.84239" lon="5.41193">
        <ele>1352.17</ele>
        <time>2019-08-25T13:41:56Z</time>
      </trkpt>
      <trkpt lat="44.84242" lon="5.41178">
        <ele>1348.31</ele>
        <time>2019-08-25T13:42:04Z</time>
      </trkpt>
      <trkpt lat="44.84241" lon="5.41175">
        <ele>1346.01</ele>
        <time>2019-08-25T13:42:28Z</time>
      </trkpt>
      <trkpt lat="44.84244" lon="5.41178">
        <ele>1345.92</ele>
        <time>2019-08-25T13:42:55Z</time>
      </trkpt>
      <trkpt lat="44.84245" lon="5.41179">
        <ele>1345.73</ele>
        <time>2019-08-25T13:43:12Z</time>
      </trkpt>
      <trkpt lat="44.84246" lon="5.41182">
        <ele>1345.38</ele>
        <time>2019-08-25T13:43:43Z</time>
      </trkpt>
      <trkpt lat="44.84246" lon="5.41181">
        <ele>1345.38</ele>
        <time>2019-08-25T13:43:45Z</time>
      </trkpt>
      <trkpt lat="44.8425" lon="5.41181">
        <ele>1345.38</ele>
        <time>2019-08-25T13:43:47Z</time>
      </trkpt>
      <trkpt lat="44.84261" lon="5.41173">
        <ele>1345.26</ele>
        <time>2019-08-25T13:43:51Z</time>
      </trkpt>
      <trkpt lat="44.84278" lon="5.41148">
        <ele>1343.39</ele>
        <time>2019-08-25T13:43:56Z</time>
      </trkpt>
      <trkpt lat="44.84281" lon="5.41142">
        <ele>1342.22</ele>
        <time>2019-08-25T13:43:57Z</time>
      </trkpt>
      <trkpt lat="44.84294" lon="5.41099">
        <ele>1338.92</ele>
        <time>2019-08-25T13:44:02Z</time>
      </trkpt>
      <trkpt lat="44.84282" lon="5.41076">
        <ele>1337.48</ele>
        <time>2019-08-25T13:44:05Z</time>
      </trkpt>
      <trkpt lat="44.84278" lon="5.41051">
        <ele>1336.21</ele>
        <time>2019-08-25T13:44:09Z</time>
      </trkpt>
      <trkpt lat="44.84271" lon="5.41011">
        <ele>1333.01</ele>
        <time>2019-08-25T13:44:15Z</time>
      </trkpt>
      <trkpt lat="44.84265" lon="5.40977">
        <ele>1330.21</ele>
        <time>2019-08-25T13:44:19Z</time>
      </trkpt>
      <trkpt lat="44.84264" lon="5.40963">
        <ele>1328.69</ele>
        <time>2019-08-25T13:44:21Z</time>
      </trkpt>
      <trkpt lat="44.8426" lon="5.40933">
        <ele>1324.24</ele>
        <time>2019-08-25T13:44:25Z</time>
      </trkpt>
      <trkpt lat="44.8426" lon="5.40925">
        <ele>1323.41</ele>
        <time>2019-08-25T13:44:26Z</time>
      </trkpt>
      <trkpt lat="44.84259" lon="5.40893">
        <ele>1319.91</ele>
        <time>2019-08-25T13:44:30Z</time>
      </trkpt>
      <trkpt lat="44.84244" lon="5.4086">
        <ele>1315.16</ele>
        <time>2019-08-25T13:44:35Z</time>
      </trkpt>
      <trkpt lat="44.84231" lon="5.40848">
        <ele>1312.4</ele>
        <time>2019-08-25T13:44:38Z</time>
      </trkpt>
      <trkpt lat="44.84211" lon="5.40833">
        <ele>1308.89</ele>
        <time>2019-08-25T13:44:42Z</time>
      </trkpt>
      <trkpt lat="44.84178" lon="5.40818">
        <ele>1305.54</ele>
        <time>2019-08-25T13:44:47Z</time>
      </trkpt>
      <trkpt lat="44.84139" lon="5.40798">
        <ele>1301.06</ele>
        <time>2019-08-25T13:44:52Z</time>
      </trkpt>
      <trkpt lat="44.84113" lon="5.40778">
        <ele>1297.61</ele>
        <time>2019-08-25T13:44:56Z</time>
      </trkpt>
      <trkpt lat="44.84097" lon="5.40768">
        <ele>1295.96</ele>
        <time>2019-08-25T13:44:58Z</time>
      </trkpt>
      <trkpt lat="44.84082" lon="5.4076">
        <ele>1294.43</ele>
        <time>2019-08-25T13:45:00Z</time>
      </trkpt>
      <trkpt lat="44.84052" lon="5.40747">
        <ele>1290.3</ele>
        <time>2019-08-25T13:45:05Z</time>
      </trkpt>
      <trkpt lat="44.84035" lon="5.40731">
        <ele>1287.02</ele>
        <time>2019-08-25T13:45:09Z</time>
      </trkpt>
      <trkpt lat="44.84019" lon="5.4072">
        <ele>1284.85</ele>
        <time>2019-08-25T13:45:12Z</time>
      </trkpt>
      <trkpt lat="44.84002" lon="5.40711">
        <ele>1282.05</ele>
        <time>2019-08-25T13:45:16Z</time>
      </trkpt>
      <trkpt lat="44.83989" lon="5.40688">
        <ele>1277.91</ele>
        <time>2019-08-25T13:45:20Z</time>
      </trkpt>
      <trkpt lat="44.83983" lon="5.40674">
        <ele>1276.42</ele>
        <time>2019-08-25T13:45:22Z</time>
      </trkpt>
      <trkpt lat="44.83967" lon="5.4065">
        <ele>1273.23</ele>
        <time>2019-08-25T13:45:26Z</time>
      </trkpt>
      <trkpt lat="44.83933" lon="5.40622">
        <ele>1269.45</ele>
        <time>2019-08-25T13:45:36Z</time>
      </trkpt>
      <trkpt lat="44.83924" lon="5.40619">
        <ele>1268.94</ele>
        <time>2019-08-25T13:45:46Z</time>
      </trkpt>
      <trkpt lat="44.83926" lon="5.40611">
        <ele>1269.17</ele>
        <time>2019-08-25T13:46:13Z</time>
      </trkpt>
      <trkpt lat="44.83921" lon="5.40617">
        <ele>1268.64</ele>
        <time>2019-08-25T13:46:44Z</time>
      </trkpt>
      <trkpt lat="44.83921" lon="5.40606">
        <ele>1268.84</ele>
        <time>2019-08-25T13:47:05Z</time>
      </trkpt>
      <trkpt lat="44.83927" lon="5.4059">
        <ele>1268.86</ele>
        <time>2019-08-25T13:47:18Z</time>
      </trkpt>
      <trkpt lat="44.83963" lon="5.40571">
        <ele>1268.15</ele>
        <time>2019-08-25T13:47:28Z</time>
      </trkpt>
      <trkpt lat="44.8398" lon="5.40566">
        <ele>1267.79</ele>
        <time>2019-08-25T13:47:32Z</time>
      </trkpt>
      <trkpt lat="44.83984" lon="5.40568">
        <ele>1267.64</ele>
        <time>2019-08-25T13:47:33Z</time>
      </trkpt>
      <trkpt lat="44.83987" lon="5.40574">
        <ele>1267.49</ele>
        <time>2019-08-25T13:47:34Z</time>
      </trkpt>
      <trkpt lat="44.8399" lon="5.4058">
        <ele>1267.38</ele>
        <time>2019-08-25T13:47:35Z</time>
      </trkpt>
      <trkpt lat="44.83992" lon="5.40587">
        <ele>1267.3</ele>
        <time>2019-08-25T13:47:36Z</time>
      </trkpt>
      <trkpt lat="44.83994" lon="5.40595">
        <ele>1267.26</ele>
        <time>2019-08-25T13:47:37Z</time>
      </trkpt>
      <trkpt lat="44.83995" lon="5.40602">
        <ele>1267.23</ele>
        <time>2019-08-25T13:47:38Z</time>
      </trkpt>
      <trkpt lat="44.83997" lon="5.40608">
        <ele>1267.22</ele>
        <time>2019-08-25T13:47:39Z</time>
      </trkpt>
      <trkpt lat="44.84001" lon="5.4061">
        <ele>1267.22</ele>
        <time>2019-08-25T13:47:40Z</time>
      </trkpt>
      <trkpt lat="44.84006" lon="5.4061">
        <ele>1267.22</ele>
        <time>2019-08-25T13:47:41Z</time>
      </trkpt>
      <trkpt lat="44.84012" lon="5.40612">
        <ele>1267.22</ele>
        <time>2019-08-25T13:47:42Z</time>
      </trkpt>
      <trkpt lat="44.84016" lon="5.40615">
        <ele>1267.19</ele>
        <time>2019-08-25T13:47:43Z</time>
      </trkpt>
      <trkpt lat="44.84018" lon="5.40619">
        <ele>1267.13</ele>
        <time>2019-08-25T13:47:44Z</time>
      </trkpt>
      <trkpt lat="44.8402" lon="5.40625">
        <ele>1267.03</ele>
        <time>2019-08-25T13:47:45Z</time>
      </trkpt>
      <trkpt lat="44.8402" lon="5.40629">
        <ele>1266.86</ele>
        <time>2019-08-25T13:47:46Z</time>
      </trkpt>
      <trkpt lat="44.8402" lon="5.40634">
        <ele>1266.6</ele>
        <time>2019-08-25T13:47:47Z</time>
      </trkpt>
      <trkpt lat="44.84035" lon="5.40673">
        <ele>1265.4</ele>
        <time>2019-08-25T13:48:00Z</time>
      </trkpt>
      <trkpt lat="44.84075" lon="5.40697">
        <ele>1267.22</ele>
        <time>2019-08-25T13:48:14Z</time>
      </trkpt>
      <trkpt lat="44.84115" lon="5.40716">
        <ele>1268.33</ele>
        <time>2019-08-25T13:48:27Z</time>
      </trkpt>
      <trkpt lat="44.8412" lon="5.40718">
        <ele>1268.36</ele>
        <time>2019-08-25T13:48:28Z</time>
      </trkpt>
      <trkpt lat="44.84137" lon="5.40727">
        <ele>1268.45</ele>
        <time>2019-08-25T13:48:32Z</time>
      </trkpt>
      <trkpt lat="44.84141" lon="5.4073">
        <ele>1268.47</ele>
        <time>2019-08-25T13:48:33Z</time>
      </trkpt>
      <trkpt lat="44.84191" lon="5.40761">
        <ele>1268.44</ele>
        <time>2019-08-25T13:48:44Z</time>
      </trkpt>
      <trkpt lat="44.84228" lon="5.40783">
        <ele>1268.49</ele>
        <time>2019-08-25T13:48:54Z</time>
      </trkpt>
      <trkpt lat="44.84264" lon="5.40813">
        <ele>1267.67</ele>
        <time>2019-08-25T13:49:04Z</time>
      </trkpt>
      <trkpt lat="44.84267" lon="5.40818">
        <ele>1267.61</ele>
        <time>2019-08-25T13:49:05Z</time>
      </trkpt>
      <trkpt lat="44.84273" lon="5.40829">
        <ele>1267.43</ele>
        <time>2019-08-25T13:49:07Z</time>
      </trkpt>
      <trkpt lat="44.84275" lon="5.40834">
        <ele>1267.33</ele>
        <time>2019-08-25T13:49:08Z</time>
      </trkpt>
      <trkpt lat="44.84276" lon="5.40839">
        <ele>1267.21</ele>
        <time>2019-08-25T13:49:09Z</time>
      </trkpt>
      <trkpt lat="44.84277" lon="5.40845">
        <ele>1267.09</ele>
        <time>2019-08-25T13:49:10Z</time>
      </trkpt>
      <trkpt lat="44.84279" lon="5.40851">
        <ele>1266.98</ele>
        <time>2019-08-25T13:49:11Z</time>
      </trkpt>
      <trkpt lat="44.8428" lon="5.40857">
        <ele>1266.87</ele>
        <time>2019-08-25T13:49:12Z</time>
      </trkpt>
      <trkpt lat="44.84281" lon="5.40863">
        <ele>1266.69</ele>
        <time>2019-08-25T13:49:13Z</time>
      </trkpt>
      <trkpt lat="44.84283" lon="5.40869">
        <ele>1266.64</ele>
        <time>2019-08-25T13:49:14Z</time>
      </trkpt>
      <trkpt lat="44.84295" lon="5.40912">
        <ele>1266.24</ele>
        <time>2019-08-25T13:49:22Z</time>
      </trkpt>
      <trkpt lat="44.84299" lon="5.40917">
        <ele>1266.21</ele>
        <time>2019-08-25T13:49:23Z</time>
      </trkpt>
      <trkpt lat="44.84303" lon="5.40921">
        <ele>1266.18</ele>
        <time>2019-08-25T13:49:24Z</time>
      </trkpt>
      <trkpt lat="44.84307" lon="5.40924">
        <ele>1266.15</ele>
        <time>2019-08-25T13:49:25Z</time>
      </trkpt>
      <trkpt lat="44.84313" lon="5.40926">
        <ele>1266.09</ele>
        <time>2019-08-25T13:49:26Z</time>
      </trkpt>
      <trkpt lat="44.84318" lon="5.40927">
        <ele>1265.97</ele>
        <time>2019-08-25T13:49:27Z</time>
      </trkpt>
      <trkpt lat="44.84323" lon="5.40925">
        <ele>1265.83</ele>
        <time>2019-08-25T13:49:28Z</time>
      </trkpt>
      <trkpt lat="44.84329" lon="5.40923">
        <ele>1265.72</ele>
        <time>2019-08-25T13:49:29Z</time>
      </trkpt>
      <trkpt lat="44.84334" lon="5.40919">
        <ele>1265.64</ele>
        <time>2019-08-25T13:49:30Z</time>
      </trkpt>
      <trkpt lat="44.84338" lon="5.40915">
        <ele>1265.57</ele>
        <time>2019-08-25T13:49:31Z</time>
      </trkpt>
      <trkpt lat="44.84343" lon="5.4091">
        <ele>1265.51</ele>
        <time>2019-08-25T13:49:32Z</time>
      </trkpt>
      <trkpt lat="44.84356" lon="5.40896">
        <ele>1265.5</ele>
        <time>2019-08-25T13:49:35Z</time>
      </trkpt>
      <trkpt lat="44.84361" lon="5.40891">
        <ele>1265.52</ele>
        <time>2019-08-25T13:49:36Z</time>
      </trkpt>
      <trkpt lat="44.84387" lon="5.40874">
        <ele>1265.49</ele>
        <time>2019-08-25T13:49:40Z</time>
      </trkpt>
      <trkpt lat="44.84399" lon="5.40866">
        <ele>1265.5</ele>
        <time>2019-08-25T13:49:42Z</time>
      </trkpt>
      <trkpt lat="44.84405" lon="5.40864">
        <ele>1265.5</ele>
        <time>2019-08-25T13:49:43Z</time>
      </trkpt>
      <trkpt lat="44.84417" lon="5.40861">
        <ele>1265.4</ele>
        <time>2019-08-25T13:49:45Z</time>
      </trkpt>
      <trkpt lat="44.84435" lon="5.40861">
        <ele>1264.98</ele>
        <time>2019-08-25T13:49:48Z</time>
      </trkpt>
      <trkpt lat="44.84442" lon="5.40862">
        <ele>1264.85</ele>
        <time>2019-08-25T13:49:49Z</time>
      </trkpt>
      <trkpt lat="44.84449" lon="5.40864">
        <ele>1264.72</ele>
        <time>2019-08-25T13:49:50Z</time>
      </trkpt>
      <trkpt lat="44.84456" lon="5.40865">
        <ele>1264.62</ele>
        <time>2019-08-25T13:49:51Z</time>
      </trkpt>
      <trkpt lat="44.84463" lon="5.40866">
        <ele>1264.54</ele>
        <time>2019-08-25T13:49:52Z</time>
      </trkpt>
      <trkpt lat="44.84497" lon="5.40875">
        <ele>1263.89</ele>
        <time>2019-08-25T13:49:57Z</time>
      </trkpt>
      <trkpt lat="44.84532" lon="5.4089">
        <ele>1262.6</ele>
        <time>2019-08-25T13:50:02Z</time>
      </trkpt>
      <trkpt lat="44.84551" lon="5.409">
        <ele>1261.68</ele>
        <time>2019-08-25T13:50:05Z</time>
      </trkpt>
      <trkpt lat="44.84558" lon="5.40903">
        <ele>1261.46</ele>
        <time>2019-08-25T13:50:06Z</time>
      </trkpt>
      <trkpt lat="44.84615" lon="5.40935">
        <ele>1259.97</ele>
        <time>2019-08-25T13:50:14Z</time>
      </trkpt>
      <trkpt lat="44.84629" lon="5.40942">
        <ele>1259.64</ele>
        <time>2019-08-25T13:50:16Z</time>
      </trkpt>
      <trkpt lat="44.84636" lon="5.40945">
        <ele>1259.47</ele>
        <time>2019-08-25T13:50:17Z</time>
      </trkpt>
      <trkpt lat="44.84656" lon="5.40957">
        <ele>1258.82</ele>
        <time>2019-08-25T13:50:20Z</time>
      </trkpt>
      <trkpt lat="44.84661" lon="5.4096">
        <ele>1258.48</ele>
        <time>2019-08-25T13:50:21Z</time>
      </trkpt>
      <trkpt lat="44.84666" lon="5.40963">
        <ele>1258.16</ele>
        <time>2019-08-25T13:50:22Z</time>
      </trkpt>
      <trkpt lat="44.84672" lon="5.40967">
        <ele>1257.88</ele>
        <time>2019-08-25T13:50:23Z</time>
      </trkpt>
      <trkpt lat="44.84677" lon="5.40971">
        <ele>1257.6</ele>
        <time>2019-08-25T13:50:24Z</time>
      </trkpt>
      <trkpt lat="44.84682" lon="5.40975">
        <ele>1257.27</ele>
        <time>2019-08-25T13:50:25Z</time>
      </trkpt>
      <trkpt lat="44.84688" lon="5.40978">
        <ele>1256.94</ele>
        <time>2019-08-25T13:50:26Z</time>
      </trkpt>
      <trkpt lat="44.84699" lon="5.40987">
        <ele>1256.37</ele>
        <time>2019-08-25T13:50:28Z</time>
      </trkpt>
      <trkpt lat="44.84733" lon="5.41019">
        <ele>1254.97</ele>
        <time>2019-08-25T13:50:32Z</time>
      </trkpt>
      <trkpt lat="44.84779" lon="5.41073">
        <ele>1252.85</ele>
        <time>2019-08-25T13:50:39Z</time>
      </trkpt>
      <trkpt lat="44.84785" lon="5.4108">
        <ele>1252.58</ele>
        <time>2019-08-25T13:50:40Z</time>
      </trkpt>
      <trkpt lat="44.84791" lon="5.41087">
        <ele>1252.35</ele>
        <time>2019-08-25T13:50:41Z</time>
      </trkpt>
      <trkpt lat="44.84836" lon="5.41129">
        <ele>1251.11</ele>
        <time>2019-08-25T13:50:47Z</time>
      </trkpt>
      <trkpt lat="44.84843" lon="5.41131">
        <ele>1250.94</ele>
        <time>2019-08-25T13:50:48Z</time>
      </trkpt>
      <trkpt lat="44.84851" lon="5.41134">
        <ele>1250.76</ele>
        <time>2019-08-25T13:50:49Z</time>
      </trkpt>
      <trkpt lat="44.84859" lon="5.41135">
        <ele>1250.55</ele>
        <time>2019-08-25T13:50:50Z</time>
      </trkpt>
      <trkpt lat="44.84867" lon="5.41135">
        <ele>1250.21</ele>
        <time>2019-08-25T13:50:51Z</time>
      </trkpt>
      <trkpt lat="44.84875" lon="5.41134">
        <ele>1250.21</ele>
        <time>2019-08-25T13:50:52Z</time>
      </trkpt>
      <trkpt lat="44.84883" lon="5.41131">
        <ele>1250</ele>
        <time>2019-08-25T13:50:53Z</time>
      </trkpt>
      <trkpt lat="44.84889" lon="5.41129">
        <ele>1249.93</ele>
        <time>2019-08-25T13:50:54Z</time>
      </trkpt>
      <trkpt lat="44.84926" lon="5.41122">
        <ele>1249.87</ele>
        <time>2019-08-25T13:50:59Z</time>
      </trkpt>
      <trkpt lat="44.84982" lon="5.41137">
        <ele>1250</ele>
        <time>2019-08-25T13:51:08Z</time>
      </trkpt>
      <trkpt lat="44.85015" lon="5.41158">
        <ele>1249.7</ele>
        <time>2019-08-25T13:51:14Z</time>
      </trkpt>
      <trkpt lat="44.85067" lon="5.41191">
        <ele>1248.95</ele>
        <time>2019-08-25T13:51:23Z</time>
      </trkpt>
      <trkpt lat="44.85072" lon="5.41193">
        <ele>1248.9</ele>
        <time>2019-08-25T13:51:24Z</time>
      </trkpt>
      <trkpt lat="44.85083" lon="5.41197">
        <ele>1248.83</ele>
        <time>2019-08-25T13:51:26Z</time>
      </trkpt>
      <trkpt lat="44.8515" lon="5.41222">
        <ele>1248.95</ele>
        <time>2019-08-25T13:51:38Z</time>
      </trkpt>
      <trkpt lat="44.85194" lon="5.41251">
        <ele>1248.95</ele>
        <time>2019-08-25T13:51:47Z</time>
      </trkpt>
      <trkpt lat="44.85199" lon="5.41255">
        <ele>1248.89</ele>
        <time>2019-08-25T13:51:48Z</time>
      </trkpt>
      <trkpt lat="44.85233" lon="5.41284">
        <ele>1248.42</ele>
        <time>2019-08-25T13:51:55Z</time>
      </trkpt>
      <trkpt lat="44.85238" lon="5.41288">
        <ele>1248.34</ele>
        <time>2019-08-25T13:51:56Z</time>
      </trkpt>
      <trkpt lat="44.85253" lon="5.41299">
        <ele>1248.13</ele>
        <time>2019-08-25T13:51:59Z</time>
      </trkpt>
      <trkpt lat="44.85304" lon="5.41331">
        <ele>1247.64</ele>
        <time>2019-08-25T13:52:09Z</time>
      </trkpt>
      <trkpt lat="44.85344" lon="5.41366">
        <ele>1247.27</ele>
        <time>2019-08-25T13:52:17Z</time>
      </trkpt>
      <trkpt lat="44.85385" lon="5.41391">
        <ele>1247.29</ele>
        <time>2019-08-25T13:52:25Z</time>
      </trkpt>
      <trkpt lat="44.85412" lon="5.41412">
        <ele>1247.32</ele>
        <time>2019-08-25T13:52:31Z</time>
      </trkpt>
      <trkpt lat="44.85416" lon="5.41415">
        <ele>1247.26</ele>
        <time>2019-08-25T13:52:32Z</time>
      </trkpt>
      <trkpt lat="44.85421" lon="5.41419">
        <ele>1247.22</ele>
        <time>2019-08-25T13:52:33Z</time>
      </trkpt>
      <trkpt lat="44.8546" lon="5.41449">
        <ele>1246.86</ele>
        <time>2019-08-25T13:52:41Z</time>
      </trkpt>
      <trkpt lat="44.85465" lon="5.41454">
        <ele>1246.8</ele>
        <time>2019-08-25T13:52:42Z</time>
      </trkpt>
      <trkpt lat="44.85469" lon="5.41458">
        <ele>1246.72</ele>
        <time>2019-08-25T13:52:43Z</time>
      </trkpt>
      <trkpt lat="44.85503" lon="5.41477">
        <ele>1246.52</ele>
        <time>2019-08-25T13:52:50Z</time>
      </trkpt>
      <trkpt lat="44.85521" lon="5.41494">
        <ele>1246.44</ele>
        <time>2019-08-25T13:52:54Z</time>
      </trkpt>
      <trkpt lat="44.85535" lon="5.41514">
        <ele>1246.32</ele>
        <time>2019-08-25T13:52:58Z</time>
      </trkpt>
      <trkpt lat="44.85562" lon="5.41555">
        <ele>1246.71</ele>
        <time>2019-08-25T13:53:06Z</time>
      </trkpt>
      <trkpt lat="44.85566" lon="5.4156">
        <ele>1246.78</ele>
        <time>2019-08-25T13:53:07Z</time>
      </trkpt>
      <trkpt lat="44.85582" lon="5.41577">
        <ele>1247.09</ele>
        <time>2019-08-25T13:53:11Z</time>
      </trkpt>
      <trkpt lat="44.85587" lon="5.41581">
        <ele>1247.17</ele>
        <time>2019-08-25T13:53:12Z</time>
      </trkpt>
      <trkpt lat="44.85592" lon="5.41583">
        <ele>1247.24</ele>
        <time>2019-08-25T13:53:13Z</time>
      </trkpt>
      <trkpt lat="44.85597" lon="5.41584">
        <ele>1247.28</ele>
        <time>2019-08-25T13:53:14Z</time>
      </trkpt>
      <trkpt lat="44.85603" lon="5.41584">
        <ele>1247.3</ele>
        <time>2019-08-25T13:53:15Z</time>
      </trkpt>
      <trkpt lat="44.85609" lon="5.41583">
        <ele>1247.32</ele>
        <time>2019-08-25T13:53:16Z</time>
      </trkpt>
      <trkpt lat="44.85615" lon="5.41582">
        <ele>1247.32</ele>
        <time>2019-08-25T13:53:17Z</time>
      </trkpt>
      <trkpt lat="44.85681" lon="5.41579">
        <ele>1247.11</ele>
        <time>2019-08-25T13:53:29Z</time>
      </trkpt>
      <trkpt lat="44.85678" lon="5.41582">
        <ele>1245.91</ele>
        <time>2019-08-25T13:53:44Z</time>
      </trkpt>
      <trkpt lat="44.8568" lon="5.41581">
        <ele>1245.97</ele>
        <time>2019-08-25T13:53:45Z</time>
      </trkpt>
      <trkpt lat="44.85682" lon="5.41579">
        <ele>1245.99</ele>
        <time>2019-08-25T13:53:46Z</time>
      </trkpt>
      <trkpt lat="44.85684" lon="5.41579">
        <ele>1246</ele>
        <time>2019-08-25T13:53:47Z</time>
      </trkpt>
      <trkpt lat="44.85686" lon="5.41578">
        <ele>1246.01</ele>
        <time>2019-08-25T13:53:48Z</time>
      </trkpt>
      <trkpt lat="44.85689" lon="5.41578">
        <ele>1246.01</ele>
        <time>2019-08-25T13:53:49Z</time>
      </trkpt>
      <trkpt lat="44.85691" lon="5.41578">
        <ele>1245.99</ele>
        <time>2019-08-25T13:53:50Z</time>
      </trkpt>
      <trkpt lat="44.85693" lon="5.41577">
        <ele>1245.96</ele>
        <time>2019-08-25T13:53:51Z</time>
      </trkpt>
      <trkpt lat="44.85706" lon="5.41579">
        <ele>1245.21</ele>
        <time>2019-08-25T13:54:02Z</time>
      </trkpt>
      <trkpt lat="44.85715" lon="5.41589">
        <ele>1244.36</ele>
        <time>2019-08-25T13:54:23Z</time>
      </trkpt>
      <trkpt lat="44.85717" lon="5.4159">
        <ele>1244.4</ele>
        <time>2019-08-25T13:54:24Z</time>
      </trkpt>
      <trkpt lat="44.85719" lon="5.41591">
        <ele>1244.43</ele>
        <time>2019-08-25T13:54:25Z</time>
      </trkpt>
      <trkpt lat="44.85751" lon="5.41607">
        <ele>1243.9</ele>
        <time>2019-08-25T13:54:36Z</time>
      </trkpt>
      <trkpt lat="44.85756" lon="5.41614">
        <ele>1243.92</ele>
        <time>2019-08-25T13:54:38Z</time>
      </trkpt>
      <trkpt lat="44.85759" lon="5.41619">
        <ele>1243.94</ele>
        <time>2019-08-25T13:54:39Z</time>
      </trkpt>
      <trkpt lat="44.85764" lon="5.41631">
        <ele>1244.01</ele>
        <time>2019-08-25T13:54:41Z</time>
      </trkpt>
      <trkpt lat="44.85767" lon="5.41635">
        <ele>1244.04</ele>
        <time>2019-08-25T13:54:42Z</time>
      </trkpt>
      <trkpt lat="44.8577" lon="5.41639">
        <ele>1244.06</ele>
        <time>2019-08-25T13:54:43Z</time>
      </trkpt>
      <trkpt lat="44.85772" lon="5.41644">
        <ele>1244.07</ele>
        <time>2019-08-25T13:54:44Z</time>
      </trkpt>
      <trkpt lat="44.85774" lon="5.41648">
        <ele>1244.07</ele>
        <time>2019-08-25T13:54:45Z</time>
      </trkpt>
      <trkpt lat="44.8578" lon="5.4169">
        <ele>1244.11</ele>
        <time>2019-08-25T13:54:55Z</time>
      </trkpt>
      <trkpt lat="44.85777" lon="5.41694">
        <ele>1244.09</ele>
        <time>2019-08-25T13:54:56Z</time>
      </trkpt>
      <trkpt lat="44.85762" lon="5.41708">
        <ele>1243.37</ele>
        <time>2019-08-25T13:55:00Z</time>
      </trkpt>
      <trkpt lat="44.85759" lon="5.41713">
        <ele>1243.2</ele>
        <time>2019-08-25T13:55:01Z</time>
      </trkpt>
      <trkpt lat="44.85757" lon="5.41729">
        <ele>1242.82</ele>
        <time>2019-08-25T13:55:03Z</time>
      </trkpt>
      <trkpt lat="44.85758" lon="5.41737">
        <ele>1242.64</ele>
        <time>2019-08-25T13:55:04Z</time>
      </trkpt>
      <trkpt lat="44.85761" lon="5.41744">
        <ele>1242.47</ele>
        <time>2019-08-25T13:55:05Z</time>
      </trkpt>
      <trkpt lat="44.85764" lon="5.4175">
        <ele>1242.32</ele>
        <time>2019-08-25T13:55:06Z</time>
      </trkpt>
      <trkpt lat="44.85767" lon="5.41758">
        <ele>1242.19</ele>
        <time>2019-08-25T13:55:07Z</time>
      </trkpt>
      <trkpt lat="44.85771" lon="5.41766">
        <ele>1242.06</ele>
        <time>2019-08-25T13:55:08Z</time>
      </trkpt>
      <trkpt lat="44.85772" lon="5.41774">
        <ele>1241.89</ele>
        <time>2019-08-25T13:55:09Z</time>
      </trkpt>
      <trkpt lat="44.85772" lon="5.4178">
        <ele>1241.7</ele>
        <time>2019-08-25T13:55:10Z</time>
      </trkpt>
      <trkpt lat="44.85771" lon="5.41786">
        <ele>1241.49</ele>
        <time>2019-08-25T13:55:11Z</time>
      </trkpt>
      <trkpt lat="44.85768" lon="5.41792">
        <ele>1241.22</ele>
        <time>2019-08-25T13:55:12Z</time>
      </trkpt>
      <trkpt lat="44.85765" lon="5.41798">
        <ele>1240.91</ele>
        <time>2019-08-25T13:55:13Z</time>
      </trkpt>
      <trkpt lat="44.85762" lon="5.41804">
        <ele>1240.62</ele>
        <time>2019-08-25T13:55:14Z</time>
      </trkpt>
      <trkpt lat="44.85759" lon="5.4181">
        <ele>1240.35</ele>
        <time>2019-08-25T13:55:15Z</time>
      </trkpt>
      <trkpt lat="44.85757" lon="5.41816">
        <ele>1240.11</ele>
        <time>2019-08-25T13:55:16Z</time>
      </trkpt>
      <trkpt lat="44.85756" lon="5.41822">
        <ele>1239.9</ele>
        <time>2019-08-25T13:55:17Z</time>
      </trkpt>
      <trkpt lat="44.85754" lon="5.41829">
        <ele>1239.73</ele>
        <time>2019-08-25T13:55:18Z</time>
      </trkpt>
      <trkpt lat="44.85753" lon="5.41842">
        <ele>1239.41</ele>
        <time>2019-08-25T13:55:20Z</time>
      </trkpt>
      <trkpt lat="44.85754" lon="5.41858">
        <ele>1239.05</ele>
        <time>2019-08-25T13:55:22Z</time>
      </trkpt>
      <trkpt lat="44.85754" lon="5.41866">
        <ele>1238.77</ele>
        <time>2019-08-25T13:55:23Z</time>
      </trkpt>
      <trkpt lat="44.85754" lon="5.41881">
        <ele>1238.5</ele>
        <time>2019-08-25T13:55:25Z</time>
      </trkpt>
      <trkpt lat="44.85753" lon="5.41888">
        <ele>1238.36</ele>
        <time>2019-08-25T13:55:26Z</time>
      </trkpt>
      <trkpt lat="44.85752" lon="5.41895">
        <ele>1238.17</ele>
        <time>2019-08-25T13:55:27Z</time>
      </trkpt>
      <trkpt lat="44.85752" lon="5.41902">
        <ele>1237.94</ele>
        <time>2019-08-25T13:55:28Z</time>
      </trkpt>
      <trkpt lat="44.85749" lon="5.41909">
        <ele>1237.7</ele>
        <time>2019-08-25T13:55:29Z</time>
      </trkpt>
      <trkpt lat="44.85747" lon="5.41917">
        <ele>1237.51</ele>
        <time>2019-08-25T13:55:30Z</time>
      </trkpt>
      <trkpt lat="44.85743" lon="5.41924">
        <ele>1237.34</ele>
        <time>2019-08-25T13:55:31Z</time>
      </trkpt>
      <trkpt lat="44.8574" lon="5.41931">
        <ele>1237.19</ele>
        <time>2019-08-25T13:55:32Z</time>
      </trkpt>
      <trkpt lat="44.85735" lon="5.41937">
        <ele>1237.02</ele>
        <time>2019-08-25T13:55:33Z</time>
      </trkpt>
      <trkpt lat="44.85731" lon="5.41942">
        <ele>1236.82</ele>
        <time>2019-08-25T13:55:34Z</time>
      </trkpt>
      <trkpt lat="44.85726" lon="5.41947">
        <ele>1236.61</ele>
        <time>2019-08-25T13:55:35Z</time>
      </trkpt>
      <trkpt lat="44.85713" lon="5.4196">
        <ele>1236.02</ele>
        <time>2019-08-25T13:55:38Z</time>
      </trkpt>
      <trkpt lat="44.85708" lon="5.41966">
        <ele>1235.82</ele>
        <time>2019-08-25T13:55:39Z</time>
      </trkpt>
      <trkpt lat="44.85702" lon="5.41969">
        <ele>1235.63</ele>
        <time>2019-08-25T13:55:40Z</time>
      </trkpt>
      <trkpt lat="44.85688" lon="5.41979">
        <ele>1235.22</ele>
        <time>2019-08-25T13:55:43Z</time>
      </trkpt>
      <trkpt lat="44.8565" lon="5.41993">
        <ele>1234.3</ele>
        <time>2019-08-25T13:55:50Z</time>
      </trkpt>
      <trkpt lat="44.85621" lon="5.42009">
        <ele>1233.4</ele>
        <time>2019-08-25T13:55:55Z</time>
      </trkpt>
      <trkpt lat="44.85615" lon="5.4201">
        <ele>1233.22</ele>
        <time>2019-08-25T13:55:56Z</time>
      </trkpt>
      <trkpt lat="44.85608" lon="5.42011">
        <ele>1233.02</ele>
        <time>2019-08-25T13:55:57Z</time>
      </trkpt>
      <trkpt lat="44.85575" lon="5.4202">
        <ele>1231.83</ele>
        <time>2019-08-25T13:56:03Z</time>
      </trkpt>
      <trkpt lat="44.85549" lon="5.42028">
        <ele>1230.85</ele>
        <time>2019-08-25T13:56:08Z</time>
      </trkpt>
      <trkpt lat="44.85544" lon="5.42029">
        <ele>1230.64</ele>
        <time>2019-08-25T13:56:09Z</time>
      </trkpt>
      <trkpt lat="44.85539" lon="5.42029">
        <ele>1230.43</ele>
        <time>2019-08-25T13:56:10Z</time>
      </trkpt>
      <trkpt lat="44.85534" lon="5.42028">
        <ele>1230.24</ele>
        <time>2019-08-25T13:56:11Z</time>
      </trkpt>
      <trkpt lat="44.85529" lon="5.42027">
        <ele>1230.06</ele>
        <time>2019-08-25T13:56:12Z</time>
      </trkpt>
      <trkpt lat="44.85524" lon="5.42027">
        <ele>1229.9</ele>
        <time>2019-08-25T13:56:13Z</time>
      </trkpt>
      <trkpt lat="44.85518" lon="5.42027">
        <ele>1229.75</ele>
        <time>2019-08-25T13:56:14Z</time>
      </trkpt>
      <trkpt lat="44.85513" lon="5.42028">
        <ele>1229.63</ele>
        <time>2019-08-25T13:56:15Z</time>
      </trkpt>
      <trkpt lat="44.85508" lon="5.42029">
        <ele>1229.55</ele>
        <time>2019-08-25T13:56:16Z</time>
      </trkpt>
      <trkpt lat="44.85503" lon="5.42032">
        <ele>1229.47</ele>
        <time>2019-08-25T13:56:17Z</time>
      </trkpt>
      <trkpt lat="44.85498" lon="5.42035">
        <ele>1229.4</ele>
        <time>2019-08-25T13:56:18Z</time>
      </trkpt>
      <trkpt lat="44.85494" lon="5.42039">
        <ele>1229.19</ele>
        <time>2019-08-25T13:56:19Z</time>
      </trkpt>
      <trkpt lat="44.85489" lon="5.42043">
        <ele>1229.12</ele>
        <time>2019-08-25T13:56:20Z</time>
      </trkpt>
      <trkpt lat="44.85484" lon="5.42047">
        <ele>1229.02</ele>
        <time>2019-08-25T13:56:21Z</time>
      </trkpt>
      <trkpt lat="44.85479" lon="5.42049">
        <ele>1228.93</ele>
        <time>2019-08-25T13:56:22Z</time>
      </trkpt>
      <trkpt lat="44.85464" lon="5.4206">
        <ele>1228.66</ele>
        <time>2019-08-25T13:56:25Z</time>
      </trkpt>
      <trkpt lat="44.85458" lon="5.42064">
        <ele>1228.58</ele>
        <time>2019-08-25T13:56:26Z</time>
      </trkpt>
      <trkpt lat="44.85431" lon="5.42081">
        <ele>1228.16</ele>
        <time>2019-08-25T13:56:31Z</time>
      </trkpt>
      <trkpt lat="44.85414" lon="5.42096">
        <ele>1227.72</ele>
        <time>2019-08-25T13:56:34Z</time>
      </trkpt>
      <trkpt lat="44.85407" lon="5.42104">
        <ele>1227.5</ele>
        <time>2019-08-25T13:56:35Z</time>
      </trkpt>
      <trkpt lat="44.85395" lon="5.42119">
        <ele>1226.98</ele>
        <time>2019-08-25T13:56:37Z</time>
      </trkpt>
      <trkpt lat="44.85386" lon="5.42126">
        <ele>1226.68</ele>
        <time>2019-08-25T13:56:38Z</time>
      </trkpt>
      <trkpt lat="44.85369" lon="5.42141">
        <ele>1226</ele>
        <time>2019-08-25T13:56:40Z</time>
      </trkpt>
      <trkpt lat="44.85338" lon="5.42166">
        <ele>1223.08</ele>
        <time>2019-08-25T13:56:44Z</time>
      </trkpt>
      <trkpt lat="44.85331" lon="5.42173">
        <ele>1222.44</ele>
        <time>2019-08-25T13:56:45Z</time>
      </trkpt>
      <trkpt lat="44.85294" lon="5.42216">
        <ele>1219.43</ele>
        <time>2019-08-25T13:56:50Z</time>
      </trkpt>
      <trkpt lat="44.85278" lon="5.42235">
        <ele>1216.33</ele>
        <time>2019-08-25T13:56:54Z</time>
      </trkpt>
      <trkpt lat="44.85273" lon="5.42243">
        <ele>1213.32</ele>
        <time>2019-08-25T13:56:58Z</time>
      </trkpt>
      <trkpt lat="44.85268" lon="5.42241">
        <ele>1210.28</ele>
        <time>2019-08-25T13:57:13Z</time>
      </trkpt>
      <trkpt lat="44.8527" lon="5.42245">
        <ele>1210.34</ele>
        <time>2019-08-25T13:57:22Z</time>
      </trkpt>
      <trkpt lat="44.85271" lon="5.42248">
        <ele>1210.41</ele>
        <time>2019-08-25T13:57:23Z</time>
      </trkpt>
      <trkpt lat="44.85272" lon="5.42255">
        <ele>1210.52</ele>
        <time>2019-08-25T13:57:25Z</time>
      </trkpt>
      <trkpt lat="44.85273" lon="5.42258">
        <ele>1210.56</ele>
        <time>2019-08-25T13:57:26Z</time>
      </trkpt>
      <trkpt lat="44.85275" lon="5.42262">
        <ele>1210.58</ele>
        <time>2019-08-25T13:57:27Z</time>
      </trkpt>
      <trkpt lat="44.85276" lon="5.42265">
        <ele>1210.57</ele>
        <time>2019-08-25T13:57:28Z</time>
      </trkpt>
      <trkpt lat="44.85279" lon="5.42268">
        <ele>1210.53</ele>
        <time>2019-08-25T13:57:29Z</time>
      </trkpt>
      <trkpt lat="44.85286" lon="5.42274">
        <ele>1210.35</ele>
        <time>2019-08-25T13:57:31Z</time>
      </trkpt>
      <trkpt lat="44.8529" lon="5.42276">
        <ele>1210.24</ele>
        <time>2019-08-25T13:57:32Z</time>
      </trkpt>
      <trkpt lat="44.85293" lon="5.42276">
        <ele>1210.01</ele>
        <time>2019-08-25T13:57:33Z</time>
      </trkpt>
      <trkpt lat="44.85296" lon="5.42275">
        <ele>1209.85</ele>
        <time>2019-08-25T13:57:34Z</time>
      </trkpt>
      <trkpt lat="44.85299" lon="5.42272">
        <ele>1209.68</ele>
        <time>2019-08-25T13:57:35Z</time>
      </trkpt>
      <trkpt lat="44.85303" lon="5.42269">
        <ele>1209.52</ele>
        <time>2019-08-25T13:57:36Z</time>
      </trkpt>
      <trkpt lat="44.85312" lon="5.42264">
        <ele>1209.24</ele>
        <time>2019-08-25T13:57:38Z</time>
      </trkpt>
      <trkpt lat="44.85326" lon="5.42255">
        <ele>1208.7</ele>
        <time>2019-08-25T13:57:41Z</time>
      </trkpt>
      <trkpt lat="44.8533" lon="5.42254">
        <ele>1208.52</ele>
        <time>2019-08-25T13:57:42Z</time>
      </trkpt>
      <trkpt lat="44.85339" lon="5.42252">
        <ele>1208.18</ele>
        <time>2019-08-25T13:57:44Z</time>
      </trkpt>
      <trkpt lat="44.85343" lon="5.42253">
        <ele>1207.97</ele>
        <time>2019-08-25T13:57:45Z</time>
      </trkpt>
      <trkpt lat="44.85347" lon="5.42256">
        <ele>1207.78</ele>
        <time>2019-08-25T13:57:46Z</time>
      </trkpt>
      <trkpt lat="44.85351" lon="5.42262">
        <ele>1207.6</ele>
        <time>2019-08-25T13:57:47Z</time>
      </trkpt>
      <trkpt lat="44.85354" lon="5.42269">
        <ele>1207.43</ele>
        <time>2019-08-25T13:57:48Z</time>
      </trkpt>
      <trkpt lat="44.85356" lon="5.42277">
        <ele>1207.28</ele>
        <time>2019-08-25T13:57:49Z</time>
      </trkpt>
      <trkpt lat="44.85368" lon="5.42305">
        <ele>1206.47</ele>
        <time>2019-08-25T13:57:53Z</time>
      </trkpt>
      <trkpt lat="44.85377" lon="5.42304">
        <ele>1205.88</ele>
        <time>2019-08-25T13:57:54Z</time>
      </trkpt>
      <trkpt lat="44.85384" lon="5.42302">
        <ele>1205.55</ele>
        <time>2019-08-25T13:57:55Z</time>
      </trkpt>
      <trkpt lat="44.85391" lon="5.42302">
        <ele>1205.55</ele>
        <time>2019-08-25T13:57:56Z</time>
      </trkpt>
      <trkpt lat="44.85398" lon="5.42302">
        <ele>1204.89</ele>
        <time>2019-08-25T13:57:57Z</time>
      </trkpt>
      <trkpt lat="44.85441" lon="5.42298">
        <ele>1201.83</ele>
        <time>2019-08-25T13:58:04Z</time>
      </trkpt>
      <trkpt lat="44.85448" lon="5.42298">
        <ele>1201.36</ele>
        <time>2019-08-25T13:58:05Z</time>
      </trkpt>
      <trkpt lat="44.85455" lon="5.42299">
        <ele>1200.86</ele>
        <time>2019-08-25T13:58:06Z</time>
      </trkpt>
      <trkpt lat="44.85469" lon="5.42302">
        <ele>1199.66</ele>
        <time>2019-08-25T13:58:08Z</time>
      </trkpt>
      <trkpt lat="44.85475" lon="5.42304">
        <ele>1199.06</ele>
        <time>2019-08-25T13:58:09Z</time>
      </trkpt>
      <trkpt lat="44.85482" lon="5.42308">
        <ele>1198.48</ele>
        <time>2019-08-25T13:58:10Z</time>
      </trkpt>
      <trkpt lat="44.85486" lon="5.42311">
        <ele>1197.88</ele>
        <time>2019-08-25T13:58:11Z</time>
      </trkpt>
      <trkpt lat="44.85491" lon="5.42316">
        <ele>1197.28</ele>
        <time>2019-08-25T13:58:12Z</time>
      </trkpt>
      <trkpt lat="44.85496" lon="5.42322">
        <ele>1196.68</ele>
        <time>2019-08-25T13:58:13Z</time>
      </trkpt>
      <trkpt lat="44.85501" lon="5.42327">
        <ele>1196.1</ele>
        <time>2019-08-25T13:58:14Z</time>
      </trkpt>
      <trkpt lat="44.85506" lon="5.42331">
        <ele>1195.54</ele>
        <time>2019-08-25T13:58:15Z</time>
      </trkpt>
      <trkpt lat="44.8551" lon="5.42335">
        <ele>1195</ele>
        <time>2019-08-25T13:58:16Z</time>
      </trkpt>
      <trkpt lat="44.85514" lon="5.42339">
        <ele>1194.5</ele>
        <time>2019-08-25T13:58:17Z</time>
      </trkpt>
      <trkpt lat="44.85521" lon="5.42348">
        <ele>1193.37</ele>
        <time>2019-08-25T13:58:19Z</time>
      </trkpt>
      <trkpt lat="44.85524" lon="5.42354">
        <ele>1192.82</ele>
        <time>2019-08-25T13:58:20Z</time>
      </trkpt>
      <trkpt lat="44.8554" lon="5.42367">
        <ele>1190.55</ele>
        <time>2019-08-25T13:58:24Z</time>
      </trkpt>
      <trkpt lat="44.85545" lon="5.42369">
        <ele>1190.05</ele>
        <time>2019-08-25T13:58:25Z</time>
      </trkpt>
      <trkpt lat="44.8555" lon="5.42372">
        <ele>1189.56</ele>
        <time>2019-08-25T13:58:26Z</time>
      </trkpt>
      <trkpt lat="44.85554" lon="5.42376">
        <ele>1188.52</ele>
        <time>2019-08-25T13:58:27Z</time>
      </trkpt>
      <trkpt lat="44.85559" lon="5.42382">
        <ele>1188</ele>
        <time>2019-08-25T13:58:28Z</time>
      </trkpt>
      <trkpt lat="44.85564" lon="5.42389">
        <ele>1187.52</ele>
        <time>2019-08-25T13:58:29Z</time>
      </trkpt>
      <trkpt lat="44.8557" lon="5.42396">
        <ele>1187.05</ele>
        <time>2019-08-25T13:58:30Z</time>
      </trkpt>
      <trkpt lat="44.85575" lon="5.42402">
        <ele>1186.58</ele>
        <time>2019-08-25T13:58:31Z</time>
      </trkpt>
      <trkpt lat="44.8558" lon="5.42408">
        <ele>1186.11</ele>
        <time>2019-08-25T13:58:32Z</time>
      </trkpt>
      <trkpt lat="44.85585" lon="5.42415">
        <ele>1185.66</ele>
        <time>2019-08-25T13:58:33Z</time>
      </trkpt>
      <trkpt lat="44.85591" lon="5.42423">
        <ele>1185.25</ele>
        <time>2019-08-25T13:58:34Z</time>
      </trkpt>
      <trkpt lat="44.85598" lon="5.42432">
        <ele>1184.92</ele>
        <time>2019-08-25T13:58:35Z</time>
      </trkpt>
      <trkpt lat="44.85604" lon="5.42441">
        <ele>1184.61</ele>
        <time>2019-08-25T13:58:36Z</time>
      </trkpt>
      <trkpt lat="44.85607" lon="5.42447">
        <ele>1184.31</ele>
        <time>2019-08-25T13:58:37Z</time>
      </trkpt>
      <trkpt lat="44.8561" lon="5.42457">
        <ele>1184.02</ele>
        <time>2019-08-25T13:58:38Z</time>
      </trkpt>
      <trkpt lat="44.85611" lon="5.42465">
        <ele>1183.75</ele>
        <time>2019-08-25T13:58:39Z</time>
      </trkpt>
      <trkpt lat="44.85613" lon="5.42472">
        <ele>1183.51</ele>
        <time>2019-08-25T13:58:40Z</time>
      </trkpt>
      <trkpt lat="44.85618" lon="5.42494">
        <ele>1182.79</ele>
        <time>2019-08-25T13:58:43Z</time>
      </trkpt>
      <trkpt lat="44.85619" lon="5.425">
        <ele>1182.52</ele>
        <time>2019-08-25T13:58:44Z</time>
      </trkpt>
      <trkpt lat="44.85619" lon="5.42505">
        <ele>1182.26</ele>
        <time>2019-08-25T13:58:45Z</time>
      </trkpt>
      <trkpt lat="44.85619" lon="5.42512">
        <ele>1182.04</ele>
        <time>2019-08-25T13:58:46Z</time>
      </trkpt>
      <trkpt lat="44.8562" lon="5.42519">
        <ele>1181.86</ele>
        <time>2019-08-25T13:58:47Z</time>
      </trkpt>
      <trkpt lat="44.85618" lon="5.42536">
        <ele>1181.57</ele>
        <time>2019-08-25T13:58:49Z</time>
      </trkpt>
      <trkpt lat="44.85617" lon="5.42545">
        <ele>1181.42</ele>
        <time>2019-08-25T13:58:50Z</time>
      </trkpt>
      <trkpt lat="44.85612" lon="5.42569">
        <ele>1180.64</ele>
        <time>2019-08-25T13:58:53Z</time>
      </trkpt>
      <trkpt lat="44.85608" lon="5.42577">
        <ele>1180.22</ele>
        <time>2019-08-25T13:58:54Z</time>
      </trkpt>
      <trkpt lat="44.85604" lon="5.42585">
        <ele>1179.79</ele>
        <time>2019-08-25T13:58:55Z</time>
      </trkpt>
      <trkpt lat="44.85593" lon="5.4261">
        <ele>1178.03</ele>
        <time>2019-08-25T13:58:58Z</time>
      </trkpt>
      <trkpt lat="44.85591" lon="5.42619">
        <ele>1177.65</ele>
        <time>2019-08-25T13:58:59Z</time>
      </trkpt>
      <trkpt lat="44.85591" lon="5.4263">
        <ele>1177.28</ele>
        <time>2019-08-25T13:59:00Z</time>
      </trkpt>
      <trkpt lat="44.85595" lon="5.42702">
        <ele>1174.57</ele>
        <time>2019-08-25T13:59:06Z</time>
      </trkpt>
      <trkpt lat="44.85603" lon="5.42773">
        <ele>1171.07</ele>
        <time>2019-08-25T13:59:12Z</time>
      </trkpt>
      <trkpt lat="44.85606" lon="5.42792">
        <ele>1169.57</ele>
        <time>2019-08-25T13:59:14Z</time>
      </trkpt>
      <trkpt lat="44.85607" lon="5.42809">
        <ele>1168.09</ele>
        <time>2019-08-25T13:59:16Z</time>
      </trkpt>
      <trkpt lat="44.85607" lon="5.42818">
        <ele>1167.39</ele>
        <time>2019-08-25T13:59:17Z</time>
      </trkpt>
      <trkpt lat="44.85606" lon="5.42866">
        <ele>1163.95</ele>
        <time>2019-08-25T13:59:22Z</time>
      </trkpt>
      <trkpt lat="44.85602" lon="5.42886">
        <ele>1162.78</ele>
        <time>2019-08-25T13:59:24Z</time>
      </trkpt>
      <trkpt lat="44.85598" lon="5.42906">
        <ele>1161.56</ele>
        <time>2019-08-25T13:59:26Z</time>
      </trkpt>
      <trkpt lat="44.85582" lon="5.4295">
        <ele>1159.06</ele>
        <time>2019-08-25T13:59:31Z</time>
      </trkpt>
      <trkpt lat="44.8558" lon="5.42958">
        <ele>1158.51</ele>
        <time>2019-08-25T13:59:32Z</time>
      </trkpt>
      <trkpt lat="44.85577" lon="5.42968">
        <ele>1157.98</ele>
        <time>2019-08-25T13:59:33Z</time>
      </trkpt>
      <trkpt lat="44.85552" lon="5.43028">
        <ele>1154.47</ele>
        <time>2019-08-25T13:59:40Z</time>
      </trkpt>
      <trkpt lat="44.8555" lon="5.43043">
        <ele>1153.16</ele>
        <time>2019-08-25T13:59:42Z</time>
      </trkpt>
      <trkpt lat="44.85551" lon="5.43048">
        <ele>1152.43</ele>
        <time>2019-08-25T13:59:43Z</time>
      </trkpt>
      <trkpt lat="44.8555" lon="5.43054">
        <ele>1151.11</ele>
        <time>2019-08-25T13:59:44Z</time>
      </trkpt>
      <trkpt lat="44.85551" lon="5.43055">
        <ele>1150.52</ele>
        <time>2019-08-25T13:59:45Z</time>
      </trkpt>
      <trkpt lat="44.8555" lon="5.43057">
        <ele>1149.94</ele>
        <time>2019-08-25T13:59:46Z</time>
      </trkpt>
      <trkpt lat="44.85552" lon="5.4306">
        <ele>1148.27</ele>
        <time>2019-08-25T13:59:50Z</time>
      </trkpt>
      <trkpt lat="44.85551" lon="5.43059">
        <ele>1147.06</ele>
        <time>2019-08-25T14:00:03Z</time>
      </trkpt>
      <trkpt lat="44.85556" lon="5.43058">
        <ele>1146.33</ele>
        <time>2019-08-25T14:00:25Z</time>
      </trkpt>
      <trkpt lat="44.8556" lon="5.43055">
        <ele>1146.19</ele>
        <time>2019-08-25T14:00:30Z</time>
      </trkpt>
      <trkpt lat="44.85562" lon="5.43052">
        <ele>1146.13</ele>
        <time>2019-08-25T14:00:31Z</time>
      </trkpt>
      <trkpt lat="44.85563" lon="5.43047">
        <ele>1146.07</ele>
        <time>2019-08-25T14:00:32Z</time>
      </trkpt>
      <trkpt lat="44.85564" lon="5.43042">
        <ele>1145.9</ele>
        <time>2019-08-25T14:00:33Z</time>
      </trkpt>
      <trkpt lat="44.85564" lon="5.43035">
        <ele>1145.9</ele>
        <time>2019-08-25T14:00:34Z</time>
      </trkpt>
      <trkpt lat="44.85568" lon="5.4303">
        <ele>1145.58</ele>
        <time>2019-08-25T14:00:35Z</time>
      </trkpt>
      <trkpt lat="44.85588" lon="5.42998">
        <ele>1144.36</ele>
        <time>2019-08-25T14:00:40Z</time>
      </trkpt>
      <trkpt lat="44.85593" lon="5.4299">
        <ele>1144.08</ele>
        <time>2019-08-25T14:00:41Z</time>
      </trkpt>
      <trkpt lat="44.85596" lon="5.42983">
        <ele>1143.77</ele>
        <time>2019-08-25T14:00:42Z</time>
      </trkpt>
      <trkpt lat="44.85606" lon="5.42967">
        <ele>1142.93</ele>
        <time>2019-08-25T14:00:44Z</time>
      </trkpt>
      <trkpt lat="44.85612" lon="5.4296">
        <ele>1142.44</ele>
        <time>2019-08-25T14:00:45Z</time>
      </trkpt>
      <trkpt lat="44.85623" lon="5.42947">
        <ele>1141.45</ele>
        <time>2019-08-25T14:00:47Z</time>
      </trkpt>
      <trkpt lat="44.85628" lon="5.42939">
        <ele>1140.96</ele>
        <time>2019-08-25T14:00:48Z</time>
      </trkpt>
      <trkpt lat="44.85631" lon="5.42931">
        <ele>1140.47</ele>
        <time>2019-08-25T14:00:49Z</time>
      </trkpt>
      <trkpt lat="44.85636" lon="5.42918">
        <ele>1139.3</ele>
        <time>2019-08-25T14:00:51Z</time>
      </trkpt>
      <trkpt lat="44.85654" lon="5.42862">
        <ele>1135.39</ele>
        <time>2019-08-25T14:00:57Z</time>
      </trkpt>
      <trkpt lat="44.85657" lon="5.42851">
        <ele>1135.39</ele>
        <time>2019-08-25T14:00:58Z</time>
      </trkpt>
      <trkpt lat="44.85661" lon="5.42842">
        <ele>1134.3</ele>
        <time>2019-08-25T14:00:59Z</time>
      </trkpt>
      <trkpt lat="44.85662" lon="5.42832">
        <ele>1133.66</ele>
        <time>2019-08-25T14:01:00Z</time>
      </trkpt>
      <trkpt lat="44.8567" lon="5.42806">
        <ele>1131.63</ele>
        <time>2019-08-25T14:01:03Z</time>
      </trkpt>
      <trkpt lat="44.85673" lon="5.42798">
        <ele>1130.96</ele>
        <time>2019-08-25T14:01:04Z</time>
      </trkpt>
      <trkpt lat="44.85675" lon="5.42789">
        <ele>1130.28</ele>
        <time>2019-08-25T14:01:05Z</time>
      </trkpt>
      <trkpt lat="44.85678" lon="5.42779">
        <ele>1129.57</ele>
        <time>2019-08-25T14:01:06Z</time>
      </trkpt>
      <trkpt lat="44.85682" lon="5.4277">
        <ele>1128.86</ele>
        <time>2019-08-25T14:01:07Z</time>
      </trkpt>
      <trkpt lat="44.85684" lon="5.42761">
        <ele>1128.19</ele>
        <time>2019-08-25T14:01:08Z</time>
      </trkpt>
      <trkpt lat="44.85686" lon="5.42753">
        <ele>1127.56</ele>
        <time>2019-08-25T14:01:09Z</time>
      </trkpt>
      <trkpt lat="44.857" lon="5.42707">
        <ele>1124.49</ele>
        <time>2019-08-25T14:01:14Z</time>
      </trkpt>
      <trkpt lat="44.8571" lon="5.42672">
        <ele>1121.93</ele>
        <time>2019-08-25T14:01:18Z</time>
      </trkpt>
      <trkpt lat="44.8571" lon="5.42662">
        <ele>1121.25</ele>
        <time>2019-08-25T14:01:19Z</time>
      </trkpt>
      <trkpt lat="44.85712" lon="5.42653">
        <ele>1120.55</ele>
        <time>2019-08-25T14:01:20Z</time>
      </trkpt>
      <trkpt lat="44.85714" lon="5.42635">
        <ele>1119.16</ele>
        <time>2019-08-25T14:01:22Z</time>
      </trkpt>
      <trkpt lat="44.85713" lon="5.42626">
        <ele>1118.49</ele>
        <time>2019-08-25T14:01:23Z</time>
      </trkpt>
      <trkpt lat="44.85712" lon="5.42616">
        <ele>1117.86</ele>
        <time>2019-08-25T14:01:24Z</time>
      </trkpt>
      <trkpt lat="44.85713" lon="5.42584">
        <ele>1115.79</ele>
        <time>2019-08-25T14:01:27Z</time>
      </trkpt>
      <trkpt lat="44.85712" lon="5.42528">
        <ele>1112.43</ele>
        <time>2019-08-25T14:01:32Z</time>
      </trkpt>
      <trkpt lat="44.85709" lon="5.42498">
        <ele>1110.52</ele>
        <time>2019-08-25T14:01:35Z</time>
      </trkpt>
      <trkpt lat="44.8571" lon="5.4249">
        <ele>1109.81</ele>
        <time>2019-08-25T14:01:36Z</time>
      </trkpt>
      <trkpt lat="44.8571" lon="5.42482">
        <ele>1109.06</ele>
        <time>2019-08-25T14:01:37Z</time>
      </trkpt>
      <trkpt lat="44.85707" lon="5.42471">
        <ele>1108.35</ele>
        <time>2019-08-25T14:01:38Z</time>
      </trkpt>
      <trkpt lat="44.85705" lon="5.42463">
        <ele>1107.66</ele>
        <time>2019-08-25T14:01:39Z</time>
      </trkpt>
      <trkpt lat="44.85699" lon="5.42437">
        <ele>1105.35</ele>
        <time>2019-08-25T14:01:42Z</time>
      </trkpt>
      <trkpt lat="44.85697" lon="5.4242">
        <ele>1103.65</ele>
        <time>2019-08-25T14:01:44Z</time>
      </trkpt>
      <trkpt lat="44.85693" lon="5.42401">
        <ele>1102.09</ele>
        <time>2019-08-25T14:01:46Z</time>
      </trkpt>
      <trkpt lat="44.85691" lon="5.42385">
        <ele>1100.68</ele>
        <time>2019-08-25T14:01:48Z</time>
      </trkpt>
      <trkpt lat="44.85691" lon="5.42378">
        <ele>1100</ele>
        <time>2019-08-25T14:01:49Z</time>
      </trkpt>
      <trkpt lat="44.8569" lon="5.42371">
        <ele>1098.61</ele>
        <time>2019-08-25T14:01:50Z</time>
      </trkpt>
      <trkpt lat="44.85689" lon="5.42364">
        <ele>1097.89</ele>
        <time>2019-08-25T14:01:51Z</time>
      </trkpt>
      <trkpt lat="44.8569" lon="5.42357">
        <ele>1097.18</ele>
        <time>2019-08-25T14:01:52Z</time>
      </trkpt>
      <trkpt lat="44.8569" lon="5.42347">
        <ele>1096.52</ele>
        <time>2019-08-25T14:01:53Z</time>
      </trkpt>
      <trkpt lat="44.85693" lon="5.42339">
        <ele>1095.91</ele>
        <time>2019-08-25T14:01:54Z</time>
      </trkpt>
      <trkpt lat="44.85695" lon="5.42331">
        <ele>1095.33</ele>
        <time>2019-08-25T14:01:55Z</time>
      </trkpt>
      <trkpt lat="44.857" lon="5.42324">
        <ele>1094.79</ele>
        <time>2019-08-25T14:01:56Z</time>
      </trkpt>
      <trkpt lat="44.857" lon="5.42317">
        <ele>1094.25</ele>
        <time>2019-08-25T14:01:57Z</time>
      </trkpt>
      <trkpt lat="44.857" lon="5.42309">
        <ele>1093.7</ele>
        <time>2019-08-25T14:01:58Z</time>
      </trkpt>
      <trkpt lat="44.857" lon="5.42301">
        <ele>1093.19</ele>
        <time>2019-08-25T14:01:59Z</time>
      </trkpt>
      <trkpt lat="44.85699" lon="5.42295">
        <ele>1092.68</ele>
        <time>2019-08-25T14:02:00Z</time>
      </trkpt>
      <trkpt lat="44.85698" lon="5.4229">
        <ele>1092.13</ele>
        <time>2019-08-25T14:02:01Z</time>
      </trkpt>
      <trkpt lat="44.85699" lon="5.42286">
        <ele>1091.58</ele>
        <time>2019-08-25T14:02:02Z</time>
      </trkpt>
      <trkpt lat="44.857" lon="5.42282">
        <ele>1091.05</ele>
        <time>2019-08-25T14:02:03Z</time>
      </trkpt>
      <trkpt lat="44.85702" lon="5.42279">
        <ele>1090.57</ele>
        <time>2019-08-25T14:02:04Z</time>
      </trkpt>
      <trkpt lat="44.85704" lon="5.42277">
        <ele>1090.14</ele>
        <time>2019-08-25T14:02:05Z</time>
      </trkpt>
      <trkpt lat="44.85707" lon="5.42276">
        <ele>1089.76</ele>
        <time>2019-08-25T14:02:06Z</time>
      </trkpt>
      <trkpt lat="44.85711" lon="5.42276">
        <ele>1089.42</ele>
        <time>2019-08-25T14:02:07Z</time>
      </trkpt>
      <trkpt lat="44.85717" lon="5.42276">
        <ele>1089.08</ele>
        <time>2019-08-25T14:02:08Z</time>
      </trkpt>
      <trkpt lat="44.85725" lon="5.42276">
        <ele>1088.76</ele>
        <time>2019-08-25T14:02:09Z</time>
      </trkpt>
      <trkpt lat="44.85732" lon="5.42277">
        <ele>1088.43</ele>
        <time>2019-08-25T14:02:10Z</time>
      </trkpt>
      <trkpt lat="44.8574" lon="5.42276">
        <ele>1088.08</ele>
        <time>2019-08-25T14:02:11Z</time>
      </trkpt>
      <trkpt lat="44.85749" lon="5.42274">
        <ele>1087.74</ele>
        <time>2019-08-25T14:02:12Z</time>
      </trkpt>
      <trkpt lat="44.8576" lon="5.42272">
        <ele>1087.4</ele>
        <time>2019-08-25T14:02:13Z</time>
      </trkpt>
      <trkpt lat="44.8577" lon="5.4227">
        <ele>1087.05</ele>
        <time>2019-08-25T14:02:14Z</time>
      </trkpt>
      <trkpt lat="44.8578" lon="5.42266">
        <ele>1086.22</ele>
        <time>2019-08-25T14:02:15Z</time>
      </trkpt>
      <trkpt lat="44.85788" lon="5.42262">
        <ele>1085.71</ele>
        <time>2019-08-25T14:02:16Z</time>
      </trkpt>
      <trkpt lat="44.85796" lon="5.42257">
        <ele>1085.16</ele>
        <time>2019-08-25T14:02:17Z</time>
      </trkpt>
      <trkpt lat="44.8581" lon="5.4225">
        <ele>1084.06</ele>
        <time>2019-08-25T14:02:19Z</time>
      </trkpt>
      <trkpt lat="44.85816" lon="5.42247">
        <ele>1083.47</ele>
        <time>2019-08-25T14:02:20Z</time>
      </trkpt>
      <trkpt lat="44.85821" lon="5.42241">
        <ele>1082.86</ele>
        <time>2019-08-25T14:02:21Z</time>
      </trkpt>
      <trkpt lat="44.85826" lon="5.42237">
        <ele>1082.22</ele>
        <time>2019-08-25T14:02:22Z</time>
      </trkpt>
      <trkpt lat="44.8583" lon="5.42234">
        <ele>1081.56</ele>
        <time>2019-08-25T14:02:23Z</time>
      </trkpt>
      <trkpt lat="44.85833" lon="5.42233">
        <ele>1080.88</ele>
        <time>2019-08-25T14:02:24Z</time>
      </trkpt>
      <trkpt lat="44.85838" lon="5.42236">
        <ele>1080.19</ele>
        <time>2019-08-25T14:02:25Z</time>
      </trkpt>
      <trkpt lat="44.85842" lon="5.42238">
        <ele>1079.53</ele>
        <time>2019-08-25T14:02:26Z</time>
      </trkpt>
      <trkpt lat="44.85848" lon="5.4224">
        <ele>1078.94</ele>
        <time>2019-08-25T14:02:27Z</time>
      </trkpt>
      <trkpt lat="44.8585" lon="5.42241">
        <ele>1078.4</ele>
        <time>2019-08-25T14:02:28Z</time>
      </trkpt>
      <trkpt lat="44.85851" lon="5.42244">
        <ele>1077.91</ele>
        <time>2019-08-25T14:02:29Z</time>
      </trkpt>
      <trkpt lat="44.85851" lon="5.42246">
        <ele>1077.48</ele>
        <time>2019-08-25T14:02:30Z</time>
      </trkpt>
      <trkpt lat="44.85849" lon="5.42248">
        <ele>1077.08</ele>
        <time>2019-08-25T14:02:31Z</time>
      </trkpt>
      <trkpt lat="44.85847" lon="5.42251">
        <ele>1076.75</ele>
        <time>2019-08-25T14:02:32Z</time>
      </trkpt>
      <trkpt lat="44.85844" lon="5.42255">
        <ele>1076.46</ele>
        <time>2019-08-25T14:02:33Z</time>
      </trkpt>
      <trkpt lat="44.85841" lon="5.4226">
        <ele>1076.18</ele>
        <time>2019-08-25T14:02:34Z</time>
      </trkpt>
      <trkpt lat="44.85839" lon="5.42265">
        <ele>1075.88</ele>
        <time>2019-08-25T14:02:35Z</time>
      </trkpt>
      <trkpt lat="44.85836" lon="5.42271">
        <ele>1075.56</ele>
        <time>2019-08-25T14:02:36Z</time>
      </trkpt>
      <trkpt lat="44.85832" lon="5.42277">
        <ele>1075.25</ele>
        <time>2019-08-25T14:02:37Z</time>
      </trkpt>
      <trkpt lat="44.85827" lon="5.42282">
        <ele>1074.93</ele>
        <time>2019-08-25T14:02:38Z</time>
      </trkpt>
      <trkpt lat="44.85816" lon="5.42291">
        <ele>1074.62</ele>
        <time>2019-08-25T14:02:40Z</time>
      </trkpt>
      <trkpt lat="44.85811" lon="5.42295">
        <ele>1074.62</ele>
        <time>2019-08-25T14:02:41Z</time>
      </trkpt>
      <trkpt lat="44.85807" lon="5.42298">
        <ele>1074.33</ele>
        <time>2019-08-25T14:02:42Z</time>
      </trkpt>
      <trkpt lat="44.85805" lon="5.42302">
        <ele>1073.61</ele>
        <time>2019-08-25T14:02:43Z</time>
      </trkpt>
      <trkpt lat="44.85804" lon="5.42306">
        <ele>1073.06</ele>
        <time>2019-08-25T14:02:44Z</time>
      </trkpt>
      <trkpt lat="44.85804" lon="5.42311">
        <ele>1072.44</ele>
        <time>2019-08-25T14:02:45Z</time>
      </trkpt>
      <trkpt lat="44.85806" lon="5.42314">
        <ele>1071.79</ele>
        <time>2019-08-25T14:02:46Z</time>
      </trkpt>
      <trkpt lat="44.85808" lon="5.42316">
        <ele>1071.14</ele>
        <time>2019-08-25T14:02:47Z</time>
      </trkpt>
      <trkpt lat="44.85811" lon="5.42315">
        <ele>1070.52</ele>
        <time>2019-08-25T14:02:48Z</time>
      </trkpt>
      <trkpt lat="44.85813" lon="5.42312">
        <ele>1069.95</ele>
        <time>2019-08-25T14:02:49Z</time>
      </trkpt>
      <trkpt lat="44.85814" lon="5.42308">
        <ele>1069.39</ele>
        <time>2019-08-25T14:02:50Z</time>
      </trkpt>
      <trkpt lat="44.85815" lon="5.42305">
        <ele>1068.91</ele>
        <time>2019-08-25T14:02:51Z</time>
      </trkpt>
      <trkpt lat="44.85816" lon="5.42301">
        <ele>1068.49</ele>
        <time>2019-08-25T14:02:52Z</time>
      </trkpt>
      <trkpt lat="44.85819" lon="5.423">
        <ele>1068.1</ele>
        <time>2019-08-25T14:02:53Z</time>
      </trkpt>
      <trkpt lat="44.85842" lon="5.42288">
        <ele>1065.63</ele>
        <time>2019-08-25T14:02:59Z</time>
      </trkpt>
      <trkpt lat="44.85848" lon="5.42287">
        <ele>1065.13</ele>
        <time>2019-08-25T14:03:00Z</time>
      </trkpt>
      <trkpt lat="44.85853" lon="5.42286">
        <ele>1064.55</ele>
        <time>2019-08-25T14:03:01Z</time>
      </trkpt>
      <trkpt lat="44.85858" lon="5.42283">
        <ele>1063.9</ele>
        <time>2019-08-25T14:03:02Z</time>
      </trkpt>
      <trkpt lat="44.85862" lon="5.42279">
        <ele>1063.21</ele>
        <time>2019-08-25T14:03:03Z</time>
      </trkpt>
      <trkpt lat="44.85868" lon="5.42275">
        <ele>1062.53</ele>
        <time>2019-08-25T14:03:04Z</time>
      </trkpt>
      <trkpt lat="44.85888" lon="5.42253">
        <ele>1060.18</ele>
        <time>2019-08-25T14:03:08Z</time>
      </trkpt>
      <trkpt lat="44.8589" lon="5.42247">
        <ele>1058.89</ele>
        <time>2019-08-25T14:03:09Z</time>
      </trkpt>
      <trkpt lat="44.85892" lon="5.4224">
        <ele>1058.23</ele>
        <time>2019-08-25T14:03:10Z</time>
      </trkpt>
      <trkpt lat="44.85892" lon="5.42234">
        <ele>1058.23</ele>
        <time>2019-08-25T14:03:11Z</time>
      </trkpt>
      <trkpt lat="44.85897" lon="5.42229">
        <ele>1056.94</ele>
        <time>2019-08-25T14:03:12Z</time>
      </trkpt>
      <trkpt lat="44.859" lon="5.42223">
        <ele>1056.33</ele>
        <time>2019-08-25T14:03:13Z</time>
      </trkpt>
      <trkpt lat="44.85906" lon="5.42217">
        <ele>1055.79</ele>
        <time>2019-08-25T14:03:14Z</time>
      </trkpt>
      <trkpt lat="44.85911" lon="5.42211">
        <ele>1055.27</ele>
        <time>2019-08-25T14:03:15Z</time>
      </trkpt>
      <trkpt lat="44.85917" lon="5.42205">
        <ele>1054.73</ele>
        <time>2019-08-25T14:03:16Z</time>
      </trkpt>
      <trkpt lat="44.85922" lon="5.42199">
        <ele>1054.18</ele>
        <time>2019-08-25T14:03:17Z</time>
      </trkpt>
      <trkpt lat="44.85927" lon="5.42193">
        <ele>1053.63</ele>
        <time>2019-08-25T14:03:18Z</time>
      </trkpt>
      <trkpt lat="44.85934" lon="5.42188">
        <ele>1053.08</ele>
        <time>2019-08-25T14:03:19Z</time>
      </trkpt>
      <trkpt lat="44.85939" lon="5.42183">
        <ele>1052.53</ele>
        <time>2019-08-25T14:03:20Z</time>
      </trkpt>
      <trkpt lat="44.8596" lon="5.4216">
        <ele>1049.63</ele>
        <time>2019-08-25T14:03:24Z</time>
      </trkpt>
      <trkpt lat="44.85964" lon="5.42153">
        <ele>1048.9</ele>
        <time>2019-08-25T14:03:25Z</time>
      </trkpt>
      <trkpt lat="44.85973" lon="5.42135">
        <ele>1047.46</ele>
        <time>2019-08-25T14:03:27Z</time>
      </trkpt>
      <trkpt lat="44.85978" lon="5.42125">
        <ele>1046.74</ele>
        <time>2019-08-25T14:03:28Z</time>
      </trkpt>
      <trkpt lat="44.8598" lon="5.42116">
        <ele>1046.11</ele>
        <time>2019-08-25T14:03:29Z</time>
      </trkpt>
      <trkpt lat="44.85995" lon="5.42083">
        <ele>1044.21</ele>
        <time>2019-08-25T14:03:33Z</time>
      </trkpt>
      <trkpt lat="44.85999" lon="5.42078">
        <ele>1043.74</ele>
        <time>2019-08-25T14:03:34Z</time>
      </trkpt>
      <trkpt lat="44.86004" lon="5.42073">
        <ele>1043.32</ele>
        <time>2019-08-25T14:03:35Z</time>
      </trkpt>
      <trkpt lat="44.86008" lon="5.42069">
        <ele>1042.93</ele>
        <time>2019-08-25T14:03:36Z</time>
      </trkpt>
      <trkpt lat="44.86012" lon="5.42066">
        <ele>1042.58</ele>
        <time>2019-08-25T14:03:37Z</time>
      </trkpt>
      <trkpt lat="44.86016" lon="5.42064">
        <ele>1042.26</ele>
        <time>2019-08-25T14:03:38Z</time>
      </trkpt>
      <trkpt lat="44.86022" lon="5.42062">
        <ele>1041.73</ele>
        <time>2019-08-25T14:03:39Z</time>
      </trkpt>
      <trkpt lat="44.86026" lon="5.42063">
        <ele>1041.73</ele>
        <time>2019-08-25T14:03:40Z</time>
      </trkpt>
      <trkpt lat="44.86031" lon="5.42065">
        <ele>1041.18</ele>
        <time>2019-08-25T14:03:41Z</time>
      </trkpt>
      <trkpt lat="44.86038" lon="5.42066">
        <ele>1041.18</ele>
        <time>2019-08-25T14:03:42Z</time>
      </trkpt>
      <trkpt lat="44.86045" lon="5.42067">
        <ele>1040.73</ele>
        <time>2019-08-25T14:03:43Z</time>
      </trkpt>
      <trkpt lat="44.86051" lon="5.42067">
        <ele>1040.51</ele>
        <time>2019-08-25T14:03:44Z</time>
      </trkpt>
      <trkpt lat="44.86055" lon="5.42066">
        <ele>1040.28</ele>
        <time>2019-08-25T14:03:45Z</time>
      </trkpt>
      <trkpt lat="44.8606" lon="5.42066">
        <ele>1040.03</ele>
        <time>2019-08-25T14:03:46Z</time>
      </trkpt>
      <trkpt lat="44.86063" lon="5.42064">
        <ele>1039.73</ele>
        <time>2019-08-25T14:03:47Z</time>
      </trkpt>
      <trkpt lat="44.86065" lon="5.42062">
        <ele>1039.4</ele>
        <time>2019-08-25T14:03:48Z</time>
      </trkpt>
      <trkpt lat="44.86068" lon="5.42061">
        <ele>1039.06</ele>
        <time>2019-08-25T14:03:49Z</time>
      </trkpt>
      <trkpt lat="44.86073" lon="5.42057">
        <ele>1038.02</ele>
        <time>2019-08-25T14:03:53Z</time>
      </trkpt>
      <trkpt lat="44.86071" lon="5.42039">
        <ele>1036.36</ele>
        <time>2019-08-25T14:04:12Z</time>
      </trkpt>
      <trkpt lat="44.86066" lon="5.42044">
        <ele>1036.03</ele>
        <time>2019-08-25T14:04:22Z</time>
      </trkpt>
      <trkpt lat="44.86066" lon="5.42053">
        <ele>1035.65</ele>
        <time>2019-08-25T14:04:50Z</time>
      </trkpt>
      <trkpt lat="44.86078" lon="5.42052">
        <ele>1035.34</ele>
        <time>2019-08-25T14:05:18Z</time>
      </trkpt>
      <trkpt lat="44.8608" lon="5.42048">
        <ele>1035.79</ele>
        <time>2019-08-25T14:05:47Z</time>
      </trkpt>
      <trkpt lat="44.86078" lon="5.42041">
        <ele>1035.88</ele>
        <time>2019-08-25T14:06:10Z</time>
      </trkpt>
      <trkpt lat="44.86072" lon="5.42041">
        <ele>1035.82</ele>
        <time>2019-08-25T14:06:30Z</time>
      </trkpt>
      <trkpt lat="44.8607" lon="5.42034">
        <ele>1035.83</ele>
        <time>2019-08-25T14:06:32Z</time>
      </trkpt>
      <trkpt lat="44.8607" lon="5.42031">
        <ele>1035.84</ele>
        <time>2019-08-25T14:06:33Z</time>
      </trkpt>
      <trkpt lat="44.8607" lon="5.42027">
        <ele>1035.84</ele>
        <time>2019-08-25T14:06:34Z</time>
      </trkpt>
      <trkpt lat="44.86072" lon="5.42022">
        <ele>1035.84</ele>
        <time>2019-08-25T14:06:35Z</time>
      </trkpt>
      <trkpt lat="44.86075" lon="5.42017">
        <ele>1035.83</ele>
        <time>2019-08-25T14:06:36Z</time>
      </trkpt>
      <trkpt lat="44.86078" lon="5.42013">
        <ele>1035.79</ele>
        <time>2019-08-25T14:06:37Z</time>
      </trkpt>
      <trkpt lat="44.86081" lon="5.42009">
        <ele>1035.69</ele>
        <time>2019-08-25T14:06:38Z</time>
      </trkpt>
      <trkpt lat="44.86114" lon="5.41983">
        <ele>1034.76</ele>
        <time>2019-08-25T14:06:45Z</time>
      </trkpt>
      <trkpt lat="44.8612" lon="5.41981">
        <ele>1034.61</ele>
        <time>2019-08-25T14:06:46Z</time>
      </trkpt>
      <trkpt lat="44.86127" lon="5.4198">
        <ele>1034.42</ele>
        <time>2019-08-25T14:06:47Z</time>
      </trkpt>
      <trkpt lat="44.86156" lon="5.41974">
        <ele>1033.79</ele>
        <time>2019-08-25T14:06:51Z</time>
      </trkpt>
      <trkpt lat="44.86162" lon="5.4197">
        <ele>1033.65</ele>
        <time>2019-08-25T14:06:52Z</time>
      </trkpt>
      <trkpt lat="44.86168" lon="5.41965">
        <ele>1033.51</ele>
        <time>2019-08-25T14:06:53Z</time>
      </trkpt>
      <trkpt lat="44.86173" lon="5.41959">
        <ele>1033.35</ele>
        <time>2019-08-25T14:06:54Z</time>
      </trkpt>
      <trkpt lat="44.86179" lon="5.41952">
        <ele>1033.16</ele>
        <time>2019-08-25T14:06:55Z</time>
      </trkpt>
      <trkpt lat="44.86208" lon="5.41917">
        <ele>1032.1</ele>
        <time>2019-08-25T14:07:00Z</time>
      </trkpt>
      <trkpt lat="44.86215" lon="5.41912">
        <ele>1031.86</ele>
        <time>2019-08-25T14:07:01Z</time>
      </trkpt>
      <trkpt lat="44.86222" lon="5.41907">
        <ele>1031.54</ele>
        <time>2019-08-25T14:07:02Z</time>
      </trkpt>
      <trkpt lat="44.86229" lon="5.41904">
        <ele>1031.19</ele>
        <time>2019-08-25T14:07:03Z</time>
      </trkpt>
      <trkpt lat="44.86235" lon="5.41901">
        <ele>1030.84</ele>
        <time>2019-08-25T14:07:04Z</time>
      </trkpt>
      <trkpt lat="44.86277" lon="5.41876">
        <ele>1027.73</ele>
        <time>2019-08-25T14:07:11Z</time>
      </trkpt>
      <trkpt lat="44.86283" lon="5.41872">
        <ele>1027.26</ele>
        <time>2019-08-25T14:07:12Z</time>
      </trkpt>
      <trkpt lat="44.86309" lon="5.41858">
        <ele>1024.93</ele>
        <time>2019-08-25T14:07:17Z</time>
      </trkpt>
      <trkpt lat="44.86314" lon="5.41854">
        <ele>1024.42</ele>
        <time>2019-08-25T14:07:18Z</time>
      </trkpt>
      <trkpt lat="44.86318" lon="5.41849">
        <ele>1023.91</ele>
        <time>2019-08-25T14:07:19Z</time>
      </trkpt>
      <trkpt lat="44.86344" lon="5.41808">
        <ele>1020.68</ele>
        <time>2019-08-25T14:07:26Z</time>
      </trkpt>
      <trkpt lat="44.86353" lon="5.41792">
        <ele>1018.84</ele>
        <time>2019-08-25T14:07:29Z</time>
      </trkpt>
      <trkpt lat="44.86356" lon="5.41786">
        <ele>1018.13</ele>
        <time>2019-08-25T14:07:30Z</time>
      </trkpt>
      <trkpt lat="44.86357" lon="5.4178">
        <ele>1016.72</ele>
        <time>2019-08-25T14:07:31Z</time>
      </trkpt>
      <trkpt lat="44.86357" lon="5.41774">
        <ele>1016.14</ele>
        <time>2019-08-25T14:07:32Z</time>
      </trkpt>
      <trkpt lat="44.86357" lon="5.41766">
        <ele>1015.64</ele>
        <time>2019-08-25T14:07:33Z</time>
      </trkpt>
      <trkpt lat="44.86355" lon="5.41758">
        <ele>1015.17</ele>
        <time>2019-08-25T14:07:34Z</time>
      </trkpt>
      <trkpt lat="44.86352" lon="5.4175">
        <ele>1014.7</ele>
        <time>2019-08-25T14:07:35Z</time>
      </trkpt>
      <trkpt lat="44.86347" lon="5.41728">
        <ele>1013.21</ele>
        <time>2019-08-25T14:07:38Z</time>
      </trkpt>
      <trkpt lat="44.86346" lon="5.41723">
        <ele>1012.65</ele>
        <time>2019-08-25T14:07:39Z</time>
      </trkpt>
      <trkpt lat="44.86347" lon="5.41717">
        <ele>1012.01</ele>
        <time>2019-08-25T14:07:40Z</time>
      </trkpt>
      <trkpt lat="44.86348" lon="5.41711">
        <ele>1011.36</ele>
        <time>2019-08-25T14:07:41Z</time>
      </trkpt>
      <trkpt lat="44.8635" lon="5.41706">
        <ele>1010.73</ele>
        <time>2019-08-25T14:07:42Z</time>
      </trkpt>
      <trkpt lat="44.86352" lon="5.41703">
        <ele>1010.17</ele>
        <time>2019-08-25T14:07:43Z</time>
      </trkpt>
      <trkpt lat="44.86356" lon="5.417">
        <ele>1009.63</ele>
        <time>2019-08-25T14:07:44Z</time>
      </trkpt>
      <trkpt lat="44.86359" lon="5.41698">
        <ele>1009.09</ele>
        <time>2019-08-25T14:07:45Z</time>
      </trkpt>
      <trkpt lat="44.86363" lon="5.41696">
        <ele>1008.53</ele>
        <time>2019-08-25T14:07:46Z</time>
      </trkpt>
      <trkpt lat="44.86386" lon="5.41689">
        <ele>1005.14</ele>
        <time>2019-08-25T14:07:52Z</time>
      </trkpt>
      <trkpt lat="44.86406" lon="5.41693">
        <ele>1001.97</ele>
        <time>2019-08-25T14:07:57Z</time>
      </trkpt>
      <trkpt lat="44.86409" lon="5.41696">
        <ele>1001.46</ele>
        <time>2019-08-25T14:07:58Z</time>
      </trkpt>
      <trkpt lat="44.86411" lon="5.41701">
        <ele>1000.97</ele>
        <time>2019-08-25T14:07:59Z</time>
      </trkpt>
      <trkpt lat="44.86413" lon="5.41705">
        <ele>1000.5</ele>
        <time>2019-08-25T14:08:00Z</time>
      </trkpt>
      <trkpt lat="44.86414" lon="5.4171">
        <ele>999.99</ele>
        <time>2019-08-25T14:08:01Z</time>
      </trkpt>
      <trkpt lat="44.86414" lon="5.41715">
        <ele>999.5</ele>
        <time>2019-08-25T14:08:02Z</time>
      </trkpt>
      <trkpt lat="44.86414" lon="5.4172">
        <ele>999.04</ele>
        <time>2019-08-25T14:08:03Z</time>
      </trkpt>
      <trkpt lat="44.86415" lon="5.41725">
        <ele>998.59</ele>
        <time>2019-08-25T14:08:04Z</time>
      </trkpt>
      <trkpt lat="44.86417" lon="5.41728">
        <ele>998.14</ele>
        <time>2019-08-25T14:08:05Z</time>
      </trkpt>
      <trkpt lat="44.86419" lon="5.41732">
        <ele>997.68</ele>
        <time>2019-08-25T14:08:06Z</time>
      </trkpt>
      <trkpt lat="44.86451" lon="5.41744">
        <ele>994.58</ele>
        <time>2019-08-25T14:08:15Z</time>
      </trkpt>
      <trkpt lat="44.86485" lon="5.4173">
        <ele>991.23</ele>
        <time>2019-08-25T14:08:23Z</time>
      </trkpt>
      <trkpt lat="44.86515" lon="5.41719">
        <ele>988.29</ele>
        <time>2019-08-25T14:08:30Z</time>
      </trkpt>
      <trkpt lat="44.8652" lon="5.41716">
        <ele>987.79</ele>
        <time>2019-08-25T14:08:31Z</time>
      </trkpt>
      <trkpt lat="44.86544" lon="5.41701">
        <ele>986</ele>
        <time>2019-08-25T14:08:35Z</time>
      </trkpt>
      <trkpt lat="44.86556" lon="5.4169">
        <ele>985.05</ele>
        <time>2019-08-25T14:08:37Z</time>
      </trkpt>
      <trkpt lat="44.86561" lon="5.41683">
        <ele>984.6</ele>
        <time>2019-08-25T14:08:38Z</time>
      </trkpt>
      <trkpt lat="44.86569" lon="5.41668">
        <ele>983.81</ele>
        <time>2019-08-25T14:08:40Z</time>
      </trkpt>
      <trkpt lat="44.86571" lon="5.41661">
        <ele>983.44</ele>
        <time>2019-08-25T14:08:41Z</time>
      </trkpt>
      <trkpt lat="44.86573" lon="5.41654">
        <ele>983.05</ele>
        <time>2019-08-25T14:08:42Z</time>
      </trkpt>
      <trkpt lat="44.86573" lon="5.41647">
        <ele>982.57</ele>
        <time>2019-08-25T14:08:43Z</time>
      </trkpt>
      <trkpt lat="44.86573" lon="5.4164">
        <ele>982.01</ele>
        <time>2019-08-25T14:08:44Z</time>
      </trkpt>
      <trkpt lat="44.8657" lon="5.41633">
        <ele>980.79</ele>
        <time>2019-08-25T14:08:45Z</time>
      </trkpt>
      <trkpt lat="44.86567" lon="5.41624">
        <ele>980.18</ele>
        <time>2019-08-25T14:08:46Z</time>
      </trkpt>
      <trkpt lat="44.86564" lon="5.41616">
        <ele>979.61</ele>
        <time>2019-08-25T14:08:47Z</time>
      </trkpt>
      <trkpt lat="44.86553" lon="5.41574">
        <ele>976.52</ele>
        <time>2019-08-25T14:08:53Z</time>
      </trkpt>
      <trkpt lat="44.86555" lon="5.41571">
        <ele>976.06</ele>
        <time>2019-08-25T14:08:54Z</time>
      </trkpt>
      <trkpt lat="44.86558" lon="5.41569">
        <ele>975.6</ele>
        <time>2019-08-25T14:08:55Z</time>
      </trkpt>
      <trkpt lat="44.86562" lon="5.41569">
        <ele>975.16</ele>
        <time>2019-08-25T14:08:56Z</time>
      </trkpt>
      <trkpt lat="44.86567" lon="5.41569">
        <ele>974.75</ele>
        <time>2019-08-25T14:08:57Z</time>
      </trkpt>
      <trkpt lat="44.86572" lon="5.41569">
        <ele>974.4</ele>
        <time>2019-08-25T14:08:58Z</time>
      </trkpt>
      <trkpt lat="44.86578" lon="5.41569">
        <ele>974.05</ele>
        <time>2019-08-25T14:08:59Z</time>
      </trkpt>
      <trkpt lat="44.86644" lon="5.41569">
        <ele>970.42</ele>
        <time>2019-08-25T14:09:09Z</time>
      </trkpt>
      <trkpt lat="44.86651" lon="5.41569">
        <ele>970.42</ele>
        <time>2019-08-25T14:09:10Z</time>
      </trkpt>
      <trkpt lat="44.86718" lon="5.41569">
        <ele>967.85</ele>
        <time>2019-08-25T14:09:19Z</time>
      </trkpt>
      <trkpt lat="44.86726" lon="5.41567">
        <ele>967.52</ele>
        <time>2019-08-25T14:09:20Z</time>
      </trkpt>
      <trkpt lat="44.86808" lon="5.41549">
        <ele>964.34</ele>
        <time>2019-08-25T14:09:30Z</time>
      </trkpt>
      <trkpt lat="44.86831" lon="5.41545">
        <ele>962.11</ele>
        <time>2019-08-25T14:09:34Z</time>
      </trkpt>
      <trkpt lat="44.86849" lon="5.41535">
        <ele>958.83</ele>
        <time>2019-08-25T14:09:40Z</time>
      </trkpt>
      <trkpt lat="44.86865" lon="5.41537">
        <ele>957.73</ele>
        <time>2019-08-25T14:09:44Z</time>
      </trkpt>
      <trkpt lat="44.86871" lon="5.41539">
        <ele>957.44</ele>
        <time>2019-08-25T14:09:45Z</time>
      </trkpt>
      <trkpt lat="44.86877" lon="5.41542">
        <ele>957.11</ele>
        <time>2019-08-25T14:09:46Z</time>
      </trkpt>
      <trkpt lat="44.86882" lon="5.41542">
        <ele>956.75</ele>
        <time>2019-08-25T14:09:47Z</time>
      </trkpt>
      <trkpt lat="44.86886" lon="5.41542">
        <ele>956.29</ele>
        <time>2019-08-25T14:09:48Z</time>
      </trkpt>
      <trkpt lat="44.86891" lon="5.4154">
        <ele>955.69</ele>
        <time>2019-08-25T14:09:49Z</time>
      </trkpt>
      <trkpt lat="44.86896" lon="5.41538">
        <ele>955.04</ele>
        <time>2019-08-25T14:09:50Z</time>
      </trkpt>
      <trkpt lat="44.869" lon="5.41537">
        <ele>954.44</ele>
        <time>2019-08-25T14:09:51Z</time>
      </trkpt>
      <trkpt lat="44.86904" lon="5.41537">
        <ele>953.93</ele>
        <time>2019-08-25T14:09:52Z</time>
      </trkpt>
      <trkpt lat="44.86908" lon="5.41538">
        <ele>953.52</ele>
        <time>2019-08-25T14:09:53Z</time>
      </trkpt>
      <trkpt lat="44.86911" lon="5.41541">
        <ele>953.17</ele>
        <time>2019-08-25T14:09:54Z</time>
      </trkpt>
      <trkpt lat="44.86914" lon="5.41543">
        <ele>952.9</ele>
        <time>2019-08-25T14:09:55Z</time>
      </trkpt>
      <trkpt lat="44.8693" lon="5.41557">
        <ele>952.2</ele>
        <time>2019-08-25T14:10:00Z</time>
      </trkpt>
      <trkpt lat="44.86948" lon="5.41577">
        <ele>951.39</ele>
        <time>2019-08-25T14:10:05Z</time>
      </trkpt>
      <trkpt lat="44.86952" lon="5.41582">
        <ele>951.17</ele>
        <time>2019-08-25T14:10:06Z</time>
      </trkpt>
      <trkpt lat="44.86956" lon="5.41586">
        <ele>950.91</ele>
        <time>2019-08-25T14:10:07Z</time>
      </trkpt>
      <trkpt lat="44.86973" lon="5.41614">
        <ele>948.28</ele>
        <time>2019-08-25T14:10:17Z</time>
      </trkpt>
      <trkpt lat="44.86976" lon="5.41617">
        <ele>946.87</ele>
        <time>2019-08-25T14:10:36Z</time>
      </trkpt>
      <trkpt lat="44.86976" lon="5.4162">
        <ele>946.69</ele>
        <time>2019-08-25T14:10:58Z</time>
      </trkpt>
      <trkpt lat="44.86975" lon="5.41622">
        <ele>950.79</ele>
        <time>2019-08-25T14:11:09Z</time>
      </trkpt>
    </trkseg>
  </trk>
</gpx>